<?xml version='1.0' encoding='UTF-8'?><gpx version="1.1" creator="JPX - https://github.com/jenetics/jpx" xmlns="http://www.topografix.com/GPX/1/1"><trk><trkseg><trkpt lat="43.961690931384226" lon="12.690000504545116"><ele>23.0</ele><time>2026-05-02T12:53:46.999Z</time></trkpt><trkpt lat="43.961629978789574" lon="12.689892449867626"><ele>23.0</ele><time>2026-05-02T12:53:48.999Z</time></trkpt><trkpt lat="43.96156993921405" lon="12.689796613177705"><ele>23.0</ele><time>2026-05-02T12:53:50.999Z</time></trkpt><trkpt lat="43.961509140965134" lon="12.689681505479834"><ele>23.0</ele><time>2026-05-02T12:53:53.999Z</time></trkpt><trkpt lat="43.961492717778896" lon="12.689549848043395"><ele>23.0</ele><time>2026-05-02T12:53:55.999Z</time></trkpt><trkpt lat="43.9614967234848" lon="12.68940171368188"><ele>23.0</ele><time>2026-05-02T12:53:57.999Z</time></trkpt><trkpt lat="43.96155592328992" lon="12.689334905299585"><ele>23.0</ele><time>2026-05-02T12:53:58.999Z</time></trkpt><trkpt lat="43.96160482237578" lon="12.689210823544746"><ele>23.0</ele><time>2026-05-02T12:54:00.999Z</time></trkpt><trkpt lat="43.96166873869369" lon="12.689103452765563"><ele>23.0</ele><time>2026-05-02T12:54:02.999Z</time></trkpt><trkpt lat="43.96173591055683" lon="12.68900719290237"><ele>23.0</ele><time>2026-05-02T12:54:04.999Z</time></trkpt><trkpt lat="43.96178424803817" lon="12.68892655658734"><ele>23.0</ele><time>2026-05-02T12:54:06.999Z</time></trkpt><trkpt lat="43.961834714546676" lon="12.688873711911985"><ele>23.0</ele><time>2026-05-02T12:54:08.999Z</time></trkpt><trkpt lat="43.96165839001525" lon="12.688772384009207"><ele>23.0</ele><time>2026-05-02T12:54:14.999Z</time></trkpt><trkpt lat="43.96159955291187" lon="12.688834498198963"><ele>23.0</ele><time>2026-05-02T12:54:15.999Z</time></trkpt><trkpt lat="43.96151085484084" lon="12.688924320710932"><ele>23.0</ele><time>2026-05-02T12:54:17.999Z</time></trkpt><trkpt lat="43.96142212554559" lon="12.689006566587981"><ele>23.0</ele><time>2026-05-02T12:54:19.999Z</time></trkpt><trkpt lat="43.961368898499764" lon="12.689066949744358"><ele>23.0</ele><time>2026-05-02T12:54:21.999Z</time></trkpt><trkpt lat="43.961283145931745" lon="12.689153750002989"><ele>23.0</ele><time>2026-05-02T12:54:24.999Z</time></trkpt><trkpt lat="43.96118345573568" lon="12.689238083720962"><ele>23.0</ele><time>2026-05-02T12:54:26.999Z</time></trkpt><trkpt lat="43.96109218605857" lon="12.689309304839318"><ele>23.0</ele><time>2026-05-02T12:54:28.999Z</time></trkpt><trkpt lat="43.961026600694055" lon="12.689358481227481"><ele>23.0</ele><time>2026-05-02T12:54:30.999Z</time></trkpt><trkpt lat="43.9609583847521" lon="12.689356981078074"><ele>23.0</ele><time>2026-05-02T12:54:32.999Z</time></trkpt><trkpt lat="43.960874856151" lon="12.689255729064962"><ele>23.0</ele><time>2026-05-02T12:54:34.999Z</time></trkpt><trkpt lat="43.96082236607975" lon="12.689173167645684"><ele>23.0</ele><time>2026-05-02T12:54:35.999Z</time></trkpt><trkpt lat="43.960760413467376" lon="12.68909778482197"><ele>23.0</ele><time>2026-05-02T12:54:36.999Z</time></trkpt><trkpt lat="43.96069687964092" lon="12.689020867387024"><ele>23.0</ele><time>2026-05-02T12:54:37.999Z</time></trkpt><trkpt lat="43.96062540340245" lon="12.688938472192625"><ele>23.333333333333336</ele><time>2026-05-02T12:54:38.999Z</time></trkpt><trkpt lat="43.96055779858596" lon="12.688854441174364"><ele>23.666666666666668</ele><time>2026-05-02T12:54:39.999Z</time></trkpt><trkpt lat="43.9604907244969" lon="12.688769605846987"><ele>24.0</ele><time>2026-05-02T12:54:40.999Z</time></trkpt><trkpt lat="43.960430978118474" lon="12.688688345375473"><ele>24.333333333333336</ele><time>2026-05-02T12:54:41.999Z</time></trkpt><trkpt lat="43.96037513473389" lon="12.688609172605357"><ele>24.666666666666668</ele><time>2026-05-02T12:54:42.999Z</time></trkpt><trkpt lat="43.96032252702197" lon="12.688532526914386"><ele>25.0</ele><time>2026-05-02T12:54:43.999Z</time></trkpt><trkpt lat="43.96027732258998" lon="12.688452843892957"><ele>25.2</ele><time>2026-05-02T12:54:44.999Z</time></trkpt><trkpt lat="43.96024204738932" lon="12.688373111946433"><ele>25.4</ele><time>2026-05-02T12:54:45.999Z</time></trkpt><trkpt lat="43.960202784470546" lon="12.688215871390371"><ele>25.6</ele><time>2026-05-02T12:54:47.999Z</time></trkpt><trkpt lat="43.96015199707567" lon="12.688054713532292"><ele>25.8</ele><time>2026-05-02T12:54:49.999Z</time></trkpt><trkpt lat="43.960100266455434" lon="12.687981807082975"><ele>26.0</ele><time>2026-05-02T12:54:50.999Z</time></trkpt><trkpt lat="43.960020673375986" lon="12.687971739945903"><ele>26.0</ele><time>2026-05-02T12:54:51.999Z</time></trkpt><trkpt lat="43.95995062165724" lon="12.687951813716811"><ele>26.0</ele><time>2026-05-02T12:54:52.999Z</time></trkpt><trkpt lat="43.95988274477908" lon="12.687933937049262"><ele>26.0</ele><time>2026-05-02T12:54:53.999Z</time></trkpt><trkpt lat="43.95981912517446" lon="12.687893817796885"><ele>26.0</ele><time>2026-05-02T12:54:54.999Z</time></trkpt><trkpt lat="43.95975972758509" lon="12.687844251771525"><ele>26.0</ele><time>2026-05-02T12:54:55.999Z</time></trkpt><trkpt lat="43.95970281684068" lon="12.687786352928653"><ele>26.0</ele><time>2026-05-02T12:54:56.999Z</time></trkpt><trkpt lat="43.95964401864457" lon="12.687725833945256"><ele>26.0</ele><time>2026-05-02T12:54:57.999Z</time></trkpt><trkpt lat="43.95959240962153" lon="12.687662350955296"><ele>25.833333333333332</ele><time>2026-05-02T12:54:58.999Z</time></trkpt><trkpt lat="43.95953563286609" lon="12.687591762168758"><ele>25.666666666666664</ele><time>2026-05-02T12:54:59.999Z</time></trkpt><trkpt lat="43.95947125250616" lon="12.68751605432755"><ele>25.5</ele><time>2026-05-02T12:55:00.999Z</time></trkpt><trkpt lat="43.9594102829855" lon="12.68743212005088"><ele>25.333333333333336</ele><time>2026-05-02T12:55:01.999Z</time></trkpt><trkpt lat="43.95934013018347" lon="12.687347592714847"><ele>25.166666666666668</ele><time>2026-05-02T12:55:02.999Z</time></trkpt><trkpt lat="43.95927184343123" lon="12.687261374484207"><ele>25.0</ele><time>2026-05-02T12:55:03.999Z</time></trkpt><trkpt lat="43.95919895955756" lon="12.687171797221664"><ele>25.000000000000004</ele><time>2026-05-02T12:55:04.999Z</time></trkpt><trkpt lat="43.95912658848667" lon="12.687083837180355"><ele>25.0</ele><time>2026-05-02T12:55:05.999Z</time></trkpt><trkpt lat="43.9590548311225" lon="12.686993975096476"><ele>25.0</ele><time>2026-05-02T12:55:06.999Z</time></trkpt><trkpt lat="43.958991938893135" lon="12.686916584054186"><ele>25.0</ele><time>2026-05-02T12:55:07.999Z</time></trkpt><trkpt lat="43.95893091104777" lon="12.686837927454645"><ele>25.000000000000004</ele><time>2026-05-02T12:55:08.999Z</time></trkpt><trkpt lat="43.95886478207014" lon="12.686755668471383"><ele>25.0</ele><time>2026-05-02T12:55:09.999Z</time></trkpt><trkpt lat="43.95879581438898" lon="12.68667051942465"><ele>25.0</ele><time>2026-05-02T12:55:10.999Z</time></trkpt><trkpt lat="43.958726982304306" lon="12.686584070465825"><ele>25.0</ele><time>2026-05-02T12:55:11.999Z</time></trkpt><trkpt lat="43.95865822507161" lon="12.686503075562257"><ele>25.0</ele><time>2026-05-02T12:55:12.999Z</time></trkpt><trkpt lat="43.95859063089183" lon="12.686420873556946"><ele>25.0</ele><time>2026-05-02T12:55:13.999Z</time></trkpt><trkpt lat="43.958513447400975" lon="12.68633077330941"><ele>25.0</ele><time>2026-05-02T12:55:14.999Z</time></trkpt><trkpt lat="43.95843196259263" lon="12.686231264863045"><ele>25.2</ele><time>2026-05-02T12:55:15.999Z</time></trkpt><trkpt lat="43.95834816902303" lon="12.6861288540033"><ele>25.4</ele><time>2026-05-02T12:55:16.999Z</time></trkpt><trkpt lat="43.95826976105788" lon="12.68603273535305"><ele>25.6</ele><time>2026-05-02T12:55:17.999Z</time></trkpt><trkpt lat="43.958193486306975" lon="12.685942126511732"><ele>25.8</ele><time>2026-05-02T12:55:18.999Z</time></trkpt><trkpt lat="43.958118822623845" lon="12.685847009637422"><ele>26.0</ele><time>2026-05-02T12:55:19.999Z</time></trkpt><trkpt lat="43.95804354105113" lon="12.685756797031663"><ele>26.0</ele><time>2026-05-02T12:55:20.999Z</time></trkpt><trkpt lat="43.957968517854695" lon="12.685665996056771"><ele>26.0</ele><time>2026-05-02T12:55:21.999Z</time></trkpt><trkpt lat="43.95789389702538" lon="12.68557353361886"><ele>26.0</ele><time>2026-05-02T12:55:22.999Z</time></trkpt><trkpt lat="43.957818602865466" lon="12.685481425756127"><ele>26.0</ele><time>2026-05-02T12:55:23.999Z</time></trkpt><trkpt lat="43.95774732298191" lon="12.685393303936515"><ele>26.0</ele><time>2026-05-02T12:55:24.999Z</time></trkpt><trkpt lat="43.957670333497354" lon="12.68530437558017"><ele>26.0</ele><time>2026-05-02T12:55:25.999Z</time></trkpt><trkpt lat="43.95759360898513" lon="12.685215173999985"><ele>26.0</ele><time>2026-05-02T12:55:26.999Z</time></trkpt><trkpt lat="43.95751941067993" lon="12.685123794471338"><ele>26.0</ele><time>2026-05-02T12:55:27.999Z</time></trkpt><trkpt lat="43.9574480481549" lon="12.685033539007055"><ele>26.0</ele><time>2026-05-02T12:55:28.999Z</time></trkpt><trkpt lat="43.957372349104666" lon="12.684940505567491"><ele>26.0</ele><time>2026-05-02T12:55:29.999Z</time></trkpt><trkpt lat="43.957299011984915" lon="12.684849971600459"><ele>26.5</ele><time>2026-05-02T12:55:30.999Z</time></trkpt><trkpt lat="43.95722144965465" lon="12.684760095454537"><ele>27.0</ele><time>2026-05-02T12:55:31.999Z</time></trkpt><trkpt lat="43.95713598938707" lon="12.684656023120501"><ele>27.5</ele><time>2026-05-02T12:55:32.999Z</time></trkpt><trkpt lat="43.95704500948324" lon="12.684546966778646"><ele>28.0</ele><time>2026-05-02T12:55:33.999Z</time></trkpt><trkpt lat="43.9569493001537" lon="12.68443121236769"><ele>28.0</ele><time>2026-05-02T12:55:34.999Z</time></trkpt><trkpt lat="43.956846999904144" lon="12.684311758395301"><ele>28.0</ele><time>2026-05-02T12:55:35.999Z</time></trkpt><trkpt lat="43.95674607708786" lon="12.684183809209998"><ele>28.0</ele><time>2026-05-02T12:55:36.999Z</time></trkpt><trkpt lat="43.956643188597006" lon="12.684058324772886"><ele>28.0</ele><time>2026-05-02T12:55:37.999Z</time></trkpt><trkpt lat="43.956544119202015" lon="12.683935263097691"><ele>28.2</ele><time>2026-05-02T12:55:38.999Z</time></trkpt><trkpt lat="43.95645472362353" lon="12.683822798350175"><ele>28.4</ele><time>2026-05-02T12:55:39.999Z</time></trkpt><trkpt lat="43.95637705280743" lon="12.683727092472878"><ele>28.599999999999998</ele><time>2026-05-02T12:55:40.999Z</time></trkpt><trkpt lat="43.956300636150345" lon="12.683636221398597"><ele>28.799999999999997</ele><time>2026-05-02T12:55:41.999Z</time></trkpt><trkpt lat="43.9562340934839" lon="12.683549268321256"><ele>29.0</ele><time>2026-05-02T12:55:42.999Z</time></trkpt><trkpt lat="43.95618086129598" lon="12.683458608653838"><ele>29.000000000000004</ele><time>2026-05-02T12:55:43.999Z</time></trkpt><trkpt lat="43.956140087065386" lon="12.683370962919895"><ele>29.0</ele><time>2026-05-02T12:55:44.999Z</time></trkpt><trkpt lat="43.956116374386795" lon="12.68327636026911"><ele>29.000000000000004</ele><time>2026-05-02T12:55:45.999Z</time></trkpt><trkpt lat="43.95609341328417" lon="12.683184966551377"><ele>29.000000000000004</ele><time>2026-05-02T12:55:46.999Z</time></trkpt><trkpt lat="43.95607416865571" lon="12.683098115290324"><ele>29.0</ele><time>2026-05-02T12:55:47.999Z</time></trkpt><trkpt lat="43.95599769731551" lon="12.683064286692867"><ele>29.000000000000004</ele><time>2026-05-02T12:55:48.998Z</time></trkpt><trkpt lat="43.955927337995575" lon="12.683040113812568"><ele>29.000000000000004</ele><time>2026-05-02T12:55:49.998Z</time></trkpt><trkpt lat="43.95582973098428" lon="12.683016248103316"><ele>29.0</ele><time>2026-05-02T12:55:50.998Z</time></trkpt><trkpt lat="43.95574662494558" lon="12.682961972291103"><ele>29.0</ele><time>2026-05-02T12:55:51.998Z</time></trkpt><trkpt lat="43.95567970197303" lon="12.682842987017773"><ele>29.0</ele><time>2026-05-02T12:55:52.998Z</time></trkpt><trkpt lat="43.95558260817388" lon="12.682757280976157"><ele>29.0</ele><time>2026-05-02T12:55:53.998Z</time></trkpt><trkpt lat="43.95549220524698" lon="12.682648981577959"><ele>29.0</ele><time>2026-05-02T12:55:54.998Z</time></trkpt><trkpt lat="43.95539842152353" lon="12.682528190364941"><ele>29.0</ele><time>2026-05-02T12:55:55.998Z</time></trkpt><trkpt lat="43.9552998168889" lon="12.682406800786366"><ele>29.0</ele><time>2026-05-02T12:55:56.998Z</time></trkpt><trkpt lat="43.9551963125388" lon="12.682285499621749"><ele>29.0</ele><time>2026-05-02T12:55:57.998Z</time></trkpt><trkpt lat="43.95510136022583" lon="12.682170793645382"><ele>29.0</ele><time>2026-05-02T12:55:58.998Z</time></trkpt><trkpt lat="43.955007820341734" lon="12.682053849581727"><ele>29.0</ele><time>2026-05-02T12:55:59.998Z</time></trkpt><trkpt lat="43.95491509255287" lon="12.68194575161322"><ele>29.0</ele><time>2026-05-02T12:56:00.998Z</time></trkpt><trkpt lat="43.954820694951756" lon="12.681828550821068"><ele>29.0</ele><time>2026-05-02T12:56:01.998Z</time></trkpt><trkpt lat="43.9547156355479" lon="12.68169500135526"><ele>29.0</ele><time>2026-05-02T12:56:02.998Z</time></trkpt><trkpt lat="43.95460172852352" lon="12.681555851169893"><ele>29.25</ele><time>2026-05-02T12:56:03.998Z</time></trkpt><trkpt lat="43.954483752578284" lon="12.681413756429354"><ele>29.5</ele><time>2026-05-02T12:56:04.998Z</time></trkpt><trkpt lat="43.954374636943555" lon="12.681271727095526"><ele>29.75</ele><time>2026-05-02T12:56:05.998Z</time></trkpt><trkpt lat="43.95426912645049" lon="12.681142643587593"><ele>30.0</ele><time>2026-05-02T12:56:06.998Z</time></trkpt><trkpt lat="43.954168817442174" lon="12.681017186243887"><ele>30.25</ele><time>2026-05-02T12:56:07.998Z</time></trkpt><trkpt lat="43.95407610878919" lon="12.680890096546127"><ele>30.5</ele><time>2026-05-02T12:56:08.998Z</time></trkpt><trkpt lat="43.95398488948457" lon="12.680764590319834"><ele>30.75</ele><time>2026-05-02T12:56:09.998Z</time></trkpt><trkpt lat="43.953900930424034" lon="12.680644987543014"><ele>31.0</ele><time>2026-05-02T12:56:10.998Z</time></trkpt><trkpt lat="43.95381924403822" lon="12.680525046828992"><ele>31.0</ele><time>2026-05-02T12:56:11.998Z</time></trkpt><trkpt lat="43.9537602989261" lon="12.680398084381942"><ele>31.0</ele><time>2026-05-02T12:56:12.998Z</time></trkpt><trkpt lat="43.95369239587149" lon="12.680290379310858"><ele>31.0</ele><time>2026-05-02T12:56:13.998Z</time></trkpt><trkpt lat="43.953619579228224" lon="12.680202410563146"><ele>31.0</ele><time>2026-05-02T12:56:14.998Z</time></trkpt><trkpt lat="43.95356329428435" lon="12.680104832363572"><ele>31.0</ele><time>2026-05-02T12:56:15.998Z</time></trkpt><trkpt lat="43.953501356978364" lon="12.680010292635343"><ele>31.0</ele><time>2026-05-02T12:56:16.998Z</time></trkpt><trkpt lat="43.95343602996995" lon="12.679918760208086"><ele>31.0</ele><time>2026-05-02T12:56:17.998Z</time></trkpt><trkpt lat="43.95336254490368" lon="12.679831264358679"><ele>31.0</ele><time>2026-05-02T12:56:18.998Z</time></trkpt><trkpt lat="43.95328385943117" lon="12.679745101874726"><ele>31.0</ele><time>2026-05-02T12:56:19.999Z</time></trkpt><trkpt lat="43.953199277048384" lon="12.679653177699349"><ele>31.0</ele><time>2026-05-02T12:56:20.999Z</time></trkpt><trkpt lat="43.95310706703822" lon="12.679560960340716"><ele>31.25</ele><time>2026-05-02T12:56:21.999Z</time></trkpt><trkpt lat="43.95301316101891" lon="12.679467978582322"><ele>31.5</ele><time>2026-05-02T12:56:22.999Z</time></trkpt><trkpt lat="43.9529166101044" lon="12.679374954890356"><ele>31.75</ele><time>2026-05-02T12:56:23.999Z</time></trkpt><trkpt lat="43.95281341594744" lon="12.679278383890855"><ele>32.0</ele><time>2026-05-02T12:56:24.999Z</time></trkpt><trkpt lat="43.95270505912577" lon="12.679175827441538"><ele>32.0</ele><time>2026-05-02T12:56:25.999Z</time></trkpt><trkpt lat="43.95259493310796" lon="12.679072327964565"><ele>32.0</ele><time>2026-05-02T12:56:26.999Z</time></trkpt><trkpt lat="43.95248271446784" lon="12.678966014633287"><ele>32.0</ele><time>2026-05-02T12:56:27.999Z</time></trkpt><trkpt lat="43.952370420847366" lon="12.67884847156209"><ele>32.0</ele><time>2026-05-02T12:56:28.999Z</time></trkpt><trkpt lat="43.95226090308239" lon="12.678727472347147"><ele>32.5</ele><time>2026-05-02T12:56:29.999Z</time></trkpt><trkpt lat="43.95215171577952" lon="12.67859859982699"><ele>33.0</ele><time>2026-05-02T12:56:30.999Z</time></trkpt><trkpt lat="43.95204464721158" lon="12.678465941421921"><ele>33.5</ele><time>2026-05-02T12:56:31.999Z</time></trkpt><trkpt lat="43.95193541895523" lon="12.678330187549317"><ele>34.0</ele><time>2026-05-02T12:56:32.999Z</time></trkpt><trkpt lat="43.9518273661964" lon="12.678189717674181"><ele>34.0</ele><time>2026-05-02T12:56:33.999Z</time></trkpt><trkpt lat="43.95171595793771" lon="12.67805104409544"><ele>34.0</ele><time>2026-05-02T12:56:34.999Z</time></trkpt><trkpt lat="43.95160384755834" lon="12.677910280167008"><ele>34.0</ele><time>2026-05-02T12:56:35.999Z</time></trkpt><trkpt lat="43.951494319551394" lon="12.677771183476823"><ele>34.0</ele><time>2026-05-02T12:56:36.999Z</time></trkpt><trkpt lat="43.951377494525595" lon="12.677632112643591"><ele>33.66666666666667</ele><time>2026-05-02T12:56:37.999Z</time></trkpt><trkpt lat="43.95126324234763" lon="12.677497860168844"><ele>33.333333333333336</ele><time>2026-05-02T12:56:38.999Z</time></trkpt><trkpt lat="43.95114280591875" lon="12.677362608967044"><ele>33.0</ele><time>2026-05-02T12:56:39.999Z</time></trkpt><trkpt lat="43.951037363820184" lon="12.677208338211454"><ele>33.0</ele><time>2026-05-02T12:56:40.999Z</time></trkpt><trkpt lat="43.950928634744294" lon="12.677075330727973"><ele>33.0</ele><time>2026-05-02T12:56:41.999Z</time></trkpt><trkpt lat="43.95083857228444" lon="12.67696009637661"><ele>33.0</ele><time>2026-05-02T12:56:42.999Z</time></trkpt><trkpt lat="43.95075032121301" lon="12.676870198829851"><ele>33.0</ele><time>2026-05-02T12:56:43.999Z</time></trkpt><trkpt lat="43.95069465902434" lon="12.676768516317015"><ele>33.0</ele><time>2026-05-02T12:56:44.999Z</time></trkpt><trkpt lat="43.9506640804887" lon="12.676668334312295"><ele>33.0</ele><time>2026-05-02T12:56:45.999Z</time></trkpt><trkpt lat="43.95067131074548" lon="12.676562343797517"><ele>33.0</ele><time>2026-05-02T12:56:46.999Z</time></trkpt><trkpt lat="43.9507175826506" lon="12.676453582954366"><ele>33.0</ele><time>2026-05-02T12:56:47.999Z</time></trkpt><trkpt lat="43.950793449218345" lon="12.676351573524014"><ele>33.0</ele><time>2026-05-02T12:56:48.999Z</time></trkpt><trkpt lat="43.95087327637071" lon="12.676227575148916"><ele>33.0</ele><time>2026-05-02T12:56:49.999Z</time></trkpt><trkpt lat="43.9509518310899" lon="12.676095707603267"><ele>33.0</ele><time>2026-05-02T12:56:50.999Z</time></trkpt><trkpt lat="43.95103088288206" lon="12.675957483033129"><ele>33.0</ele><time>2026-05-02T12:56:51.999Z</time></trkpt><trkpt lat="43.95111528933112" lon="12.675810991866996"><ele>33.0</ele><time>2026-05-02T12:56:52.999Z</time></trkpt><trkpt lat="43.951199626423055" lon="12.675664161240768"><ele>33.0</ele><time>2026-05-02T12:56:53.999Z</time></trkpt><trkpt lat="43.95127927026654" lon="12.675520552816785"><ele>33.0</ele><time>2026-05-02T12:56:54.999Z</time></trkpt><trkpt lat="43.95136747069995" lon="12.675370317635307"><ele>33.0</ele><time>2026-05-02T12:56:55.999Z</time></trkpt><trkpt lat="43.951445219371465" lon="12.675221010896038"><ele>33.0</ele><time>2026-05-02T12:56:56.999Z</time></trkpt><trkpt lat="43.951507399665665" lon="12.67508144295238"><ele>33.4</ele><time>2026-05-02T12:56:57.999Z</time></trkpt><trkpt lat="43.951558414949766" lon="12.67494083751106"><ele>33.8</ele><time>2026-05-02T12:56:58.999Z</time></trkpt><trkpt lat="43.95159433570363" lon="12.674798751862802"><ele>34.2</ele><time>2026-05-02T12:56:59.999Z</time></trkpt><trkpt lat="43.95161401813393" lon="12.674652873029816"><ele>34.6</ele><time>2026-05-02T12:57:00.999Z</time></trkpt><trkpt lat="43.95163158987646" lon="12.674503467275024"><ele>35.0</ele><time>2026-05-02T12:57:01.999Z</time></trkpt><trkpt lat="43.95164705246064" lon="12.674352568961147"><ele>35.4</ele><time>2026-05-02T12:57:02.999Z</time></trkpt><trkpt lat="43.95166728997884" lon="12.67420005744022"><ele>35.8</ele><time>2026-05-02T12:57:03.999Z</time></trkpt><trkpt lat="43.951686063035" lon="12.674065680238305"><ele>36.2</ele><time>2026-05-02T12:57:04.999Z</time></trkpt><trkpt lat="43.95171938622227" lon="12.673957264080583"><ele>36.6</ele><time>2026-05-02T12:57:05.999Z</time></trkpt><trkpt lat="43.95172031657829" lon="12.673854719654411"><ele>37.0</ele><time>2026-05-02T12:57:06.999Z</time></trkpt><trkpt lat="43.95175293825347" lon="12.67372700563101"><ele>36.833333333333336</ele><time>2026-05-02T12:57:08.999Z</time></trkpt><trkpt lat="43.95180045787635" lon="12.67362580926168"><ele>36.66666666666667</ele><time>2026-05-02T12:57:10.999Z</time></trkpt><trkpt lat="43.95182907797893" lon="12.673532469628876"><ele>36.5</ele><time>2026-05-02T12:57:12.999Z</time></trkpt><trkpt lat="43.95179619930559" lon="12.67343349737577"><ele>36.333333333333336</ele><time>2026-05-02T12:57:14.999Z</time></trkpt><trkpt lat="43.9516857607146" lon="12.67342858336748"><ele>36.166666666666664</ele><time>2026-05-02T12:57:16.999Z</time></trkpt><trkpt lat="43.95161529011431" lon="12.673417279845841"><ele>36.0</ele><time>2026-05-02T12:57:17.999Z</time></trkpt><trkpt lat="43.95154093590994" lon="12.67338945423945"><ele>36.00000000000001</ele><time>2026-05-02T12:57:18.999Z</time></trkpt><trkpt lat="43.95147539740307" lon="12.673354930485877"><ele>36.0</ele><time>2026-05-02T12:57:19.999Z</time></trkpt><trkpt lat="43.95141268300405" lon="12.673323103877053"><ele>36.0</ele><time>2026-05-02T12:57:20.999Z</time></trkpt><trkpt lat="43.95135423185697" lon="12.673287796750923"><ele>36.0</ele><time>2026-05-02T12:57:21.999Z</time></trkpt><trkpt lat="43.95129334293578" lon="12.67325406766665"><ele>36.0</ele><time>2026-05-02T12:57:22.999Z</time></trkpt><trkpt lat="43.95123294772199" lon="12.673220351013011"><ele>36.00000000000001</ele><time>2026-05-02T12:57:23.999Z</time></trkpt><trkpt lat="43.95117148268005" lon="12.67318572217145"><ele>36.0</ele><time>2026-05-02T12:57:24.999Z</time></trkpt><trkpt lat="43.95111320321594" lon="12.673151283964293"><ele>36.0</ele><time>2026-05-02T12:57:25.999Z</time></trkpt><trkpt lat="43.95104867468048" lon="12.67311764577982"><ele>36.0</ele><time>2026-05-02T12:57:26.999Z</time></trkpt><trkpt lat="43.95098051925805" lon="12.673073645198764"><ele>36.0</ele><time>2026-05-02T12:57:27.999Z</time></trkpt><trkpt lat="43.950904670588535" lon="12.673024343923009"><ele>36.0</ele><time>2026-05-02T12:57:28.999Z</time></trkpt><trkpt lat="43.95082914480149" lon="12.672979279162941"><ele>36.0</ele><time>2026-05-02T12:57:29.999Z</time></trkpt><trkpt lat="43.950757092860414" lon="12.672936991031404"><ele>36.0</ele><time>2026-05-02T12:57:30.999Z</time></trkpt><trkpt lat="43.950688319823605" lon="12.672895180359975"><ele>36.333333333333336</ele><time>2026-05-02T12:57:31.999Z</time></trkpt><trkpt lat="43.95061752255174" lon="12.672850760745979"><ele>36.666666666666664</ele><time>2026-05-02T12:57:32.999Z</time></trkpt><trkpt lat="43.950548432872395" lon="12.672805611733008"><ele>37.0</ele><time>2026-05-02T12:57:33.999Z</time></trkpt><trkpt lat="43.95047658223106" lon="12.672764464499119"><ele>37.33333333333333</ele><time>2026-05-02T12:57:34.999Z</time></trkpt><trkpt lat="43.950401400892716" lon="12.672717784187395"><ele>37.666666666666664</ele><time>2026-05-02T12:57:35.999Z</time></trkpt><trkpt lat="43.9503254595234" lon="12.672670188631677"><ele>38.0</ele><time>2026-05-02T12:57:36.999Z</time></trkpt><trkpt lat="43.95024962595919" lon="12.67262443205153"><ele>38.199999999999996</ele><time>2026-05-02T12:57:37.999Z</time></trkpt><trkpt lat="43.95016085954496" lon="12.672570628320173"><ele>38.4</ele><time>2026-05-02T12:57:38.999Z</time></trkpt><trkpt lat="43.95006872035558" lon="12.672512542857271"><ele>38.599999999999994</ele><time>2026-05-02T12:57:39.999Z</time></trkpt><trkpt lat="43.94997203898462" lon="12.67245096789964"><ele>38.8</ele><time>2026-05-02T12:57:40.999Z</time></trkpt><trkpt lat="43.94988437557341" lon="12.672399732632233"><ele>39.0</ele><time>2026-05-02T12:57:41.999Z</time></trkpt><trkpt lat="43.94980484999992" lon="12.672350629178393"><ele>39.5</ele><time>2026-05-02T12:57:42.999Z</time></trkpt><trkpt lat="43.9497304141009" lon="12.672304456807167"><ele>40.0</ele><time>2026-05-02T12:57:43.999Z</time></trkpt><trkpt lat="43.94965754528783" lon="12.672257090639544"><ele>40.5</ele><time>2026-05-02T12:57:44.999Z</time></trkpt><trkpt lat="43.94958086732844" lon="12.67221010745136"><ele>41.0</ele><time>2026-05-02T12:57:45.999Z</time></trkpt><trkpt lat="43.94950102910056" lon="12.67215801581868"><ele>41.5</ele><time>2026-05-02T12:57:46.999Z</time></trkpt><trkpt lat="43.94941106576397" lon="12.672102760863844"><ele>42.0</ele><time>2026-05-02T12:57:47.999Z</time></trkpt><trkpt lat="43.94931273353282" lon="12.672041619943467"><ele>42.0</ele><time>2026-05-02T12:57:48.999Z</time></trkpt><trkpt lat="43.94921713724266" lon="12.671978397951644"><ele>42.0</ele><time>2026-05-02T12:57:49.998Z</time></trkpt><trkpt lat="43.94912371572476" lon="12.671921935302347"><ele>42.0</ele><time>2026-05-02T12:57:50.998Z</time></trkpt><trkpt lat="43.94903201420079" lon="12.671866083583422"><ele>42.0</ele><time>2026-05-02T12:57:51.998Z</time></trkpt><trkpt lat="43.94894246280512" lon="12.67181129268815"><ele>42.0</ele><time>2026-05-02T12:57:52.998Z</time></trkpt><trkpt lat="43.948853199335524" lon="12.67175477072477"><ele>42.2</ele><time>2026-05-02T12:57:53.998Z</time></trkpt><trkpt lat="43.94876500005926" lon="12.67170124145459"><ele>42.400000000000006</ele><time>2026-05-02T12:57:54.998Z</time></trkpt><trkpt lat="43.948679099507174" lon="12.671652519637043"><ele>42.599999999999994</ele><time>2026-05-02T12:57:55.998Z</time></trkpt><trkpt lat="43.948591682706244" lon="12.67159872964473"><ele>42.8</ele><time>2026-05-02T12:57:56.998Z</time></trkpt><trkpt lat="43.948505456007965" lon="12.671541603134099"><ele>43.0</ele><time>2026-05-02T12:57:57.998Z</time></trkpt><trkpt lat="43.94841419434199" lon="12.671487741898519"><ele>43.2</ele><time>2026-05-02T12:57:58.998Z</time></trkpt><trkpt lat="43.948323714089454" lon="12.671432775313281"><ele>43.4</ele><time>2026-05-02T12:57:59.998Z</time></trkpt><trkpt lat="43.94823117528385" lon="12.6713750965933"><ele>43.6</ele><time>2026-05-02T12:58:00.998Z</time></trkpt><trkpt lat="43.94814204204862" lon="12.671320308503098"><ele>43.800000000000004</ele><time>2026-05-02T12:58:01.998Z</time></trkpt><trkpt lat="43.94806443168507" lon="12.671271521627478"><ele>44.0</ele><time>2026-05-02T12:58:02.998Z</time></trkpt><trkpt lat="43.94799507799433" lon="12.671231641977604"><ele>44.0</ele><time>2026-05-02T12:58:03.998Z</time></trkpt><trkpt lat="43.94793155120819" lon="12.671189966975847"><ele>44.0</ele><time>2026-05-02T12:58:04.998Z</time></trkpt><trkpt lat="43.94786353845695" lon="12.671145197265202"><ele>44.0</ele><time>2026-05-02T12:58:05.998Z</time></trkpt><trkpt lat="43.94778125812812" lon="12.671094879737556"><ele>44.0</ele><time>2026-05-02T12:58:06.998Z</time></trkpt><trkpt lat="43.947695381943845" lon="12.671042375704396"><ele>44.0</ele><time>2026-05-02T12:58:07.998Z</time></trkpt><trkpt lat="43.94761575485247" lon="12.670993485295543"><ele>44.0</ele><time>2026-05-02T12:58:08.998Z</time></trkpt><trkpt lat="43.947541153624115" lon="12.670946425200686"><ele>44.5</ele><time>2026-05-02T12:58:09.998Z</time></trkpt><trkpt lat="43.94746527400819" lon="12.670898251001258"><ele>45.0</ele><time>2026-05-02T12:58:10.998Z</time></trkpt><trkpt lat="43.94739361379712" lon="12.670856162588894"><ele>45.5</ele><time>2026-05-02T12:58:11.998Z</time></trkpt><trkpt lat="43.94733503470831" lon="12.670816680812939"><ele>46.0</ele><time>2026-05-02T12:58:12.998Z</time></trkpt><trkpt lat="43.94723678312192" lon="12.6707553506022"><ele>46.5</ele><time>2026-05-02T12:58:14.998Z</time></trkpt><trkpt lat="43.947165886501466" lon="12.670707004126042"><ele>47.0</ele><time>2026-05-02T12:58:16.998Z</time></trkpt><trkpt lat="43.94708958877434" lon="12.670644891491905"><ele>47.0</ele><time>2026-05-02T12:58:18.998Z</time></trkpt><trkpt lat="43.94703232526381" lon="12.670540372828885"><ele>47.0</ele><time>2026-05-02T12:58:20.998Z</time></trkpt><trkpt lat="43.946991094649086" lon="12.670414412223273"><ele>47.0</ele><time>2026-05-02T12:58:22.998Z</time></trkpt><trkpt lat="43.94695115464758" lon="12.670316563868074"><ele>47.0</ele><time>2026-05-02T12:58:24.998Z</time></trkpt><trkpt lat="43.946854020602906" lon="12.670362910438325"><ele>47.0</ele><time>2026-05-02T12:58:25.998Z</time></trkpt><trkpt lat="43.9467386218" lon="12.670375551786723"><ele>47.166666666666664</ele><time>2026-05-02T12:58:27.999Z</time></trkpt><trkpt lat="43.946670039130076" lon="12.670373672116215"><ele>47.33333333333333</ele><time>2026-05-02T12:58:28.999Z</time></trkpt><trkpt lat="43.946581975073315" lon="12.670347932051634"><ele>47.5</ele><time>2026-05-02T12:58:29.999Z</time></trkpt><trkpt lat="43.946492712330624" lon="12.670299044392783"><ele>47.666666666666664</ele><time>2026-05-02T12:58:30.999Z</time></trkpt><trkpt lat="43.94641819842823" lon="12.670250398308378"><ele>47.833333333333336</ele><time>2026-05-02T12:58:31.999Z</time></trkpt><trkpt lat="43.94633548672798" lon="12.670199486653425"><ele>48.0</ele><time>2026-05-02T12:58:32.999Z</time></trkpt><trkpt lat="43.946251918503165" lon="12.670142916910308"><ele>48.2</ele><time>2026-05-02T12:58:33.999Z</time></trkpt><trkpt lat="43.94616253046131" lon="12.670084029132228"><ele>48.4</ele><time>2026-05-02T12:58:34.999Z</time></trkpt><trkpt lat="43.946070231798465" lon="12.670025721132742"><ele>48.6</ele><time>2026-05-02T12:58:35.999Z</time></trkpt><trkpt lat="43.94597732022722" lon="12.669966006337276"><ele>48.800000000000004</ele><time>2026-05-02T12:58:36.999Z</time></trkpt><trkpt lat="43.94588784593961" lon="12.669907413740043"><ele>49.0</ele><time>2026-05-02T12:58:37.999Z</time></trkpt><trkpt lat="43.94579301018294" lon="12.669850549626267"><ele>49.2</ele><time>2026-05-02T12:58:38.999Z</time></trkpt><trkpt lat="43.94569853004471" lon="12.66979361553511"><ele>49.400000000000006</ele><time>2026-05-02T12:58:39.999Z</time></trkpt><trkpt lat="43.94560688356316" lon="12.669731919357721"><ele>49.6</ele><time>2026-05-02T12:58:40.999Z</time></trkpt><trkpt lat="43.945523321874944" lon="12.669665904865798"><ele>49.8</ele><time>2026-05-02T12:58:41.999Z</time></trkpt><trkpt lat="43.9454530205407" lon="12.669613409637334"><ele>50.0</ele><time>2026-05-02T12:58:42.999Z</time></trkpt><trkpt lat="43.945385599812475" lon="12.669555158834367"><ele>50.00000000000001</ele><time>2026-05-02T12:58:43.999Z</time></trkpt><trkpt lat="43.945310119733264" lon="12.669479164718927"><ele>50.0</ele><time>2026-05-02T12:58:44.999Z</time></trkpt><trkpt lat="43.945227792130964" lon="12.669393698514478"><ele>50.0</ele><time>2026-05-02T12:58:45.999Z</time></trkpt><trkpt lat="43.94515462377867" lon="12.669317841480048"><ele>50.0</ele><time>2026-05-02T12:58:46.999Z</time></trkpt><trkpt lat="43.9450893378216" lon="12.669240698958346"><ele>50.00000000000001</ele><time>2026-05-02T12:58:47.999Z</time></trkpt><trkpt lat="43.94503470354669" lon="12.669169483236313"><ele>50.0</ele><time>2026-05-02T12:58:48.999Z</time></trkpt><trkpt lat="43.94498417116891" lon="12.6691027722203"><ele>50.333333333333336</ele><time>2026-05-02T12:58:49.999Z</time></trkpt><trkpt lat="43.94493819050885" lon="12.668971518624941"><ele>50.66666666666667</ele><time>2026-05-02T12:58:51.999Z</time></trkpt><trkpt lat="43.94491172814613" lon="12.668862610057706"><ele>51.0</ele><time>2026-05-02T12:58:53.999Z</time></trkpt><trkpt lat="43.94485995442219" lon="12.668764723970444"><ele>51.33333333333333</ele><time>2026-05-02T12:58:55.999Z</time></trkpt><trkpt lat="43.94481576339318" lon="12.66869864170404"><ele>51.666666666666664</ele><time>2026-05-02T12:58:59.999Z</time></trkpt><trkpt lat="43.94472888605402" lon="12.66865090399762"><ele>52.0</ele><time>2026-05-02T13:01:15.999Z</time></trkpt><trkpt lat="43.94463800547833" lon="12.668623312017775"><ele>52.0</ele><time>2026-05-02T13:01:17.999Z</time></trkpt><trkpt lat="43.94455157131141" lon="12.668646099872301"><ele>52.0</ele><time>2026-05-02T13:01:19.999Z</time></trkpt><trkpt lat="43.944472132542266" lon="12.66854517198946"><ele>52.0</ele><time>2026-05-02T13:01:21.999Z</time></trkpt><trkpt lat="43.94440181261695" lon="12.668446839292487"><ele>52.0</ele><time>2026-05-02T13:01:22.999Z</time></trkpt><trkpt lat="43.9443143094145" lon="12.668350873756811"><ele>52.0</ele><time>2026-05-02T13:01:23.999Z</time></trkpt><trkpt lat="43.94421838221005" lon="12.668248067105374"><ele>52.0</ele><time>2026-05-02T13:01:24.999Z</time></trkpt><trkpt lat="43.94411227057164" lon="12.668136003810964"><ele>52.0</ele><time>2026-05-02T13:01:25.999Z</time></trkpt><trkpt lat="43.94398508678329" lon="12.667993643995354"><ele>52.0</ele><time>2026-05-02T13:01:26.999Z</time></trkpt><trkpt lat="43.943824448259164" lon="12.667806273542565"><ele>52.5</ele><time>2026-05-02T13:01:27.999Z</time></trkpt><trkpt lat="43.9436435593072" lon="12.667588451858308"><ele>53.0</ele><time>2026-05-02T13:01:28.999Z</time></trkpt><trkpt lat="43.943464610779486" lon="12.667371953350635"><ele>53.5</ele><time>2026-05-02T13:01:29.999Z</time></trkpt><trkpt lat="43.943277476516265" lon="12.667156851626782"><ele>54.0</ele><time>2026-05-02T13:01:30.999Z</time></trkpt><trkpt lat="43.9430883590319" lon="12.666945143300849"><ele>54.5</ele><time>2026-05-02T13:01:31.999Z</time></trkpt><trkpt lat="43.942909413509526" lon="12.666733486881029"><ele>55.0</ele><time>2026-05-02T13:01:32.999Z</time></trkpt><trkpt lat="43.94273481788603" lon="12.66652436628766"><ele>55.0</ele><time>2026-05-02T13:01:33.999Z</time></trkpt><trkpt lat="43.94256077916975" lon="12.666315539426364"><ele>55.0</ele><time>2026-05-02T13:01:34.999Z</time></trkpt><trkpt lat="43.94238336505177" lon="12.666115910845043"><ele>54.666666666666664</ele><time>2026-05-02T13:01:35.999Z</time></trkpt><trkpt lat="43.94221389518566" lon="12.665910311304954"><ele>54.33333333333333</ele><time>2026-05-02T13:01:36.999Z</time></trkpt><trkpt lat="43.9420408876942" lon="12.665713365507417"><ele>54.0</ele><time>2026-05-02T13:01:37.999Z</time></trkpt><trkpt lat="43.94186474876202" lon="12.665516962803144"><ele>53.5</ele><time>2026-05-02T13:01:38.999Z</time></trkpt><trkpt lat="43.94169321004602" lon="12.665310507033292"><ele>53.0</ele><time>2026-05-02T13:01:39.999Z</time></trkpt><trkpt lat="43.941521708093646" lon="12.66510437138562"><ele>53.66666666666667</ele><time>2026-05-02T13:01:40.999Z</time></trkpt><trkpt lat="43.941351306251626" lon="12.664909468084906"><ele>54.33333333333333</ele><time>2026-05-02T13:01:41.999Z</time></trkpt><trkpt lat="43.941179433830115" lon="12.664704140699259"><ele>55.0</ele><time>2026-05-02T13:01:42.999Z</time></trkpt><trkpt lat="43.941007237735526" lon="12.664501818021007"><ele>56.0</ele><time>2026-05-02T13:01:43.999Z</time></trkpt><trkpt lat="43.940836229232424" lon="12.664295885167805"><ele>57.0</ele><time>2026-05-02T13:01:44.999Z</time></trkpt><trkpt lat="43.94066050341257" lon="12.664095793655845"><ele>57.0</ele><time>2026-05-02T13:01:45.999Z</time></trkpt><trkpt lat="43.940489956247326" lon="12.663899659351614"><ele>57.0</ele><time>2026-05-02T13:01:46.999Z</time></trkpt><trkpt lat="43.940318178945255" lon="12.663701415235936"><ele>57.0</ele><time>2026-05-02T13:01:47.999Z</time></trkpt><trkpt lat="43.94015716260021" lon="12.663514307828457"><ele>57.0</ele><time>2026-05-02T13:01:48.999Z</time></trkpt><trkpt lat="43.9400094437328" lon="12.66333515472604"><ele>57.0</ele><time>2026-05-02T13:01:49.999Z</time></trkpt><trkpt lat="43.93987014183096" lon="12.66317257715068"><ele>57.0</ele><time>2026-05-02T13:01:50.999Z</time></trkpt><trkpt lat="43.93974523180984" lon="12.663021384524654"><ele>57.0</ele><time>2026-05-02T13:01:51.999Z</time></trkpt><trkpt lat="43.939620447034706" lon="12.662870965379287"><ele>57.0</ele><time>2026-05-02T13:01:52.999Z</time></trkpt><trkpt lat="43.939503194862525" lon="12.662735425869533"><ele>57.0</ele><time>2026-05-02T13:01:53.999Z</time></trkpt><trkpt lat="43.93939421385674" lon="12.662607521049107"><ele>57.25</ele><time>2026-05-02T13:01:54.999Z</time></trkpt><trkpt lat="43.93929355014325" lon="12.662490030196038"><ele>57.5</ele><time>2026-05-02T13:01:55.999Z</time></trkpt><trkpt lat="43.93919465792177" lon="12.662390558213218"><ele>57.75</ele><time>2026-05-02T13:01:56.999Z</time></trkpt><trkpt lat="43.93909632371827" lon="12.662307208193765"><ele>58.0</ele><time>2026-05-02T13:01:57.999Z</time></trkpt><trkpt lat="43.93900789663652" lon="12.662212087655098"><ele>58.5</ele><time>2026-05-02T13:01:58.999Z</time></trkpt><trkpt lat="43.93892298825777" lon="12.66208583072258"><ele>59.0</ele><time>2026-05-02T13:01:59.999Z</time></trkpt><trkpt lat="43.93883165837671" lon="12.661949790175811"><ele>59.5</ele><time>2026-05-02T13:02:00.999Z</time></trkpt><trkpt lat="43.93872945670312" lon="12.66181774707286"><ele>60.0</ele><time>2026-05-02T13:02:01.999Z</time></trkpt><trkpt lat="43.93863452427654" lon="12.661704297032284"><ele>60.25</ele><time>2026-05-02T13:02:02.999Z</time></trkpt><trkpt lat="43.93854487702031" lon="12.661597253922762"><ele>60.5</ele><time>2026-05-02T13:02:03.999Z</time></trkpt><trkpt lat="43.938455845841034" lon="12.661491636221326"><ele>60.75</ele><time>2026-05-02T13:02:04.999Z</time></trkpt><trkpt lat="43.93836058506863" lon="12.661386724691212"><ele>61.0</ele><time>2026-05-02T13:02:05.999Z</time></trkpt><trkpt lat="43.938260992543356" lon="12.66127258873804"><ele>61.0</ele><time>2026-05-02T13:02:06.999Z</time></trkpt><trkpt lat="43.93816659193247" lon="12.661162692999595"><ele>61.0</ele><time>2026-05-02T13:02:07.999Z</time></trkpt><trkpt lat="43.93807658446555" lon="12.661056367206003"><ele>61.0</ele><time>2026-05-02T13:02:08.999Z</time></trkpt><trkpt lat="43.937994725326504" lon="12.660953641612792"><ele>61.0</ele><time>2026-05-02T13:02:09.999Z</time></trkpt><trkpt lat="43.93791221386519" lon="12.660856402301844"><ele>61.4</ele><time>2026-05-02T13:02:10.999Z</time></trkpt><trkpt lat="43.93783202519621" lon="12.660763911415646"><ele>61.8</ele><time>2026-05-02T13:02:11.999Z</time></trkpt><trkpt lat="43.937750999001096" lon="12.660672689558977"><ele>62.199999999999996</ele><time>2026-05-02T13:02:12.999Z</time></trkpt><trkpt lat="43.93766411216769" lon="12.660575301138076"><ele>62.599999999999994</ele><time>2026-05-02T13:02:13.999Z</time></trkpt><trkpt lat="43.93757510198651" lon="12.66047637518102"><ele>63.0</ele><time>2026-05-02T13:02:14.999Z</time></trkpt><trkpt lat="43.93748468059593" lon="12.660372574969184"><ele>63.5</ele><time>2026-05-02T13:02:15.999Z</time></trkpt><trkpt lat="43.93739444822461" lon="12.660261920677506"><ele>64.0</ele><time>2026-05-02T13:02:16.999Z</time></trkpt><trkpt lat="43.93730244349416" lon="12.660148440590735"><ele>64.5</ele><time>2026-05-02T13:02:17.999Z</time></trkpt><trkpt lat="43.93720972622731" lon="12.660037409458353"><ele>65.0</ele><time>2026-05-02T13:02:18.999Z</time></trkpt><trkpt lat="43.93712179276226" lon="12.659935326658962"><ele>65.0</ele><time>2026-05-02T13:02:19.999Z</time></trkpt><trkpt lat="43.93704575289716" lon="12.659846170855783"><ele>65.0</ele><time>2026-05-02T13:02:21Z</time></trkpt><trkpt lat="43.936975335459444" lon="12.659765105966892"><ele>65.0</ele><time>2026-05-02T13:02:22Z</time></trkpt><trkpt lat="43.93691107938187" lon="12.659686909405137"><ele>65.0</ele><time>2026-05-02T13:02:23Z</time></trkpt><trkpt lat="43.93684344721548" lon="12.659607410860067"><ele>65.0</ele><time>2026-05-02T13:02:24Z</time></trkpt><trkpt lat="43.93677303895689" lon="12.65952754815134"><ele>65.8</ele><time>2026-05-02T13:02:25Z</time></trkpt><trkpt lat="43.93669717400395" lon="12.659441490352558"><ele>66.6</ele><time>2026-05-02T13:02:26Z</time></trkpt><trkpt lat="43.936618318830135" lon="12.659352381602625"><ele>67.4</ele><time>2026-05-02T13:02:27Z</time></trkpt><trkpt lat="43.936537500008974" lon="12.659256052646974"><ele>68.2</ele><time>2026-05-02T13:02:28Z</time></trkpt><trkpt lat="43.936454511740976" lon="12.65915616662923"><ele>69.0</ele><time>2026-05-02T13:02:29Z</time></trkpt><trkpt lat="43.936368171794" lon="12.659056249097569"><ele>69.0</ele><time>2026-05-02T13:02:30Z</time></trkpt><trkpt lat="43.93628026756546" lon="12.658954464708419"><ele>69.0</ele><time>2026-05-02T13:02:31Z</time></trkpt><trkpt lat="43.93619272897523" lon="12.658850120664342"><ele>69.0</ele><time>2026-05-02T13:02:32Z</time></trkpt><trkpt lat="43.936120288618646" lon="12.65876412293889"><ele>69.0</ele><time>2026-05-02T13:02:33Z</time></trkpt><trkpt lat="43.93605577620235" lon="12.658690988395493"><ele>69.0</ele><time>2026-05-02T13:02:34Z</time></trkpt><trkpt lat="43.93600487353829" lon="12.658621455430279"><ele>69.2</ele><time>2026-05-02T13:02:35Z</time></trkpt><trkpt lat="43.93595617440583" lon="12.658466912628509"><ele>69.4</ele><time>2026-05-02T13:02:37Z</time></trkpt><trkpt lat="43.93595580705181" lon="12.658317859153238"><ele>69.6</ele><time>2026-05-02T13:02:39Z</time></trkpt><trkpt lat="43.935880285373024" lon="12.658216821336612"><ele>69.8</ele><time>2026-05-02T13:02:41Z</time></trkpt><trkpt lat="43.93581269045941" lon="12.658203633905785"><ele>70.0</ele><time>2026-05-02T13:02:42Z</time></trkpt><trkpt lat="43.935726280900965" lon="12.658218489038834"><ele>70.25</ele><time>2026-05-02T13:02:43Z</time></trkpt><trkpt lat="43.935634202378985" lon="12.658194490585783"><ele>70.5</ele><time>2026-05-02T13:02:44Z</time></trkpt><trkpt lat="43.93553957626065" lon="12.658111577777833"><ele>70.75</ele><time>2026-05-02T13:02:45Z</time></trkpt><trkpt lat="43.93544261007133" lon="12.657978548001314"><ele>71.0</ele><time>2026-05-02T13:02:46Z</time></trkpt><trkpt lat="43.93532500291095" lon="12.657829188633828"><ele>71.0</ele><time>2026-05-02T13:02:47Z</time></trkpt><trkpt lat="43.93520414324683" lon="12.657692366974516"><ele>71.0</ele><time>2026-05-02T13:02:48Z</time></trkpt><trkpt lat="43.93508191975661" lon="12.657550811263595"><ele>71.0</ele><time>2026-05-02T13:02:49Z</time></trkpt><trkpt lat="43.93496433666049" lon="12.657418743739195"><ele>71.33333333333334</ele><time>2026-05-02T13:02:50Z</time></trkpt><trkpt lat="43.93484171333877" lon="12.657286891140515"><ele>71.66666666666667</ele><time>2026-05-02T13:02:51Z</time></trkpt><trkpt lat="43.93471896653894" lon="12.657156508837144"><ele>72.0</ele><time>2026-05-02T13:02:52Z</time></trkpt><trkpt lat="43.934592017156156" lon="12.657024542864121"><ele>72.5</ele><time>2026-05-02T13:02:53Z</time></trkpt><trkpt lat="43.93447034157818" lon="12.656897114055536"><ele>73.0</ele><time>2026-05-02T13:02:54Z</time></trkpt><trkpt lat="43.934351667924346" lon="12.656777567599509"><ele>73.5</ele><time>2026-05-02T13:02:55Z</time></trkpt><trkpt lat="43.93424261088291" lon="12.656667564306138"><ele>74.0</ele><time>2026-05-02T13:02:56Z</time></trkpt><trkpt lat="43.934138020312105" lon="12.656559113074316"><ele>74.5</ele><time>2026-05-02T13:02:57Z</time></trkpt><trkpt lat="43.93404302733033" lon="12.656460311393651"><ele>75.0</ele><time>2026-05-02T13:02:58Z</time></trkpt><trkpt lat="43.93394819921424" lon="12.656365728140978"><ele>75.5</ele><time>2026-05-02T13:02:59Z</time></trkpt><trkpt lat="43.933858984567756" lon="12.656273684811326"><ele>76.0</ele><time>2026-05-02T13:03:00Z</time></trkpt><trkpt lat="43.93377109057625" lon="12.65618383245424"><ele>76.25</ele><time>2026-05-02T13:03:01Z</time></trkpt><trkpt lat="43.93368366154552" lon="12.656093309535239"><ele>76.5</ele><time>2026-05-02T13:03:02Z</time></trkpt><trkpt lat="43.933593585853984" lon="12.656000778730197"><ele>76.75</ele><time>2026-05-02T13:03:03Z</time></trkpt><trkpt lat="43.933499901099765" lon="12.655907929480298"><ele>77.0</ele><time>2026-05-02T13:03:04Z</time></trkpt><trkpt lat="43.93340042230326" lon="12.65580542869219"><ele>76.75</ele><time>2026-05-02T13:03:05Z</time></trkpt><trkpt lat="43.9332972760879" lon="12.655701470383832"><ele>76.5</ele><time>2026-05-02T13:03:06Z</time></trkpt><trkpt lat="43.93319234068894" lon="12.65559445811991"><ele>76.25</ele><time>2026-05-02T13:03:07Z</time></trkpt><trkpt lat="43.93310044500797" lon="12.655501904226139"><ele>76.0</ele><time>2026-05-02T13:03:08Z</time></trkpt><trkpt lat="43.93301152942779" lon="12.655405614676644"><ele>76.0</ele><time>2026-05-02T13:03:09Z</time></trkpt><trkpt lat="43.93292593864353" lon="12.655318511723733"><ele>76.0</ele><time>2026-05-02T13:03:10Z</time></trkpt><trkpt lat="43.93284364897577" lon="12.655235108690622"><ele>76.0</ele><time>2026-05-02T13:03:11Z</time></trkpt><trkpt lat="43.93276379287203" lon="12.655157004224877"><ele>76.0</ele><time>2026-05-02T13:03:12Z</time></trkpt><trkpt lat="43.93268547612313" lon="12.655074290808965"><ele>76.0</ele><time>2026-05-02T13:03:13Z</time></trkpt><trkpt lat="43.93260669258771" lon="12.654995487627469"><ele>76.5</ele><time>2026-05-02T13:03:14Z</time></trkpt><trkpt lat="43.932525693540086" lon="12.654916826325982"><ele>77.0</ele><time>2026-05-02T13:03:15Z</time></trkpt><trkpt lat="43.932453165322926" lon="12.65483938621585"><ele>77.5</ele><time>2026-05-02T13:03:16Z</time></trkpt><trkpt lat="43.932379009770955" lon="12.654759355866423"><ele>78.0</ele><time>2026-05-02T13:03:17Z</time></trkpt><trkpt lat="43.932316181641056" lon="12.65469051374152"><ele>78.5</ele><time>2026-05-02T13:03:18Z</time></trkpt><trkpt lat="43.93226083354381" lon="12.65464029245794"><ele>79.0</ele><time>2026-05-02T13:03:19Z</time></trkpt><trkpt lat="43.93220399480492" lon="12.65458081889268"><ele>79.0</ele><time>2026-05-02T13:03:21.001Z</time></trkpt><trkpt lat="43.93214577531789" lon="12.654536816028479"><ele>79.0</ele><time>2026-05-02T13:03:32.001Z</time></trkpt><trkpt lat="43.93208976308462" lon="12.654482154473772"><ele>79.0</ele><time>2026-05-02T13:03:35.001Z</time></trkpt><trkpt lat="43.93203460855735" lon="12.654425003004894"><ele>79.0</ele><time>2026-05-02T13:03:38.001Z</time></trkpt><trkpt lat="43.93196120861921" lon="12.654368066327446"><ele>79.0</ele><time>2026-05-02T13:03:46Z</time></trkpt><trkpt lat="43.931899096495705" lon="12.654311807875885"><ele>79.0</ele><time>2026-05-02T13:03:48Z</time></trkpt><trkpt lat="43.931806055682536" lon="12.654219182436142"><ele>79.2</ele><time>2026-05-02T13:03:50Z</time></trkpt><trkpt lat="43.931742435334286" lon="12.654149539916947"><ele>79.4</ele><time>2026-05-02T13:03:51Z</time></trkpt><trkpt lat="43.93166537164596" lon="12.654066122810473"><ele>79.6</ele><time>2026-05-02T13:03:52Z</time></trkpt><trkpt lat="43.93159805163428" lon="12.653979259013934"><ele>79.8</ele><time>2026-05-02T13:03:53Z</time></trkpt><trkpt lat="43.93150084674268" lon="12.653882323295706"><ele>80.0</ele><time>2026-05-02T13:03:54Z</time></trkpt><trkpt lat="43.931393301988535" lon="12.653772528481113"><ele>79.0</ele><time>2026-05-02T13:03:55Z</time></trkpt><trkpt lat="43.93128294879778" lon="12.653652504475545"><ele>78.0</ele><time>2026-05-02T13:03:56Z</time></trkpt><trkpt lat="43.93116450036032" lon="12.653530555217328"><ele>77.0</ele><time>2026-05-02T13:03:57Z</time></trkpt><trkpt lat="43.931056547573775" lon="12.65342078988499"><ele>76.0</ele><time>2026-05-02T13:03:58Z</time></trkpt><trkpt lat="43.93095244652415" lon="12.653316671710492"><ele>75.6</ele><time>2026-05-02T13:03:59Z</time></trkpt><trkpt lat="43.93085857746566" lon="12.653222911490744"><ele>75.19999999999999</ele><time>2026-05-02T13:04:00Z</time></trkpt><trkpt lat="43.93076876999452" lon="12.653132165229788"><ele>74.80000000000001</ele><time>2026-05-02T13:04:01Z</time></trkpt><trkpt lat="43.9306838008779" lon="12.65304238274852"><ele>74.4</ele><time>2026-05-02T13:04:02Z</time></trkpt><trkpt lat="43.93060541401121" lon="12.652957099809848"><ele>74.0</ele><time>2026-05-02T13:04:03Z</time></trkpt><trkpt lat="43.93053959603208" lon="12.652881803055141"><ele>74.0</ele><time>2026-05-02T13:04:04Z</time></trkpt><trkpt lat="43.93048675891684" lon="12.652803326029272"><ele>74.0</ele><time>2026-05-02T13:04:05Z</time></trkpt><trkpt lat="43.930417822755565" lon="12.652729335265267"><ele>74.0</ele><time>2026-05-02T13:04:06Z</time></trkpt><trkpt lat="43.93031656957019" lon="12.652662626942247"><ele>74.0</ele><time>2026-05-02T13:04:07Z</time></trkpt><trkpt lat="43.93019357082732" lon="12.652565871716634"><ele>74.0</ele><time>2026-05-02T13:04:08Z</time></trkpt><trkpt lat="43.930067587842345" lon="12.652439148151963"><ele>75.25</ele><time>2026-05-02T13:04:09Z</time></trkpt><trkpt lat="43.929952005223555" lon="12.652324473610042"><ele>76.5</ele><time>2026-05-02T13:04:10Z</time></trkpt><trkpt lat="43.929847461042904" lon="12.652222838479503"><ele>77.75</ele><time>2026-05-02T13:04:11Z</time></trkpt><trkpt lat="43.929750061884995" lon="12.652122658324998"><ele>79.0</ele><time>2026-05-02T13:04:12Z</time></trkpt><trkpt lat="43.92966041885605" lon="12.652027284172851"><ele>79.2</ele><time>2026-05-02T13:04:13Z</time></trkpt><trkpt lat="43.929575609137295" lon="12.651937458954794"><ele>79.4</ele><time>2026-05-02T13:04:14Z</time></trkpt><trkpt lat="43.929484793534584" lon="12.65184630728665"><ele>79.6</ele><time>2026-05-02T13:04:15Z</time></trkpt><trkpt lat="43.92939449197603" lon="12.651754110959088"><ele>79.8</ele><time>2026-05-02T13:04:16Z</time></trkpt><trkpt lat="43.929304103838014" lon="12.651663421467164"><ele>80.0</ele><time>2026-05-02T13:04:17Z</time></trkpt><trkpt lat="43.92921087532864" lon="12.651572836171916"><ele>80.0</ele><time>2026-05-02T13:04:18Z</time></trkpt><trkpt lat="43.92911878492533" lon="12.651480111924693"><ele>80.0</ele><time>2026-05-02T13:04:19Z</time></trkpt><trkpt lat="43.92903074739187" lon="12.651389328972993"><ele>80.0</ele><time>2026-05-02T13:04:20Z</time></trkpt><trkpt lat="43.92893735327854" lon="12.651298175306003"><ele>80.0</ele><time>2026-05-02T13:04:21Z</time></trkpt><trkpt lat="43.928850425472646" lon="12.651209028447237"><ele>80.0</ele><time>2026-05-02T13:04:22Z</time></trkpt><trkpt lat="43.92876866408523" lon="12.651126252907579"><ele>80.8</ele><time>2026-05-02T13:04:23Z</time></trkpt><trkpt lat="43.92869131129178" lon="12.651046119617583"><ele>81.6</ele><time>2026-05-02T13:04:24Z</time></trkpt><trkpt lat="43.928609303459965" lon="12.650964678596578"><ele>82.4</ele><time>2026-05-02T13:04:25Z</time></trkpt><trkpt lat="43.92852280187252" lon="12.650879595176587"><ele>83.2</ele><time>2026-05-02T13:04:26Z</time></trkpt><trkpt lat="43.928429525410245" lon="12.650785922430288"><ele>84.0</ele><time>2026-05-02T13:04:27.001Z</time></trkpt><trkpt lat="43.928329120829126" lon="12.650683969542808"><ele>84.0</ele><time>2026-05-02T13:04:28.001Z</time></trkpt><trkpt lat="43.928221827406176" lon="12.65058015190153"><ele>84.0</ele><time>2026-05-02T13:04:29.001Z</time></trkpt><trkpt lat="43.92811217284382" lon="12.65046834191837"><ele>84.0</ele><time>2026-05-02T13:04:30.001Z</time></trkpt><trkpt lat="43.92800947625172" lon="12.650360320691236"><ele>84.0</ele><time>2026-05-02T13:04:31.001Z</time></trkpt><trkpt lat="43.92790957708685" lon="12.650257272350355"><ele>84.16666666666667</ele><time>2026-05-02T13:04:32.001Z</time></trkpt><trkpt lat="43.92782432507859" lon="12.650167025597048"><ele>84.33333333333333</ele><time>2026-05-02T13:04:33.001Z</time></trkpt><trkpt lat="43.927749527564956" lon="12.650085057306438"><ele>84.5</ele><time>2026-05-02T13:04:34.001Z</time></trkpt><trkpt lat="43.927682348271816" lon="12.650013617093364"><ele>84.66666666666666</ele><time>2026-05-02T13:04:35.001Z</time></trkpt><trkpt lat="43.92761753642615" lon="12.649946182280699"><ele>84.83333333333333</ele><time>2026-05-02T13:04:36.001Z</time></trkpt><trkpt lat="43.92756174436196" lon="12.64989168973948"><ele>85.0</ele><time>2026-05-02T13:04:37.001Z</time></trkpt><trkpt lat="43.92750966400599" lon="12.649834842082372"><ele>85.0</ele><time>2026-05-02T13:04:38.001Z</time></trkpt><trkpt lat="43.927411852740505" lon="12.649718600225597"><ele>85.0</ele><time>2026-05-02T13:04:40.001Z</time></trkpt><trkpt lat="43.92733329215024" lon="12.649645652986878"><ele>85.0</ele><time>2026-05-02T13:04:41.001Z</time></trkpt><trkpt lat="43.92724488973256" lon="12.64956381141924"><ele>85.0</ele><time>2026-05-02T13:04:42.001Z</time></trkpt><trkpt lat="43.927138320612144" lon="12.649464721933015"><ele>85.0</ele><time>2026-05-02T13:04:43.001Z</time></trkpt><trkpt lat="43.92702728865302" lon="12.64936110059558"><ele>85.0</ele><time>2026-05-02T13:04:44.001Z</time></trkpt><trkpt lat="43.926911552196216" lon="12.649237858351439"><ele>85.0</ele><time>2026-05-02T13:04:45.001Z</time></trkpt><trkpt lat="43.92678796651959" lon="12.649116716902997"><ele>85.0</ele><time>2026-05-02T13:04:46.001Z</time></trkpt><trkpt lat="43.926669140495115" lon="12.648994534756941"><ele>85.0</ele><time>2026-05-02T13:04:47.001Z</time></trkpt><trkpt lat="43.92654672290273" lon="12.648872964815409"><ele>85.0</ele><time>2026-05-02T13:04:48.001Z</time></trkpt><trkpt lat="43.92642703542479" lon="12.648753664897722"><ele>85.0</ele><time>2026-05-02T13:04:49.001Z</time></trkpt><trkpt lat="43.92631384591677" lon="12.648636150470212"><ele>85.0</ele><time>2026-05-02T13:04:50.001Z</time></trkpt><trkpt lat="43.92621024960301" lon="12.648529396837604"><ele>85.5</ele><time>2026-05-02T13:04:51.001Z</time></trkpt><trkpt lat="43.92610160107925" lon="12.64842051038998"><ele>86.0</ele><time>2026-05-02T13:04:52.001Z</time></trkpt><trkpt lat="43.92598248927171" lon="12.64830051726266"><ele>86.5</ele><time>2026-05-02T13:04:53.001Z</time></trkpt><trkpt lat="43.92586358290602" lon="12.648182470955117"><ele>87.0</ele><time>2026-05-02T13:04:54.001Z</time></trkpt><trkpt lat="43.92575088782184" lon="12.648069257154564"><ele>86.75</ele><time>2026-05-02T13:04:55.001Z</time></trkpt><trkpt lat="43.92564249517235" lon="12.647956314982816"><ele>86.5</ele><time>2026-05-02T13:04:56.001Z</time></trkpt><trkpt lat="43.92553214095709" lon="12.647842028984758"><ele>86.25</ele><time>2026-05-02T13:04:57.001Z</time></trkpt><trkpt lat="43.925411774615135" lon="12.647726874864654"><ele>86.0</ele><time>2026-05-02T13:04:58.001Z</time></trkpt><trkpt lat="43.92526086885239" lon="12.647589344439861"><ele>86.0</ele><time>2026-05-02T13:04:59.001Z</time></trkpt><trkpt lat="43.92509006262015" lon="12.647390047323023"><ele>86.0</ele><time>2026-05-02T13:05:00.001Z</time></trkpt><trkpt lat="43.924883664837544" lon="12.64717877958827"><ele>85.5</ele><time>2026-05-02T13:05:01.001Z</time></trkpt><trkpt lat="43.924671806025756" lon="12.646961878803747"><ele>85.0</ele><time>2026-05-02T13:05:02.001Z</time></trkpt><trkpt lat="43.9245015777234" lon="12.646788883681099"><ele>85.75</ele><time>2026-05-02T13:05:03.001Z</time></trkpt><trkpt lat="43.92436636095964" lon="12.6466685599805"><ele>86.5</ele><time>2026-05-02T13:05:04.001Z</time></trkpt><trkpt lat="43.92426310383051" lon="12.6465538829024"><ele>87.25</ele><time>2026-05-02T13:05:05.001Z</time></trkpt><trkpt lat="43.92417549385681" lon="12.646463205103462"><ele>88.0</ele><time>2026-05-02T13:05:06.001Z</time></trkpt><trkpt lat="43.9240993586024" lon="12.646388422017125"><ele>88.0</ele><time>2026-05-02T13:05:07.001Z</time></trkpt><trkpt lat="43.92403631686668" lon="12.646319418532434"><ele>88.0</ele><time>2026-05-02T13:05:08.001Z</time></trkpt><trkpt lat="43.92396692595075" lon="12.646188540212695"><ele>88.0</ele><time>2026-05-02T13:05:10.001Z</time></trkpt><trkpt lat="43.923943156835435" lon="12.646101652334805"><ele>88.0</ele><time>2026-05-02T13:05:11.001Z</time></trkpt><trkpt lat="43.923905605962446" lon="12.646000725296071"><ele>88.0</ele><time>2026-05-02T13:05:12.001Z</time></trkpt><trkpt lat="43.923849861013515" lon="12.645911216767383"><ele>88.0</ele><time>2026-05-02T13:05:13.001Z</time></trkpt><trkpt lat="43.923775452411824" lon="12.645848531727443"><ele>88.0</ele><time>2026-05-02T13:05:14.001Z</time></trkpt><trkpt lat="43.923691513308526" lon="12.64582024538575"><ele>88.0</ele><time>2026-05-02T13:05:15.001Z</time></trkpt><trkpt lat="43.92360045030497" lon="12.645844008262216"><ele>88.0</ele><time>2026-05-02T13:05:16.001Z</time></trkpt><trkpt lat="43.9235288281177" lon="12.645885844508168"><ele>88.0</ele><time>2026-05-02T13:05:17.001Z</time></trkpt><trkpt lat="43.923419421061695" lon="12.645721380329705"><ele>88.0</ele><time>2026-05-02T13:05:18.001Z</time></trkpt><trkpt lat="43.92330770993651" lon="12.645584452369429"><ele>88.0</ele><time>2026-05-02T13:05:19.001Z</time></trkpt><trkpt lat="43.923152156908316" lon="12.64543090124692"><ele>88.0</ele><time>2026-05-02T13:05:20.001Z</time></trkpt><trkpt lat="43.92297235426982" lon="12.645258032091338"><ele>88.0</ele><time>2026-05-02T13:05:21.001Z</time></trkpt><trkpt lat="43.92281554716539" lon="12.645075558251122"><ele>89.0</ele><time>2026-05-02T13:05:22.001Z</time></trkpt><trkpt lat="43.92268252309486" lon="12.644928522595553"><ele>90.0</ele><time>2026-05-02T13:05:23.001Z</time></trkpt><trkpt lat="43.92257530142659" lon="12.644774486309304"><ele>91.0</ele><time>2026-05-02T13:05:24.001Z</time></trkpt><trkpt lat="43.92248859091712" lon="12.644574171259713"><ele>88.66666666666666</ele><time>2026-05-02T13:05:25.001Z</time></trkpt><trkpt lat="43.9224284110853" lon="12.644344053049368"><ele>86.33333333333333</ele><time>2026-05-02T13:05:26.001Z</time></trkpt><trkpt lat="43.92239875246003" lon="12.644083144993058"><ele>84.0</ele><time>2026-05-02T13:05:27.001Z</time></trkpt><trkpt lat="43.92242341738826" lon="12.643800361348113"><ele>84.33333333333333</ele><time>2026-05-02T13:05:28Z</time></trkpt><trkpt lat="43.92244535671398" lon="12.643531342520658"><ele>84.66666666666666</ele><time>2026-05-02T13:05:29Z</time></trkpt><trkpt lat="43.922455186512195" lon="12.6432902014805"><ele>85.0</ele><time>2026-05-02T13:05:30Z</time></trkpt><trkpt lat="43.9224790522789" lon="12.643047582713756"><ele>84.33333333333333</ele><time>2026-05-02T13:05:31Z</time></trkpt><trkpt lat="43.92249712612736" lon="12.64278726891352"><ele>83.66666666666667</ele><time>2026-05-02T13:05:32Z</time></trkpt><trkpt lat="43.922513584523216" lon="12.642539032783763"><ele>83.0</ele><time>2026-05-02T13:05:33Z</time></trkpt><trkpt lat="43.92253135789646" lon="12.642304761796753"><ele>83.0</ele><time>2026-05-02T13:05:34Z</time></trkpt><trkpt lat="43.92254467456875" lon="12.642099932616558"><ele>83.0</ele><time>2026-05-02T13:05:35Z</time></trkpt><trkpt lat="43.92257632530533" lon="12.64191253068256"><ele>83.0</ele><time>2026-05-02T13:05:36Z</time></trkpt><trkpt lat="43.922591002351204" lon="12.641736752381908"><ele>83.0</ele><time>2026-05-02T13:05:37Z</time></trkpt><trkpt lat="43.92258672957065" lon="12.641575679965422"><ele>83.0</ele><time>2026-05-02T13:05:38Z</time></trkpt><trkpt lat="43.92259966517815" lon="12.641426323859593"><ele>83.0</ele><time>2026-05-02T13:05:39Z</time></trkpt><trkpt lat="43.922607486276746" lon="12.641281674333875"><ele>83.0</ele><time>2026-05-02T13:05:40Z</time></trkpt><trkpt lat="43.922607497879206" lon="12.64114998486488"><ele>83.0</ele><time>2026-05-02T13:05:41Z</time></trkpt><trkpt lat="43.922577299674984" lon="12.641023734156835"><ele>83.0</ele><time>2026-05-02T13:05:42Z</time></trkpt><trkpt lat="43.92253064925162" lon="12.640914960203581"><ele>83.0</ele><time>2026-05-02T13:05:43Z</time></trkpt><trkpt lat="43.92246196305742" lon="12.64082724537538"><ele>83.0</ele><time>2026-05-02T13:05:44Z</time></trkpt><trkpt lat="43.922373976195765" lon="12.640759749068417"><ele>83.0</ele><time>2026-05-02T13:05:45Z</time></trkpt><trkpt lat="43.922272723565804" lon="12.640712292141558"><ele>83.0</ele><time>2026-05-02T13:05:46Z</time></trkpt><trkpt lat="43.92214702265574" lon="12.640681369742678"><ele>83.0</ele><time>2026-05-02T13:05:47Z</time></trkpt><trkpt lat="43.92199744092895" lon="12.640661491434"><ele>83.0</ele><time>2026-05-02T13:05:48Z</time></trkpt><trkpt lat="43.921830340819945" lon="12.64062874882047"><ele>83.0</ele><time>2026-05-02T13:05:49Z</time></trkpt><trkpt lat="43.92164205034236" lon="12.640582554962368"><ele>83.0</ele><time>2026-05-02T13:05:50Z</time></trkpt><trkpt lat="43.92146209192884" lon="12.640545570387724"><ele>80.33333333333334</ele><time>2026-05-02T13:05:51Z</time></trkpt><trkpt lat="43.92129543007692" lon="12.640518629970867"><ele>77.66666666666667</ele><time>2026-05-02T13:05:52Z</time></trkpt><trkpt lat="43.92113341579788" lon="12.640491917978526"><ele>75.0</ele><time>2026-05-02T13:05:53Z</time></trkpt><trkpt lat="43.92098146655652" lon="12.640466534248663"><ele>74.25</ele><time>2026-05-02T13:05:54Z</time></trkpt><trkpt lat="43.920831239070104" lon="12.64043992509967"><ele>73.5</ele><time>2026-05-02T13:05:55Z</time></trkpt><trkpt lat="43.920686020901684" lon="12.640410145273984"><ele>72.75</ele><time>2026-05-02T13:05:56Z</time></trkpt><trkpt lat="43.9205427543499" lon="12.640385800951249"><ele>72.0</ele><time>2026-05-02T13:05:57Z</time></trkpt><trkpt lat="43.920386056035746" lon="12.640355974817496"><ele>72.0</ele><time>2026-05-02T13:05:58Z</time></trkpt><trkpt lat="43.92024118615389" lon="12.64033122860284"><ele>72.0</ele><time>2026-05-02T13:05:59Z</time></trkpt><trkpt lat="43.9201164476767" lon="12.640309491516247"><ele>72.0</ele><time>2026-05-02T13:06:00Z</time></trkpt><trkpt lat="43.92000029415405" lon="12.640285997848373"><ele>72.0</ele><time>2026-05-02T13:06:01Z</time></trkpt><trkpt lat="43.91989147558379" lon="12.640263514492457"><ele>72.2</ele><time>2026-05-02T13:06:02Z</time></trkpt><trkpt lat="43.919787768924934" lon="12.640242464296808"><ele>72.4</ele><time>2026-05-02T13:06:03Z</time></trkpt><trkpt lat="43.91968615163298" lon="12.64022459862936"><ele>72.6</ele><time>2026-05-02T13:06:04Z</time></trkpt><trkpt lat="43.91958272939208" lon="12.640205721109401"><ele>72.8</ele><time>2026-05-02T13:06:05Z</time></trkpt><trkpt lat="43.9194833035434" lon="12.640185115743005"><ele>73.0</ele><time>2026-05-02T13:06:06Z</time></trkpt><trkpt lat="43.919386838976784" lon="12.64016717757376"><ele>73.0</ele><time>2026-05-02T13:06:07Z</time></trkpt><trkpt lat="43.9192891069967" lon="12.640146706095054"><ele>73.0</ele><time>2026-05-02T13:06:08Z</time></trkpt><trkpt lat="43.91919335433443" lon="12.640128976111098"><ele>73.0</ele><time>2026-05-02T13:06:09Z</time></trkpt><trkpt lat="43.91910010819692" lon="12.640113754027329"><ele>73.0</ele><time>2026-05-02T13:06:10Z</time></trkpt><trkpt lat="43.91903325328421" lon="12.640099637521052"><ele>73.0</ele><time>2026-05-02T13:06:11Z</time></trkpt><trkpt lat="43.91891420589727" lon="12.64007382172222"><ele>72.4</ele><time>2026-05-02T13:06:13Z</time></trkpt><trkpt lat="43.9188179777911" lon="12.640056734677623"><ele>71.8</ele><time>2026-05-02T13:06:15Z</time></trkpt><trkpt lat="43.91873260862748" lon="12.640040315468784"><ele>71.2</ele><time>2026-05-02T13:06:18Z</time></trkpt><trkpt lat="43.918656105428326" lon="12.640041338894372"><ele>70.6</ele><time>2026-05-02T13:06:22Z</time></trkpt><trkpt lat="43.91852872791593" lon="12.640021511322498"><ele>70.0</ele><time>2026-05-02T13:06:24Z</time></trkpt><trkpt lat="43.91842882656483" lon="12.639965387963896"><ele>69.66666666666666</ele><time>2026-05-02T13:06:26Z</time></trkpt><trkpt lat="43.91834783679766" lon="12.63997067557849"><ele>69.33333333333333</ele><time>2026-05-02T13:06:28Z</time></trkpt><trkpt lat="43.918274919318314" lon="12.639950108683639"><ele>69.0</ele><time>2026-05-02T13:06:30Z</time></trkpt><trkpt lat="43.91821200272758" lon="12.639921046072118"><ele>68.66666666666667</ele><time>2026-05-02T13:06:32Z</time></trkpt><trkpt lat="43.9181579928296" lon="12.639872743904078"><ele>68.33333333333334</ele><time>2026-05-02T13:06:35.001Z</time></trkpt><trkpt lat="43.918086139106784" lon="12.639759526315482"><ele>68.0</ele><time>2026-05-02T13:06:38.001Z</time></trkpt><trkpt lat="43.91803249258575" lon="12.639700195752372"><ele>68.0</ele><time>2026-05-02T13:06:40.001Z</time></trkpt><trkpt lat="43.91794565446583" lon="12.639725653347966"><ele>68.0</ele><time>2026-05-02T13:06:42.001Z</time></trkpt><trkpt lat="43.91787363963811" lon="12.639803170875798"><ele>68.0</ele><time>2026-05-02T13:06:44.001Z</time></trkpt><trkpt lat="43.91777097697107" lon="12.639841066676679"><ele>68.0</ele><time>2026-05-02T13:06:46.001Z</time></trkpt><trkpt lat="43.9177004415925" lon="12.639832502579791"><ele>68.0</ele><time>2026-05-02T13:06:47.001Z</time></trkpt><trkpt lat="43.91761784144551" lon="12.639822198754135"><ele>68.0</ele><time>2026-05-02T13:06:48.001Z</time></trkpt><trkpt lat="43.91752872312789" lon="12.63980894828378"><ele>68.25</ele><time>2026-05-02T13:06:49.001Z</time></trkpt><trkpt lat="43.91742860001836" lon="12.639797050396814"><ele>68.5</ele><time>2026-05-02T13:06:50.001Z</time></trkpt><trkpt lat="43.91731808654128" lon="12.639752897924803"><ele>68.75</ele><time>2026-05-02T13:06:51Z</time></trkpt><trkpt lat="43.917170572996525" lon="12.639724691007826"><ele>69.0</ele><time>2026-05-02T13:06:52Z</time></trkpt><trkpt lat="43.91700934048711" lon="12.63971595453499"><ele>69.0</ele><time>2026-05-02T13:06:53Z</time></trkpt><trkpt lat="43.91683544072346" lon="12.639683102811317"><ele>69.0</ele><time>2026-05-02T13:06:54Z</time></trkpt><trkpt lat="43.91668910682521" lon="12.639654370858958"><ele>69.0</ele><time>2026-05-02T13:06:55Z</time></trkpt><trkpt lat="43.91656229542581" lon="12.639624592898627"><ele>68.75</ele><time>2026-05-02T13:06:56Z</time></trkpt><trkpt lat="43.91644009525479" lon="12.639600364581264"><ele>68.5</ele><time>2026-05-02T13:06:57Z</time></trkpt><trkpt lat="43.916324421292174" lon="12.639578511475301"><ele>68.25</ele><time>2026-05-02T13:06:58Z</time></trkpt><trkpt lat="43.91621041354672" lon="12.639556528197836"><ele>68.0</ele><time>2026-05-02T13:06:59Z</time></trkpt><trkpt lat="43.916094138670736" lon="12.639532891905509"><ele>68.0</ele><time>2026-05-02T13:07:00Z</time></trkpt><trkpt lat="43.91596415313728" lon="12.639511536479315"><ele>68.0</ele><time>2026-05-02T13:07:01Z</time></trkpt><trkpt lat="43.915819937001544" lon="12.639495417425717"><ele>68.0</ele><time>2026-05-02T13:07:02Z</time></trkpt><trkpt lat="43.91567851960304" lon="12.639471638673681"><ele>68.0</ele><time>2026-05-02T13:07:03Z</time></trkpt><trkpt lat="43.91555612060402" lon="12.639444917131653"><ele>68.6</ele><time>2026-05-02T13:07:04Z</time></trkpt><trkpt lat="43.91544541060524" lon="12.639423522171137"><ele>69.19999999999999</ele><time>2026-05-02T13:07:05Z</time></trkpt><trkpt lat="43.91534843924022" lon="12.639408023988603"><ele>69.8</ele><time>2026-05-02T13:07:06Z</time></trkpt><trkpt lat="43.91526662181937" lon="12.639395633186767"><ele>70.39999999999999</ele><time>2026-05-02T13:07:07Z</time></trkpt><trkpt lat="43.91519312596644" lon="12.639388586201164"><ele>71.0</ele><time>2026-05-02T13:07:08Z</time></trkpt><trkpt lat="43.915096349427536" lon="12.639381182882477"><ele>71.33333333333334</ele><time>2026-05-02T13:07:10Z</time></trkpt><trkpt lat="43.91501744438196" lon="12.639371189673147"><ele>71.66666666666667</ele><time>2026-05-02T13:07:12Z</time></trkpt><trkpt lat="43.91491857904199" lon="12.639356163733007"><ele>72.0</ele><time>2026-05-02T13:07:14Z</time></trkpt><trkpt lat="43.914842744263" lon="12.639319412549295"><ele>72.33333333333333</ele><time>2026-05-02T13:07:16Z</time></trkpt><trkpt lat="43.91478402809261" lon="12.63927748194153"><ele>72.66666666666666</ele><time>2026-05-02T13:07:17Z</time></trkpt><trkpt lat="43.914714848414896" lon="12.63922309863629"><ele>73.0</ele><time>2026-05-02T13:07:18Z</time></trkpt><trkpt lat="43.91465236192888" lon="12.63915931972541"><ele>73.0</ele><time>2026-05-02T13:07:19Z</time></trkpt><trkpt lat="43.91458857231261" lon="12.639075997379102"><ele>73.0</ele><time>2026-05-02T13:07:20Z</time></trkpt><trkpt lat="43.914523222380495" lon="12.638979560187217"><ele>73.0</ele><time>2026-05-02T13:07:21Z</time></trkpt><trkpt lat="43.914447997722576" lon="12.638858460198781"><ele>73.0</ele><time>2026-05-02T13:07:22Z</time></trkpt><trkpt lat="43.91437766989492" lon="12.638683000931803"><ele>73.0</ele><time>2026-05-02T13:07:23Z</time></trkpt><trkpt lat="43.91427801541376" lon="12.638482027950229"><ele>73.0</ele><time>2026-05-02T13:07:24Z</time></trkpt><trkpt lat="43.914166020583785" lon="12.638256941140085"><ele>73.0</ele><time>2026-05-02T13:07:25Z</time></trkpt><trkpt lat="43.91403428280043" lon="12.638027012189099"><ele>73.0</ele><time>2026-05-02T13:07:26Z</time></trkpt><trkpt lat="43.91391010308964" lon="12.637767141822128"><ele>73.0</ele><time>2026-05-02T13:07:27Z</time></trkpt><trkpt lat="43.913783856039124" lon="12.637507266055705"><ele>73.0</ele><time>2026-05-02T13:07:28Z</time></trkpt><trkpt lat="43.91366287519174" lon="12.637251161319044"><ele>73.0</ele><time>2026-05-02T13:07:29Z</time></trkpt><trkpt lat="43.91354429183927" lon="12.636999059219145"><ele>73.33333333333333</ele><time>2026-05-02T13:07:30Z</time></trkpt><trkpt lat="43.91343424670207" lon="12.636765811590683"><ele>73.66666666666667</ele><time>2026-05-02T13:07:31Z</time></trkpt><trkpt lat="43.91333741645012" lon="12.63653302868"><ele>74.0</ele><time>2026-05-02T13:07:32Z</time></trkpt><trkpt lat="43.9132594487252" lon="12.63628362466394"><ele>73.66666666666667</ele><time>2026-05-02T13:07:33Z</time></trkpt><trkpt lat="43.91321363368409" lon="12.636016345501188"><ele>73.33333333333333</ele><time>2026-05-02T13:07:34Z</time></trkpt><trkpt lat="43.91322684986885" lon="12.63572781567973"><ele>73.0</ele><time>2026-05-02T13:07:35Z</time></trkpt><trkpt lat="43.91322889087949" lon="12.63544583158187"><ele>73.33333333333333</ele><time>2026-05-02T13:07:36Z</time></trkpt><trkpt lat="43.91321863312303" lon="12.635180569421822"><ele>73.66666666666667</ele><time>2026-05-02T13:07:37Z</time></trkpt><trkpt lat="43.91322387266448" lon="12.634933941768114"><ele>74.0</ele><time>2026-05-02T13:07:38Z</time></trkpt><trkpt lat="43.913231367716605" lon="12.634700516180548"><ele>74.66666666666667</ele><time>2026-05-02T13:07:39Z</time></trkpt><trkpt lat="43.913232470741114" lon="12.634456893381985"><ele>75.33333333333333</ele><time>2026-05-02T13:07:40Z</time></trkpt><trkpt lat="43.913254553065435" lon="12.634202622359123"><ele>76.0</ele><time>2026-05-02T13:07:41Z</time></trkpt><trkpt lat="43.91326027264616" lon="12.63393498822985"><ele>76.0</ele><time>2026-05-02T13:07:42Z</time></trkpt><trkpt lat="43.91326626394299" lon="12.633654639831029"><ele>76.0</ele><time>2026-05-02T13:07:43Z</time></trkpt><trkpt lat="43.91327302147779" lon="12.633374997205081"><ele>76.0</ele><time>2026-05-02T13:07:44Z</time></trkpt><trkpt lat="43.913279313310746" lon="12.633115545543603"><ele>77.33333333333333</ele><time>2026-05-02T13:07:45Z</time></trkpt><trkpt lat="43.913285411987054" lon="12.632864059037118"><ele>78.66666666666667</ele><time>2026-05-02T13:07:46Z</time></trkpt><trkpt lat="43.913291140420206" lon="12.632627839981"><ele>80.0</ele><time>2026-05-02T13:07:47Z</time></trkpt><trkpt lat="43.913276664737666" lon="12.632394790155052"><ele>80.66666666666667</ele><time>2026-05-02T13:07:48Z</time></trkpt><trkpt lat="43.91327944877889" lon="12.632168544340118"><ele>81.33333333333333</ele><time>2026-05-02T13:07:49Z</time></trkpt><trkpt lat="43.91328539440231" lon="12.631944702230603"><ele>82.0</ele><time>2026-05-02T13:07:50Z</time></trkpt><trkpt lat="43.91329240480815" lon="12.631727900281694"><ele>82.33333333333333</ele><time>2026-05-02T13:07:51Z</time></trkpt><trkpt lat="43.91331734273855" lon="12.631512198891167"><ele>82.66666666666667</ele><time>2026-05-02T13:07:52Z</time></trkpt><trkpt lat="43.913322240978864" lon="12.63129566770876"><ele>83.0</ele><time>2026-05-02T13:07:53Z</time></trkpt><trkpt lat="43.913313413308074" lon="12.631072076819262"><ele>83.0</ele><time>2026-05-02T13:07:54Z</time></trkpt><trkpt lat="43.91333257327406" lon="12.63084251308155"><ele>83.0</ele><time>2026-05-02T13:07:55Z</time></trkpt><trkpt lat="43.91333808812471" lon="12.630601469523755"><ele>83.0</ele><time>2026-05-02T13:07:56Z</time></trkpt><trkpt lat="43.913343675399794" lon="12.630357260454948"><ele>83.0</ele><time>2026-05-02T13:07:57Z</time></trkpt><trkpt lat="43.91334946367983" lon="12.630104265861915"><ele>83.0</ele><time>2026-05-02T13:07:58Z</time></trkpt><trkpt lat="43.91335565783579" lon="12.629833531157557"><ele>83.0</ele><time>2026-05-02T13:07:59Z</time></trkpt><trkpt lat="43.913362100017395" lon="12.62955195629167"><ele>83.33333333333334</ele><time>2026-05-02T13:08:00Z</time></trkpt><trkpt lat="43.9133688969863" lon="12.629254874404987"><ele>83.66666666666667</ele><time>2026-05-02T13:08:01Z</time></trkpt><trkpt lat="43.9133753409914" lon="12.628974094369799"><ele>84.0</ele><time>2026-05-02T13:08:02Z</time></trkpt><trkpt lat="43.9133809451564" lon="12.628732215183383"><ele>84.25</ele><time>2026-05-02T13:08:03Z</time></trkpt><trkpt lat="43.9133860058228" lon="12.628513793624787"><ele>84.5</ele><time>2026-05-02T13:08:04Z</time></trkpt><trkpt lat="43.9133908088449" lon="12.628306492035192"><ele>84.75</ele><time>2026-05-02T13:08:05Z</time></trkpt><trkpt lat="43.91339540175557" lon="12.62811145915441"><ele>85.0</ele><time>2026-05-02T13:08:06Z</time></trkpt><trkpt lat="43.913399843512764" lon="12.627925770485318"><ele>85.25</ele><time>2026-05-02T13:08:07Z</time></trkpt><trkpt lat="43.91340424983769" lon="12.627750433445339"><ele>85.5</ele><time>2026-05-02T13:08:08Z</time></trkpt><trkpt lat="43.91340863995867" lon="12.627577999659685"><ele>85.75</ele><time>2026-05-02T13:08:09Z</time></trkpt><trkpt lat="43.913412900103616" lon="12.627410670598582"><ele>86.0</ele><time>2026-05-02T13:08:10Z</time></trkpt><trkpt lat="43.913416692713504" lon="12.627245658162426"><ele>86.19999999999999</ele><time>2026-05-02T13:08:11Z</time></trkpt><trkpt lat="43.913420419976134" lon="12.627081416771095"><ele>86.39999999999999</ele><time>2026-05-02T13:08:12Z</time></trkpt><trkpt lat="43.91341991441121" lon="12.626926670689828"><ele>86.6</ele><time>2026-05-02T13:08:13Z</time></trkpt><trkpt lat="43.91339922540739" lon="12.626801076933933"><ele>86.8</ele><time>2026-05-02T13:08:14Z</time></trkpt><trkpt lat="43.9133955021903" lon="12.626690726768313"><ele>87.0</ele><time>2026-05-02T13:08:15Z</time></trkpt><trkpt lat="43.91338372018782" lon="12.626590202811869"><ele>87.0</ele><time>2026-05-02T13:08:16Z</time></trkpt><trkpt lat="43.91337590553117" lon="12.626493997592783"><ele>87.0</ele><time>2026-05-02T13:08:17Z</time></trkpt><trkpt lat="43.91338310633862" lon="12.626404619258876"><ele>87.0</ele><time>2026-05-02T13:08:18Z</time></trkpt><trkpt lat="43.91339325840348" lon="12.62630263357015"><ele>87.0</ele><time>2026-05-02T13:08:19Z</time></trkpt><trkpt lat="43.91340517668365" lon="12.626156265624607"><ele>87.0</ele><time>2026-05-02T13:08:20Z</time></trkpt><trkpt lat="43.91341570937936" lon="12.62597229824745"><ele>87.0</ele><time>2026-05-02T13:08:21Z</time></trkpt><trkpt lat="43.91343370604788" lon="12.6257572040637"><ele>88.0</ele><time>2026-05-02T13:08:22Z</time></trkpt><trkpt lat="43.913446666503866" lon="12.625517647126571"><ele>89.0</ele><time>2026-05-02T13:08:23Z</time></trkpt><trkpt lat="43.91345385310493" lon="12.625248258148721"><ele>90.0</ele><time>2026-05-02T13:08:24Z</time></trkpt><trkpt lat="43.91346084954267" lon="12.624956589747129"><ele>90.0</ele><time>2026-05-02T13:08:25Z</time></trkpt><trkpt lat="43.913466012410694" lon="12.624652483059693"><ele>90.0</ele><time>2026-05-02T13:08:26Z</time></trkpt><trkpt lat="43.9134743424734" lon="12.624333977706312"><ele>90.0</ele><time>2026-05-02T13:08:27Z</time></trkpt><trkpt lat="43.913479190088196" lon="12.624012855230902"><ele>89.5</ele><time>2026-05-02T13:08:28Z</time></trkpt><trkpt lat="43.91348432140013" lon="12.62368636804568"><ele>89.0</ele><time>2026-05-02T13:08:29Z</time></trkpt><trkpt lat="43.91350847311824" lon="12.623360194391893"><ele>91.0</ele><time>2026-05-02T13:08:30Z</time></trkpt><trkpt lat="43.913503583847074" lon="12.623030742768384"><ele>93.0</ele><time>2026-05-02T13:08:31Z</time></trkpt><trkpt lat="43.913512999533616" lon="12.622697573150543"><ele>93.0</ele><time>2026-05-02T13:08:32Z</time></trkpt><trkpt lat="43.913520672860216" lon="12.62236128906123"><ele>93.0</ele><time>2026-05-02T13:08:33Z</time></trkpt><trkpt lat="43.91352741752276" lon="12.622032792175192"><ele>95.5</ele><time>2026-05-02T13:08:34Z</time></trkpt><trkpt lat="43.913534027348696" lon="12.621707709048781"><ele>98.0</ele><time>2026-05-02T13:08:35Z</time></trkpt><trkpt lat="43.913541624678714" lon="12.621388131739813"><ele>99.33333333333333</ele><time>2026-05-02T13:08:36Z</time></trkpt><trkpt lat="43.913551076132535" lon="12.621077630537487"><ele>100.66666666666666</ele><time>2026-05-02T13:08:37Z</time></trkpt><trkpt lat="43.9135588707413" lon="12.62077283772495"><ele>102.0</ele><time>2026-05-02T13:08:38Z</time></trkpt><trkpt lat="43.91356568344194" lon="12.620473907794844"><ele>102.33333333333334</ele><time>2026-05-02T13:08:39Z</time></trkpt><trkpt lat="43.91357446813068" lon="12.620179358674168"><ele>102.66666666666667</ele><time>2026-05-02T13:08:40Z</time></trkpt><trkpt lat="43.91358092701906" lon="12.619882957772608"><ele>103.0</ele><time>2026-05-02T13:08:41Z</time></trkpt><trkpt lat="43.91358774749613" lon="12.619578946575695"><ele>103.66666666666667</ele><time>2026-05-02T13:08:42Z</time></trkpt><trkpt lat="43.913596284992586" lon="12.619279025968714"><ele>104.33333333333334</ele><time>2026-05-02T13:08:43Z</time></trkpt><trkpt lat="43.913605269642986" lon="12.618972848246816"><ele>105.0</ele><time>2026-05-02T13:08:44Z</time></trkpt><trkpt lat="43.91360828028691" lon="12.618655492612907"><ele>106.5</ele><time>2026-05-02T13:08:45Z</time></trkpt><trkpt lat="43.91361867278218" lon="12.618344640986912"><ele>108.0</ele><time>2026-05-02T13:08:46Z</time></trkpt><trkpt lat="43.91362971958848" lon="12.618018201091818"><ele>107.5</ele><time>2026-05-02T13:08:47Z</time></trkpt><trkpt lat="43.91363317675949" lon="12.617700722060915"><ele>107.0</ele><time>2026-05-02T13:08:48Z</time></trkpt><trkpt lat="43.913644530255176" lon="12.617371560918984"><ele>107.0</ele><time>2026-05-02T13:08:49Z</time></trkpt><trkpt lat="43.91365258767572" lon="12.617039467216452"><ele>107.0</ele><time>2026-05-02T13:08:50Z</time></trkpt><trkpt lat="43.91366291599406" lon="12.6166993477644"><ele>107.0</ele><time>2026-05-02T13:08:51Z</time></trkpt><trkpt lat="43.913670493154605" lon="12.616366621340484"><ele>107.0</ele><time>2026-05-02T13:08:52Z</time></trkpt><trkpt lat="43.913676781429" lon="12.616047040616559"><ele>107.0</ele><time>2026-05-02T13:08:53Z</time></trkpt><trkpt lat="43.9136865208563" lon="12.615747354102492"><ele>107.0</ele><time>2026-05-02T13:08:54Z</time></trkpt><trkpt lat="43.913696617237264" lon="12.615463891188101"><ele>107.0</ele><time>2026-05-02T13:08:55Z</time></trkpt><trkpt lat="43.91369891940999" lon="12.615207310949707"><ele>107.33333333333333</ele><time>2026-05-02T13:08:56Z</time></trkpt><trkpt lat="43.91370795774628" lon="12.61495247862556"><ele>107.66666666666666</ele><time>2026-05-02T13:08:57Z</time></trkpt><trkpt lat="43.913717087378494" lon="12.614713718216128"><ele>108.0</ele><time>2026-05-02T13:08:58Z</time></trkpt><trkpt lat="43.913726168957986" lon="12.61448666287947"><ele>107.33333333333334</ele><time>2026-05-02T13:08:59Z</time></trkpt><trkpt lat="43.91374085866021" lon="12.614263042458772"><ele>106.66666666666667</ele><time>2026-05-02T13:09:00Z</time></trkpt><trkpt lat="43.91375924676115" lon="12.614039527465906"><ele>106.0</ele><time>2026-05-02T13:09:01Z</time></trkpt><trkpt lat="43.91378250779455" lon="12.613800309393007"><ele>105.75</ele><time>2026-05-02T13:09:02Z</time></trkpt><trkpt lat="43.91381175027308" lon="12.613588810304414"><ele>105.5</ele><time>2026-05-02T13:09:03Z</time></trkpt><trkpt lat="43.9138441844513" lon="12.613391750808837"><ele>105.25</ele><time>2026-05-02T13:09:04Z</time></trkpt><trkpt lat="43.913878358523256" lon="12.613196742400756"><ele>105.0</ele><time>2026-05-02T13:09:05Z</time></trkpt><trkpt lat="43.91392087091581" lon="12.613001048145875"><ele>105.0</ele><time>2026-05-02T13:09:06Z</time></trkpt><trkpt lat="43.91396417357989" lon="12.612792828411889"><ele>105.0</ele><time>2026-05-02T13:09:07Z</time></trkpt><trkpt lat="43.91401645526765" lon="12.612576196464829"><ele>105.0</ele><time>2026-05-02T13:09:08Z</time></trkpt><trkpt lat="43.914072347046535" lon="12.61236876225609"><ele>105.0</ele><time>2026-05-02T13:09:09Z</time></trkpt><trkpt lat="43.91413390954207" lon="12.612166924176453"><ele>105.0</ele><time>2026-05-02T13:09:10Z</time></trkpt><trkpt lat="43.914200792266705" lon="12.611963839351946"><ele>105.0</ele><time>2026-05-02T13:09:11Z</time></trkpt><trkpt lat="43.914276659780036" lon="12.611733548637023"><ele>106.33333333333334</ele><time>2026-05-02T13:09:12Z</time></trkpt><trkpt lat="43.9143554388975" lon="12.611458194964383"><ele>107.66666666666667</ele><time>2026-05-02T13:09:13Z</time></trkpt><trkpt lat="43.91444745684976" lon="12.611160072517109"><ele>109.0</ele><time>2026-05-02T13:09:14Z</time></trkpt><trkpt lat="43.914560377903136" lon="12.610848084097526"><ele>109.0</ele><time>2026-05-02T13:09:15Z</time></trkpt><trkpt lat="43.914656191482386" lon="12.61053900310774"><ele>109.0</ele><time>2026-05-02T13:09:16Z</time></trkpt><trkpt lat="43.91473349665633" lon="12.610184809911066"><ele>109.0</ele><time>2026-05-02T13:09:17Z</time></trkpt><trkpt lat="43.91478736562583" lon="12.609832532622018"><ele>109.0</ele><time>2026-05-02T13:09:18Z</time></trkpt><trkpt lat="43.9148311268121" lon="12.609471823651974"><ele>109.0</ele><time>2026-05-02T13:09:19Z</time></trkpt><trkpt lat="43.914869895586584" lon="12.60910914583647"><ele>109.0</ele><time>2026-05-02T13:09:20Z</time></trkpt><trkpt lat="43.91491379617248" lon="12.608753726087073"><ele>110.0</ele><time>2026-05-02T13:09:21Z</time></trkpt><trkpt lat="43.91495960012611" lon="12.608398493800086"><ele>111.0</ele><time>2026-05-02T13:09:22Z</time></trkpt><trkpt lat="43.91500200302339" lon="12.608049396022386"><ele>111.0</ele><time>2026-05-02T13:09:23Z</time></trkpt><trkpt lat="43.91503732201902" lon="12.60771139009834"><ele>111.0</ele><time>2026-05-02T13:09:24Z</time></trkpt><trkpt lat="43.91507887253697" lon="12.607367091031763"><ele>112.5</ele><time>2026-05-02T13:09:25Z</time></trkpt><trkpt lat="43.91511945874362" lon="12.607031134961177"><ele>114.0</ele><time>2026-05-02T13:09:26Z</time></trkpt><trkpt lat="43.915163583690116" lon="12.606699387876274"><ele>114.0</ele><time>2026-05-02T13:09:27Z</time></trkpt><trkpt lat="43.91520242177419" lon="12.606363477360558"><ele>114.0</ele><time>2026-05-02T13:09:28Z</time></trkpt><trkpt lat="43.915237522382164" lon="12.606060139260599"><ele>114.0</ele><time>2026-05-02T13:09:29Z</time></trkpt><trkpt lat="43.9152693062659" lon="12.605796016960939"><ele>114.0</ele><time>2026-05-02T13:09:30Z</time></trkpt><trkpt lat="43.9153001602348" lon="12.605553148266361"><ele>114.0</ele><time>2026-05-02T13:09:31Z</time></trkpt><trkpt lat="43.91532966370901" lon="12.605323500466962"><ele>114.0</ele><time>2026-05-02T13:09:32Z</time></trkpt><trkpt lat="43.915353272028526" lon="12.605121423787612"><ele>114.0</ele><time>2026-05-02T13:09:33Z</time></trkpt><trkpt lat="43.91537399920303" lon="12.604932662559667"><ele>114.0</ele><time>2026-05-02T13:09:34Z</time></trkpt><trkpt lat="43.91538973816502" lon="12.604739863746875"><ele>114.0</ele><time>2026-05-02T13:09:35Z</time></trkpt><trkpt lat="43.91540777246463" lon="12.604505162782317"><ele>114.33333333333334</ele><time>2026-05-02T13:09:36Z</time></trkpt><trkpt lat="43.915448714614605" lon="12.60423304918884"><ele>114.66666666666667</ele><time>2026-05-02T13:09:37Z</time></trkpt><trkpt lat="43.91549344913719" lon="12.603945909450399"><ele>115.0</ele><time>2026-05-02T13:09:38Z</time></trkpt><trkpt lat="43.91552837269454" lon="12.603653797820277"><ele>116.0</ele><time>2026-05-02T13:09:39Z</time></trkpt><trkpt lat="43.915561833404205" lon="12.603370003538908"><ele>117.0</ele><time>2026-05-02T13:09:40Z</time></trkpt><trkpt lat="43.91559600594022" lon="12.60310163992338"><ele>118.0</ele><time>2026-05-02T13:09:41Z</time></trkpt><trkpt lat="43.91564051163389" lon="12.602852408356163"><ele>118.66666666666667</ele><time>2026-05-02T13:09:42Z</time></trkpt><trkpt lat="43.9157009195167" lon="12.602594998589684"><ele>119.33333333333334</ele><time>2026-05-02T13:09:43Z</time></trkpt><trkpt lat="43.915778089700076" lon="12.602337373024358"><ele>120.0</ele><time>2026-05-02T13:09:44Z</time></trkpt><trkpt lat="43.91586262693973" lon="12.6020787117233"><ele>120.33333333333334</ele><time>2026-05-02T13:09:45Z</time></trkpt><trkpt lat="43.91594467306315" lon="12.601817475496686"><ele>120.66666666666667</ele><time>2026-05-02T13:09:46Z</time></trkpt><trkpt lat="43.91602557869305" lon="12.601549139500243"><ele>121.0</ele><time>2026-05-02T13:09:47Z</time></trkpt><trkpt lat="43.91610222013712" lon="12.601295435227472"><ele>121.33333333333334</ele><time>2026-05-02T13:09:48Z</time></trkpt><trkpt lat="43.91617503834243" lon="12.601056547208607"><ele>121.66666666666666</ele><time>2026-05-02T13:09:49Z</time></trkpt><trkpt lat="43.916241904434195" lon="12.600832647321727"><ele>122.0</ele><time>2026-05-02T13:09:50Z</time></trkpt><trkpt lat="43.91630971503554" lon="12.600620954884269"><ele>122.0</ele><time>2026-05-02T13:09:51Z</time></trkpt><trkpt lat="43.91637093086292" lon="12.600430698563242"><ele>122.0</ele><time>2026-05-02T13:09:52Z</time></trkpt><trkpt lat="43.916429145943596" lon="12.600247196187105"><ele>122.0</ele><time>2026-05-02T13:09:53Z</time></trkpt><trkpt lat="43.91648355498926" lon="12.600080195263214"><ele>122.0</ele><time>2026-05-02T13:09:54Z</time></trkpt><trkpt lat="43.91653093796437" lon="12.599920924161415"><ele>121.99999999999999</ele><time>2026-05-02T13:09:55Z</time></trkpt><trkpt lat="43.91656991206485" lon="12.59979499603517"><ele>122.0</ele><time>2026-05-02T13:09:56Z</time></trkpt><trkpt lat="43.916603751915" lon="12.59968475054167"><ele>122.0</ele><time>2026-05-02T13:09:57Z</time></trkpt><trkpt lat="43.916641436211" lon="12.59958412535652"><ele>122.0</ele><time>2026-05-02T13:09:58Z</time></trkpt><trkpt lat="43.91667109603991" lon="12.59948956496728"><ele>121.99999999999999</ele><time>2026-05-02T13:09:59Z</time></trkpt><trkpt lat="43.91669815356833" lon="12.599405292053836"><ele>122.0</ele><time>2026-05-02T13:10:00Z</time></trkpt><trkpt lat="43.91672249547107" lon="12.599317251072613"><ele>123.99999999999999</ele><time>2026-05-02T13:10:01Z</time></trkpt><trkpt lat="43.91675018443076" lon="12.599225693732784"><ele>126.0</ele><time>2026-05-02T13:10:02Z</time></trkpt><trkpt lat="43.9167782878267" lon="12.599124911234847"><ele>128.0</ele><time>2026-05-02T13:10:03Z</time></trkpt><trkpt lat="43.9168100817391" lon="12.599014639767349"><ele>130.0</ele><time>2026-05-02T13:10:04Z</time></trkpt><trkpt lat="43.91684412819091" lon="12.59890205150608"><ele>132.0</ele><time>2026-05-02T13:10:05Z</time></trkpt><trkpt lat="43.916878450145454" lon="12.598780564170044"><ele>134.0</ele><time>2026-05-02T13:10:06Z</time></trkpt><trkpt lat="43.91691711536477" lon="12.598650435560993"><ele>134.0</ele><time>2026-05-02T13:10:07Z</time></trkpt><trkpt lat="43.916958256498766" lon="12.59851554205151"><ele>134.0</ele><time>2026-05-02T13:10:08Z</time></trkpt><trkpt lat="43.91699719544227" lon="12.598371873324007"><ele>134.0</ele><time>2026-05-02T13:10:09Z</time></trkpt><trkpt lat="43.91703172425293" lon="12.59822275668288"><ele>134.0</ele><time>2026-05-02T13:10:10Z</time></trkpt><trkpt lat="43.9170557695231" lon="12.598062822320257"><ele>134.0</ele><time>2026-05-02T13:10:11Z</time></trkpt><trkpt lat="43.91706915639428" lon="12.597894861650783"><ele>133.0</ele><time>2026-05-02T13:10:12Z</time></trkpt><trkpt lat="43.9170744733083" lon="12.597721281490086"><ele>132.0</ele><time>2026-05-02T13:10:13Z</time></trkpt><trkpt lat="43.91706848058706" lon="12.59754795686231"><ele>131.0</ele><time>2026-05-02T13:10:14Z</time></trkpt><trkpt lat="43.91705624918427" lon="12.597370858606835"><ele>130.0</ele><time>2026-05-02T13:10:15Z</time></trkpt><trkpt lat="43.917045594504124" lon="12.59722134488942"><ele>130.0</ele><time>2026-05-02T13:10:16Z</time></trkpt><trkpt lat="43.91703927166937" lon="12.59709753446409"><ele>130.0</ele><time>2026-05-02T13:10:17Z</time></trkpt><trkpt lat="43.9170549264098" lon="12.597006175180196"><ele>130.0</ele><time>2026-05-02T13:10:18Z</time></trkpt><trkpt lat="43.91708087173855" lon="12.59691946575425"><ele>130.0</ele><time>2026-05-02T13:10:19Z</time></trkpt><trkpt lat="43.917070051955264" lon="12.59682890928287"><ele>130.0</ele><time>2026-05-02T13:10:20Z</time></trkpt><trkpt lat="43.917027176250755" lon="12.596715242589097"><ele>130.0</ele><time>2026-05-02T13:10:21Z</time></trkpt><trkpt lat="43.91699420083791" lon="12.596564365893814"><ele>129.75</ele><time>2026-05-02T13:10:22Z</time></trkpt><trkpt lat="43.91698665646869" lon="12.596384028043929"><ele>129.5</ele><time>2026-05-02T13:10:23Z</time></trkpt><trkpt lat="43.91698451897745" lon="12.596187116232853"><ele>129.25</ele><time>2026-05-02T13:10:24Z</time></trkpt><trkpt lat="43.91699397290545" lon="12.595975872746664"><ele>129.0</ele><time>2026-05-02T13:10:25Z</time></trkpt><trkpt lat="43.917003937595304" lon="12.595750841190016"><ele>128.33333333333334</ele><time>2026-05-02T13:10:26Z</time></trkpt><trkpt lat="43.91701251683812" lon="12.595499059145531"><ele>127.66666666666667</ele><time>2026-05-02T13:10:27Z</time></trkpt><trkpt lat="43.91702216269544" lon="12.595231114937288"><ele>127.0</ele><time>2026-05-02T13:10:28Z</time></trkpt><trkpt lat="43.91703393847709" lon="12.594950499950333"><ele>126.33333333333334</ele><time>2026-05-02T13:10:29Z</time></trkpt><trkpt lat="43.91704897463674" lon="12.594660535979704"><ele>125.66666666666666</ele><time>2026-05-02T13:10:30Z</time></trkpt><trkpt lat="43.91706655010499" lon="12.5943645378676"><ele>125.0</ele><time>2026-05-02T13:10:31Z</time></trkpt><trkpt lat="43.91708351154356" lon="12.594064557026288"><ele>124.33333333333333</ele><time>2026-05-02T13:10:32Z</time></trkpt><trkpt lat="43.91710057617859" lon="12.593752380194816"><ele>123.66666666666666</ele><time>2026-05-02T13:10:33Z</time></trkpt><trkpt lat="43.91714880574812" lon="12.593459468865452"><ele>123.0</ele><time>2026-05-02T13:10:34Z</time></trkpt><trkpt lat="43.91721923009812" lon="12.593171377680516"><ele>123.0</ele><time>2026-05-02T13:10:35Z</time></trkpt><trkpt lat="43.917304246903605" lon="12.592862903874153"><ele>123.0</ele><time>2026-05-02T13:10:36Z</time></trkpt><trkpt lat="43.917382653545964" lon="12.592534989407774"><ele>123.5</ele><time>2026-05-02T13:10:37Z</time></trkpt><trkpt lat="43.91747324119802" lon="12.592201260068869"><ele>124.0</ele><time>2026-05-02T13:10:38Z</time></trkpt><trkpt lat="43.917580570261414" lon="12.591870631443644"><ele>124.5</ele><time>2026-05-02T13:10:39Z</time></trkpt><trkpt lat="43.91767904412283" lon="12.59151890948043"><ele>125.0</ele><time>2026-05-02T13:10:40Z</time></trkpt><trkpt lat="43.91777621712842" lon="12.591171833834752"><ele>125.0</ele><time>2026-05-02T13:10:41Z</time></trkpt><trkpt lat="43.917857912803015" lon="12.590824593489794"><ele>125.0</ele><time>2026-05-02T13:10:42Z</time></trkpt><trkpt lat="43.91795198912022" lon="12.59048731515509"><ele>124.66666666666666</ele><time>2026-05-02T13:10:43Z</time></trkpt><trkpt lat="43.918023495304354" lon="12.590191921903548"><ele>124.33333333333334</ele><time>2026-05-02T13:10:44Z</time></trkpt><trkpt lat="43.91807091006151" lon="12.589945553647206"><ele>124.0</ele><time>2026-05-02T13:10:45Z</time></trkpt><trkpt lat="43.918100329394804" lon="12.589709209887529"><ele>124.0</ele><time>2026-05-02T13:10:46Z</time></trkpt><trkpt lat="43.918124002111995" lon="12.589461704856678"><ele>124.0</ele><time>2026-05-02T13:10:47Z</time></trkpt><trkpt lat="43.91815090554602" lon="12.589204405372218"><ele>124.0</ele><time>2026-05-02T13:10:48Z</time></trkpt><trkpt lat="43.91818033267381" lon="12.588938702050296"><ele>124.0</ele><time>2026-05-02T13:10:49Z</time></trkpt><trkpt lat="43.918215597222186" lon="12.588676282031571"><ele>124.0</ele><time>2026-05-02T13:10:50Z</time></trkpt><trkpt lat="43.91828632216663" lon="12.588417508524444"><ele>124.0</ele><time>2026-05-02T13:10:51Z</time></trkpt><trkpt lat="43.91836947823272" lon="12.588150295047479"><ele>125.5</ele><time>2026-05-02T13:10:52Z</time></trkpt><trkpt lat="43.91846974939727" lon="12.587851461810905"><ele>127.0</ele><time>2026-05-02T13:10:53Z</time></trkpt><trkpt lat="43.91855897372301" lon="12.587540505168132"><ele>127.0</ele><time>2026-05-02T13:10:54Z</time></trkpt><trkpt lat="43.91866478743181" lon="12.587227748186326"><ele>127.0</ele><time>2026-05-02T13:10:55Z</time></trkpt><trkpt lat="43.91877024054679" lon="12.586914842983546"><ele>126.0</ele><time>2026-05-02T13:10:56Z</time></trkpt><trkpt lat="43.91887589382202" lon="12.586592413995628"><ele>125.0</ele><time>2026-05-02T13:10:57Z</time></trkpt><trkpt lat="43.91898059051996" lon="12.586267034231785"><ele>124.0</ele><time>2026-05-02T13:10:58Z</time></trkpt><trkpt lat="43.91908696827822" lon="12.585941636628133"><ele>123.0</ele><time>2026-05-02T13:10:59Z</time></trkpt><trkpt lat="43.91919508076201" lon="12.585608016982338"><ele>128.0</ele><time>2026-05-02T13:11:00Z</time></trkpt><trkpt lat="43.91930398710541" lon="12.58528288109741"><ele>133.0</ele><time>2026-05-02T13:11:01Z</time></trkpt><trkpt lat="43.919415446637714" lon="12.584954146701456"><ele>133.0</ele><time>2026-05-02T13:11:02Z</time></trkpt><trkpt lat="43.919526455040334" lon="12.584620130629698"><ele>133.0</ele><time>2026-05-02T13:11:03Z</time></trkpt><trkpt lat="43.9196432886695" lon="12.58429209966867"><ele>131.0</ele><time>2026-05-02T13:11:04Z</time></trkpt><trkpt lat="43.919762617116604" lon="12.58395696371693"><ele>129.0</ele><time>2026-05-02T13:11:05Z</time></trkpt><trkpt lat="43.91987697031215" lon="12.583620804069247"><ele>127.0</ele><time>2026-05-02T13:11:06Z</time></trkpt><trkpt lat="43.91997068041502" lon="12.58328954847119"><ele>125.0</ele><time>2026-05-02T13:11:07Z</time></trkpt><trkpt lat="43.92003049037862" lon="12.582969703356422"><ele>125.5</ele><time>2026-05-02T13:11:08Z</time></trkpt><trkpt lat="43.920058087915166" lon="12.582644266509105"><ele>126.0</ele><time>2026-05-02T13:11:09Z</time></trkpt><trkpt lat="43.920057465992286" lon="12.582306968674342"><ele>126.5</ele><time>2026-05-02T13:11:10Z</time></trkpt><trkpt lat="43.92004991464194" lon="12.581958159641145"><ele>127.0</ele><time>2026-05-02T13:11:11Z</time></trkpt><trkpt lat="43.92003914507169" lon="12.581595472981645"><ele>127.0</ele><time>2026-05-02T13:11:12Z</time></trkpt><trkpt lat="43.92002767147877" lon="12.581223718904193"><ele>127.0</ele><time>2026-05-02T13:11:13Z</time></trkpt><trkpt lat="43.920017066353246" lon="12.580843755734808"><ele>127.0</ele><time>2026-05-02T13:11:14Z</time></trkpt><trkpt lat="43.920008310632745" lon="12.580456762913048"><ele>127.0</ele><time>2026-05-02T13:11:15Z</time></trkpt><trkpt lat="43.92000444339175" lon="12.580079480920874"><ele>127.0</ele><time>2026-05-02T13:11:16Z</time></trkpt><trkpt lat="43.91997520084795" lon="12.579732244258931"><ele>127.0</ele><time>2026-05-02T13:11:17Z</time></trkpt><trkpt lat="43.91990606481659" lon="12.579417550013913"><ele>127.66666666666667</ele><time>2026-05-02T13:11:18Z</time></trkpt><trkpt lat="43.91981515273211" lon="12.579134937098543"><ele>128.33333333333334</ele><time>2026-05-02T13:11:19Z</time></trkpt><trkpt lat="43.919740016182395" lon="12.578892635154192"><ele>129.0</ele><time>2026-05-02T13:11:20Z</time></trkpt><trkpt lat="43.9196756669792" lon="12.578685212833394"><ele>129.75</ele><time>2026-05-02T13:11:21Z</time></trkpt><trkpt lat="43.91961844667822" lon="12.578501596227111"><ele>130.5</ele><time>2026-05-02T13:11:22Z</time></trkpt><trkpt lat="43.919567451250565" lon="12.57832863955975"><ele>131.25</ele><time>2026-05-02T13:11:23Z</time></trkpt><trkpt lat="43.91952347664091" lon="12.578123021718906"><ele>132.0</ele><time>2026-05-02T13:11:24Z</time></trkpt><trkpt lat="43.919477320625575" lon="12.577883845225152"><ele>132.33333333333334</ele><time>2026-05-02T13:11:25Z</time></trkpt><trkpt lat="43.91941259650222" lon="12.577621092511391"><ele>132.66666666666669</ele><time>2026-05-02T13:11:26Z</time></trkpt><trkpt lat="43.919333518572046" lon="12.57734407352403"><ele>133.0</ele><time>2026-05-02T13:11:27Z</time></trkpt><trkpt lat="43.91924240515175" lon="12.577054977486718"><ele>132.5</ele><time>2026-05-02T13:11:28Z</time></trkpt><trkpt lat="43.919151999080896" lon="12.576726323249686"><ele>132.0</ele><time>2026-05-02T13:11:29Z</time></trkpt><trkpt lat="43.91908077250405" lon="12.57636414834908"><ele>133.0</ele><time>2026-05-02T13:11:30Z</time></trkpt><trkpt lat="43.91899611558429" lon="12.576012275185834"><ele>134.0</ele><time>2026-05-02T13:11:31Z</time></trkpt><trkpt lat="43.918902635698956" lon="12.57567338699257"><ele>134.0</ele><time>2026-05-02T13:11:32Z</time></trkpt><trkpt lat="43.918819097919354" lon="12.57536165750451"><ele>134.0</ele><time>2026-05-02T13:11:33Z</time></trkpt><trkpt lat="43.91873972521686" lon="12.575058926822164"><ele>135.5</ele><time>2026-05-02T13:11:34Z</time></trkpt><trkpt lat="43.91865973492821" lon="12.574754520221834"><ele>137.0</ele><time>2026-05-02T13:11:35Z</time></trkpt><trkpt lat="43.91857886254434" lon="12.574441423499223"><ele>139.5</ele><time>2026-05-02T13:11:36Z</time></trkpt><trkpt lat="43.91849440725175" lon="12.574121840009655"><ele>142.0</ele><time>2026-05-02T13:11:37Z</time></trkpt><trkpt lat="43.91841010111963" lon="12.57380044794692"><ele>139.5</ele><time>2026-05-02T13:11:38Z</time></trkpt><trkpt lat="43.91832842835566" lon="12.573472325606849"><ele>137.0</ele><time>2026-05-02T13:11:39Z</time></trkpt><trkpt lat="43.91824624371025" lon="12.57314834087795"><ele>138.0</ele><time>2026-05-02T13:11:40Z</time></trkpt><trkpt lat="43.91815902992351" lon="12.57281658186007"><ele>139.0</ele><time>2026-05-02T13:11:41Z</time></trkpt><trkpt lat="43.91807162151535" lon="12.572483332591458"><ele>139.0</ele><time>2026-05-02T13:11:42Z</time></trkpt><trkpt lat="43.917987789293285" lon="12.572149286131447"><ele>139.0</ele><time>2026-05-02T13:11:43Z</time></trkpt><trkpt lat="43.91790090396331" lon="12.571816588382658"><ele>140.0</ele><time>2026-05-02T13:11:44Z</time></trkpt><trkpt lat="43.91782210956982" lon="12.571510301449168"><ele>141.0</ele><time>2026-05-02T13:11:45Z</time></trkpt><trkpt lat="43.917751143994515" lon="12.571236795812846"><ele>142.0</ele><time>2026-05-02T13:11:46Z</time></trkpt><trkpt lat="43.917689202212635" lon="12.570971235227487"><ele>142.33333333333334</ele><time>2026-05-02T13:11:47Z</time></trkpt><trkpt lat="43.91765774302223" lon="12.570705688888996"><ele>142.66666666666666</ele><time>2026-05-02T13:11:48Z</time></trkpt><trkpt lat="43.91765533793086" lon="12.57043125451812"><ele>143.0</ele><time>2026-05-02T13:11:49Z</time></trkpt><trkpt lat="43.917669599164114" lon="12.570146526362452"><ele>143.0</ele><time>2026-05-02T13:11:50Z</time></trkpt><trkpt lat="43.917684438330134" lon="12.569865088226658"><ele>143.0</ele><time>2026-05-02T13:11:51Z</time></trkpt><trkpt lat="43.91768895892133" lon="12.569601875603155"><ele>143.0</ele><time>2026-05-02T13:11:52Z</time></trkpt><trkpt lat="43.91769255290906" lon="12.56936213451875"><ele>143.0</ele><time>2026-05-02T13:11:53Z</time></trkpt><trkpt lat="43.917697359286834" lon="12.569131386832396"><ele>143.0</ele><time>2026-05-02T13:11:54Z</time></trkpt><trkpt lat="43.91770513879228" lon="12.56891327315593"><ele>143.0</ele><time>2026-05-02T13:11:55Z</time></trkpt><trkpt lat="43.91770919000339" lon="12.568700261218051"><ele>143.0</ele><time>2026-05-02T13:11:56Z</time></trkpt><trkpt lat="43.91770334734152" lon="12.568493115767101"><ele>143.0</ele><time>2026-05-02T13:11:57Z</time></trkpt><trkpt lat="43.9177127211351" lon="12.568279158783557"><ele>143.0</ele><time>2026-05-02T13:11:58Z</time></trkpt><trkpt lat="43.91771524272091" lon="12.56807455245778"><ele>143.0</ele><time>2026-05-02T13:11:59Z</time></trkpt><trkpt lat="43.91771496421649" lon="12.567860601255367"><ele>143.0</ele><time>2026-05-02T13:12:00Z</time></trkpt><trkpt lat="43.91771028706816" lon="12.567648724664824"><ele>143.0</ele><time>2026-05-02T13:12:01Z</time></trkpt><trkpt lat="43.91768995893919" lon="12.56745818680873"><ele>143.0</ele><time>2026-05-02T13:12:02Z</time></trkpt><trkpt lat="43.917637348500925" lon="12.567284735470377"><ele>142.66666666666666</ele><time>2026-05-02T13:12:03Z</time></trkpt><trkpt lat="43.91754539398705" lon="12.567125499727762"><ele>142.33333333333334</ele><time>2026-05-02T13:12:04Z</time></trkpt><trkpt lat="43.917418782008795" lon="12.566978026609616"><ele>142.0</ele><time>2026-05-02T13:12:05Z</time></trkpt><trkpt lat="43.917255875223844" lon="12.566838255826642"><ele>143.0</ele><time>2026-05-02T13:12:06Z</time></trkpt><trkpt lat="43.91706070530677" lon="12.566677098675338"><ele>144.0</ele><time>2026-05-02T13:12:07Z</time></trkpt><trkpt lat="43.916856039136164" lon="12.566490935041957"><ele>143.0</ele><time>2026-05-02T13:12:08Z</time></trkpt><trkpt lat="43.916638631254614" lon="12.566280946287511"><ele>142.0</ele><time>2026-05-02T13:12:09Z</time></trkpt><trkpt lat="43.91642583772956" lon="12.566053833768756"><ele>142.0</ele><time>2026-05-02T13:12:10Z</time></trkpt><trkpt lat="43.91622428663637" lon="12.565842880660458"><ele>142.0</ele><time>2026-05-02T13:12:11Z</time></trkpt><trkpt lat="43.91604753575783" lon="12.565656431016984"><ele>142.0</ele><time>2026-05-02T13:12:12Z</time></trkpt><trkpt lat="43.91590368364155" lon="12.565490759407712"><ele>142.0</ele><time>2026-05-02T13:12:13Z</time></trkpt><trkpt lat="43.91579184419874" lon="12.56535372759823"><ele>142.0</ele><time>2026-05-02T13:12:14Z</time></trkpt><trkpt lat="43.91569693355313" lon="12.56522987060756"><ele>143.5</ele><time>2026-05-02T13:12:15Z</time></trkpt><trkpt lat="43.91562382339161" lon="12.56509000765573"><ele>145.0</ele><time>2026-05-02T13:12:16Z</time></trkpt><trkpt lat="43.915585720746705" lon="12.564922267498629"><ele>146.5</ele><time>2026-05-02T13:12:17Z</time></trkpt><trkpt lat="43.91558330187672" lon="12.564727459850431"><ele>148.0</ele><time>2026-05-02T13:12:18Z</time></trkpt><trkpt lat="43.91560906108645" lon="12.564508103835754"><ele>149.66666666666669</ele><time>2026-05-02T13:12:19Z</time></trkpt><trkpt lat="43.915635415034124" lon="12.564238436630834"><ele>151.33333333333334</ele><time>2026-05-02T13:12:20Z</time></trkpt><trkpt lat="43.915659429356765" lon="12.563936482693105"><ele>153.0</ele><time>2026-05-02T13:12:21Z</time></trkpt><trkpt lat="43.91567916886672" lon="12.563642066165375"><ele>155.33333333333334</ele><time>2026-05-02T13:12:22Z</time></trkpt><trkpt lat="43.91566886831727" lon="12.563394225778323"><ele>157.66666666666669</ele><time>2026-05-02T13:12:23Z</time></trkpt><trkpt lat="43.91561776295029" lon="12.563200909714817"><ele>160.0</ele><time>2026-05-02T13:12:24Z</time></trkpt><trkpt lat="43.915514920494786" lon="12.563047176048928"><ele>160.0</ele><time>2026-05-02T13:12:25Z</time></trkpt><trkpt lat="43.91536953203362" lon="12.562925283617426"><ele>160.0</ele><time>2026-05-02T13:12:26Z</time></trkpt><trkpt lat="43.91519312315408" lon="12.562842674618127"><ele>160.0</ele><time>2026-05-02T13:12:27Z</time></trkpt><trkpt lat="43.91500160269145" lon="12.562777360261013"><ele>159.66666666666669</ele><time>2026-05-02T13:12:28Z</time></trkpt><trkpt lat="43.91482096511935" lon="12.562712978974734"><ele>159.33333333333334</ele><time>2026-05-02T13:12:29Z</time></trkpt><trkpt lat="43.914687542511075" lon="12.562602280677346"><ele>159.0</ele><time>2026-05-02T13:12:30Z</time></trkpt><trkpt lat="43.91459044043405" lon="12.56246667418361"><ele>159.0</ele><time>2026-05-02T13:12:31Z</time></trkpt><trkpt lat="43.914487694334944" lon="12.562309654862883"><ele>159.0</ele><time>2026-05-02T13:12:32Z</time></trkpt><trkpt lat="43.914414181064195" lon="12.562119927512216"><ele>159.0</ele><time>2026-05-02T13:12:33Z</time></trkpt><trkpt lat="43.914331472398636" lon="12.56196166950464"><ele>159.0</ele><time>2026-05-02T13:12:34Z</time></trkpt><trkpt lat="43.91424518908021" lon="12.561799961860746"><ele>159.25</ele><time>2026-05-02T13:12:35Z</time></trkpt><trkpt lat="43.91415937966701" lon="12.561633742772733"><ele>159.5</ele><time>2026-05-02T13:12:36Z</time></trkpt><trkpt lat="43.914071459638656" lon="12.561465969317593"><ele>159.75</ele><time>2026-05-02T13:12:37Z</time></trkpt><trkpt lat="43.91398397199202" lon="12.561305982652964"><ele>160.0</ele><time>2026-05-02T13:12:38Z</time></trkpt><trkpt lat="43.91390244181565" lon="12.56115532566003"><ele>160.25</ele><time>2026-05-02T13:12:39Z</time></trkpt><trkpt lat="43.91382403583026" lon="12.56101038364342"><ele>160.5</ele><time>2026-05-02T13:12:40Z</time></trkpt><trkpt lat="43.91374164645366" lon="12.56085174651323"><ele>160.75</ele><time>2026-05-02T13:12:41Z</time></trkpt><trkpt lat="43.91365895706072" lon="12.560691286331005"><ele>161.0</ele><time>2026-05-02T13:12:42Z</time></trkpt><trkpt lat="43.913571162656424" lon="12.560528160730067"><ele>161.75</ele><time>2026-05-02T13:12:43Z</time></trkpt><trkpt lat="43.91348144860158" lon="12.560361428486924"><ele>162.5</ele><time>2026-05-02T13:12:44Z</time></trkpt><trkpt lat="43.91339864141942" lon="12.560192276615451"><ele>163.25</ele><time>2026-05-02T13:12:45Z</time></trkpt><trkpt lat="43.91331915036307" lon="12.560036134625983"><ele>164.0</ele><time>2026-05-02T13:12:46Z</time></trkpt><trkpt lat="43.91324196777828" lon="12.559892415893303"><ele>164.0</ele><time>2026-05-02T13:12:47Z</time></trkpt><trkpt lat="43.913168021413824" lon="12.55974702339644"><ele>164.0</ele><time>2026-05-02T13:12:48Z</time></trkpt><trkpt lat="43.91309112326498" lon="12.559593203804493"><ele>164.0</ele><time>2026-05-02T13:12:49Z</time></trkpt><trkpt lat="43.9130103291714" lon="12.559432803849496"><ele>164.0</ele><time>2026-05-02T13:12:50Z</time></trkpt><trkpt lat="43.91293105866946" lon="12.55927848133368"><ele>164.75</ele><time>2026-05-02T13:12:51.001Z</time></trkpt><trkpt lat="43.91284919291443" lon="12.55912096035928"><ele>165.5</ele><time>2026-05-02T13:12:52.001Z</time></trkpt><trkpt lat="43.912766526904775" lon="12.558961707197614"><ele>166.25</ele><time>2026-05-02T13:12:53.001Z</time></trkpt><trkpt lat="43.9126862178518" lon="12.558803218092782"><ele>167.0</ele><time>2026-05-02T13:12:54.001Z</time></trkpt><trkpt lat="43.91260374400033" lon="12.55864403251861"><ele>167.0</ele><time>2026-05-02T13:12:55.001Z</time></trkpt><trkpt lat="43.91252075605553" lon="12.558484225774494"><ele>167.0</ele><time>2026-05-02T13:12:56.001Z</time></trkpt><trkpt lat="43.91243748323592" lon="12.55832636347129"><ele>167.0</ele><time>2026-05-02T13:12:57.001Z</time></trkpt><trkpt lat="43.91235764433957" lon="12.558164574400552"><ele>167.0</ele><time>2026-05-02T13:12:58.001Z</time></trkpt><trkpt lat="43.91227367793167" lon="12.557996650960416"><ele>167.0</ele><time>2026-05-02T13:12:59.001Z</time></trkpt><trkpt lat="43.91218836713078" lon="12.557838553324835"><ele>167.0</ele><time>2026-05-02T13:13:00.001Z</time></trkpt><trkpt lat="43.912101984488324" lon="12.557683360328694"><ele>167.0</ele><time>2026-05-02T13:13:01.001Z</time></trkpt><trkpt lat="43.912008356599976" lon="12.557530671598096"><ele>167.0</ele><time>2026-05-02T13:13:02.001Z</time></trkpt><trkpt lat="43.911914711442996" lon="12.557379696604238"><ele>167.0</ele><time>2026-05-02T13:13:03.001Z</time></trkpt><trkpt lat="43.911816105783444" lon="12.557235305572378"><ele>167.0</ele><time>2026-05-02T13:13:04.001Z</time></trkpt><trkpt lat="43.91171707678911" lon="12.557089096396236"><ele>167.0</ele><time>2026-05-02T13:13:05.001Z</time></trkpt><trkpt lat="43.911627274117876" lon="12.556930817033155"><ele>167.0</ele><time>2026-05-02T13:13:06.001Z</time></trkpt><trkpt lat="43.91154388582296" lon="12.556762989772583"><ele>167.5</ele><time>2026-05-02T13:13:07.001Z</time></trkpt><trkpt lat="43.911480325145796" lon="12.556599614374734"><ele>168.0</ele><time>2026-05-02T13:13:08.001Z</time></trkpt><trkpt lat="43.91143272329398" lon="12.556429128537012"><ele>168.5</ele><time>2026-05-02T13:13:09.001Z</time></trkpt><trkpt lat="43.91138932742495" lon="12.556262102505224"><ele>169.0</ele><time>2026-05-02T13:13:10.001Z</time></trkpt><trkpt lat="43.911339712093344" lon="12.556083309422055"><ele>169.75</ele><time>2026-05-02T13:13:11.001Z</time></trkpt><trkpt lat="43.911278176773" lon="12.555902238972267"><ele>170.5</ele><time>2026-05-02T13:13:12.001Z</time></trkpt><trkpt lat="43.911195428986154" lon="12.555736267846036"><ele>171.25</ele><time>2026-05-02T13:13:13.001Z</time></trkpt><trkpt lat="43.911087102196106" lon="12.555595580644919"><ele>172.0</ele><time>2026-05-02T13:13:14.001Z</time></trkpt><trkpt lat="43.910964840781986" lon="12.555476217387412"><ele>172.75</ele><time>2026-05-02T13:13:15.001Z</time></trkpt><trkpt lat="43.910840841285975" lon="12.55535849691548"><ele>173.5</ele><time>2026-05-02T13:13:16.001Z</time></trkpt><trkpt lat="43.910724192108354" lon="12.555237659248249"><ele>174.25</ele><time>2026-05-02T13:13:17.001Z</time></trkpt><trkpt lat="43.91060919956968" lon="12.555107259603483"><ele>175.0</ele><time>2026-05-02T13:13:18.001Z</time></trkpt><trkpt lat="43.91050248545435" lon="12.554961498387275"><ele>175.0</ele><time>2026-05-02T13:13:19.001Z</time></trkpt><trkpt lat="43.91042614015335" lon="12.554780044842346"><ele>175.0</ele><time>2026-05-02T13:13:20.001Z</time></trkpt><trkpt lat="43.91034093252717" lon="12.554589943763354"><ele>175.0</ele><time>2026-05-02T13:13:21.001Z</time></trkpt><trkpt lat="43.91027067052588" lon="12.55436748536451"><ele>174.33333333333334</ele><time>2026-05-02T13:13:22.001Z</time></trkpt><trkpt lat="43.91019591226677" lon="12.554129372796282"><ele>173.66666666666666</ele><time>2026-05-02T13:13:23.001Z</time></trkpt><trkpt lat="43.910115678057416" lon="12.553876425583566"><ele>173.0</ele><time>2026-05-02T13:13:24.001Z</time></trkpt><trkpt lat="43.91003406811756" lon="12.553624630622242"><ele>173.0</ele><time>2026-05-02T13:13:25.001Z</time></trkpt><trkpt lat="43.909951225534115" lon="12.553374741208623"><ele>173.0</ele><time>2026-05-02T13:13:26.001Z</time></trkpt><trkpt lat="43.90987181389525" lon="12.553126922943592"><ele>173.0</ele><time>2026-05-02T13:13:27.001Z</time></trkpt><trkpt lat="43.90979214798723" lon="12.552868688884956"><ele>173.66666666666666</ele><time>2026-05-02T13:13:28.001Z</time></trkpt><trkpt lat="43.90971629130007" lon="12.552625408508021"><ele>174.33333333333334</ele><time>2026-05-02T13:13:29.001Z</time></trkpt><trkpt lat="43.90963922934336" lon="12.552379193172857"><ele>175.0</ele><time>2026-05-02T13:13:30.001Z</time></trkpt><trkpt lat="43.909558088357116" lon="12.552136809975268"><ele>176.0</ele><time>2026-05-02T13:13:31.001Z</time></trkpt><trkpt lat="43.909476389526056" lon="12.551899324178535"><ele>177.0</ele><time>2026-05-02T13:13:32.001Z</time></trkpt><trkpt lat="43.90941209674599" lon="12.551641846977972"><ele>178.0</ele><time>2026-05-02T13:13:33.001Z</time></trkpt><trkpt lat="43.909332221587285" lon="12.551391909949634"><ele>179.66666666666669</ele><time>2026-05-02T13:13:34.001Z</time></trkpt><trkpt lat="43.90925468184402" lon="12.551150095298599"><ele>181.33333333333334</ele><time>2026-05-02T13:13:35.001Z</time></trkpt><trkpt lat="43.90916060870715" lon="12.55091097098278"><ele>183.0</ele><time>2026-05-02T13:13:36.001Z</time></trkpt><trkpt lat="43.9090850614034" lon="12.550668547335166"><ele>180.66666666666666</ele><time>2026-05-02T13:13:37.001Z</time></trkpt><trkpt lat="43.90900358185648" lon="12.550420303251517"><ele>178.33333333333331</ele><time>2026-05-02T13:13:38.001Z</time></trkpt><trkpt lat="43.90892312889505" lon="12.550176335882686"><ele>176.0</ele><time>2026-05-02T13:13:39.001Z</time></trkpt><trkpt lat="43.90883140111105" lon="12.549940271126035"><ele>176.0</ele><time>2026-05-02T13:13:40.001Z</time></trkpt><trkpt lat="43.908717131897575" lon="12.549712262259378"><ele>176.0</ele><time>2026-05-02T13:13:41.001Z</time></trkpt><trkpt lat="43.90857139208424" lon="12.54948960940967"><ele>176.0</ele><time>2026-05-02T13:13:42.001Z</time></trkpt><trkpt lat="43.908416148708255" lon="12.549267993999223"><ele>174.5</ele><time>2026-05-02T13:13:43.001Z</time></trkpt><trkpt lat="43.908252958231685" lon="12.549031874298207"><ele>173.0</ele><time>2026-05-02T13:13:44.001Z</time></trkpt><trkpt lat="43.90809552133616" lon="12.548786282233731"><ele>175.5</ele><time>2026-05-02T13:13:45.001Z</time></trkpt><trkpt lat="43.90793186600782" lon="12.548535309195882"><ele>178.0</ele><time>2026-05-02T13:13:46.001Z</time></trkpt><trkpt lat="43.907780372031446" lon="12.548295411599742"><ele>178.0</ele><time>2026-05-02T13:13:47.001Z</time></trkpt><trkpt lat="43.907660043442306" lon="12.548047296386294"><ele>178.0</ele><time>2026-05-02T13:13:48.001Z</time></trkpt><trkpt lat="43.90759234740205" lon="12.547763227585678"><ele>178.0</ele><time>2026-05-02T13:13:49.001Z</time></trkpt><trkpt lat="43.90753095600524" lon="12.547454737706675"><ele>177.0</ele><time>2026-05-02T13:13:50.001Z</time></trkpt><trkpt lat="43.90746345165422" lon="12.54713130618471"><ele>176.0</ele><time>2026-05-02T13:13:51.001Z</time></trkpt><trkpt lat="43.90740679628248" lon="12.546798412577662"><ele>176.0</ele><time>2026-05-02T13:13:52.001Z</time></trkpt><trkpt lat="43.90734367096546" lon="12.546470793163216"><ele>176.0</ele><time>2026-05-02T13:13:53.001Z</time></trkpt><trkpt lat="43.90728706281201" lon="12.546160836109587"><ele>177.0</ele><time>2026-05-02T13:13:54.001Z</time></trkpt><trkpt lat="43.90722771371216" lon="12.545847026200304"><ele>178.0</ele><time>2026-05-02T13:13:55.001Z</time></trkpt><trkpt lat="43.90717074600673" lon="12.545544229941825"><ele>179.33333333333334</ele><time>2026-05-02T13:13:56.001Z</time></trkpt><trkpt lat="43.90711689685536" lon="12.545245052205352"><ele>180.66666666666666</ele><time>2026-05-02T13:13:57.001Z</time></trkpt><trkpt lat="43.90705800950881" lon="12.544944628230537"><ele>182.0</ele><time>2026-05-02T13:13:58.001Z</time></trkpt><trkpt lat="43.906993642613116" lon="12.544639161403179"><ele>183.0</ele><time>2026-05-02T13:13:59.001Z</time></trkpt><trkpt lat="43.906925476088105" lon="12.544335377196367"><ele>184.0</ele><time>2026-05-02T13:14:00.001Z</time></trkpt><trkpt lat="43.906844184236725" lon="12.544036653520228"><ele>184.0</ele><time>2026-05-02T13:14:01Z</time></trkpt><trkpt lat="43.906747392613205" lon="12.543731676466129"><ele>184.0</ele><time>2026-05-02T13:14:02Z</time></trkpt><trkpt lat="43.906634213289536" lon="12.54343154588279"><ele>183.0</ele><time>2026-05-02T13:14:03Z</time></trkpt><trkpt lat="43.906512060302255" lon="12.543135749078939"><ele>182.0</ele><time>2026-05-02T13:14:04Z</time></trkpt><trkpt lat="43.90638055896121" lon="12.54283467045211"><ele>184.0</ele><time>2026-05-02T13:14:05Z</time></trkpt><trkpt lat="43.90625889999065" lon="12.542536245962708"><ele>186.0</ele><time>2026-05-02T13:14:06Z</time></trkpt><trkpt lat="43.906137075915005" lon="12.542227563869549"><ele>187.5</ele><time>2026-05-02T13:14:07Z</time></trkpt><trkpt lat="43.90602200670788" lon="12.541917837556475"><ele>189.0</ele><time>2026-05-02T13:14:08Z</time></trkpt><trkpt lat="43.90590491506262" lon="12.54160876038909"><ele>189.0</ele><time>2026-05-02T13:14:09Z</time></trkpt><trkpt lat="43.90578452238323" lon="12.541300069993737"><ele>189.0</ele><time>2026-05-02T13:14:10Z</time></trkpt><trkpt lat="43.90566336392079" lon="12.540998400206597"><ele>189.5</ele><time>2026-05-02T13:14:11Z</time></trkpt><trkpt lat="43.905541534918875" lon="12.54069995127577"><ele>190.0</ele><time>2026-05-02T13:14:12Z</time></trkpt><trkpt lat="43.905420239339634" lon="12.540400356509865"><ele>190.5</ele><time>2026-05-02T13:14:13Z</time></trkpt><trkpt lat="43.90529517264494" lon="12.540102881033071"><ele>191.0</ele><time>2026-05-02T13:14:14Z</time></trkpt><trkpt lat="43.905167114200005" lon="12.539803139019748"><ele>189.5</ele><time>2026-05-02T13:14:15Z</time></trkpt><trkpt lat="43.905029740680725" lon="12.539507437027808"><ele>188.0</ele><time>2026-05-02T13:14:16Z</time></trkpt><trkpt lat="43.904883612020335" lon="12.539220204497632"><ele>188.0</ele><time>2026-05-02T13:14:17Z</time></trkpt><trkpt lat="43.90471964559558" lon="12.538942848543503"><ele>188.0</ele><time>2026-05-02T13:14:18Z</time></trkpt><trkpt lat="43.90455665475459" lon="12.53869120680099"><ele>189.5</ele><time>2026-05-02T13:14:19Z</time></trkpt><trkpt lat="43.90438484809272" lon="12.538447514109572"><ele>191.0</ele><time>2026-05-02T13:14:20Z</time></trkpt><trkpt lat="43.904211082857735" lon="12.538228225047087"><ele>192.0</ele><time>2026-05-02T13:14:21Z</time></trkpt><trkpt lat="43.904028686429676" lon="12.537997466101467"><ele>193.0</ele><time>2026-05-02T13:14:22Z</time></trkpt><trkpt lat="43.90384738522674" lon="12.53776765713418"><ele>195.0</ele><time>2026-05-02T13:14:23Z</time></trkpt><trkpt lat="43.9036493132184" lon="12.537526178879988"><ele>197.0</ele><time>2026-05-02T13:14:24Z</time></trkpt><trkpt lat="43.903460728790925" lon="12.537287556978969"><ele>196.0</ele><time>2026-05-02T13:14:25Z</time></trkpt><trkpt lat="43.90325933773016" lon="12.537035325811882"><ele>195.0</ele><time>2026-05-02T13:14:26Z</time></trkpt><trkpt lat="43.90306008213209" lon="12.536781372047733"><ele>195.0</ele><time>2026-05-02T13:14:27Z</time></trkpt><trkpt lat="43.90285879482866" lon="12.536522381091038"><ele>195.0</ele><time>2026-05-02T13:14:28Z</time></trkpt><trkpt lat="43.90265993793771" lon="12.536269375026134"><ele>197.0</ele><time>2026-05-02T13:14:29Z</time></trkpt><trkpt lat="43.90245618634146" lon="12.536016217463574"><ele>199.0</ele><time>2026-05-02T13:14:30Z</time></trkpt><trkpt lat="43.902255063599725" lon="12.535764429537387"><ele>199.0</ele><time>2026-05-02T13:14:31Z</time></trkpt><trkpt lat="43.90206419341083" lon="12.535525445426705"><ele>199.0</ele><time>2026-05-02T13:14:32Z</time></trkpt><trkpt lat="43.90189909640722" lon="12.535318556704459"><ele>200.0</ele><time>2026-05-02T13:14:33Z</time></trkpt><trkpt lat="43.90175322467214" lon="12.535130773430907"><ele>201.0</ele><time>2026-05-02T13:14:34Z</time></trkpt><trkpt lat="43.901612033493905" lon="12.53495648490133"><ele>202.0</ele><time>2026-05-02T13:14:35Z</time></trkpt><trkpt lat="43.90145761913887" lon="12.534784394106945"><ele>202.0</ele><time>2026-05-02T13:14:36Z</time></trkpt><trkpt lat="43.90130082940134" lon="12.534619115268782"><ele>202.0</ele><time>2026-05-02T13:14:37Z</time></trkpt><trkpt lat="43.90112815982618" lon="12.534462960571044"><ele>202.0</ele><time>2026-05-02T13:14:38Z</time></trkpt><trkpt lat="43.90094400191566" lon="12.534329389064204"><ele>201.66666666666666</ele><time>2026-05-02T13:14:39Z</time></trkpt><trkpt lat="43.90074266651335" lon="12.534212878130091"><ele>201.33333333333331</ele><time>2026-05-02T13:14:40Z</time></trkpt><trkpt lat="43.900544297233914" lon="12.534118148333784"><ele>201.0</ele><time>2026-05-02T13:14:41Z</time></trkpt><trkpt lat="43.90032695494005" lon="12.534053808779568"><ele>201.0</ele><time>2026-05-02T13:14:42Z</time></trkpt><trkpt lat="43.90010933547366" lon="12.533999585767821"><ele>201.0</ele><time>2026-05-02T13:14:43Z</time></trkpt><trkpt lat="43.899882443499514" lon="12.533955640789017"><ele>196.0</ele><time>2026-05-02T13:14:44Z</time></trkpt><trkpt lat="43.89965243546093" lon="12.533919232211892"><ele>191.0</ele><time>2026-05-02T13:14:45Z</time></trkpt><trkpt lat="43.89940917586546" lon="12.53387821713996"><ele>190.0</ele><time>2026-05-02T13:14:46Z</time></trkpt><trkpt lat="43.89916869656133" lon="12.533840144239885"><ele>189.0</ele><time>2026-05-02T13:14:47Z</time></trkpt><trkpt lat="43.898923267223054" lon="12.533803383293813"><ele>189.0</ele><time>2026-05-02T13:14:48Z</time></trkpt><trkpt lat="43.89868451960361" lon="12.533767239307656"><ele>189.0</ele><time>2026-05-02T13:14:49Z</time></trkpt><trkpt lat="43.89844104514339" lon="12.533730816639473"><ele>197.5</ele><time>2026-05-02T13:14:50Z</time></trkpt><trkpt lat="43.89820566674406" lon="12.533693611470591"><ele>206.0</ele><time>2026-05-02T13:14:51Z</time></trkpt><trkpt lat="43.89797224562781" lon="12.533651740533603"><ele>206.0</ele><time>2026-05-02T13:14:52Z</time></trkpt><trkpt lat="43.897751071146374" lon="12.533624368467912"><ele>206.0</ele><time>2026-05-02T13:14:53Z</time></trkpt><trkpt lat="43.89761174210666" lon="12.533594618672321"><ele>206.0</ele><time>2026-05-02T13:14:54Z</time></trkpt><trkpt lat="43.897529022471176" lon="12.533575938542178"><ele>206.0</ele><time>2026-05-02T13:14:55Z</time></trkpt><trkpt lat="43.89743593156215" lon="12.533558316930234"><ele>205.0</ele><time>2026-05-02T13:14:56Z</time></trkpt><trkpt lat="43.897329927103634" lon="12.533535326810156"><ele>204.0</ele><time>2026-05-02T13:14:57.001Z</time></trkpt><trkpt lat="43.897225451599674" lon="12.533514517807928"><ele>203.0</ele><time>2026-05-02T13:14:58.001Z</time></trkpt><trkpt lat="43.89711111999079" lon="12.533482783176579"><ele>202.0</ele><time>2026-05-02T13:14:59.001Z</time></trkpt><trkpt lat="43.89698378393492" lon="12.533456405864909"><ele>202.0</ele><time>2026-05-02T13:15:00.001Z</time></trkpt><trkpt lat="43.89684236941337" lon="12.533431970846431"><ele>202.0</ele><time>2026-05-02T13:15:01.001Z</time></trkpt><trkpt lat="43.89668629393092" lon="12.533400894871699"><ele>202.0</ele><time>2026-05-02T13:15:02.001Z</time></trkpt><trkpt lat="43.896518444266476" lon="12.533375593309433"><ele>201.0</ele><time>2026-05-02T13:15:03.001Z</time></trkpt><trkpt lat="43.896336808133995" lon="12.533366668547549"><ele>200.0</ele><time>2026-05-02T13:15:04.001Z</time></trkpt><trkpt lat="43.896144895555324" lon="12.533373612904084"><ele>199.0</ele><time>2026-05-02T13:15:05.001Z</time></trkpt><trkpt lat="43.89594205801673" lon="12.533387469891819"><ele>199.0</ele><time>2026-05-02T13:15:06.001Z</time></trkpt><trkpt lat="43.89572963908207" lon="12.533406368352022"><ele>199.0</ele><time>2026-05-02T13:15:07.001Z</time></trkpt><trkpt lat="43.89551198363151" lon="12.533429644345425"><ele>199.0</ele><time>2026-05-02T13:15:08.001Z</time></trkpt><trkpt lat="43.89530534455874" lon="12.533450848543294"><ele>199.0</ele><time>2026-05-02T13:15:09.001Z</time></trkpt><trkpt lat="43.89510399117358" lon="12.533475975841117"><ele>199.0</ele><time>2026-05-02T13:15:10.001Z</time></trkpt><trkpt lat="43.89488959518122" lon="12.533505065338066"><ele>199.0</ele><time>2026-05-02T13:15:11.001Z</time></trkpt><trkpt lat="43.89467974540092" lon="12.53352907258567"><ele>199.0</ele><time>2026-05-02T13:15:12.001Z</time></trkpt><trkpt lat="43.89445309751177" lon="12.533553102656768"><ele>199.0</ele><time>2026-05-02T13:15:13.001Z</time></trkpt><trkpt lat="43.89422554058667" lon="12.53357911574999"><ele>199.0</ele><time>2026-05-02T13:15:14.001Z</time></trkpt><trkpt lat="43.89400032809568" lon="12.53359964944006"><ele>199.0</ele><time>2026-05-02T13:15:15.001Z</time></trkpt><trkpt lat="43.89376983392641" lon="12.533619290038846"><ele>199.0</ele><time>2026-05-02T13:15:16.001Z</time></trkpt><trkpt lat="43.89353829081147" lon="12.533634747197736"><ele>199.0</ele><time>2026-05-02T13:15:17.001Z</time></trkpt><trkpt lat="43.89330587672519" lon="12.53364964297876"><ele>197.0</ele><time>2026-05-02T13:15:18.001Z</time></trkpt><trkpt lat="43.89306648023136" lon="12.53365861948058"><ele>195.0</ele><time>2026-05-02T13:15:19.001Z</time></trkpt><trkpt lat="43.89281981330599" lon="12.533650843717037"><ele>195.5</ele><time>2026-05-02T13:15:20.001Z</time></trkpt><trkpt lat="43.892572680769014" lon="12.533617234301714"><ele>196.0</ele><time>2026-05-02T13:15:21.001Z</time></trkpt><trkpt lat="43.892318246947546" lon="12.533573009771677"><ele>196.0</ele><time>2026-05-02T13:15:22.001Z</time></trkpt><trkpt lat="43.89206177259331" lon="12.533523989158097"><ele>196.0</ele><time>2026-05-02T13:15:23.001Z</time></trkpt><trkpt lat="43.891799525280824" lon="12.533477466964046"><ele>196.5</ele><time>2026-05-02T13:15:24.001Z</time></trkpt><trkpt lat="43.8915340605431" lon="12.533433958118781"><ele>197.0</ele><time>2026-05-02T13:15:25.001Z</time></trkpt><trkpt lat="43.891269860544384" lon="12.533376574308166"><ele>197.0</ele><time>2026-05-02T13:15:26.001Z</time></trkpt><trkpt lat="43.89101953617756" lon="12.53330695875181"><ele>197.0</ele><time>2026-05-02T13:15:27.001Z</time></trkpt><trkpt lat="43.89076120167916" lon="12.533225928250776"><ele>198.0</ele><time>2026-05-02T13:15:28.001Z</time></trkpt><trkpt lat="43.8905139066785" lon="12.533123149157158"><ele>199.0</ele><time>2026-05-02T13:15:29.001Z</time></trkpt><trkpt lat="43.890270556552416" lon="12.532990224922814"><ele>201.0</ele><time>2026-05-02T13:15:30.001Z</time></trkpt><trkpt lat="43.89003175543919" lon="12.532835874216016"><ele>203.0</ele><time>2026-05-02T13:15:31.001Z</time></trkpt><trkpt lat="43.889800357297624" lon="12.532668228463631"><ele>203.0</ele><time>2026-05-02T13:15:32.001Z</time></trkpt><trkpt lat="43.88957124990391" lon="12.53250010219109"><ele>203.0</ele><time>2026-05-02T13:15:33.001Z</time></trkpt><trkpt lat="43.88934452789674" lon="12.53232999713292"><ele>203.0</ele><time>2026-05-02T13:15:34.001Z</time></trkpt><trkpt lat="43.88912473156287" lon="12.532137362446422"><ele>203.0</ele><time>2026-05-02T13:15:35.001Z</time></trkpt><trkpt lat="43.888916911266094" lon="12.53191883430968"><ele>208.0</ele><time>2026-05-02T13:15:36.001Z</time></trkpt><trkpt lat="43.88871657744341" lon="12.531693003718457"><ele>213.0</ele><time>2026-05-02T13:15:37.001Z</time></trkpt><trkpt lat="43.888522579554056" lon="12.5314533067027"><ele>211.0</ele><time>2026-05-02T13:15:38.001Z</time></trkpt><trkpt lat="43.88832958703007" lon="12.531202691793151"><ele>209.0</ele><time>2026-05-02T13:15:39.001Z</time></trkpt><trkpt lat="43.88814379846263" lon="12.530951394949088"><ele>209.0</ele><time>2026-05-02T13:15:40.001Z</time></trkpt><trkpt lat="43.887953076884294" lon="12.53069353285941"><ele>209.0</ele><time>2026-05-02T13:15:41.001Z</time></trkpt><trkpt lat="43.887766943384754" lon="12.530439788843127"><ele>209.5</ele><time>2026-05-02T13:15:42.001Z</time></trkpt><trkpt lat="43.88757527308692" lon="12.53018560722618"><ele>210.0</ele><time>2026-05-02T13:15:43.001Z</time></trkpt><trkpt lat="43.88738791130937" lon="12.529934828269017"><ele>210.0</ele><time>2026-05-02T13:15:44.001Z</time></trkpt><trkpt lat="43.88719853986185" lon="12.529677248585678"><ele>210.0</ele><time>2026-05-02T13:15:45.001Z</time></trkpt><trkpt lat="43.88701213239042" lon="12.529417010083511"><ele>210.0</ele><time>2026-05-02T13:15:46.001Z</time></trkpt><trkpt lat="43.8868252078166" lon="12.529158050957449"><ele>210.0</ele><time>2026-05-02T13:15:47.001Z</time></trkpt><trkpt lat="43.88663690061424" lon="12.528900156184596"><ele>213.5</ele><time>2026-05-02T13:15:48.001Z</time></trkpt><trkpt lat="43.88644822628626" lon="12.528645953734934"><ele>217.0</ele><time>2026-05-02T13:15:49.001Z</time></trkpt><trkpt lat="43.8862569059014" lon="12.528393184829133"><ele>217.0</ele><time>2026-05-02T13:15:50.001Z</time></trkpt><trkpt lat="43.88606493870174" lon="12.528138187847064"><ele>217.0</ele><time>2026-05-02T13:15:51.001Z</time></trkpt><trkpt lat="43.885875133608465" lon="12.52788813212625"><ele>214.5</ele><time>2026-05-02T13:15:52.001Z</time></trkpt><trkpt lat="43.885684738522855" lon="12.527639315270381"><ele>212.0</ele><time>2026-05-02T13:15:53.001Z</time></trkpt><trkpt lat="43.88550643645602" lon="12.527415044662035"><ele>212.0</ele><time>2026-05-02T13:15:54.001Z</time></trkpt><trkpt lat="43.88535469552125" lon="12.527231537093495"><ele>212.0</ele><time>2026-05-02T13:15:55.001Z</time></trkpt><trkpt lat="43.885223364505805" lon="12.527087014026666"><ele>212.0</ele><time>2026-05-02T13:15:56.001Z</time></trkpt><trkpt lat="43.885106726448925" lon="12.526953985388182"><ele>212.0</ele><time>2026-05-02T13:15:57.001Z</time></trkpt><trkpt lat="43.88502256754108" lon="12.526821869265124"><ele>212.0</ele><time>2026-05-02T13:15:58.001Z</time></trkpt><trkpt lat="43.88497648890704" lon="12.526687373137555"><ele>212.0</ele><time>2026-05-02T13:15:59.001Z</time></trkpt><trkpt lat="43.88492000264332" lon="12.52658452343226"><ele>212.0</ele><time>2026-05-02T13:16:00.001Z</time></trkpt><trkpt lat="43.884835085927975" lon="12.526548070826195"><ele>212.0</ele><time>2026-05-02T13:16:01Z</time></trkpt><trkpt lat="43.884727107958426" lon="12.526541267281637"><ele>212.0</ele><time>2026-05-02T13:16:02Z</time></trkpt><trkpt lat="43.884599279743775" lon="12.526482544569074"><ele>212.0</ele><time>2026-05-02T13:16:03Z</time></trkpt><trkpt lat="43.884462083080685" lon="12.526367725763475"><ele>212.0</ele><time>2026-05-02T13:16:04Z</time></trkpt><trkpt lat="43.88431547506406" lon="12.52623029152025"><ele>212.33333333333334</ele><time>2026-05-02T13:16:05Z</time></trkpt><trkpt lat="43.88416028448205" lon="12.526088819170813"><ele>212.66666666666669</ele><time>2026-05-02T13:16:06Z</time></trkpt><trkpt lat="43.8839918468887" lon="12.525931617818054"><ele>213.0</ele><time>2026-05-02T13:16:07Z</time></trkpt><trkpt lat="43.88382515437022" lon="12.525762822622017"><ele>213.0</ele><time>2026-05-02T13:16:08Z</time></trkpt><trkpt lat="43.88366233540219" lon="12.525592217405018"><ele>213.0</ele><time>2026-05-02T13:16:09Z</time></trkpt><trkpt lat="43.88349242129722" lon="12.525414533309757"><ele>213.0</ele><time>2026-05-02T13:16:10Z</time></trkpt><trkpt lat="43.88333722679983" lon="12.525229258608576"><ele>214.0</ele><time>2026-05-02T13:16:11Z</time></trkpt><trkpt lat="43.88319697459053" lon="12.525032593994386"><ele>215.0</ele><time>2026-05-02T13:16:12Z</time></trkpt><trkpt lat="43.88306926658406" lon="12.524822189910163"><ele>216.0</ele><time>2026-05-02T13:16:13Z</time></trkpt><trkpt lat="43.882972544536614" lon="12.52460117435224"><ele>217.33333333333331</ele><time>2026-05-02T13:16:14Z</time></trkpt><trkpt lat="43.882880023650074" lon="12.524381551791556"><ele>218.66666666666666</ele><time>2026-05-02T13:16:15Z</time></trkpt><trkpt lat="43.882800939089236" lon="12.524156942768666"><ele>220.0</ele><time>2026-05-02T13:16:16Z</time></trkpt><trkpt lat="43.88273135191431" lon="12.523919854991478"><ele>223.33333333333331</ele><time>2026-05-02T13:16:17Z</time></trkpt><trkpt lat="43.88268102925474" lon="12.523681909275322"><ele>226.66666666666669</ele><time>2026-05-02T13:16:18Z</time></trkpt><trkpt lat="43.88263816059464" lon="12.523426247921424"><ele>230.0</ele><time>2026-05-02T13:16:19Z</time></trkpt><trkpt lat="43.88260901067717" lon="12.52314585082971"><ele>229.0</ele><time>2026-05-02T13:16:20Z</time></trkpt><trkpt lat="43.88258474486645" lon="12.522838179162624"><ele>228.0</ele><time>2026-05-02T13:16:21Z</time></trkpt><trkpt lat="43.882559027850846" lon="12.522493242469993"><ele>228.0</ele><time>2026-05-02T13:16:22Z</time></trkpt><trkpt lat="43.88253011074791" lon="12.522136681769464"><ele>228.0</ele><time>2026-05-02T13:16:23Z</time></trkpt><trkpt lat="43.882513437411056" lon="12.521767396669443"><ele>229.0</ele><time>2026-05-02T13:16:24Z</time></trkpt><trkpt lat="43.88248953608585" lon="12.521407039005759"><ele>230.0</ele><time>2026-05-02T13:16:25Z</time></trkpt><trkpt lat="43.88246417959429" lon="12.521040809560116"><ele>228.0</ele><time>2026-05-02T13:16:26Z</time></trkpt><trkpt lat="43.882439599192736" lon="12.520677540222396"><ele>226.0</ele><time>2026-05-02T13:16:27Z</time></trkpt><trkpt lat="43.88241344058199" lon="12.520318224374762"><ele>225.5</ele><time>2026-05-02T13:16:28Z</time></trkpt><trkpt lat="43.88238248571409" lon="12.519962657586362"><ele>225.0</ele><time>2026-05-02T13:16:29Z</time></trkpt><trkpt lat="43.88235007454112" lon="12.51960388957351"><ele>226.5</ele><time>2026-05-02T13:16:30Z</time></trkpt><trkpt lat="43.882315684064714" lon="12.519249723385638"><ele>228.0</ele><time>2026-05-02T13:16:31Z</time></trkpt><trkpt lat="43.88227453534235" lon="12.518890510621052"><ele>230.5</ele><time>2026-05-02T13:16:32Z</time></trkpt><trkpt lat="43.88223194265274" lon="12.518533987631477"><ele>233.0</ele><time>2026-05-02T13:16:33Z</time></trkpt><trkpt lat="43.88218602289871" lon="12.518176684590488"><ele>236.0</ele><time>2026-05-02T13:16:34Z</time></trkpt><trkpt lat="43.88213880299488" lon="12.517819455539192"><ele>239.0</ele><time>2026-05-02T13:16:35Z</time></trkpt><trkpt lat="43.88208553320008" lon="12.517464490156417"><ele>239.0</ele><time>2026-05-02T13:16:36Z</time></trkpt><trkpt lat="43.88203238698018" lon="12.517109024461835"><ele>239.0</ele><time>2026-05-02T13:16:37Z</time></trkpt><trkpt lat="43.88198056984435" lon="12.516757888118589"><ele>240.5</ele><time>2026-05-02T13:16:38Z</time></trkpt><trkpt lat="43.88192913693597" lon="12.516406866893755"><ele>242.0</ele><time>2026-05-02T13:16:39Z</time></trkpt><trkpt lat="43.881879142885595" lon="12.51605807551595"><ele>243.0</ele><time>2026-05-02T13:16:40Z</time></trkpt><trkpt lat="43.88183240450393" lon="12.515708765078928"><ele>244.0</ele><time>2026-05-02T13:16:41Z</time></trkpt><trkpt lat="43.881792099450905" lon="12.515360408397223"><ele>239.0</ele><time>2026-05-02T13:16:42Z</time></trkpt><trkpt lat="43.881752370709016" lon="12.515011659871867"><ele>234.0</ele><time>2026-05-02T13:16:43Z</time></trkpt><trkpt lat="43.88173270066501" lon="12.514662912398315"><ele>235.5</ele><time>2026-05-02T13:16:44Z</time></trkpt><trkpt lat="43.88172993933899" lon="12.514314870201884"><ele>237.0</ele><time>2026-05-02T13:16:45Z</time></trkpt><trkpt lat="43.88171367943869" lon="12.513979444527473"><ele>238.5</ele><time>2026-05-02T13:16:46Z</time></trkpt><trkpt lat="43.88169173249649" lon="12.513627467814398"><ele>240.0</ele><time>2026-05-02T13:16:47Z</time></trkpt><trkpt lat="43.88167075963998" lon="12.513281026710887"><ele>240.0</ele><time>2026-05-02T13:16:48Z</time></trkpt><trkpt lat="43.88166076929763" lon="12.512942809441723"><ele>240.0</ele><time>2026-05-02T13:16:49Z</time></trkpt><trkpt lat="43.881644168111976" lon="12.512601977388458"><ele>240.5</ele><time>2026-05-02T13:16:50Z</time></trkpt><trkpt lat="43.881525899515744" lon="12.512279825676242"><ele>241.0</ele><time>2026-05-02T13:16:51Z</time></trkpt><trkpt lat="43.88145022216256" lon="12.511956881643453"><ele>241.5</ele><time>2026-05-02T13:16:52Z</time></trkpt><trkpt lat="43.88136829048828" lon="12.511642475277103"><ele>242.0</ele><time>2026-05-02T13:16:53Z</time></trkpt><trkpt lat="43.88127847247683" lon="12.5113355822362"><ele>245.0</ele><time>2026-05-02T13:16:54Z</time></trkpt><trkpt lat="43.88118507185902" lon="12.511022899415812"><ele>248.0</ele><time>2026-05-02T13:16:55Z</time></trkpt><trkpt lat="43.881095032993656" lon="12.510717640978529"><ele>247.0</ele><time>2026-05-02T13:16:56Z</time></trkpt><trkpt lat="43.88100652527881" lon="12.51040794179618"><ele>246.0</ele><time>2026-05-02T13:16:57Z</time></trkpt><trkpt lat="43.880912944531644" lon="12.51009761251265"><ele>246.0</ele><time>2026-05-02T13:16:58Z</time></trkpt><trkpt lat="43.88081829526119" lon="12.509798355325401"><ele>246.0</ele><time>2026-05-02T13:16:59Z</time></trkpt><trkpt lat="43.880719579429815" lon="12.509514317546294"><ele>250.0</ele><time>2026-05-02T13:17:00Z</time></trkpt><trkpt lat="43.88060309104424" lon="12.509230870072022"><ele>254.0</ele><time>2026-05-02T13:17:01Z</time></trkpt><trkpt lat="43.88048415278234" lon="12.508963064536372"><ele>254.5</ele><time>2026-05-02T13:17:02Z</time></trkpt><trkpt lat="43.880365312339904" lon="12.50868400444231"><ele>255.0</ele><time>2026-05-02T13:17:03.001Z</time></trkpt><trkpt lat="43.88025135287438" lon="12.508411503453083"><ele>255.0</ele><time>2026-05-02T13:17:04.001Z</time></trkpt><trkpt lat="43.88013745132627" lon="12.50813690067105"><ele>255.0</ele><time>2026-05-02T13:17:05.001Z</time></trkpt><trkpt lat="43.88001682424844" lon="12.507856844020193"><ele>252.5</ele><time>2026-05-02T13:17:06.001Z</time></trkpt><trkpt lat="43.87989566747481" lon="12.50756850138423"><ele>250.0</ele><time>2026-05-02T13:17:07.001Z</time></trkpt><trkpt lat="43.879777274985585" lon="12.507283747299065"><ele>253.5</ele><time>2026-05-02T13:17:08.001Z</time></trkpt><trkpt lat="43.87965768428602" lon="12.506985861261708"><ele>257.0</ele><time>2026-05-02T13:17:09.001Z</time></trkpt><trkpt lat="43.87956037931511" lon="12.506674426828935"><ele>257.0</ele><time>2026-05-02T13:17:10.001Z</time></trkpt><trkpt lat="43.87948833140646" lon="12.506346219983241"><ele>257.0</ele><time>2026-05-02T13:17:11.001Z</time></trkpt><trkpt lat="43.879427846153554" lon="12.50601475519976"><ele>254.5</ele><time>2026-05-02T13:17:12.001Z</time></trkpt><trkpt lat="43.87934080721285" lon="12.505708330093787"><ele>252.0</ele><time>2026-05-02T13:17:13.001Z</time></trkpt><trkpt lat="43.879213615646435" lon="12.505425707376194"><ele>256.0</ele><time>2026-05-02T13:17:14.001Z</time></trkpt><trkpt lat="43.879055632412445" lon="12.505151310611058"><ele>260.0</ele><time>2026-05-02T13:17:15.001Z</time></trkpt><trkpt lat="43.878903096170866" lon="12.504873438356485"><ele>260.0</ele><time>2026-05-02T13:17:16.001Z</time></trkpt><trkpt lat="43.87875154251461" lon="12.504597011275404"><ele>260.0</ele><time>2026-05-02T13:17:17.001Z</time></trkpt><trkpt lat="43.87859644612575" lon="12.504319706099333"><ele>258.0</ele><time>2026-05-02T13:17:18.001Z</time></trkpt><trkpt lat="43.87844605479933" lon="12.504046129487792"><ele>256.0</ele><time>2026-05-02T13:17:19.001Z</time></trkpt><trkpt lat="43.87831178021278" lon="12.503794238470368"><ele>258.66666666666663</ele><time>2026-05-02T13:17:20.001Z</time></trkpt><trkpt lat="43.878193346043645" lon="12.503547944300257"><ele>261.3333333333333</ele><time>2026-05-02T13:17:21.001Z</time></trkpt><trkpt lat="43.87808607820561" lon="12.503298595691033"><ele>264.0</ele><time>2026-05-02T13:17:22.001Z</time></trkpt><trkpt lat="43.87798242795014" lon="12.503038500276915"><ele>266.0</ele><time>2026-05-02T13:17:23.001Z</time></trkpt><trkpt lat="43.87787787940707" lon="12.50277651443803"><ele>268.0</ele><time>2026-05-02T13:17:24.001Z</time></trkpt><trkpt lat="43.87776659982778" lon="12.502512372756025"><ele>270.0</ele><time>2026-05-02T13:17:25.001Z</time></trkpt><trkpt lat="43.8776490645952" lon="12.502249104043035"><ele>266.0</ele><time>2026-05-02T13:17:26.001Z</time></trkpt><trkpt lat="43.87752049470261" lon="12.501959037575245"><ele>262.0</ele><time>2026-05-02T13:17:27.001Z</time></trkpt><trkpt lat="43.87738015443545" lon="12.501637684734362"><ele>262.0</ele><time>2026-05-02T13:17:28.001Z</time></trkpt><trkpt lat="43.877244154435814" lon="12.501293787892312"><ele>262.0</ele><time>2026-05-02T13:17:29.001Z</time></trkpt><trkpt lat="43.87710510367474" lon="12.500930083156799"><ele>264.5</ele><time>2026-05-02T13:17:30.001Z</time></trkpt><trkpt lat="43.87695766310003" lon="12.500566367775802"><ele>267.0</ele><time>2026-05-02T13:17:31.001Z</time></trkpt><trkpt lat="43.87680871030705" lon="12.500207033841924"><ele>267.0</ele><time>2026-05-02T13:17:32.001Z</time></trkpt><trkpt lat="43.87666406992964" lon="12.49985133558068"><ele>267.0</ele><time>2026-05-02T13:17:33.001Z</time></trkpt><trkpt lat="43.87652996327939" lon="12.499508792937377"><ele>267.0</ele><time>2026-05-02T13:17:34.001Z</time></trkpt><trkpt lat="43.87640119101227" lon="12.499168019921692"><ele>267.0</ele><time>2026-05-02T13:17:35.001Z</time></trkpt><trkpt lat="43.87629137663952" lon="12.49883812765071"><ele>269.5</ele><time>2026-05-02T13:17:36.001Z</time></trkpt><trkpt lat="43.87620306513409" lon="12.498505967516811"><ele>272.0</ele><time>2026-05-02T13:17:37.001Z</time></trkpt><trkpt lat="43.87613316738292" lon="12.49818046164627"><ele>277.0</ele><time>2026-05-02T13:17:38.001Z</time></trkpt><trkpt lat="43.8760742886251" lon="12.497857698036627"><ele>282.0</ele><time>2026-05-02T13:17:39.001Z</time></trkpt><trkpt lat="43.87601942403549" lon="12.497549051486992"><ele>282.0</ele><time>2026-05-02T13:17:40.001Z</time></trkpt><trkpt lat="43.87596535704795" lon="12.497263814309736"><ele>282.0</ele><time>2026-05-02T13:17:41.001Z</time></trkpt><trkpt lat="43.87591421001249" lon="12.49701955829686"><ele>282.0</ele><time>2026-05-02T13:17:42.001Z</time></trkpt><trkpt lat="43.87585449805829" lon="12.496810314061351"><ele>278.6666666666667</ele><time>2026-05-02T13:17:43.001Z</time></trkpt><trkpt lat="43.8757610423314" lon="12.496633494815152"><ele>275.33333333333337</ele><time>2026-05-02T13:17:44.001Z</time></trkpt><trkpt lat="43.875627431846354" lon="12.496444852707896"><ele>272.0</ele><time>2026-05-02T13:17:45.001Z</time></trkpt><trkpt lat="43.8754880975515" lon="12.496254576035508"><ele>274.0</ele><time>2026-05-02T13:17:46.001Z</time></trkpt><trkpt lat="43.87536371584346" lon="12.49609288524759"><ele>276.0</ele><time>2026-05-02T13:17:47.001Z</time></trkpt><trkpt lat="43.87524620777388" lon="12.495963958797724"><ele>278.0</ele><time>2026-05-02T13:17:48.001Z</time></trkpt><trkpt lat="43.875130388568046" lon="12.49585958596226"><ele>277.5</ele><time>2026-05-02T13:17:49.001Z</time></trkpt><trkpt lat="43.8750106331126" lon="12.49577160749541"><ele>277.0</ele><time>2026-05-02T13:17:50.001Z</time></trkpt><trkpt lat="43.87488509829961" lon="12.495662048283226"><ele>276.5</ele><time>2026-05-02T13:17:51Z</time></trkpt><trkpt lat="43.87474068124384" lon="12.495560501388074"><ele>276.0</ele><time>2026-05-02T13:17:52Z</time></trkpt><trkpt lat="43.874566235759524" lon="12.495451562702694"><ele>278.6666666666667</ele><time>2026-05-02T13:17:53Z</time></trkpt><trkpt lat="43.87437046943764" lon="12.49533100975486"><ele>281.33333333333337</ele><time>2026-05-02T13:17:54Z</time></trkpt><trkpt lat="43.87417419123253" lon="12.495208897906231"><ele>284.0</ele><time>2026-05-02T13:17:55Z</time></trkpt><trkpt lat="43.87400307597595" lon="12.495091912794074"><ele>284.0</ele><time>2026-05-02T13:17:56Z</time></trkpt><trkpt lat="43.87386384210556" lon="12.494911556470072"><ele>284.0</ele><time>2026-05-02T13:17:57Z</time></trkpt><trkpt lat="43.87369238480742" lon="12.494733054776125"><ele>284.0</ele><time>2026-05-02T13:17:58Z</time></trkpt><trkpt lat="43.873525352797515" lon="12.494540763275486"><ele>284.33333333333337</ele><time>2026-05-02T13:17:59Z</time></trkpt><trkpt lat="43.87336359614313" lon="12.494351294006334"><ele>284.6666666666667</ele><time>2026-05-02T13:18:00Z</time></trkpt><trkpt lat="43.87320197240231" lon="12.494172371044712"><ele>285.0</ele><time>2026-05-02T13:18:01Z</time></trkpt><trkpt lat="43.87304298867433" lon="12.493992342330111"><ele>285.0</ele><time>2026-05-02T13:18:02Z</time></trkpt><trkpt lat="43.872892372392506" lon="12.493821721395065"><ele>285.0</ele><time>2026-05-02T13:18:03Z</time></trkpt><trkpt lat="43.87275021188546" lon="12.493660856115426"><ele>285.0</ele><time>2026-05-02T13:18:04Z</time></trkpt><trkpt lat="43.872611088540985" lon="12.493506394991753"><ele>285.6666666666667</ele><time>2026-05-02T13:18:05Z</time></trkpt><trkpt lat="43.87247282344308" lon="12.49334756838453"><ele>286.33333333333337</ele><time>2026-05-02T13:18:06Z</time></trkpt><trkpt lat="43.87233719455943" lon="12.493185859074389"><ele>287.0</ele><time>2026-05-02T13:18:07Z</time></trkpt><trkpt lat="43.872203618583605" lon="12.4930320484119"><ele>289.0</ele><time>2026-05-02T13:18:08Z</time></trkpt><trkpt lat="43.87207261303858" lon="12.492885735650505"><ele>291.0</ele><time>2026-05-02T13:18:09Z</time></trkpt><trkpt lat="43.871946039408556" lon="12.492742520747758"><ele>293.0</ele><time>2026-05-02T13:18:10Z</time></trkpt><trkpt lat="43.87182361251517" lon="12.492604826364582"><ele>290.6666666666667</ele><time>2026-05-02T13:18:11Z</time></trkpt><trkpt lat="43.87170148386783" lon="12.492471859637059"><ele>288.3333333333333</ele><time>2026-05-02T13:18:12Z</time></trkpt><trkpt lat="43.87157603329419" lon="12.49233681983184"><ele>286.0</ele><time>2026-05-02T13:18:13Z</time></trkpt><trkpt lat="43.871478302588656" lon="12.492178907925"><ele>291.3333333333333</ele><time>2026-05-02T13:18:14Z</time></trkpt><trkpt lat="43.87138925529633" lon="12.492016449314205"><ele>296.6666666666667</ele><time>2026-05-02T13:18:15Z</time></trkpt><trkpt lat="43.87130837863494" lon="12.491838281296955"><ele>302.0</ele><time>2026-05-02T13:18:16Z</time></trkpt><trkpt lat="43.87122414502664" lon="12.49164800709428"><ele>302.0</ele><time>2026-05-02T13:18:17Z</time></trkpt><trkpt lat="43.871152783174935" lon="12.491434094188328"><ele>302.0</ele><time>2026-05-02T13:18:18Z</time></trkpt><trkpt lat="43.8710713421686" lon="12.491216060418912"><ele>302.0</ele><time>2026-05-02T13:18:19Z</time></trkpt><trkpt lat="43.87097061779912" lon="12.491000551044213"><ele>302.6666666666667</ele><time>2026-05-02T13:18:20Z</time></trkpt><trkpt lat="43.87085998422947" lon="12.490787417381549"><ele>303.3333333333333</ele><time>2026-05-02T13:18:21Z</time></trkpt><trkpt lat="43.870741375505936" lon="12.490578313429355"><ele>304.0</ele><time>2026-05-02T13:18:22Z</time></trkpt><trkpt lat="43.870625093600516" lon="12.490368923858421"><ele>304.0</ele><time>2026-05-02T13:18:23Z</time></trkpt><trkpt lat="43.8705112192969" lon="12.490150847096135"><ele>304.0</ele><time>2026-05-02T13:18:24Z</time></trkpt><trkpt lat="43.87042086436914" lon="12.48994328805694"><ele>304.0</ele><time>2026-05-02T13:18:25Z</time></trkpt><trkpt lat="43.870358009000675" lon="12.48973813010615"><ele>304.4</ele><time>2026-05-02T13:18:26Z</time></trkpt><trkpt lat="43.8703260068187" lon="12.48956378939144"><ele>304.79999999999995</ele><time>2026-05-02T13:18:27Z</time></trkpt><trkpt lat="43.87031351989949" lon="12.48941442965289"><ele>305.20000000000005</ele><time>2026-05-02T13:18:28Z</time></trkpt><trkpt lat="43.870321933895916" lon="12.489295453286172"><ele>305.6</ele><time>2026-05-02T13:18:29Z</time></trkpt><trkpt lat="43.8703494100582" lon="12.489187837317687"><ele>306.0</ele><time>2026-05-02T13:18:30Z</time></trkpt><trkpt lat="43.870359317828715" lon="12.489090284677008"><ele>306.0</ele><time>2026-05-02T13:18:31Z</time></trkpt><trkpt lat="43.870246460241596" lon="12.489011161625799"><ele>306.0</ele><time>2026-05-02T13:18:33Z</time></trkpt><trkpt lat="43.8701355041467" lon="12.48902849732735"><ele>306.0</ele><time>2026-05-02T13:18:34Z</time></trkpt><trkpt lat="43.869998118011345" lon="12.48905343351474"><ele>306.0</ele><time>2026-05-02T13:18:35Z</time></trkpt><trkpt lat="43.869873163809395" lon="12.489078453129686"><ele>303.40000000000003</ele><time>2026-05-02T13:18:36Z</time></trkpt><trkpt lat="43.869773460467556" lon="12.489100731638654"><ele>300.8</ele><time>2026-05-02T13:18:37Z</time></trkpt><trkpt lat="43.86967659402784" lon="12.489109209987669"><ele>298.20000000000005</ele><time>2026-05-02T13:18:38Z</time></trkpt><trkpt lat="43.86958676745753" lon="12.489081884427057"><ele>295.6</ele><time>2026-05-02T13:18:39Z</time></trkpt><trkpt lat="43.8695303200885" lon="12.489000598250287"><ele>293.0</ele><time>2026-05-02T13:18:40Z</time></trkpt><trkpt lat="43.86950285823983" lon="12.48885251670878"><ele>291.6666666666667</ele><time>2026-05-02T13:18:41Z</time></trkpt><trkpt lat="43.869431101825946" lon="12.488682180748128"><ele>290.3333333333333</ele><time>2026-05-02T13:18:42Z</time></trkpt><trkpt lat="43.8693564302745" lon="12.488478978410319"><ele>289.0</ele><time>2026-05-02T13:18:43Z</time></trkpt><trkpt lat="43.869263633237345" lon="12.488246510556067"><ele>288.25</ele><time>2026-05-02T13:18:44Z</time></trkpt><trkpt lat="43.869188683119965" lon="12.488040690699682"><ele>287.5</ele><time>2026-05-02T13:18:45Z</time></trkpt><trkpt lat="43.869121313746575" lon="12.487877760890058"><ele>286.75</ele><time>2026-05-02T13:18:46Z</time></trkpt><trkpt lat="43.86902787708777" lon="12.487754492369522"><ele>286.0</ele><time>2026-05-02T13:18:47Z</time></trkpt><trkpt lat="43.86890056566806" lon="12.4876752684804"><ele>288.3333333333333</ele><time>2026-05-02T13:18:48Z</time></trkpt><trkpt lat="43.868742884313164" lon="12.487610559648642"><ele>290.6666666666667</ele><time>2026-05-02T13:18:49Z</time></trkpt><trkpt lat="43.86858341571702" lon="12.487509403991979"><ele>293.0</ele><time>2026-05-02T13:18:50Z</time></trkpt><trkpt lat="43.86845103949288" lon="12.487356279102642"><ele>293.0</ele><time>2026-05-02T13:18:51Z</time></trkpt><trkpt lat="43.868372746391856" lon="12.487153639397196"><ele>293.0</ele><time>2026-05-02T13:18:52Z</time></trkpt><trkpt lat="43.86826502293386" lon="12.486930831204804"><ele>293.0</ele><time>2026-05-02T13:18:53Z</time></trkpt><trkpt lat="43.86813915788763" lon="12.486711471719357"><ele>294.33333333333337</ele><time>2026-05-02T13:18:54Z</time></trkpt><trkpt lat="43.86796978263319" lon="12.486568189141911"><ele>295.6666666666667</ele><time>2026-05-02T13:18:55Z</time></trkpt><trkpt lat="43.86778004038455" lon="12.48649402074383"><ele>297.0</ele><time>2026-05-02T13:18:56Z</time></trkpt><trkpt lat="43.86758946877279" lon="12.486469394945287"><ele>297.0</ele><time>2026-05-02T13:18:57Z</time></trkpt><trkpt lat="43.86742477158372" lon="12.486395318793159"><ele>297.0</ele><time>2026-05-02T13:18:58Z</time></trkpt><trkpt lat="43.86728281023349" lon="12.486279828400702"><ele>297.0</ele><time>2026-05-02T13:18:59Z</time></trkpt><trkpt lat="43.8671527548291" lon="12.486107931601207"><ele>298.6666666666667</ele><time>2026-05-02T13:19:00Z</time></trkpt><trkpt lat="43.867014949476825" lon="12.485899942308478"><ele>300.33333333333337</ele><time>2026-05-02T13:19:01Z</time></trkpt><trkpt lat="43.86683591021714" lon="12.485676836589768"><ele>302.0</ele><time>2026-05-02T13:19:02Z</time></trkpt><trkpt lat="43.86666010534675" lon="12.485498373240643"><ele>305.6666666666667</ele><time>2026-05-02T13:19:03Z</time></trkpt><trkpt lat="43.86647198766058" lon="12.485365957046046"><ele>309.3333333333333</ele><time>2026-05-02T13:19:04Z</time></trkpt><trkpt lat="43.86629869799066" lon="12.485287339812265"><ele>313.0</ele><time>2026-05-02T13:19:05Z</time></trkpt><trkpt lat="43.86617573629069" lon="12.485187848589113"><ele>313.0</ele><time>2026-05-02T13:19:06Z</time></trkpt><trkpt lat="43.86610409298059" lon="12.48506856906755"><ele>313.0</ele><time>2026-05-02T13:19:07Z</time></trkpt><trkpt lat="43.866071935391595" lon="12.484915377590962"><ele>313.0</ele><time>2026-05-02T13:19:08Z</time></trkpt><trkpt lat="43.866035291952365" lon="12.484698200383757"><ele>313.0</ele><time>2026-05-02T13:19:09.001Z</time></trkpt><trkpt lat="43.866013506398616" lon="12.484406700486252"><ele>318.5</ele><time>2026-05-02T13:19:10.001Z</time></trkpt><trkpt lat="43.86598662096166" lon="12.484077652324933"><ele>324.0</ele><time>2026-05-02T13:19:11.001Z</time></trkpt><trkpt lat="43.865960813784525" lon="12.483757809296668"><ele>325.3333333333333</ele><time>2026-05-02T13:19:12.001Z</time></trkpt><trkpt lat="43.86597197780488" lon="12.483479652757634"><ele>326.66666666666663</ele><time>2026-05-02T13:19:13.001Z</time></trkpt><trkpt lat="43.86599003622558" lon="12.483183472763526"><ele>328.0</ele><time>2026-05-02T13:19:14.001Z</time></trkpt><trkpt lat="43.86602592435737" lon="12.482837649158274"><ele>329.0</ele><time>2026-05-02T13:19:15.001Z</time></trkpt><trkpt lat="43.86604501310286" lon="12.482550400087254"><ele>330.0</ele><time>2026-05-02T13:19:16.001Z</time></trkpt><trkpt lat="43.86604471046183" lon="12.48233760508927"><ele>331.0</ele><time>2026-05-02T13:19:17.001Z</time></trkpt><trkpt lat="43.86602922424184" lon="12.482151879070138"><ele>330.3333333333333</ele><time>2026-05-02T13:19:18.001Z</time></trkpt><trkpt lat="43.865993126505444" lon="12.481948704379827"><ele>329.6666666666667</ele><time>2026-05-02T13:19:19.001Z</time></trkpt><trkpt lat="43.86597106972013" lon="12.481697560607774"><ele>329.0</ele><time>2026-05-02T13:19:20.001Z</time></trkpt><trkpt lat="43.865944769016906" lon="12.481464112125039"><ele>330.5</ele><time>2026-05-02T13:19:21.001Z</time></trkpt><trkpt lat="43.86591437893516" lon="12.48125129010425"><ele>332.0</ele><time>2026-05-02T13:19:22.001Z</time></trkpt><trkpt lat="43.86588101757941" lon="12.481063249586656"><ele>333.5</ele><time>2026-05-02T13:19:23.001Z</time></trkpt><trkpt lat="43.865805245393" lon="12.480894469072673"><ele>335.0</ele><time>2026-05-02T13:19:24.001Z</time></trkpt><trkpt lat="43.86568102334163" lon="12.480739208900218"><ele>335.0</ele><time>2026-05-02T13:19:25.001Z</time></trkpt><trkpt lat="43.865499801914574" lon="12.480590542451779"><ele>335.0</ele><time>2026-05-02T13:19:26.001Z</time></trkpt><trkpt lat="43.86533355192779" lon="12.480450697855549"><ele>335.0</ele><time>2026-05-02T13:19:27.001Z</time></trkpt><trkpt lat="43.86520201561072" lon="12.480312452706022"><ele>335.33333333333337</ele><time>2026-05-02T13:19:28.001Z</time></trkpt><trkpt lat="43.8651014498451" lon="12.480141867143526"><ele>335.6666666666667</ele><time>2026-05-02T13:19:29.001Z</time></trkpt><trkpt lat="43.865018013964075" lon="12.479924397221806"><ele>336.0</ele><time>2026-05-02T13:19:30.001Z</time></trkpt><trkpt lat="43.864928292130664" lon="12.47965023853886"><ele>342.0</ele><time>2026-05-02T13:19:31.001Z</time></trkpt><trkpt lat="43.864834858633415" lon="12.479365221486148"><ele>348.0</ele><time>2026-05-02T13:19:32.001Z</time></trkpt><trkpt lat="43.86473967913655" lon="12.479067409526078"><ele>348.0</ele><time>2026-05-02T13:19:33.001Z</time></trkpt><trkpt lat="43.86464227506082" lon="12.478783484893421"><ele>348.0</ele><time>2026-05-02T13:19:34.001Z</time></trkpt><trkpt lat="43.864529803619455" lon="12.478534611391375"><ele>348.0</ele><time>2026-05-02T13:19:35.001Z</time></trkpt><trkpt lat="43.86440656167008" lon="12.478315240434393"><ele>348.0</ele><time>2026-05-02T13:19:36.001Z</time></trkpt><trkpt lat="43.86427023722618" lon="12.478118617569274"><ele>348.0</ele><time>2026-05-02T13:19:37.001Z</time></trkpt><trkpt lat="43.864114875425464" lon="12.477943849724852"><ele>348.0</ele><time>2026-05-02T13:19:38.001Z</time></trkpt><trkpt lat="43.86394165398183" lon="12.477815013868089"><ele>349.6666666666667</ele><time>2026-05-02T13:19:39Z</time></trkpt><trkpt lat="43.86375089697929" lon="12.477714063405715"><ele>351.33333333333337</ele><time>2026-05-02T13:19:40Z</time></trkpt><trkpt lat="43.86355408424565" lon="12.47762574148907"><ele>353.0</ele><time>2026-05-02T13:19:41Z</time></trkpt><trkpt lat="43.86337667218956" lon="12.477560275106045"><ele>353.0</ele><time>2026-05-02T13:19:42Z</time></trkpt><trkpt lat="43.86322199549043" lon="12.47750404776989"><ele>353.0</ele><time>2026-05-02T13:19:43Z</time></trkpt><trkpt lat="43.86307813041246" lon="12.477414328580208"><ele>353.0</ele><time>2026-05-02T13:19:44Z</time></trkpt><trkpt lat="43.86293476233832" lon="12.47728483423846"><ele>353.0</ele><time>2026-05-02T13:19:45Z</time></trkpt><trkpt lat="43.86277842586953" lon="12.47714015224384"><ele>353.0</ele><time>2026-05-02T13:19:46Z</time></trkpt><trkpt lat="43.862613735358295" lon="12.4770051268061"><ele>353.0</ele><time>2026-05-02T13:19:47Z</time></trkpt><trkpt lat="43.86245117446957" lon="12.47687529352639"><ele>354.0</ele><time>2026-05-02T13:19:48Z</time></trkpt><trkpt lat="43.86229679890789" lon="12.476744140640719"><ele>355.0</ele><time>2026-05-02T13:19:49Z</time></trkpt><trkpt lat="43.86213621663865" lon="12.476607938584674"><ele>356.0</ele><time>2026-05-02T13:19:50Z</time></trkpt><trkpt lat="43.861973790858556" lon="12.476476339498959"><ele>356.0</ele><time>2026-05-02T13:19:51Z</time></trkpt><trkpt lat="43.86181009089793" lon="12.476349063136386"><ele>356.0</ele><time>2026-05-02T13:19:52Z</time></trkpt><trkpt lat="43.86165176246602" lon="12.476217588872553"><ele>356.0</ele><time>2026-05-02T13:19:53Z</time></trkpt><trkpt lat="43.86149385661175" lon="12.476078393126015"><ele>357.5</ele><time>2026-05-02T13:19:54Z</time></trkpt><trkpt lat="43.86134098994977" lon="12.475945160714687"><ele>359.0</ele><time>2026-05-02T13:19:55Z</time></trkpt><trkpt lat="43.86123705922527" lon="12.475846721247606"><ele>360.5</ele><time>2026-05-02T13:19:56Z</time></trkpt><trkpt lat="43.86115641484999" lon="12.47575976947125"><ele>362.0</ele><time>2026-05-02T13:19:57Z</time></trkpt><trkpt lat="43.861052427167074" lon="12.475660636043282"><ele>361.6666666666667</ele><time>2026-05-02T13:19:58Z</time></trkpt><trkpt lat="43.860938533077025" lon="12.475538772797451"><ele>361.3333333333333</ele><time>2026-05-02T13:19:59Z</time></trkpt><trkpt lat="43.860819918047106" lon="12.475402288653628"><ele>361.0</ele><time>2026-05-02T13:20:00Z</time></trkpt><trkpt lat="43.86069310894875" lon="12.47526094265827"><ele>361.0</ele><time>2026-05-02T13:20:01Z</time></trkpt><trkpt lat="43.86055922803491" lon="12.475119199374316"><ele>361.0</ele><time>2026-05-02T13:20:02Z</time></trkpt><trkpt lat="43.86042535204642" lon="12.474975477745776"><ele>361.0</ele><time>2026-05-02T13:20:03Z</time></trkpt><trkpt lat="43.860282972037254" lon="12.474838039233331"><ele>355.66666666666663</ele><time>2026-05-02T13:20:04Z</time></trkpt><trkpt lat="43.860116269612114" lon="12.474732061580042"><ele>350.3333333333333</ele><time>2026-05-02T13:20:05Z</time></trkpt><trkpt lat="43.85992893219121" lon="12.474677014971785"><ele>345.0</ele><time>2026-05-02T13:20:06Z</time></trkpt><trkpt lat="43.85973341978102" lon="12.474670676381855"><ele>345.0</ele><time>2026-05-02T13:20:07Z</time></trkpt><trkpt lat="43.85953931582773" lon="12.474702489839004"><ele>345.0</ele><time>2026-05-02T13:20:08Z</time></trkpt><trkpt lat="43.85936825744741" lon="12.474775533993109"><ele>345.0</ele><time>2026-05-02T13:20:09Z</time></trkpt><trkpt lat="43.859221427580984" lon="12.474864612246614"><ele>347.25</ele><time>2026-05-02T13:20:10Z</time></trkpt><trkpt lat="43.859085927725076" lon="12.474921267173114"><ele>349.5</ele><time>2026-05-02T13:20:11Z</time></trkpt><trkpt lat="43.858968029592724" lon="12.474870302018584"><ele>351.75</ele><time>2026-05-02T13:20:12Z</time></trkpt><trkpt lat="43.85889651175873" lon="12.474763879599244"><ele>354.0</ele><time>2026-05-02T13:20:13Z</time></trkpt><trkpt lat="43.858844623578186" lon="12.474631369496855"><ele>358.3333333333333</ele><time>2026-05-02T13:20:14Z</time></trkpt><trkpt lat="43.85881238593103" lon="12.474442051936045"><ele>362.66666666666663</ele><time>2026-05-02T13:20:15Z</time></trkpt><trkpt lat="43.858762805147286" lon="12.474200786794032"><ele>367.0</ele><time>2026-05-02T13:20:16Z</time></trkpt><trkpt lat="43.858710358628926" lon="12.473933900490257"><ele>367.66666666666663</ele><time>2026-05-02T13:20:17Z</time></trkpt><trkpt lat="43.85863421460746" lon="12.473666146289096"><ele>368.3333333333333</ele><time>2026-05-02T13:20:18Z</time></trkpt><trkpt lat="43.858535496169615" lon="12.47339249037396"><ele>369.0</ele><time>2026-05-02T13:20:19Z</time></trkpt><trkpt lat="43.85842783943692" lon="12.473146786364506"><ele>367.0</ele><time>2026-05-02T13:20:20Z</time></trkpt><trkpt lat="43.85832450568564" lon="12.472923290847424"><ele>365.0</ele><time>2026-05-02T13:20:21Z</time></trkpt><trkpt lat="43.85822531039917" lon="12.472696104554588"><ele>363.0</ele><time>2026-05-02T13:20:22Z</time></trkpt><trkpt lat="43.85812967725117" lon="12.472481630410293"><ele>363.0</ele><time>2026-05-02T13:20:23Z</time></trkpt><trkpt lat="43.8580535885272" lon="12.472274656511676"><ele>363.0</ele><time>2026-05-02T13:20:24Z</time></trkpt><trkpt lat="43.857997360536" lon="12.472068885945413"><ele>363.0</ele><time>2026-05-02T13:20:25Z</time></trkpt><trkpt lat="43.857960734750094" lon="12.471851285005302"><ele>367.0</ele><time>2026-05-02T13:20:26Z</time></trkpt><trkpt lat="43.857944041263046" lon="12.471596712858059"><ele>371.0</ele><time>2026-05-02T13:20:27Z</time></trkpt><trkpt lat="43.857924405999036" lon="12.471330519206761"><ele>375.0</ele><time>2026-05-02T13:20:28Z</time></trkpt><trkpt lat="43.857863078490475" lon="12.4710676559256"><ele>377.0</ele><time>2026-05-02T13:20:29Z</time></trkpt><trkpt lat="43.85775073143251" lon="12.470816267881549"><ele>379.0</ele><time>2026-05-02T13:20:30Z</time></trkpt><trkpt lat="43.85759705872089" lon="12.47060152388682"><ele>381.0</ele><time>2026-05-02T13:20:31Z</time></trkpt><trkpt lat="43.857386947522336" lon="12.470415667776187"><ele>383.5</ele><time>2026-05-02T13:20:32Z</time></trkpt><trkpt lat="43.85717289345248" lon="12.470266597519863"><ele>386.0</ele><time>2026-05-02T13:20:33Z</time></trkpt><trkpt lat="43.85700304895143" lon="12.470094448117889"><ele>386.0</ele><time>2026-05-02T13:20:34Z</time></trkpt><trkpt lat="43.85686239061263" lon="12.46988563892063"><ele>386.0</ele><time>2026-05-02T13:20:35Z</time></trkpt><trkpt lat="43.856712682901296" lon="12.469621469472152"><ele>386.0</ele><time>2026-05-02T13:20:36Z</time></trkpt><trkpt lat="43.85653719243365" lon="12.469348297744872"><ele>385.5</ele><time>2026-05-02T13:20:37Z</time></trkpt><trkpt lat="43.85636675183305" lon="12.469081957461574"><ele>385.0</ele><time>2026-05-02T13:20:38Z</time></trkpt><trkpt lat="43.85618644934959" lon="12.468840368727706"><ele>383.0</ele><time>2026-05-02T13:20:39Z</time></trkpt><trkpt lat="43.85599716254356" lon="12.468620434361986"><ele>381.0</ele><time>2026-05-02T13:20:40Z</time></trkpt><trkpt lat="43.855813959614544" lon="12.468448473148047"><ele>381.0</ele><time>2026-05-02T13:20:41Z</time></trkpt><trkpt lat="43.85563260935154" lon="12.468340662875399"><ele>381.0</ele><time>2026-05-02T13:20:42Z</time></trkpt><trkpt lat="43.855413130485836" lon="12.468258734585218"><ele>381.0</ele><time>2026-05-02T13:20:43Z</time></trkpt><trkpt lat="43.8552019992889" lon="12.468182875256032"><ele>385.66666666666663</ele><time>2026-05-02T13:20:44Z</time></trkpt><trkpt lat="43.855023844621286" lon="12.468058865515152"><ele>390.3333333333333</ele><time>2026-05-02T13:20:45Z</time></trkpt><trkpt lat="43.85483283576596" lon="12.467938556799197"><ele>395.0</ele><time>2026-05-02T13:20:46Z</time></trkpt><trkpt lat="43.85464808018732" lon="12.467777957116729"><ele>395.0</ele><time>2026-05-02T13:20:47Z</time></trkpt><trkpt lat="43.854455617543174" lon="12.467610333257158"><ele>395.0</ele><time>2026-05-02T13:20:48Z</time></trkpt><trkpt lat="43.85426367894386" lon="12.467435377972087"><ele>384.0</ele><time>2026-05-02T13:20:49Z</time></trkpt><trkpt lat="43.85403891634494" lon="12.46731195761335"><ele>373.0</ele><time>2026-05-02T13:20:50Z</time></trkpt><trkpt lat="43.85381549568703" lon="12.467230319566013"><ele>373.0</ele><time>2026-05-02T13:20:51Z</time></trkpt><trkpt lat="43.85361457847389" lon="12.46718381367444"><ele>373.0</ele><time>2026-05-02T13:20:52Z</time></trkpt><trkpt lat="43.853415862998844" lon="12.467176564682886"><ele>373.0</ele><time>2026-05-02T13:20:53Z</time></trkpt><trkpt lat="43.85322780012723" lon="12.467183840822829"><ele>367.66666666666663</ele><time>2026-05-02T13:20:54Z</time></trkpt><trkpt lat="43.85305047862693" lon="12.46711282767137"><ele>362.3333333333333</ele><time>2026-05-02T13:20:55Z</time></trkpt><trkpt lat="43.85288419195253" lon="12.467047016453675"><ele>357.0</ele><time>2026-05-02T13:20:56Z</time></trkpt><trkpt lat="43.85275750225699" lon="12.466944075336139"><ele>360.6666666666667</ele><time>2026-05-02T13:20:57Z</time></trkpt><trkpt lat="43.852666032714794" lon="12.46680623048432"><ele>364.33333333333337</ele><time>2026-05-02T13:20:58Z</time></trkpt><trkpt lat="43.852590471796084" lon="12.466596551642418"><ele>368.0</ele><time>2026-05-02T13:20:59Z</time></trkpt><trkpt lat="43.852505744392225" lon="12.466331405332316"><ele>371.6666666666667</ele><time>2026-05-02T13:21:00Z</time></trkpt><trkpt lat="43.852404241965566" lon="12.466147161127694"><ele>375.3333333333333</ele><time>2026-05-02T13:21:01Z</time></trkpt><trkpt lat="43.85223892323252" lon="12.466021842866809"><ele>379.0</ele><time>2026-05-02T13:21:02Z</time></trkpt><trkpt lat="43.852045186869766" lon="12.465974123505159"><ele>379.0</ele><time>2026-05-02T13:21:03Z</time></trkpt><trkpt lat="43.85186844207141" lon="12.465897061896586"><ele>379.0</ele><time>2026-05-02T13:21:04Z</time></trkpt><trkpt lat="43.85172515773883" lon="12.465753495577237"><ele>379.0</ele><time>2026-05-02T13:21:05Z</time></trkpt><trkpt lat="43.85158499815093" lon="12.465565583820306"><ele>379.3333333333333</ele><time>2026-05-02T13:21:06Z</time></trkpt><trkpt lat="43.851444162506866" lon="12.46535423264128"><ele>379.6666666666667</ele><time>2026-05-02T13:21:07Z</time></trkpt><trkpt lat="43.85127486982238" lon="12.465167078412787"><ele>380.0</ele><time>2026-05-02T13:21:08Z</time></trkpt><trkpt lat="43.851121629952594" lon="12.46496485487763"><ele>376.6666666666667</ele><time>2026-05-02T13:21:09Z</time></trkpt><trkpt lat="43.850936998544846" lon="12.464826702662355"><ele>373.3333333333333</ele><time>2026-05-02T13:21:10Z</time></trkpt><trkpt lat="43.85074656264711" lon="12.464717452935322"><ele>370.0</ele><time>2026-05-02T13:21:11Z</time></trkpt><trkpt lat="43.850568546966755" lon="12.464607794423081"><ele>370.0</ele><time>2026-05-02T13:21:12Z</time></trkpt><trkpt lat="43.85039340716054" lon="12.464493768334933"><ele>370.0</ele><time>2026-05-02T13:21:13Z</time></trkpt><trkpt lat="43.850236232087305" lon="12.464380519931542"><ele>370.0</ele><time>2026-05-02T13:21:14Z</time></trkpt><trkpt lat="43.8500949056326" lon="12.464275371672278"><ele>368.66666666666663</ele><time>2026-05-02T13:21:15.001Z</time></trkpt><trkpt lat="43.84996259129146" lon="12.464167499586813"><ele>367.3333333333333</ele><time>2026-05-02T13:21:16.001Z</time></trkpt><trkpt lat="43.84985694576705" lon="12.464001300308187"><ele>366.0</ele><time>2026-05-02T13:21:17.001Z</time></trkpt><trkpt lat="43.84975661479038" lon="12.463782383952818"><ele>369.0</ele><time>2026-05-02T13:21:18.001Z</time></trkpt><trkpt lat="43.84964156985568" lon="12.463547367446012"><ele>372.0</ele><time>2026-05-02T13:21:19.001Z</time></trkpt><trkpt lat="43.849516750451315" lon="12.46331054079297"><ele>375.0</ele><time>2026-05-02T13:21:20.001Z</time></trkpt><trkpt lat="43.84939979072009" lon="12.463053956602442"><ele>375.5</ele><time>2026-05-02T13:21:21.001Z</time></trkpt><trkpt lat="43.849285575980566" lon="12.462791692056205"><ele>376.0</ele><time>2026-05-02T13:21:22.001Z</time></trkpt><trkpt lat="43.84916125921375" lon="12.462519639785224"><ele>376.0</ele><time>2026-05-02T13:21:23.001Z</time></trkpt><trkpt lat="43.84902921135541" lon="12.46223325975707"><ele>376.0</ele><time>2026-05-02T13:21:24.001Z</time></trkpt><trkpt lat="43.84889354785396" lon="12.461931669997348"><ele>382.5</ele><time>2026-05-02T13:21:25.001Z</time></trkpt><trkpt lat="43.8487596494176" lon="12.461636290424181"><ele>389.0</ele><time>2026-05-02T13:21:26.001Z</time></trkpt><trkpt lat="43.84862968592171" lon="12.461358452574904"><ele>386.0</ele><time>2026-05-02T13:21:27.001Z</time></trkpt><trkpt lat="43.848511821581816" lon="12.461106372855113"><ele>383.0</ele><time>2026-05-02T13:21:28.001Z</time></trkpt><trkpt lat="43.84839632552857" lon="12.460863344203872"><ele>380.0</ele><time>2026-05-02T13:21:29.001Z</time></trkpt><trkpt lat="43.84827388201268" lon="12.46063783721183"><ele>383.33333333333337</ele><time>2026-05-02T13:21:30.001Z</time></trkpt><trkpt lat="43.84813347679028" lon="12.460440706681016"><ele>386.6666666666667</ele><time>2026-05-02T13:21:31.001Z</time></trkpt><trkpt lat="43.8479740188622" lon="12.460261556121289"><ele>390.0</ele><time>2026-05-02T13:21:32.001Z</time></trkpt><trkpt lat="43.847799747847056" lon="12.4600949790315"><ele>391.33333333333337</ele><time>2026-05-02T13:21:33.001Z</time></trkpt><trkpt lat="43.847625792536654" lon="12.459923581111791"><ele>392.6666666666667</ele><time>2026-05-02T13:21:34Z</time></trkpt><trkpt lat="43.84745284794207" lon="12.459736879481754"><ele>394.0</ele><time>2026-05-02T13:21:35Z</time></trkpt><trkpt lat="43.847283049238904" lon="12.459541361110707"><ele>394.0</ele><time>2026-05-02T13:21:36Z</time></trkpt><trkpt lat="43.847123554862875" lon="12.459343332262893"><ele>394.0</ele><time>2026-05-02T13:21:37Z</time></trkpt><trkpt lat="43.84698077557569" lon="12.459130422639936"><ele>394.0</ele><time>2026-05-02T13:21:38Z</time></trkpt><trkpt lat="43.84685912685924" lon="12.458896133109368"><ele>392.0</ele><time>2026-05-02T13:21:39Z</time></trkpt><trkpt lat="43.84674912762243" lon="12.45864951399599"><ele>390.0</ele><time>2026-05-02T13:21:40Z</time></trkpt><trkpt lat="43.846629418334395" lon="12.458409512410961"><ele>388.0</ele><time>2026-05-02T13:21:41Z</time></trkpt><trkpt lat="43.846504184305246" lon="12.45817797321651"><ele>391.33333333333337</ele><time>2026-05-02T13:21:42Z</time></trkpt><trkpt lat="43.846381071759254" lon="12.457943150573406"><ele>394.66666666666663</ele><time>2026-05-02T13:21:43Z</time></trkpt><trkpt lat="43.84625702924561" lon="12.457708390856608"><ele>398.0</ele><time>2026-05-02T13:21:44Z</time></trkpt><trkpt lat="43.84613206723411" lon="12.457466835811392"><ele>398.0</ele><time>2026-05-02T13:21:45Z</time></trkpt><trkpt lat="43.846002945915025" lon="12.457220680470684"><ele>398.0</ele><time>2026-05-02T13:21:46Z</time></trkpt><trkpt lat="43.845879014103566" lon="12.456974481913933"><ele>398.0</ele><time>2026-05-02T13:21:47Z</time></trkpt><trkpt lat="43.84575644290594" lon="12.456727237697136"><ele>397.66666666666663</ele><time>2026-05-02T13:21:48Z</time></trkpt><trkpt lat="43.84563537078359" lon="12.456485910339216"><ele>397.33333333333337</ele><time>2026-05-02T13:21:49Z</time></trkpt><trkpt lat="43.84552661739469" lon="12.456266164118404"><ele>397.0</ele><time>2026-05-02T13:21:50Z</time></trkpt><trkpt lat="43.84542899768661" lon="12.456058898953074"><ele>400.0</ele><time>2026-05-02T13:21:51Z</time></trkpt><trkpt lat="43.84533745918797" lon="12.455837364639917"><ele>403.0</ele><time>2026-05-02T13:21:52Z</time></trkpt><trkpt lat="43.845259782384844" lon="12.455602022784223"><ele>406.0</ele><time>2026-05-02T13:21:53Z</time></trkpt><trkpt lat="43.84519509966744" lon="12.45537390599341"><ele>405.0</ele><time>2026-05-02T13:21:54Z</time></trkpt><trkpt lat="43.845113932673804" lon="12.455166492741473"><ele>404.0</ele><time>2026-05-02T13:21:55Z</time></trkpt><trkpt lat="43.8450183834207" lon="12.454968523472495"><ele>403.0</ele><time>2026-05-02T13:21:56Z</time></trkpt><trkpt lat="43.84489410410467" lon="12.454786802340616"><ele>403.0</ele><time>2026-05-02T13:21:57Z</time></trkpt><trkpt lat="43.84475122911043" lon="12.454635407100959"><ele>403.0</ele><time>2026-05-02T13:21:58Z</time></trkpt><trkpt lat="43.844583174828635" lon="12.454509130959629"><ele>403.0</ele><time>2026-05-02T13:21:59Z</time></trkpt><trkpt lat="43.844407122618" lon="12.454399843672125"><ele>403.0</ele><time>2026-05-02T13:22:00Z</time></trkpt><trkpt lat="43.84423466287611" lon="12.454284462136288"><ele>403.0</ele><time>2026-05-02T13:22:01Z</time></trkpt><trkpt lat="43.84409228670062" lon="12.45415333428244"><ele>403.0</ele><time>2026-05-02T13:22:02Z</time></trkpt><trkpt lat="43.84396690592742" lon="12.453994663911562"><ele>403.0</ele><time>2026-05-02T13:22:03Z</time></trkpt><trkpt lat="43.84385563980189" lon="12.453790072329236"><ele>403.0</ele><time>2026-05-02T13:22:04Z</time></trkpt><trkpt lat="43.84374125151132" lon="12.453560447215038"><ele>403.0</ele><time>2026-05-02T13:22:05Z</time></trkpt><trkpt lat="43.84363712419236" lon="12.453355505044941"><ele>404.75</ele><time>2026-05-02T13:22:06Z</time></trkpt><trkpt lat="43.84354684402715" lon="12.453172781119095"><ele>406.5</ele><time>2026-05-02T13:22:07Z</time></trkpt><trkpt lat="43.84347897336121" lon="12.45300457479199"><ele>408.25</ele><time>2026-05-02T13:22:08Z</time></trkpt><trkpt lat="43.84345103014604" lon="12.452835060790791"><ele>410.0</ele><time>2026-05-02T13:22:09Z</time></trkpt><trkpt lat="43.84346503818834" lon="12.452644159290125"><ele>416.0</ele><time>2026-05-02T13:22:10Z</time></trkpt><trkpt lat="43.84353026742254" lon="12.452459385971926"><ele>422.0</ele><time>2026-05-02T13:22:11Z</time></trkpt><trkpt lat="43.84364104575805" lon="12.452336430303879"><ele>428.0</ele><time>2026-05-02T13:22:12Z</time></trkpt><trkpt lat="43.84379224820668" lon="12.45225128506654"><ele>428.0</ele><time>2026-05-02T13:22:13Z</time></trkpt><trkpt lat="43.84398048005835" lon="12.452165762462744"><ele>428.0</ele><time>2026-05-02T13:22:14Z</time></trkpt><trkpt lat="43.844156792092896" lon="12.45203922138556"><ele>428.0</ele><time>2026-05-02T13:22:15Z</time></trkpt><trkpt lat="43.84427633417712" lon="12.451904155967286"><ele>428.75</ele><time>2026-05-02T13:22:16Z</time></trkpt><trkpt lat="43.84433674959492" lon="12.451772026998048"><ele>429.5</ele><time>2026-05-02T13:22:17Z</time></trkpt><trkpt lat="43.844358883449" lon="12.451632854732884"><ele>430.25</ele><time>2026-05-02T13:22:18Z</time></trkpt><trkpt lat="43.84431645340017" lon="12.451481638925133"><ele>431.0</ele><time>2026-05-02T13:22:19Z</time></trkpt><trkpt lat="43.84422219538978" lon="12.45134712186143"><ele>426.66666666666663</ele><time>2026-05-02T13:22:20Z</time></trkpt><trkpt lat="43.84409119730765" lon="12.451307598898719"><ele>422.33333333333337</ele><time>2026-05-02T13:22:21Z</time></trkpt><trkpt lat="43.84392076049004" lon="12.451319776914454"><ele>418.0</ele><time>2026-05-02T13:22:22Z</time></trkpt><trkpt lat="43.843738702912994" lon="12.451313962665736"><ele>420.33333333333337</ele><time>2026-05-02T13:22:23Z</time></trkpt><trkpt lat="43.84358891114674" lon="12.451276353032545"><ele>422.66666666666663</ele><time>2026-05-02T13:22:24Z</time></trkpt><trkpt lat="43.84336211138406" lon="12.45117912404291"><ele>425.0</ele><time>2026-05-02T13:22:25Z</time></trkpt><trkpt lat="43.84323501094252" lon="12.451074695864774"><ele>426.0</ele><time>2026-05-02T13:22:26Z</time></trkpt><trkpt lat="43.84318588366061" lon="12.450964417823975"><ele>427.0</ele><time>2026-05-02T13:22:27Z</time></trkpt><trkpt lat="43.84314235976754" lon="12.450792131786514"><ele>428.0</ele><time>2026-05-02T13:22:28Z</time></trkpt><trkpt lat="43.84314176450728" lon="12.450603795963021"><ele>429.0</ele><time>2026-05-02T13:22:29Z</time></trkpt><trkpt lat="43.84317327171827" lon="12.450399763422734"><ele>430.0</ele><time>2026-05-02T13:22:30Z</time></trkpt><trkpt lat="43.84322155673709" lon="12.45012114898576"><ele>431.0</ele><time>2026-05-02T13:22:31Z</time></trkpt><trkpt lat="43.843287953438164" lon="12.449777176458932"><ele>431.66666666666663</ele><time>2026-05-02T13:22:32Z</time></trkpt><trkpt lat="43.84336492644563" lon="12.449505675775058"><ele>432.33333333333337</ele><time>2026-05-02T13:22:33Z</time></trkpt><trkpt lat="43.84342323417976" lon="12.44926631413861"><ele>433.0</ele><time>2026-05-02T13:22:34Z</time></trkpt><trkpt lat="43.84349049858641" lon="12.449072325411297"><ele>434.6666666666667</ele><time>2026-05-02T13:22:35Z</time></trkpt><trkpt lat="43.843572087016646" lon="12.448869965258565"><ele>436.33333333333337</ele><time>2026-05-02T13:22:36Z</time></trkpt><trkpt lat="43.84366094972674" lon="12.44864951498498"><ele>438.0</ele><time>2026-05-02T13:22:37Z</time></trkpt><trkpt lat="43.843751821687206" lon="12.448423540162915"><ele>438.66666666666663</ele><time>2026-05-02T13:22:38Z</time></trkpt><trkpt lat="43.84384098350283" lon="12.44820187113336"><ele>439.3333333333333</ele><time>2026-05-02T13:22:39Z</time></trkpt><trkpt lat="43.84393193702511" lon="12.447977792841451"><ele>440.0</ele><time>2026-05-02T13:22:40Z</time></trkpt><trkpt lat="43.84400483277128" lon="12.447752629555685"><ele>440.66666666666663</ele><time>2026-05-02T13:22:41Z</time></trkpt><trkpt lat="43.84409280089777" lon="12.44756675905005"><ele>441.33333333333337</ele><time>2026-05-02T13:22:42Z</time></trkpt><trkpt lat="43.844181838945104" lon="12.447357330401534"><ele>442.0</ele><time>2026-05-02T13:22:43Z</time></trkpt><trkpt lat="43.84426894330371" lon="12.447140217018799"><ele>444.33333333333337</ele><time>2026-05-02T13:22:44Z</time></trkpt><trkpt lat="43.84435941665283" lon="12.446918253426086"><ele>446.66666666666663</ele><time>2026-05-02T13:22:45Z</time></trkpt><trkpt lat="43.84445324406157" lon="12.446684571871396"><ele>449.0</ele><time>2026-05-02T13:22:46Z</time></trkpt><trkpt lat="43.84454864389571" lon="12.446443522400042"><ele>448.66666666666663</ele><time>2026-05-02T13:22:47Z</time></trkpt><trkpt lat="43.84465247841899" lon="12.446202132496321"><ele>448.33333333333337</ele><time>2026-05-02T13:22:48Z</time></trkpt><trkpt lat="43.844752618284055" lon="12.445961882079716"><ele>448.0</ele><time>2026-05-02T13:22:49Z</time></trkpt><trkpt lat="43.84484163776512" lon="12.445712952082774"><ele>446.6666666666667</ele><time>2026-05-02T13:22:50Z</time></trkpt><trkpt lat="43.844901516326075" lon="12.445455888143456"><ele>445.33333333333337</ele><time>2026-05-02T13:22:51Z</time></trkpt><trkpt lat="43.844929270429674" lon="12.445184922293429"><ele>444.0</ele><time>2026-05-02T13:22:52Z</time></trkpt><trkpt lat="43.844940888150965" lon="12.4448948503432"><ele>442.66666666666663</ele><time>2026-05-02T13:22:53Z</time></trkpt><trkpt lat="43.84494239429403" lon="12.444597372609516"><ele>441.3333333333333</ele><time>2026-05-02T13:22:54Z</time></trkpt><trkpt lat="43.84494213926247" lon="12.444296505569683"><ele>440.0</ele><time>2026-05-02T13:22:55Z</time></trkpt><trkpt lat="43.844946894301906" lon="12.444000386363122"><ele>439.66666666666663</ele><time>2026-05-02T13:22:56Z</time></trkpt><trkpt lat="43.844957021790364" lon="12.443724174738714"><ele>439.33333333333337</ele><time>2026-05-02T13:22:57Z</time></trkpt><trkpt lat="43.844962689145355" lon="12.443468848075668"><ele>439.0</ele><time>2026-05-02T13:22:58Z</time></trkpt><trkpt lat="43.844965277996145" lon="12.443233312211447"><ele>439.0</ele><time>2026-05-02T13:22:59Z</time></trkpt><trkpt lat="43.84500430099518" lon="12.443037570734278"><ele>439.0</ele><time>2026-05-02T13:23:00Z</time></trkpt><trkpt lat="43.845054690238086" lon="12.442863692640792"><ele>439.0</ele><time>2026-05-02T13:23:01Z</time></trkpt><trkpt lat="43.84513531863021" lon="12.442730836821333"><ele>439.0</ele><time>2026-05-02T13:23:02Z</time></trkpt><trkpt lat="43.84524132880824" lon="12.442614192703292"><ele>442.6666666666667</ele><time>2026-05-02T13:23:03Z</time></trkpt><trkpt lat="43.84537283319139" lon="12.442520963390546"><ele>446.33333333333337</ele><time>2026-05-02T13:23:04Z</time></trkpt><trkpt lat="43.845519663189435" lon="12.442450261010412"><ele>450.0</ele><time>2026-05-02T13:23:05Z</time></trkpt><trkpt lat="43.84567686230085" lon="12.442360886287466"><ele>450.0</ele><time>2026-05-02T13:23:06Z</time></trkpt><trkpt lat="43.8458438402709" lon="12.442279766195186"><ele>450.0</ele><time>2026-05-02T13:23:07Z</time></trkpt><trkpt lat="43.84600889287145" lon="12.442225356719002"><ele>450.0</ele><time>2026-05-02T13:23:08Z</time></trkpt><trkpt lat="43.846135277711376" lon="12.442143492044083"><ele>450.25</ele><time>2026-05-02T13:23:09Z</time></trkpt><trkpt lat="43.846242557728864" lon="12.442067587111836"><ele>450.5</ele><time>2026-05-02T13:23:10Z</time></trkpt><trkpt lat="43.846328015581335" lon="12.441951599079545"><ele>450.75</ele><time>2026-05-02T13:23:11Z</time></trkpt><trkpt lat="43.846381773746955" lon="12.441778799852896"><ele>451.0</ele><time>2026-05-02T13:23:12Z</time></trkpt><trkpt lat="43.84640163646713" lon="12.441561687992044"><ele>451.0</ele><time>2026-05-02T13:23:13Z</time></trkpt><trkpt lat="43.846411605326615" lon="12.44133319299123"><ele>451.0</ele><time>2026-05-02T13:23:14Z</time></trkpt><trkpt lat="43.84642299961974" lon="12.44112246621509"><ele>451.0</ele><time>2026-05-02T13:23:15Z</time></trkpt><trkpt lat="43.846395388492994" lon="12.440915125366404"><ele>452.6666666666667</ele><time>2026-05-02T13:23:16Z</time></trkpt><trkpt lat="43.84633077906651" lon="12.440722861178743"><ele>454.33333333333337</ele><time>2026-05-02T13:23:17Z</time></trkpt><trkpt lat="43.84622783175934" lon="12.440556937721638"><ele>456.0</ele><time>2026-05-02T13:23:18Z</time></trkpt><trkpt lat="43.84610057173353" lon="12.44042478627207"><ele>454.25</ele><time>2026-05-02T13:23:19Z</time></trkpt><trkpt lat="43.845966572693904" lon="12.440298398073994"><ele>452.5</ele><time>2026-05-02T13:23:20Z</time></trkpt><trkpt lat="43.84584899289664" lon="12.440171007246423"><ele>450.75</ele><time>2026-05-02T13:23:21.001Z</time></trkpt><trkpt lat="43.845759498074244" lon="12.44005550537616"><ele>449.0</ele><time>2026-05-02T13:23:22.001Z</time></trkpt><trkpt lat="43.845699828857725" lon="12.439916922747063"><ele>449.0</ele><time>2026-05-02T13:23:23.001Z</time></trkpt><trkpt lat="43.84567394020661" lon="12.439771685610081"><ele>449.0</ele><time>2026-05-02T13:23:24.001Z</time></trkpt><trkpt lat="43.84568082452233" lon="12.439608308530334"><ele>449.0</ele><time>2026-05-02T13:23:25.001Z</time></trkpt><trkpt lat="43.845685785323816" lon="12.439424350958571"><ele>449.0</ele><time>2026-05-02T13:23:26.001Z</time></trkpt><trkpt lat="43.84569255095293" lon="12.439229478623961"><ele>450.0</ele><time>2026-05-02T13:23:27.001Z</time></trkpt><trkpt lat="43.845699951196245" lon="12.439020687892187"><ele>451.0</ele><time>2026-05-02T13:23:28.001Z</time></trkpt><trkpt lat="43.845708827087655" lon="12.438796656313878"><ele>452.0</ele><time>2026-05-02T13:23:29Z</time></trkpt><trkpt lat="43.84571959010926" lon="12.438524992679543"><ele>452.0</ele><time>2026-05-02T13:23:30Z</time></trkpt><trkpt lat="43.84573040472798" lon="12.438209510286695"><ele>452.0</ele><time>2026-05-02T13:23:31Z</time></trkpt><trkpt lat="43.84573490608124" lon="12.437848526767521"><ele>452.0</ele><time>2026-05-02T13:23:32Z</time></trkpt><trkpt lat="43.845757312843844" lon="12.437472518688747"><ele>452.0</ele><time>2026-05-02T13:23:33Z</time></trkpt><trkpt lat="43.8457660612521" lon="12.437081054061286"><ele>452.5</ele><time>2026-05-02T13:23:34Z</time></trkpt><trkpt lat="43.845751261404196" lon="12.436650012299602"><ele>453.0</ele><time>2026-05-02T13:23:35Z</time></trkpt><trkpt lat="43.84572008003445" lon="12.43619822391797"><ele>455.0</ele><time>2026-05-02T13:23:36Z</time></trkpt><trkpt lat="43.845692131170566" lon="12.435780839013239"><ele>457.0</ele><time>2026-05-02T13:23:37Z</time></trkpt><trkpt lat="43.8456805003806" lon="12.435419418200969"><ele>458.0</ele><time>2026-05-02T13:23:38Z</time></trkpt><trkpt lat="43.84566525630395" lon="12.435085488346838"><ele>459.0</ele><time>2026-05-02T13:23:39Z</time></trkpt><trkpt lat="43.84564680001986" lon="12.434771563116529"><ele>459.66666666666663</ele><time>2026-05-02T13:23:40Z</time></trkpt><trkpt lat="43.84563590046169" lon="12.434479091990669"><ele>460.3333333333333</ele><time>2026-05-02T13:23:41Z</time></trkpt><trkpt lat="43.84563389777317" lon="12.434190073227816"><ele>461.0</ele><time>2026-05-02T13:23:42Z</time></trkpt><trkpt lat="43.84564257297642" lon="12.433906797070183"><ele>459.66666666666663</ele><time>2026-05-02T13:23:43Z</time></trkpt><trkpt lat="43.84568199032874" lon="12.43363360230557"><ele>458.33333333333337</ele><time>2026-05-02T13:23:44Z</time></trkpt><trkpt lat="43.845700298605415" lon="12.433336261403744"><ele>457.0</ele><time>2026-05-02T13:23:45Z</time></trkpt><trkpt lat="43.84573884895562" lon="12.433048455161508"><ele>457.0</ele><time>2026-05-02T13:23:46Z</time></trkpt><trkpt lat="43.84576805000409" lon="12.432771660736428"><ele>457.0</ele><time>2026-05-02T13:23:47Z</time></trkpt><trkpt lat="43.84579134927862" lon="12.43252085596797"><ele>457.0</ele><time>2026-05-02T13:23:48Z</time></trkpt><trkpt lat="43.84580576492959" lon="12.432268483891075"><ele>457.33333333333337</ele><time>2026-05-02T13:23:49Z</time></trkpt><trkpt lat="43.84578979096491" lon="12.43202075693893"><ele>457.66666666666663</ele><time>2026-05-02T13:23:50Z</time></trkpt><trkpt lat="43.84576097835661" lon="12.43178006609712"><ele>458.0</ele><time>2026-05-02T13:23:51Z</time></trkpt><trkpt lat="43.8457305270531" lon="12.431566282237046"><ele>458.0</ele><time>2026-05-02T13:23:52Z</time></trkpt><trkpt lat="43.84570806453754" lon="12.431373883101797"><ele>458.0</ele><time>2026-05-02T13:23:53Z</time></trkpt><trkpt lat="43.8457177976247" lon="12.431193341817192"><ele>458.0</ele><time>2026-05-02T13:23:54Z</time></trkpt><trkpt lat="43.84574874585099" lon="12.431023676215261"><ele>458.0</ele><time>2026-05-02T13:23:55Z</time></trkpt><trkpt lat="43.84578964176405" lon="12.430827149193671"><ele>458.0</ele><time>2026-05-02T13:23:56Z</time></trkpt><trkpt lat="43.8458628978721" lon="12.430618612394575"><ele>458.0</ele><time>2026-05-02T13:23:57Z</time></trkpt><trkpt lat="43.84594241576163" lon="12.430389986781455"><ele>458.0</ele><time>2026-05-02T13:23:58Z</time></trkpt><trkpt lat="43.84602346307602" lon="12.430148591255508"><ele>462.3333333333333</ele><time>2026-05-02T13:23:59Z</time></trkpt><trkpt lat="43.8461056578095" lon="12.429898314701616"><ele>466.66666666666663</ele><time>2026-05-02T13:24:00Z</time></trkpt><trkpt lat="43.84619166645391" lon="12.429651442603202"><ele>471.0</ele><time>2026-05-02T13:24:01Z</time></trkpt><trkpt lat="43.84627692026884" lon="12.429410489843189"><ele>471.0</ele><time>2026-05-02T13:24:02Z</time></trkpt><trkpt lat="43.846341059133316" lon="12.429184300670986"><ele>471.0</ele><time>2026-05-02T13:24:03Z</time></trkpt><trkpt lat="43.84636136382736" lon="12.428947343255853"><ele>471.0</ele><time>2026-05-02T13:24:04Z</time></trkpt><trkpt lat="43.846335660446734" lon="12.428686807429129"><ele>471.0</ele><time>2026-05-02T13:24:05Z</time></trkpt><trkpt lat="43.84628200590518" lon="12.428420157206494"><ele>471.0</ele><time>2026-05-02T13:24:06Z</time></trkpt><trkpt lat="43.84621966415537" lon="12.428156945616356"><ele>471.0</ele><time>2026-05-02T13:24:07Z</time></trkpt><trkpt lat="43.846161015489024" lon="12.42788728216343"><ele>471.0</ele><time>2026-05-02T13:24:08Z</time></trkpt><trkpt lat="43.84611629738768" lon="12.427600817206198"><ele>471.0</ele><time>2026-05-02T13:24:09Z</time></trkpt><trkpt lat="43.846060891541825" lon="12.427314235726346"><ele>471.0</ele><time>2026-05-02T13:24:10Z</time></trkpt><trkpt lat="43.84597099447452" lon="12.427035031895349"><ele>468.66666666666663</ele><time>2026-05-02T13:24:11Z</time></trkpt><trkpt lat="43.84591269908972" lon="12.42676643314306"><ele>466.3333333333333</ele><time>2026-05-02T13:24:12Z</time></trkpt><trkpt lat="43.84587845091364" lon="12.42650338403626"><ele>464.0</ele><time>2026-05-02T13:24:13Z</time></trkpt><trkpt lat="43.84587721024563" lon="12.426227833223786"><ele>464.0</ele><time>2026-05-02T13:24:14Z</time></trkpt><trkpt lat="43.84590392999156" lon="12.425940762910436"><ele>464.0</ele><time>2026-05-02T13:24:15Z</time></trkpt><trkpt lat="43.845952452813194" lon="12.425641054915614"><ele>464.0</ele><time>2026-05-02T13:24:16Z</time></trkpt><trkpt lat="43.846015785507994" lon="12.425348854421388"><ele>470.3333333333333</ele><time>2026-05-02T13:24:17Z</time></trkpt><trkpt lat="43.84610267700522" lon="12.425073727309446"><ele>476.66666666666663</ele><time>2026-05-02T13:24:18Z</time></trkpt><trkpt lat="43.8461859910386" lon="12.424790391185661"><ele>483.0</ele><time>2026-05-02T13:24:19Z</time></trkpt><trkpt lat="43.84623680517158" lon="12.42449916861125"><ele>484.0</ele><time>2026-05-02T13:24:20Z</time></trkpt><trkpt lat="43.846257992437195" lon="12.424246726537367"><ele>485.0</ele><time>2026-05-02T13:24:21Z</time></trkpt><trkpt lat="43.84626782813564" lon="12.424007538373427"><ele>486.0</ele><time>2026-05-02T13:24:22Z</time></trkpt><trkpt lat="43.8462157342711" lon="12.423751336717372"><ele>488.33333333333337</ele><time>2026-05-02T13:24:23Z</time></trkpt><trkpt lat="43.846129356240475" lon="12.42347570838363"><ele>490.6666666666667</ele><time>2026-05-02T13:24:24Z</time></trkpt><trkpt lat="43.84605124397393" lon="12.423191350395758"><ele>493.0</ele><time>2026-05-02T13:24:25Z</time></trkpt><trkpt lat="43.84602086808199" lon="12.422896248044776"><ele>493.0</ele><time>2026-05-02T13:24:26Z</time></trkpt><trkpt lat="43.846029325239506" lon="12.422618887102669"><ele>493.0</ele><time>2026-05-02T13:24:27Z</time></trkpt><trkpt lat="43.846056973827906" lon="12.422337465523434"><ele>493.0</ele><time>2026-05-02T13:24:28Z</time></trkpt><trkpt lat="43.84610271178561" lon="12.422049503855233"><ele>488.0</ele><time>2026-05-02T13:24:29Z</time></trkpt><trkpt lat="43.84615741051159" lon="12.421746387723182"><ele>483.0</ele><time>2026-05-02T13:24:30Z</time></trkpt><trkpt lat="43.84621321779885" lon="12.421445088139162"><ele>482.0</ele><time>2026-05-02T13:24:31Z</time></trkpt><trkpt lat="43.84626598466821" lon="12.421155085662212"><ele>481.0</ele><time>2026-05-02T13:24:32Z</time></trkpt><trkpt lat="43.846315826114854" lon="12.420884532872362"><ele>480.0</ele><time>2026-05-02T13:24:33Z</time></trkpt><trkpt lat="43.84635784058415" lon="12.420605126557573"><ele>478.0</ele><time>2026-05-02T13:24:34Z</time></trkpt><trkpt lat="43.84642021144535" lon="12.420347785585575"><ele>476.0</ele><time>2026-05-02T13:24:35Z</time></trkpt><trkpt lat="43.846498756491556" lon="12.420153550351055"><ele>474.0</ele><time>2026-05-02T13:24:36Z</time></trkpt><trkpt lat="43.84657812161194" lon="12.419986776938464"><ele>474.0</ele><time>2026-05-02T13:24:37Z</time></trkpt><trkpt lat="43.846597528987765" lon="12.419813162108511"><ele>474.0</ele><time>2026-05-02T13:24:38Z</time></trkpt><trkpt lat="43.84656689616676" lon="12.419612939436188"><ele>474.0</ele><time>2026-05-02T13:24:39Z</time></trkpt><trkpt lat="43.846466713417236" lon="12.419401236870762"><ele>474.66666666666663</ele><time>2026-05-02T13:24:40Z</time></trkpt><trkpt lat="43.846313676347144" lon="12.419194868053278"><ele>475.3333333333333</ele><time>2026-05-02T13:24:41Z</time></trkpt><trkpt lat="43.84615492806009" lon="12.418981288188752"><ele>476.0</ele><time>2026-05-02T13:24:42Z</time></trkpt><trkpt lat="43.84602639286117" lon="12.418771356584834"><ele>475.3333333333333</ele><time>2026-05-02T13:24:43Z</time></trkpt><trkpt lat="43.845938333025984" lon="12.418578161280609"><ele>474.66666666666663</ele><time>2026-05-02T13:24:44Z</time></trkpt><trkpt lat="43.84586246602881" lon="12.418357880925806"><ele>474.0</ele><time>2026-05-02T13:24:45Z</time></trkpt><trkpt lat="43.84580064250679" lon="12.418099392679343"><ele>475.0</ele><time>2026-05-02T13:24:46Z</time></trkpt><trkpt lat="43.84574761308092" lon="12.417823691450861"><ele>476.0</ele><time>2026-05-02T13:24:47Z</time></trkpt><trkpt lat="43.84570122027205" lon="12.417561460298717"><ele>477.0</ele><time>2026-05-02T13:24:48Z</time></trkpt><trkpt lat="43.84566221572314" lon="12.41733209874844"><ele>477.0</ele><time>2026-05-02T13:24:49Z</time></trkpt><trkpt lat="43.84562608387855" lon="12.417132625050176"><ele>477.0</ele><time>2026-05-02T13:24:50Z</time></trkpt><trkpt lat="43.84558745715681" lon="12.41695558189849"><ele>477.0</ele><time>2026-05-02T13:24:51Z</time></trkpt><trkpt lat="43.84554811484691" lon="12.416799301602007"><ele>477.0</ele><time>2026-05-02T13:24:52Z</time></trkpt><trkpt lat="43.845516021336174" lon="12.416670665046965"><ele>477.0</ele><time>2026-05-02T13:24:53Z</time></trkpt><trkpt lat="43.84546894126028" lon="12.4165605723339"><ele>477.00000000000006</ele><time>2026-05-02T13:24:54Z</time></trkpt><trkpt lat="43.84540319224383" lon="12.416467468256675"><ele>477.00000000000006</ele><time>2026-05-02T13:24:55Z</time></trkpt><trkpt lat="43.84531474554044" lon="12.416414694214788"><ele>477.0</ele><time>2026-05-02T13:24:56Z</time></trkpt><trkpt lat="43.84521402543004" lon="12.416407471766037"><ele>477.0</ele><time>2026-05-02T13:24:57Z</time></trkpt><trkpt lat="43.845103675195716" lon="12.416448299487858"><ele>471.66666666666663</ele><time>2026-05-02T13:24:58Z</time></trkpt><trkpt lat="43.844968322962075" lon="12.416547777549454"><ele>466.3333333333333</ele><time>2026-05-02T13:24:59Z</time></trkpt><trkpt lat="43.84479278581841" lon="12.416662239949943"><ele>461.0</ele><time>2026-05-02T13:25:00Z</time></trkpt><trkpt lat="43.84459040520705" lon="12.416751959857333"><ele>461.0</ele><time>2026-05-02T13:25:01Z</time></trkpt><trkpt lat="43.844385604906" lon="12.416862417861832"><ele>461.0</ele><time>2026-05-02T13:25:02Z</time></trkpt><trkpt lat="43.844179171718224" lon="12.416983695145785"><ele>461.0</ele><time>2026-05-02T13:25:03Z</time></trkpt><trkpt lat="43.843988103199365" lon="12.417100979629637"><ele>459.0</ele><time>2026-05-02T13:25:04Z</time></trkpt><trkpt lat="43.84382422079776" lon="12.417208828280183"><ele>457.0</ele><time>2026-05-02T13:25:05Z</time></trkpt><trkpt lat="43.843691341684256" lon="12.417288107217926"><ele>455.0</ele><time>2026-05-02T13:25:05.999Z</time></trkpt><trkpt lat="43.84356212581722" lon="12.417309584793344"><ele>458.0</ele><time>2026-05-02T13:25:06.999Z</time></trkpt><trkpt lat="43.84343679042081" lon="12.417244481993677"><ele>461.0</ele><time>2026-05-02T13:25:07.999Z</time></trkpt><trkpt lat="43.8433110151035" lon="12.417088507482559"><ele>464.0</ele><time>2026-05-02T13:25:08.999Z</time></trkpt><trkpt lat="43.843194238750094" lon="12.41688864142776"><ele>464.0</ele><time>2026-05-02T13:25:09.999Z</time></trkpt><trkpt lat="43.84308383163782" lon="12.4167691961865"><ele>464.0</ele><time>2026-05-02T13:25:10.999Z</time></trkpt><trkpt lat="43.84294192293611" lon="12.416760723982826"><ele>464.0</ele><time>2026-05-02T13:25:11.999Z</time></trkpt><trkpt lat="43.84278188602374" lon="12.416813694169003"><ele>464.0</ele><time>2026-05-02T13:25:12.999Z</time></trkpt><trkpt lat="43.84261352905282" lon="12.416864724214706"><ele>466.75</ele><time>2026-05-02T13:25:13.999Z</time></trkpt><trkpt lat="43.842454308372965" lon="12.416897773700686"><ele>469.5</ele><time>2026-05-02T13:25:14.999Z</time></trkpt><trkpt lat="43.84233340884835" lon="12.416924275096843"><ele>472.25</ele><time>2026-05-02T13:25:15.999Z</time></trkpt><trkpt lat="43.84224296018007" lon="12.417026141887467"><ele>475.0</ele><time>2026-05-02T13:25:16.999Z</time></trkpt><trkpt lat="43.842188071533805" lon="12.417168307004449"><ele>476.25</ele><time>2026-05-02T13:25:17.999Z</time></trkpt><trkpt lat="43.84218872673533" lon="12.417333532780685"><ele>477.5</ele><time>2026-05-02T13:25:18.999Z</time></trkpt><trkpt lat="43.84225816802543" lon="12.417491043032094"><ele>478.75</ele><time>2026-05-02T13:25:19.999Z</time></trkpt><trkpt lat="43.84237844212277" lon="12.417620533545263"><ele>480.0</ele><time>2026-05-02T13:25:20.999Z</time></trkpt><trkpt lat="43.84252307836676" lon="12.417741892789302"><ele>477.5</ele><time>2026-05-02T13:25:21.999Z</time></trkpt><trkpt lat="43.84266549668112" lon="12.417877986701237"><ele>475.0</ele><time>2026-05-02T13:25:22.999Z</time></trkpt><trkpt lat="43.84276019101733" lon="12.417984800561245"><ele>472.5</ele><time>2026-05-02T13:25:23.999Z</time></trkpt><trkpt lat="43.842790907649984" lon="12.418081803123586"><ele>470.0</ele><time>2026-05-02T13:25:24.999Z</time></trkpt><trkpt lat="43.842773075848434" lon="12.418196601815989"><ele>469.25</ele><time>2026-05-02T13:25:26Z</time></trkpt><trkpt lat="43.842702972282886" lon="12.41829091426491"><ele>468.5</ele><time>2026-05-02T13:25:27Z</time></trkpt><trkpt lat="43.842593811967525" lon="12.418321185855232"><ele>467.75</ele><time>2026-05-02T13:25:28Z</time></trkpt><trkpt lat="43.84247329072782" lon="12.418268296835382"><ele>467.0</ele><time>2026-05-02T13:25:29Z</time></trkpt><trkpt lat="43.842334674905224" lon="12.418158323197186"><ele>471.3333333333333</ele><time>2026-05-02T13:25:30Z</time></trkpt><trkpt lat="43.84216062367473" lon="12.418032625988738"><ele>475.66666666666663</ele><time>2026-05-02T13:25:31Z</time></trkpt><trkpt lat="43.84197851394251" lon="12.417906942222919"><ele>480.0</ele><time>2026-05-02T13:25:32Z</time></trkpt><trkpt lat="43.84178847440613" lon="12.417792378856099"><ele>484.0</ele><time>2026-05-02T13:25:33Z</time></trkpt><trkpt lat="43.841603137637684" lon="12.417669305399434"><ele>488.0</ele><time>2026-05-02T13:25:34Z</time></trkpt><trkpt lat="43.84143321689063" lon="12.417544584395422"><ele>492.0</ele><time>2026-05-02T13:25:35Z</time></trkpt><trkpt lat="43.841276439493626" lon="12.417425651718888"><ele>492.0</ele><time>2026-05-02T13:25:36Z</time></trkpt><trkpt lat="43.84112872458802" lon="12.417304812168544"><ele>492.0</ele><time>2026-05-02T13:25:37Z</time></trkpt><trkpt lat="43.84098543029072" lon="12.417186655446047"><ele>492.0</ele><time>2026-05-02T13:25:38Z</time></trkpt><trkpt lat="43.8408623657639" lon="12.417064234392857"><ele>494.66666666666663</ele><time>2026-05-02T13:25:39Z</time></trkpt><trkpt lat="43.84077783887753" lon="12.416896843480368"><ele>497.3333333333333</ele><time>2026-05-02T13:25:40Z</time></trkpt><trkpt lat="43.84072491608888" lon="12.416675089107843"><ele>500.0</ele><time>2026-05-02T13:25:41Z</time></trkpt><trkpt lat="43.84068080243562" lon="12.41644492995544"><ele>499.66666666666663</ele><time>2026-05-02T13:25:42Z</time></trkpt><trkpt lat="43.840601847094455" lon="12.416235763259177"><ele>499.33333333333337</ele><time>2026-05-02T13:25:43Z</time></trkpt><trkpt lat="43.840485058553156" lon="12.416057616499945"><ele>499.0</ele><time>2026-05-02T13:25:44Z</time></trkpt><trkpt lat="43.84035530577918" lon="12.415932177291245"><ele>499.0</ele><time>2026-05-02T13:25:45Z</time></trkpt><trkpt lat="43.840266578375676" lon="12.415769858790505"><ele>499.0</ele><time>2026-05-02T13:25:46Z</time></trkpt><trkpt lat="43.84023326920518" lon="12.415555898467483"><ele>499.0</ele><time>2026-05-02T13:25:47Z</time></trkpt><trkpt lat="43.84019357967031" lon="12.41535334902164"><ele>501.25</ele><time>2026-05-02T13:25:48Z</time></trkpt><trkpt lat="43.840094590828166" lon="12.41521499110722"><ele>503.5</ele><time>2026-05-02T13:25:49Z</time></trkpt><trkpt lat="43.839958939815546" lon="12.415147416032696"><ele>505.75</ele><time>2026-05-02T13:25:50Z</time></trkpt><trkpt lat="43.83981712208622" lon="12.415124482587872"><ele>508.0</ele><time>2026-05-02T13:25:51Z</time></trkpt><trkpt lat="43.839682867268294" lon="12.415146544614053"><ele>508.0</ele><time>2026-05-02T13:25:52Z</time></trkpt><trkpt lat="43.83955053987304" lon="12.415139791229418"><ele>508.0</ele><time>2026-05-02T13:25:53Z</time></trkpt><trkpt lat="43.83943132124537" lon="12.415065670175949"><ele>508.0</ele><time>2026-05-02T13:25:54Z</time></trkpt><trkpt lat="43.83933269509119" lon="12.414940166463026"><ele>508.0</ele><time>2026-05-02T13:25:55Z</time></trkpt><trkpt lat="43.83925629809958" lon="12.414794076208702"><ele>510.75</ele><time>2026-05-02T13:25:56Z</time></trkpt><trkpt lat="43.839189482193746" lon="12.41463695729336"><ele>513.5</ele><time>2026-05-02T13:25:57Z</time></trkpt><trkpt lat="43.83912019138939" lon="12.414481476575526"><ele>516.25</ele><time>2026-05-02T13:25:58Z</time></trkpt><trkpt lat="43.839046805662335" lon="12.414324409765658"><ele>519.0</ele><time>2026-05-02T13:25:59Z</time></trkpt><trkpt lat="43.838968854062195" lon="12.414165494391447"><ele>519.0</ele><time>2026-05-02T13:26:00Z</time></trkpt><trkpt lat="43.8388872404971" lon="12.414007257587572"><ele>519.0</ele><time>2026-05-02T13:26:01Z</time></trkpt><trkpt lat="43.83879301124242" lon="12.41387675266583"><ele>519.0</ele><time>2026-05-02T13:26:02Z</time></trkpt><trkpt lat="43.83867144421552" lon="12.41377684175347"><ele>519.0</ele><time>2026-05-02T13:26:03Z</time></trkpt><trkpt lat="43.83853536452786" lon="12.413702898019277"><ele>519.6</ele><time>2026-05-02T13:26:04Z</time></trkpt><trkpt lat="43.83840289370043" lon="12.413635329162872"><ele>520.2</ele><time>2026-05-02T13:26:05Z</time></trkpt><trkpt lat="43.83831547634886" lon="12.41359166581078"><ele>520.8000000000001</ele><time>2026-05-02T13:26:06Z</time></trkpt><trkpt lat="43.838244029146196" lon="12.413603205682266"><ele>521.4</ele><time>2026-05-02T13:26:07Z</time></trkpt><trkpt lat="43.838176661904214" lon="12.413685808708289"><ele>522.0</ele><time>2026-05-02T13:26:08Z</time></trkpt><trkpt lat="43.83814376659771" lon="12.413806779673433"><ele>523.5</ele><time>2026-05-02T13:26:09Z</time></trkpt><trkpt lat="43.83816611717152" lon="12.413962230044659"><ele>525.0</ele><time>2026-05-02T13:26:10Z</time></trkpt><trkpt lat="43.838210545047616" lon="12.414144263152293"><ele>526.5</ele><time>2026-05-02T13:26:11Z</time></trkpt><trkpt lat="43.83823490602029" lon="12.414342611677508"><ele>528.0</ele><time>2026-05-02T13:26:12Z</time></trkpt><trkpt lat="43.83823092461918" lon="12.414550061906503"><ele>529.6666666666666</ele><time>2026-05-02T13:26:13Z</time></trkpt><trkpt lat="43.838246645276705" lon="12.414764635128632"><ele>531.3333333333333</ele><time>2026-05-02T13:26:14Z</time></trkpt><trkpt lat="43.83826396366596" lon="12.414974432807783"><ele>533.0</ele><time>2026-05-02T13:26:15Z</time></trkpt><trkpt lat="43.8382840005439" lon="12.415186270725924"><ele>533.0</ele><time>2026-05-02T13:26:16Z</time></trkpt><trkpt lat="43.83829912334385" lon="12.4153962839451"><ele>533.0</ele><time>2026-05-02T13:26:17Z</time></trkpt><trkpt lat="43.83830383755226" lon="12.415603853084116"><ele>533.0</ele><time>2026-05-02T13:26:18Z</time></trkpt><trkpt lat="43.83828186686037" lon="12.415809345280314"><ele>533.6666666666666</ele><time>2026-05-02T13:26:19Z</time></trkpt><trkpt lat="43.83824016167679" lon="12.416019366212547"><ele>534.3333333333334</ele><time>2026-05-02T13:26:20Z</time></trkpt><trkpt lat="43.83818747568795" lon="12.416240311152194"><ele>535.0</ele><time>2026-05-02T13:26:21Z</time></trkpt><trkpt lat="43.83813377086944" lon="12.41647510425264"><ele>535.6666666666667</ele><time>2026-05-02T13:26:22Z</time></trkpt><trkpt lat="43.838083406161786" lon="12.41671589545868"><ele>536.3333333333334</ele><time>2026-05-02T13:26:23Z</time></trkpt><trkpt lat="43.838041328625025" lon="12.416968717893424"><ele>537.0</ele><time>2026-05-02T13:26:24Z</time></trkpt><trkpt lat="43.8380205254576" lon="12.417236151993826"><ele>537.0</ele><time>2026-05-02T13:26:25Z</time></trkpt><trkpt lat="43.838022252219425" lon="12.417503026472628"><ele>537.0</ele><time>2026-05-02T13:26:26Z</time></trkpt><trkpt lat="43.83804663666925" lon="12.417737656233362"><ele>537.0</ele><time>2026-05-02T13:26:27Z</time></trkpt><trkpt lat="43.83805722455053" lon="12.417921431493333"><ele>537.75</ele><time>2026-05-02T13:26:28Z</time></trkpt><trkpt lat="43.83802039116229" lon="12.418067996702725"><ele>538.5</ele><time>2026-05-02T13:26:29Z</time></trkpt><trkpt lat="43.83793975095576" lon="12.418179512044535"><ele>539.25</ele><time>2026-05-02T13:26:30Z</time></trkpt><trkpt lat="43.83783171601919" lon="12.418231585581768"><ele>540.0</ele><time>2026-05-02T13:26:31Z</time></trkpt><trkpt lat="43.83770613386896" lon="12.418216269335884"><ele>543.6666666666666</ele><time>2026-05-02T13:26:32Z</time></trkpt><trkpt lat="43.83759138283612" lon="12.418123721796565"><ele>547.3333333333333</ele><time>2026-05-02T13:26:33Z</time></trkpt><trkpt lat="43.83749448888786" lon="12.417951322678688"><ele>551.0</ele><time>2026-05-02T13:26:34Z</time></trkpt><trkpt lat="43.83740837222258" lon="12.417723765156062"><ele>551.0</ele><time>2026-05-02T13:26:35Z</time></trkpt><trkpt lat="43.837319002903804" lon="12.417482388662526"><ele>551.0</ele><time>2026-05-02T13:26:36Z</time></trkpt><trkpt lat="43.83720844128692" lon="12.417268528165453"><ele>551.0</ele><time>2026-05-02T13:26:37Z</time></trkpt><trkpt lat="43.83706861546542" lon="12.417089654651546"><ele>550.6666666666666</ele><time>2026-05-02T13:26:38Z</time></trkpt><trkpt lat="43.836921135157404" lon="12.41691091085084"><ele>550.3333333333334</ele><time>2026-05-02T13:26:39Z</time></trkpt><trkpt lat="43.83677817085719" lon="12.416737893443216"><ele>550.0</ele><time>2026-05-02T13:26:40Z</time></trkpt><trkpt lat="43.836625279329866" lon="12.416560728563487"><ele>553.0</ele><time>2026-05-02T13:26:41Z</time></trkpt><trkpt lat="43.83647897920324" lon="12.416386280851103"><ele>556.0</ele><time>2026-05-02T13:26:42Z</time></trkpt><trkpt lat="43.83634055524774" lon="12.416214842605989"><ele>559.0</ele><time>2026-05-02T13:26:43Z</time></trkpt><trkpt lat="43.83621206954009" lon="12.416028626169961"><ele>559.0</ele><time>2026-05-02T13:26:44Z</time></trkpt><trkpt lat="43.83609869248211" lon="12.415809315377171"><ele>559.0</ele><time>2026-05-02T13:26:45Z</time></trkpt><trkpt lat="43.83599901528016" lon="12.415570576957633"><ele>559.0</ele><time>2026-05-02T13:26:46Z</time></trkpt><trkpt lat="43.835904977084354" lon="12.41535142448893"><ele>561.6666666666667</ele><time>2026-05-02T13:26:47Z</time></trkpt><trkpt lat="43.835794020075596" lon="12.41518437218353"><ele>564.3333333333334</ele><time>2026-05-02T13:26:48Z</time></trkpt><trkpt lat="43.83564062095506" lon="12.415038560683044"><ele>567.0</ele><time>2026-05-02T13:26:49Z</time></trkpt><trkpt lat="43.83546924764302" lon="12.414898476674512"><ele>567.0</ele><time>2026-05-02T13:26:50Z</time></trkpt><trkpt lat="43.83530666970205" lon="12.414760637748069"><ele>567.0</ele><time>2026-05-02T13:26:51Z</time></trkpt><trkpt lat="43.835141057746085" lon="12.41463212639782"><ele>567.0</ele><time>2026-05-02T13:26:51.999Z</time></trkpt><trkpt lat="43.834958187575" lon="12.414523999734003"><ele>568.6666666666666</ele><time>2026-05-02T13:26:52.999Z</time></trkpt><trkpt lat="43.834756023522026" lon="12.4144338225497"><ele>570.3333333333333</ele><time>2026-05-02T13:26:53.999Z</time></trkpt><trkpt lat="43.83454767948843" lon="12.41433478757321"><ele>572.0</ele><time>2026-05-02T13:26:54.999Z</time></trkpt><trkpt lat="43.83434388576215" lon="12.414212655659837"><ele>576.3333333333333</ele><time>2026-05-02T13:26:55.999Z</time></trkpt><trkpt lat="43.83414225645321" lon="12.414085895847524"><ele>580.6666666666666</ele><time>2026-05-02T13:26:56.999Z</time></trkpt><trkpt lat="43.833955282049835" lon="12.413972770730526"><ele>585.0</ele><time>2026-05-02T13:26:57.999Z</time></trkpt><trkpt lat="43.83376750731256" lon="12.41390106285717"><ele>585.0</ele><time>2026-05-02T13:26:58.999Z</time></trkpt><trkpt lat="43.83355016345112" lon="12.413878664301416"><ele>585.0</ele><time>2026-05-02T13:26:59.999Z</time></trkpt><trkpt lat="43.833342347544004" lon="12.41385859526518"><ele>585.0</ele><time>2026-05-02T13:27:00.999Z</time></trkpt><trkpt lat="43.8331612573265" lon="12.413828055779803"><ele>584.6666666666666</ele><time>2026-05-02T13:27:01.999Z</time></trkpt><trkpt lat="43.832991359908775" lon="12.413762220467678"><ele>584.3333333333333</ele><time>2026-05-02T13:27:02.999Z</time></trkpt><trkpt lat="43.8328207837351" lon="12.4136338621974"><ele>584.0</ele><time>2026-05-02T13:27:03.999Z</time></trkpt><trkpt lat="43.83266955731555" lon="12.413475646216025"><ele>585.6666666666666</ele><time>2026-05-02T13:27:04.999Z</time></trkpt><trkpt lat="43.832527244270445" lon="12.413285534102231"><ele>587.3333333333334</ele><time>2026-05-02T13:27:05.999Z</time></trkpt><trkpt lat="43.832385917125826" lon="12.413053270179127"><ele>589.0</ele><time>2026-05-02T13:27:06.999Z</time></trkpt><trkpt lat="43.83224980854781" lon="12.412835167575937"><ele>589.0</ele><time>2026-05-02T13:27:07.999Z</time></trkpt><trkpt lat="43.83209335804345" lon="12.412657963677994"><ele>589.0</ele><time>2026-05-02T13:27:08.999Z</time></trkpt><trkpt lat="43.83189714180865" lon="12.412514662369604"><ele>589.0</ele><time>2026-05-02T13:27:09.999Z</time></trkpt><trkpt lat="43.83167678167324" lon="12.412378420305556"><ele>593.0</ele><time>2026-05-02T13:27:10.999Z</time></trkpt><trkpt lat="43.831472086984135" lon="12.412230680596304"><ele>597.0</ele><time>2026-05-02T13:27:11.999Z</time></trkpt><trkpt lat="43.831278878626335" lon="12.412071876639803"><ele>597.0</ele><time>2026-05-02T13:27:12.999Z</time></trkpt><trkpt lat="43.83109513200057" lon="12.411888691193038"><ele>597.0</ele><time>2026-05-02T13:27:13.999Z</time></trkpt><trkpt lat="43.83092797305072" lon="12.411681228197065"><ele>598.3333333333334</ele><time>2026-05-02T13:27:14.999Z</time></trkpt><trkpt lat="43.830770614953146" lon="12.411480512145909"><ele>599.6666666666667</ele><time>2026-05-02T13:27:15.999Z</time></trkpt><trkpt lat="43.83063528627152" lon="12.411296386249393"><ele>601.0</ele><time>2026-05-02T13:27:16.999Z</time></trkpt><trkpt lat="43.830538595194646" lon="12.411079880049334"><ele>601.0</ele><time>2026-05-02T13:27:17.999Z</time></trkpt><trkpt lat="43.83047688882891" lon="12.410827397571223"><ele>601.0</ele><time>2026-05-02T13:27:18.999Z</time></trkpt><trkpt lat="43.830451103988295" lon="12.410549869813945"><ele>601.0</ele><time>2026-05-02T13:27:19.999Z</time></trkpt><trkpt lat="43.83043435117753" lon="12.410267102929536"><ele>600.75</ele><time>2026-05-02T13:27:20.999Z</time></trkpt><trkpt lat="43.83040512392854" lon="12.410036465906243"><ele>600.5</ele><time>2026-05-02T13:27:21.999Z</time></trkpt><trkpt lat="43.83035835421206" lon="12.40985263638822"><ele>600.25</ele><time>2026-05-02T13:27:22.999Z</time></trkpt><trkpt lat="43.83029121369999" lon="12.409723332380945"><ele>600.0</ele><time>2026-05-02T13:27:23.999Z</time></trkpt><trkpt lat="43.830176548664866" lon="12.409630403912589"><ele>601.6666666666666</ele><time>2026-05-02T13:27:24.999Z</time></trkpt><trkpt lat="43.83000021604142" lon="12.409567375340425"><ele>603.3333333333333</ele><time>2026-05-02T13:27:25.999Z</time></trkpt><trkpt lat="43.82978309346712" lon="12.409533568233645"><ele>605.0</ele><time>2026-05-02T13:27:26.999Z</time></trkpt><trkpt lat="43.82954696544007" lon="12.409516295744824"><ele>605.0</ele><time>2026-05-02T13:27:27.999Z</time></trkpt><trkpt lat="43.82933379971552" lon="12.40949771829287"><ele>605.0</ele><time>2026-05-02T13:27:28.999Z</time></trkpt><trkpt lat="43.82916838906623" lon="12.409493472871691"><ele>605.0</ele><time>2026-05-02T13:27:29.999Z</time></trkpt><trkpt lat="43.82900934060632" lon="12.409468383132305"><ele>607.0</ele><time>2026-05-02T13:27:31Z</time></trkpt><trkpt lat="43.82885462673064" lon="12.409384414313719"><ele>609.0</ele><time>2026-05-02T13:27:32Z</time></trkpt><trkpt lat="43.82869648903312" lon="12.409231598789782"><ele>611.0</ele><time>2026-05-02T13:27:33Z</time></trkpt><trkpt lat="43.828537343297064" lon="12.409037155812408"><ele>610.6666666666666</ele><time>2026-05-02T13:27:34Z</time></trkpt><trkpt lat="43.828377225267566" lon="12.40886494123699"><ele>610.3333333333334</ele><time>2026-05-02T13:27:35Z</time></trkpt><trkpt lat="43.828221657337465" lon="12.408774698215337"><ele>610.0</ele><time>2026-05-02T13:27:36Z</time></trkpt><trkpt lat="43.82807569230699" lon="12.408741877780711"><ele>610.0</ele><time>2026-05-02T13:27:37Z</time></trkpt><trkpt lat="43.827912945493075" lon="12.408706027685028"><ele>610.0</ele><time>2026-05-02T13:27:38Z</time></trkpt><trkpt lat="43.82776246012192" lon="12.408664535628944"><ele>610.0</ele><time>2026-05-02T13:27:39Z</time></trkpt><trkpt lat="43.82750767903254" lon="12.40872216554201"><ele>613.0</ele><time>2026-05-02T13:27:40Z</time></trkpt><trkpt lat="43.82733296621491" lon="12.408727216059198"><ele>616.0</ele><time>2026-05-02T13:27:41Z</time></trkpt><trkpt lat="43.827177382831195" lon="12.408733946832097"><ele>619.0</ele><time>2026-05-02T13:27:42Z</time></trkpt><trkpt lat="43.82704010339598" lon="12.408731843988344"><ele>619.0</ele><time>2026-05-02T13:27:43Z</time></trkpt><trkpt lat="43.826919797162674" lon="12.40868631710326"><ele>619.0</ele><time>2026-05-02T13:27:44Z</time></trkpt><trkpt lat="43.826816029218634" lon="12.408578861415194"><ele>619.0</ele><time>2026-05-02T13:27:45Z</time></trkpt><trkpt lat="43.82671745369861" lon="12.408391742712936"><ele>619.0</ele><time>2026-05-02T13:27:46Z</time></trkpt><trkpt lat="43.82666352675459" lon="12.408117298107607"><ele>618.5</ele><time>2026-05-02T13:27:47Z</time></trkpt><trkpt lat="43.826587724679" lon="12.407830808562712"><ele>618.0</ele><time>2026-05-02T13:27:48Z</time></trkpt><trkpt lat="43.82649047574593" lon="12.407535263022712"><ele>618.0</ele><time>2026-05-02T13:27:49Z</time></trkpt><trkpt lat="43.82638905528303" lon="12.407247200754103"><ele>618.0</ele><time>2026-05-02T13:27:50Z</time></trkpt><trkpt lat="43.82628773332014" lon="12.406985151939589"><ele>618.0</ele><time>2026-05-02T13:27:51Z</time></trkpt><trkpt lat="43.82618473581502" lon="12.406779904410657"><ele>615.6666666666666</ele><time>2026-05-02T13:27:52Z</time></trkpt><trkpt lat="43.82605311649119" lon="12.40662303005916"><ele>613.3333333333333</ele><time>2026-05-02T13:27:53Z</time></trkpt><trkpt lat="43.825895259747604" lon="12.406519040296963"><ele>611.0</ele><time>2026-05-02T13:27:54Z</time></trkpt><trkpt lat="43.82571090485415" lon="12.406463764781906"><ele>616.3333333333333</ele><time>2026-05-02T13:27:55Z</time></trkpt><trkpt lat="43.82551167448664" lon="12.406471702257654"><ele>621.6666666666666</ele><time>2026-05-02T13:27:56Z</time></trkpt><trkpt lat="43.825290394612495" lon="12.406511477545296"><ele>627.0</ele><time>2026-05-02T13:27:57Z</time></trkpt><trkpt lat="43.82506071750118" lon="12.406551971765031"><ele>629.0</ele><time>2026-05-02T13:27:58Z</time></trkpt><trkpt lat="43.82483027365266" lon="12.406569109744119"><ele>631.0</ele><time>2026-05-02T13:27:59Z</time></trkpt><trkpt lat="43.824614936664055" lon="12.40658780494251"><ele>633.0</ele><time>2026-05-02T13:28:00Z</time></trkpt><trkpt lat="43.82442634141291" lon="12.406556269206144"><ele>632.0</ele><time>2026-05-02T13:28:01Z</time></trkpt><trkpt lat="43.82425952174871" lon="12.406459753533175"><ele>631.0</ele><time>2026-05-02T13:28:02Z</time></trkpt><trkpt lat="43.82409502224175" lon="12.406293856118191"><ele>630.0</ele><time>2026-05-02T13:28:03Z</time></trkpt><trkpt lat="43.82394564549284" lon="12.406081740311908"><ele>630.0</ele><time>2026-05-02T13:28:04Z</time></trkpt><trkpt lat="43.82378783760781" lon="12.405886556389545"><ele>630.0</ele><time>2026-05-02T13:28:05Z</time></trkpt><trkpt lat="43.82365318324084" lon="12.405710013932506"><ele>630.0</ele><time>2026-05-02T13:28:06Z</time></trkpt><trkpt lat="43.823553082725624" lon="12.405494045094112"><ele>630.0</ele><time>2026-05-02T13:28:07Z</time></trkpt><trkpt lat="43.82352348788416" lon="12.405211367181723"><ele>630.0</ele><time>2026-05-02T13:28:08Z</time></trkpt><trkpt lat="43.82349581131049" lon="12.404918910232976"><ele>630.0</ele><time>2026-05-02T13:28:09Z</time></trkpt><trkpt lat="43.82345247538823" lon="12.404636322930894"><ele>630.0</ele><time>2026-05-02T13:28:10Z</time></trkpt><trkpt lat="43.8234125151365" lon="12.404418660818093"><ele>630.0</ele><time>2026-05-02T13:28:11Z</time></trkpt><trkpt lat="43.823351760076896" lon="12.40424399982412"><ele>630.0</ele><time>2026-05-02T13:28:12Z</time></trkpt><trkpt lat="43.823231659889835" lon="12.404073943064082"><ele>630.0</ele><time>2026-05-02T13:28:13Z</time></trkpt><trkpt lat="43.823068577668096" lon="12.403886943028517"><ele>630.0</ele><time>2026-05-02T13:28:14Z</time></trkpt><trkpt lat="43.82290183854653" lon="12.403660273135358"><ele>630.0</ele><time>2026-05-02T13:28:15Z</time></trkpt><trkpt lat="43.82277706724088" lon="12.403371134855156"><ele>631.0</ele><time>2026-05-02T13:28:16Z</time></trkpt><trkpt lat="43.82267566025177" lon="12.403048531302016"><ele>632.0</ele><time>2026-05-02T13:28:17Z</time></trkpt><trkpt lat="43.82257266358898" lon="12.402719739547164"><ele>632.0</ele><time>2026-05-02T13:28:18Z</time></trkpt><trkpt lat="43.822473879126605" lon="12.402384162600894"><ele>632.0</ele><time>2026-05-02T13:28:19Z</time></trkpt><trkpt lat="43.8223791473204" lon="12.402049235162329"><ele>632.0</ele><time>2026-05-02T13:28:20Z</time></trkpt><trkpt lat="43.82229343937685" lon="12.401716978955033"><ele>632.0</ele><time>2026-05-02T13:28:21Z</time></trkpt><trkpt lat="43.822204508231756" lon="12.40138075759886"><ele>629.5</ele><time>2026-05-02T13:28:22Z</time></trkpt><trkpt lat="43.8221243803985" lon="12.401074319662515"><ele>627.0</ele><time>2026-05-02T13:28:23Z</time></trkpt><trkpt lat="43.82205304049376" lon="12.400781551202659"><ele>626.6666666666666</ele><time>2026-05-02T13:28:24Z</time></trkpt><trkpt lat="43.82200609315086" lon="12.400497676947513"><ele>626.3333333333333</ele><time>2026-05-02T13:28:25Z</time></trkpt><trkpt lat="43.82197836023878" lon="12.400205908862834"><ele>626.0</ele><time>2026-05-02T13:28:26Z</time></trkpt><trkpt lat="43.82195798749492" lon="12.399924554978082"><ele>627.3333333333333</ele><time>2026-05-02T13:28:27Z</time></trkpt><trkpt lat="43.82194534649588" lon="12.399626249373524"><ele>628.6666666666666</ele><time>2026-05-02T13:28:28Z</time></trkpt><trkpt lat="43.82195163653913" lon="12.399331949969273"><ele>630.0</ele><time>2026-05-02T13:28:29Z</time></trkpt><trkpt lat="43.82196198020154" lon="12.399039973333942"><ele>632.0</ele><time>2026-05-02T13:28:30Z</time></trkpt><trkpt lat="43.82197547963627" lon="12.39878701081714"><ele>634.0</ele><time>2026-05-02T13:28:31Z</time></trkpt><trkpt lat="43.82201883970141" lon="12.398558779387251"><ele>636.0</ele><time>2026-05-02T13:28:32Z</time></trkpt><trkpt lat="43.82208697751555" lon="12.398327504962406"><ele>636.0</ele><time>2026-05-02T13:28:33Z</time></trkpt><trkpt lat="43.82217239456288" lon="12.398088545804022"><ele>636.0</ele><time>2026-05-02T13:28:34Z</time></trkpt><trkpt lat="43.82226481251047" lon="12.397839649395323"><ele>636.0</ele><time>2026-05-02T13:28:35Z</time></trkpt><trkpt lat="43.82235280044337" lon="12.397583287164776"><ele>636.0</ele><time>2026-05-02T13:28:36Z</time></trkpt><trkpt lat="43.82244322543644" lon="12.3973171263675"><ele>636.0</ele><time>2026-05-02T13:28:37Z</time></trkpt><trkpt lat="43.82253055845167" lon="12.397041821006592"><ele>636.0</ele><time>2026-05-02T13:28:38Z</time></trkpt><trkpt lat="43.82259658546132" lon="12.396787254485004"><ele>638.0</ele><time>2026-05-02T13:28:39Z</time></trkpt><trkpt lat="43.82263162230607" lon="12.39657745499351"><ele>640.0</ele><time>2026-05-02T13:28:40Z</time></trkpt><trkpt lat="43.82261224494384" lon="12.396381224520589"><ele>642.0</ele><time>2026-05-02T13:28:41Z</time></trkpt><trkpt lat="43.822537593499945" lon="12.396186289483188"><ele>644.0</ele><time>2026-05-02T13:28:42Z</time></trkpt><trkpt lat="43.82241403768737" lon="12.396026359204766"><ele>646.0</ele><time>2026-05-02T13:28:43Z</time></trkpt><trkpt lat="43.82225007443092" lon="12.395863523056612"><ele>648.0</ele><time>2026-05-02T13:28:44Z</time></trkpt><trkpt lat="43.82206572091351" lon="12.395673376338358"><ele>649.5</ele><time>2026-05-02T13:28:45Z</time></trkpt><trkpt lat="43.82188411411071" lon="12.395466039503239"><ele>651.0</ele><time>2026-05-02T13:28:46Z</time></trkpt><trkpt lat="43.821717110308015" lon="12.395234279649175"><ele>653.0</ele><time>2026-05-02T13:28:47Z</time></trkpt><trkpt lat="43.82157310801371" lon="12.394986319974965"><ele>655.0</ele><time>2026-05-02T13:28:48Z</time></trkpt><trkpt lat="43.82146032156045" lon="12.39475554493418"><ele>657.0</ele><time>2026-05-02T13:28:49Z</time></trkpt><trkpt lat="43.821373385028934" lon="12.394543640534343"><ele>657.0</ele><time>2026-05-02T13:28:50Z</time></trkpt><trkpt lat="43.821321577741976" lon="12.394346103913337"><ele>657.0</ele><time>2026-05-02T13:28:50.999Z</time></trkpt><trkpt lat="43.821303177526296" lon="12.394168332117333"><ele>657.0</ele><time>2026-05-02T13:28:51.999Z</time></trkpt><trkpt lat="43.821322078891" lon="12.393985929885348"><ele>657.0</ele><time>2026-05-02T13:28:52.999Z</time></trkpt><trkpt lat="43.82132751892995" lon="12.393766648697326"><ele>657.0</ele><time>2026-05-02T13:28:53.999Z</time></trkpt><trkpt lat="43.82127297090868" lon="12.393549186861238"><ele>657.0</ele><time>2026-05-02T13:28:54.999Z</time></trkpt><trkpt lat="43.82116087962066" lon="12.393336111262517"><ele>657.0</ele><time>2026-05-02T13:28:55.999Z</time></trkpt><trkpt lat="43.82102564664201" lon="12.393104970167721"><ele>655.5</ele><time>2026-05-02T13:28:56.999Z</time></trkpt><trkpt lat="43.820872810817896" lon="12.392853166998362"><ele>654.0</ele><time>2026-05-02T13:28:57.999Z</time></trkpt><trkpt lat="43.820715787137694" lon="12.392625058723334"><ele>654.0</ele><time>2026-05-02T13:28:58.999Z</time></trkpt><trkpt lat="43.820552390702694" lon="12.39240179997807"><ele>654.0</ele><time>2026-05-02T13:28:59.999Z</time></trkpt><trkpt lat="43.820386947928235" lon="12.39217843298897"><ele>653.5</ele><time>2026-05-02T13:29:00.999Z</time></trkpt><trkpt lat="43.8202367829454" lon="12.39193581761026"><ele>653.0</ele><time>2026-05-02T13:29:01.999Z</time></trkpt><trkpt lat="43.82010857880688" lon="12.391660582933563"><ele>655.0</ele><time>2026-05-02T13:29:02.999Z</time></trkpt><trkpt lat="43.81999964823922" lon="12.391376591166447"><ele>657.0</ele><time>2026-05-02T13:29:03.999Z</time></trkpt><trkpt lat="43.819889343155566" lon="12.391086715869008"><ele>661.5</ele><time>2026-05-02T13:29:04.999Z</time></trkpt><trkpt lat="43.81977157807984" lon="12.39080228333392"><ele>666.0</ele><time>2026-05-02T13:29:05.999Z</time></trkpt><trkpt lat="43.81965135512489" lon="12.390534596803969"><ele>670.0</ele><time>2026-05-02T13:29:06.999Z</time></trkpt><trkpt lat="43.819518954645865" lon="12.390257754140624"><ele>674.0</ele><time>2026-05-02T13:29:07.999Z</time></trkpt><trkpt lat="43.819375048509244" lon="12.390004261640474"><ele>673.6666666666666</ele><time>2026-05-02T13:29:08.999Z</time></trkpt><trkpt lat="43.81923564359976" lon="12.389780996600837"><ele>673.3333333333334</ele><time>2026-05-02T13:29:09.999Z</time></trkpt><trkpt lat="43.819078750737155" lon="12.389598657719459"><ele>673.0</ele><time>2026-05-02T13:29:10.999Z</time></trkpt><trkpt lat="43.81889393334793" lon="12.389447846845266"><ele>678.0</ele><time>2026-05-02T13:29:11.999Z</time></trkpt><trkpt lat="43.81871366465846" lon="12.389306070763753"><ele>683.0</ele><time>2026-05-02T13:29:12.999Z</time></trkpt><trkpt lat="43.81857353131661" lon="12.389146642796119"><ele>688.0</ele><time>2026-05-02T13:29:13.999Z</time></trkpt><trkpt lat="43.81848665723305" lon="12.388959328255313"><ele>689.0</ele><time>2026-05-02T13:29:14.999Z</time></trkpt><trkpt lat="43.8184197067898" lon="12.388720491736793"><ele>690.0</ele><time>2026-05-02T13:29:15.999Z</time></trkpt><trkpt lat="43.818334124239044" lon="12.388480476047349"><ele>691.0</ele><time>2026-05-02T13:29:16.999Z</time></trkpt><trkpt lat="43.81820890658399" lon="12.388281723494233"><ele>691.0</ele><time>2026-05-02T13:29:17.999Z</time></trkpt><trkpt lat="43.81806076086556" lon="12.38812727322778"><ele>691.0</ele><time>2026-05-02T13:29:18.999Z</time></trkpt><trkpt lat="43.8178868580721" lon="12.388037858927278"><ele>691.0</ele><time>2026-05-02T13:29:19.999Z</time></trkpt><trkpt lat="43.817700734451336" lon="12.387957395291359"><ele>694.6666666666667</ele><time>2026-05-02T13:29:20.999Z</time></trkpt><trkpt lat="43.8174980166254" lon="12.387909238515558"><ele>698.3333333333334</ele><time>2026-05-02T13:29:21.999Z</time></trkpt><trkpt lat="43.81730951441226" lon="12.387865019231253"><ele>702.0</ele><time>2026-05-02T13:29:22.999Z</time></trkpt><trkpt lat="43.81716951633354" lon="12.38775455232059"><ele>702.0</ele><time>2026-05-02T13:29:23.999Z</time></trkpt><trkpt lat="43.817084861096674" lon="12.387616573730016"><ele>702.0</ele><time>2026-05-02T13:29:24.999Z</time></trkpt><trkpt lat="43.81699873388126" lon="12.387433806164161"><ele>702.0</ele><time>2026-05-02T13:29:25.999Z</time></trkpt><trkpt lat="43.816900838333446" lon="12.38720648302714"><ele>703.0</ele><time>2026-05-02T13:29:26.999Z</time></trkpt><trkpt lat="43.816829167756914" lon="12.386938890797087"><ele>704.0</ele><time>2026-05-02T13:29:27.999Z</time></trkpt><trkpt lat="43.81677641932319" lon="12.386644476222612"><ele>705.0</ele><time>2026-05-02T13:29:28.999Z</time></trkpt><trkpt lat="43.8167262250315" lon="12.386333352663788"><ele>705.0</ele><time>2026-05-02T13:29:29.999Z</time></trkpt><trkpt lat="43.81667449789327" lon="12.386033559974404"><ele>705.0</ele><time>2026-05-02T13:29:30.999Z</time></trkpt><trkpt lat="43.816614774168556" lon="12.385784785439625"><ele>705.0</ele><time>2026-05-02T13:29:31.999Z</time></trkpt><trkpt lat="43.81651766835092" lon="12.385595033663586"><ele>708.0</ele><time>2026-05-02T13:29:32.999Z</time></trkpt><trkpt lat="43.816361519212585" lon="12.385440989518006"><ele>711.0</ele><time>2026-05-02T13:29:33.999Z</time></trkpt><trkpt lat="43.8161693225043" lon="12.385308587227096"><ele>714.0</ele><time>2026-05-02T13:29:34.999Z</time></trkpt><trkpt lat="43.8159912651582" lon="12.385110353100655"><ele>711.0</ele><time>2026-05-02T13:29:35.999Z</time></trkpt><trkpt lat="43.81585345405589" lon="12.384870020531292"><ele>708.0</ele><time>2026-05-02T13:29:37Z</time></trkpt><trkpt lat="43.8157281456735" lon="12.384585620244657"><ele>708.0</ele><time>2026-05-02T13:29:38Z</time></trkpt><trkpt lat="43.815601785683945" lon="12.38428628957042"><ele>708.0</ele><time>2026-05-02T13:29:39Z</time></trkpt><trkpt lat="43.81546991923812" lon="12.384003010136485"><ele>712.0</ele><time>2026-05-02T13:29:40Z</time></trkpt><trkpt lat="43.8153858043621" lon="12.383715573457202"><ele>716.0</ele><time>2026-05-02T13:29:41Z</time></trkpt><trkpt lat="43.81531013939621" lon="12.383408561776347"><ele>716.0</ele><time>2026-05-02T13:29:42Z</time></trkpt><trkpt lat="43.81521206501156" lon="12.383090686631169"><ele>716.0</ele><time>2026-05-02T13:29:43Z</time></trkpt><trkpt lat="43.81512059416824" lon="12.382793671634223"><ele>712.0</ele><time>2026-05-02T13:29:44Z</time></trkpt><trkpt lat="43.81507100088771" lon="12.382509040418688"><ele>708.0</ele><time>2026-05-02T13:29:45Z</time></trkpt><trkpt lat="43.81501574584503" lon="12.382204910949405"><ele>704.0</ele><time>2026-05-02T13:29:46Z</time></trkpt><trkpt lat="43.81497307979484" lon="12.381864764024522"><ele>703.5</ele><time>2026-05-02T13:29:47Z</time></trkpt><trkpt lat="43.81492052105575" lon="12.38151920809943"><ele>703.0</ele><time>2026-05-02T13:29:48Z</time></trkpt><trkpt lat="43.81487923610453" lon="12.381166791353799"><ele>703.5</ele><time>2026-05-02T13:29:49Z</time></trkpt><trkpt lat="43.814803726683884" lon="12.38082246839407"><ele>704.0</ele><time>2026-05-02T13:29:50Z</time></trkpt><trkpt lat="43.81474122271491" lon="12.380475025052837"><ele>704.0</ele><time>2026-05-02T13:29:51Z</time></trkpt><trkpt lat="43.81467717142449" lon="12.380146742721202"><ele>704.0</ele><time>2026-05-02T13:29:52Z</time></trkpt><trkpt lat="43.8146148886829" lon="12.379817059997341"><ele>703.0</ele><time>2026-05-02T13:29:53Z</time></trkpt><trkpt lat="43.8145971658683" lon="12.379476229616435"><ele>702.0</ele><time>2026-05-02T13:29:54Z</time></trkpt><trkpt lat="43.814578883940875" lon="12.379129323051751"><ele>701.5</ele><time>2026-05-02T13:29:55Z</time></trkpt><trkpt lat="43.814591141230636" lon="12.378780532788625"><ele>701.0</ele><time>2026-05-02T13:29:56Z</time></trkpt><trkpt lat="43.81456519260025" lon="12.378425675099864"><ele>701.0</ele><time>2026-05-02T13:29:57Z</time></trkpt><trkpt lat="43.81457359652697" lon="12.378077000541204"><ele>701.0</ele><time>2026-05-02T13:29:58Z</time></trkpt><trkpt lat="43.81446012184575" lon="12.37773055228513"><ele>703.5</ele><time>2026-05-02T13:29:59Z</time></trkpt><trkpt lat="43.81440996828752" lon="12.37738436886042"><ele>706.0</ele><time>2026-05-02T13:30:00Z</time></trkpt><trkpt lat="43.8143544555618" lon="12.37704740214868"><ele>711.0</ele><time>2026-05-02T13:30:01Z</time></trkpt><trkpt lat="43.81427731517426" lon="12.376738975251891"><ele>716.0</ele><time>2026-05-02T13:30:02Z</time></trkpt><trkpt lat="43.814181354430644" lon="12.376432489264717"><ele>722.0</ele><time>2026-05-02T13:30:03Z</time></trkpt><trkpt lat="43.814079693885056" lon="12.376127010198791"><ele>728.0</ele><time>2026-05-02T13:30:04Z</time></trkpt><trkpt lat="43.8139787338817" lon="12.375822637194048"><ele>728.0</ele><time>2026-05-02T13:30:05Z</time></trkpt><trkpt lat="43.81387080797329" lon="12.375525045314808"><ele>728.0</ele><time>2026-05-02T13:30:06Z</time></trkpt><trkpt lat="43.813734736038775" lon="12.375243820055928"><ele>729.5</ele><time>2026-05-02T13:30:07Z</time></trkpt><trkpt lat="43.81358508576889" lon="12.374986294702303"><ele>731.0</ele><time>2026-05-02T13:30:08Z</time></trkpt><trkpt lat="43.81342616625248" lon="12.374750140265549"><ele>732.3333333333333</ele><time>2026-05-02T13:30:09Z</time></trkpt><trkpt lat="43.81330258323653" lon="12.374566683365023"><ele>733.6666666666666</ele><time>2026-05-02T13:30:10Z</time></trkpt><trkpt lat="43.813201039223614" lon="12.37440320455332"><ele>735.0</ele><time>2026-05-02T13:30:11Z</time></trkpt><trkpt lat="43.8131305875783" lon="12.374235318321615"><ele>735.0</ele><time>2026-05-02T13:30:12Z</time></trkpt><trkpt lat="43.81307746581585" lon="12.37407198231799"><ele>735.0</ele><time>2026-05-02T13:30:13Z</time></trkpt><trkpt lat="43.81305762322121" lon="12.373915803021058"><ele>735.0</ele><time>2026-05-02T13:30:14Z</time></trkpt><trkpt lat="43.81308753157615" lon="12.373763886532386"><ele>735.0</ele><time>2026-05-02T13:30:15Z</time></trkpt><trkpt lat="43.813141433634115" lon="12.37358294549302"><ele>736.0</ele><time>2026-05-02T13:30:16Z</time></trkpt><trkpt lat="43.813220443931215" lon="12.373368317487431"><ele>737.0</ele><time>2026-05-02T13:30:17Z</time></trkpt><trkpt lat="43.81328876389456" lon="12.373152537587103"><ele>738.0</ele><time>2026-05-02T13:30:18Z</time></trkpt><trkpt lat="43.813333562756036" lon="12.372974450212979"><ele>738.0</ele><time>2026-05-02T13:30:19Z</time></trkpt><trkpt lat="43.8133702671295" lon="12.372814971336403"><ele>738.0</ele><time>2026-05-02T13:30:20Z</time></trkpt><trkpt lat="43.813385454266516" lon="12.37266687556164"><ele>738.0</ele><time>2026-05-02T13:30:21Z</time></trkpt><trkpt lat="43.81338282079373" lon="12.372559775328083"><ele>738.0</ele><time>2026-05-02T13:30:22Z</time></trkpt><trkpt lat="43.8133657276461" lon="12.372472281393035"><ele>738.0</ele><time>2026-05-02T13:30:23Z</time></trkpt><trkpt lat="43.81331137265447" lon="12.37236849487881"><ele>738.0</ele><time>2026-05-02T13:30:24Z</time></trkpt><trkpt lat="43.8132334775004" lon="12.37221972412826"><ele>738.0</ele><time>2026-05-02T13:30:25Z</time></trkpt><trkpt lat="43.813174339074926" lon="12.372032329420652"><ele>738.0</ele><time>2026-05-02T13:30:26Z</time></trkpt><trkpt lat="43.81312146691096" lon="12.371809729812691"><ele>738.0</ele><time>2026-05-02T13:30:27Z</time></trkpt><trkpt lat="43.81305934098999" lon="12.371566774888471"><ele>738.6666666666666</ele><time>2026-05-02T13:30:28Z</time></trkpt><trkpt lat="43.81299396333628" lon="12.371310101677793"><ele>739.3333333333333</ele><time>2026-05-02T13:30:29Z</time></trkpt><trkpt lat="43.81292795940381" lon="12.371029214517412"><ele>740.0</ele><time>2026-05-02T13:30:30Z</time></trkpt><trkpt lat="43.812862782936634" lon="12.370750395282135"><ele>740.3333333333333</ele><time>2026-05-02T13:30:31Z</time></trkpt><trkpt lat="43.8127956811434" lon="12.370519310301994"><ele>740.6666666666666</ele><time>2026-05-02T13:30:32Z</time></trkpt><trkpt lat="43.81268791972555" lon="12.37033823102075"><ele>741.0</ele><time>2026-05-02T13:30:33Z</time></trkpt><trkpt lat="43.812534726153295" lon="12.370184041015161"><ele>737.0</ele><time>2026-05-02T13:30:34Z</time></trkpt><trkpt lat="43.81239412180776" lon="12.370048021390248"><ele>733.0</ele><time>2026-05-02T13:30:35Z</time></trkpt><trkpt lat="43.812307925724866" lon="12.369933348658217"><ele>729.0</ele><time>2026-05-02T13:30:36Z</time></trkpt><trkpt lat="43.81225280881408" lon="12.369818582176922"><ele>725.0</ele><time>2026-05-02T13:30:37Z</time></trkpt><trkpt lat="43.81225309341826" lon="12.369673616837142"><ele>723.0</ele><time>2026-05-02T13:30:38Z</time></trkpt><trkpt lat="43.812316802454234" lon="12.369512678900314"><ele>721.0</ele><time>2026-05-02T13:30:39Z</time></trkpt><trkpt lat="43.812433412672696" lon="12.369342101311744"><ele>719.0</ele><time>2026-05-02T13:30:40Z</time></trkpt><trkpt lat="43.812566753828435" lon="12.369142951041313"><ele>721.3333333333333</ele><time>2026-05-02T13:30:41Z</time></trkpt><trkpt lat="43.81268649554917" lon="12.368914387374781"><ele>723.6666666666666</ele><time>2026-05-02T13:30:42Z</time></trkpt><trkpt lat="43.81275125169536" lon="12.368701319335209"><ele>726.0</ele><time>2026-05-02T13:30:43Z</time></trkpt><trkpt lat="43.81276343035425" lon="12.368451559255456"><ele>726.0</ele><time>2026-05-02T13:30:44Z</time></trkpt><trkpt lat="43.81275587639965" lon="12.368156104104012"><ele>726.0</ele><time>2026-05-02T13:30:44.999Z</time></trkpt><trkpt lat="43.81277859750188" lon="12.367849456538835"><ele>726.0</ele><time>2026-05-02T13:30:45.999Z</time></trkpt><trkpt lat="43.81285997810139" lon="12.367544573813776"><ele>723.3333333333334</ele><time>2026-05-02T13:30:46.999Z</time></trkpt><trkpt lat="43.81294787757315" lon="12.367248017903815"><ele>720.6666666666667</ele><time>2026-05-02T13:30:47.999Z</time></trkpt><trkpt lat="43.813053351635645" lon="12.366991685021867"><ele>718.0</ele><time>2026-05-02T13:30:48.999Z</time></trkpt><trkpt lat="43.813169730030836" lon="12.366743233992096"><ele>716.75</ele><time>2026-05-02T13:30:49.999Z</time></trkpt><trkpt lat="43.8132765405082" lon="12.366574170400296"><ele>715.5</ele><time>2026-05-02T13:30:50.999Z</time></trkpt><trkpt lat="43.813342244466284" lon="12.366443712785362"><ele>714.25</ele><time>2026-05-02T13:30:51.999Z</time></trkpt><trkpt lat="43.813363814948914" lon="12.36630095838879"><ele>713.0</ele><time>2026-05-02T13:30:52.999Z</time></trkpt><trkpt lat="43.813338939117834" lon="12.366128017457443"><ele>713.0</ele><time>2026-05-02T13:30:53.999Z</time></trkpt><trkpt lat="43.81327480725768" lon="12.365945625456472"><ele>713.0</ele><time>2026-05-02T13:30:54.999Z</time></trkpt><trkpt lat="43.81316113954446" lon="12.365803437336494"><ele>713.0</ele><time>2026-05-02T13:30:55.999Z</time></trkpt><trkpt lat="43.81300477930747" lon="12.365705727490901"><ele>713.0</ele><time>2026-05-02T13:30:56.999Z</time></trkpt><trkpt lat="43.81282323246004" lon="12.365640451417526"><ele>713.0</ele><time>2026-05-02T13:30:57.999Z</time></trkpt><trkpt lat="43.81262822718461" lon="12.365565890614118"><ele>713.0</ele><time>2026-05-02T13:30:58.999Z</time></trkpt><trkpt lat="43.81246959649901" lon="12.365471878402895"><ele>711.0</ele><time>2026-05-02T13:30:59.999Z</time></trkpt><trkpt lat="43.81233416535197" lon="12.365364333758379"><ele>709.0</ele><time>2026-05-02T13:31:00.999Z</time></trkpt><trkpt lat="43.812192267801514" lon="12.365202197739174"><ele>707.0</ele><time>2026-05-02T13:31:01.999Z</time></trkpt><trkpt lat="43.81203649718367" lon="12.36499604784403"><ele>707.0</ele><time>2026-05-02T13:31:02.999Z</time></trkpt><trkpt lat="43.81188800086859" lon="12.364811432645553"><ele>707.0</ele><time>2026-05-02T13:31:03.999Z</time></trkpt><trkpt lat="43.811759458128414" lon="12.364656064875708"><ele>707.0</ele><time>2026-05-02T13:31:04.999Z</time></trkpt><trkpt lat="43.81164431506262" lon="12.364529577499088"><ele>705.6666666666666</ele><time>2026-05-02T13:31:05.999Z</time></trkpt><trkpt lat="43.81150944714576" lon="12.36444671392219"><ele>704.3333333333334</ele><time>2026-05-02T13:31:06.999Z</time></trkpt><trkpt lat="43.81134215315747" lon="12.364419012086195"><ele>703.0</ele><time>2026-05-02T13:31:07.999Z</time></trkpt><trkpt lat="43.811177019420384" lon="12.36441976539722"><ele>703.0</ele><time>2026-05-02T13:31:08.999Z</time></trkpt><trkpt lat="43.81100832636487" lon="12.364379821588793"><ele>703.0</ele><time>2026-05-02T13:31:09.999Z</time></trkpt><trkpt lat="43.81081757005032" lon="12.364350771370116"><ele>703.0</ele><time>2026-05-02T13:31:10.999Z</time></trkpt><trkpt lat="43.81062325542039" lon="12.364322762832906"><ele>698.6666666666667</ele><time>2026-05-02T13:31:11.999Z</time></trkpt><trkpt lat="43.81045599630277" lon="12.364317928112483"><ele>694.3333333333334</ele><time>2026-05-02T13:31:12.999Z</time></trkpt><trkpt lat="43.810306534577" lon="12.36434957586327"><ele>690.0</ele><time>2026-05-02T13:31:13.999Z</time></trkpt><trkpt lat="43.81015877317773" lon="12.36444359481863"><ele>691.0</ele><time>2026-05-02T13:31:14.999Z</time></trkpt><trkpt lat="43.810018569448665" lon="12.364590363750166"><ele>692.0</ele><time>2026-05-02T13:31:15.999Z</time></trkpt><trkpt lat="43.809878693527" lon="12.364739026846397"><ele>693.0</ele><time>2026-05-02T13:31:16.999Z</time></trkpt><trkpt lat="43.80974007135121" lon="12.364853291320975"><ele>690.3333333333334</ele><time>2026-05-02T13:31:17.999Z</time></trkpt><trkpt lat="43.80958518550312" lon="12.364878320323731"><ele>687.6666666666667</ele><time>2026-05-02T13:31:18.999Z</time></trkpt><trkpt lat="43.80942084169929" lon="12.36493657901277"><ele>685.0</ele><time>2026-05-02T13:31:19.999Z</time></trkpt><trkpt lat="43.80923334237609" lon="12.364950152559773"><ele>683.3333333333334</ele><time>2026-05-02T13:31:20.999Z</time></trkpt><trkpt lat="43.809031223429955" lon="12.364976956275692"><ele>681.6666666666666</ele><time>2026-05-02T13:31:21.999Z</time></trkpt><trkpt lat="43.80882558904874" lon="12.365001916165944"><ele>680.0</ele><time>2026-05-02T13:31:22.999Z</time></trkpt><trkpt lat="43.80861891304489" lon="12.365048839808502"><ele>679.6666666666666</ele><time>2026-05-02T13:31:23.999Z</time></trkpt><trkpt lat="43.80842132857618" lon="12.365132108787945"><ele>679.3333333333334</ele><time>2026-05-02T13:31:24.999Z</time></trkpt><trkpt lat="43.808239007586565" lon="12.365299329024968"><ele>679.0</ele><time>2026-05-02T13:31:25.999Z</time></trkpt><trkpt lat="43.808062369481036" lon="12.365500487637913"><ele>678.6666666666667</ele><time>2026-05-02T13:31:26.999Z</time></trkpt><trkpt lat="43.80789988792915" lon="12.365671522471414"><ele>678.3333333333334</ele><time>2026-05-02T13:31:27.999Z</time></trkpt><trkpt lat="43.80775243606158" lon="12.365776799477683"><ele>678.0</ele><time>2026-05-02T13:31:28.999Z</time></trkpt><trkpt lat="43.80763134048644" lon="12.365820338037187"><ele>678.0</ele><time>2026-05-02T13:31:29.999Z</time></trkpt><trkpt lat="43.80748855927111" lon="12.365824617859513"><ele>678.0</ele><time>2026-05-02T13:31:30.999Z</time></trkpt><trkpt lat="43.807320614079096" lon="12.365789588769143"><ele>678.0</ele><time>2026-05-02T13:31:31.999Z</time></trkpt><trkpt lat="43.8071251625164" lon="12.365751371197295"><ele>678.0</ele><time>2026-05-02T13:31:32.999Z</time></trkpt><trkpt lat="43.80693212507958" lon="12.36569027118804"><ele>678.0</ele><time>2026-05-02T13:31:33.999Z</time></trkpt><trkpt lat="43.806748729858775" lon="12.365624543475892"><ele>678.0</ele><time>2026-05-02T13:31:34.999Z</time></trkpt><trkpt lat="43.8066175738834" lon="12.36546309597074"><ele>678.6666666666666</ele><time>2026-05-02T13:31:35.999Z</time></trkpt><trkpt lat="43.806473626135315" lon="12.365283740542399"><ele>679.3333333333333</ele><time>2026-05-02T13:31:36.999Z</time></trkpt><trkpt lat="43.80632017546693" lon="12.365097291963345"><ele>680.0</ele><time>2026-05-02T13:31:37.999Z</time></trkpt><trkpt lat="43.806163229818225" lon="12.364896927205894"><ele>680.0</ele><time>2026-05-02T13:31:38.999Z</time></trkpt><trkpt lat="43.8060153867185" lon="12.364735596002905"><ele>680.0</ele><time>2026-05-02T13:31:39.999Z</time></trkpt><trkpt lat="43.80583636564189" lon="12.364598419863013"><ele>680.0</ele><time>2026-05-02T13:31:40.999Z</time></trkpt><trkpt lat="43.805625653242146" lon="12.364498074928338"><ele>680.3333333333333</ele><time>2026-05-02T13:31:42Z</time></trkpt><trkpt lat="43.80541855987897" lon="12.364414570561193"><ele>680.6666666666666</ele><time>2026-05-02T13:31:43Z</time></trkpt><trkpt lat="43.8052575956153" lon="12.364367545123109"><ele>681.0</ele><time>2026-05-02T13:31:44Z</time></trkpt><trkpt lat="43.80509354583074" lon="12.36438421078045"><ele>681.0</ele><time>2026-05-02T13:31:45Z</time></trkpt><trkpt lat="43.80490811843483" lon="12.364432390032455"><ele>681.0</ele><time>2026-05-02T13:31:46Z</time></trkpt><trkpt lat="43.804703096757166" lon="12.364441772125513"><ele>681.0</ele><time>2026-05-02T13:31:47Z</time></trkpt><trkpt lat="43.80449562552917" lon="12.364468866987364"><ele>681.3333333333334</ele><time>2026-05-02T13:31:48Z</time></trkpt><trkpt lat="43.804303107371375" lon="12.364490629910922"><ele>681.6666666666667</ele><time>2026-05-02T13:31:49Z</time></trkpt><trkpt lat="43.80412400646721" lon="12.364510661861662"><ele>682.0</ele><time>2026-05-02T13:31:50Z</time></trkpt><trkpt lat="43.80396400351871" lon="12.364527846311606"><ele>682.0</ele><time>2026-05-02T13:31:51Z</time></trkpt><trkpt lat="43.803809675272035" lon="12.364561821285655"><ele>682.0</ele><time>2026-05-02T13:31:52Z</time></trkpt><trkpt lat="43.80366704005909" lon="12.364579160600195"><ele>682.0</ele><time>2026-05-02T13:31:53Z</time></trkpt><trkpt lat="43.80353612753639" lon="12.364587230046421"><ele>682.0</ele><time>2026-05-02T13:31:54Z</time></trkpt><trkpt lat="43.80342918562348" lon="12.364610813413492"><ele>681.25</ele><time>2026-05-02T13:31:55Z</time></trkpt><trkpt lat="43.80332406327883" lon="12.3646178117147"><ele>680.5</ele><time>2026-05-02T13:31:56Z</time></trkpt><trkpt lat="43.80324362768353" lon="12.364761735951243"><ele>679.75</ele><time>2026-05-02T13:31:57Z</time></trkpt><trkpt lat="43.80316970675528" lon="12.364885016117993"><ele>679.0</ele><time>2026-05-02T13:31:58Z</time></trkpt><trkpt lat="43.803108863503496" lon="12.36501841858892"><ele>677.8333333333334</ele><time>2026-05-02T13:31:59Z</time></trkpt><trkpt lat="43.80304831608544" lon="12.36513661969347"><ele>676.6666666666667</ele><time>2026-05-02T13:32:00Z</time></trkpt><trkpt lat="43.80299497619664" lon="12.365222460775449"><ele>675.5</ele><time>2026-05-02T13:32:01Z</time></trkpt><trkpt lat="43.80294335941401" lon="12.365279924568929"><ele>674.3333333333334</ele><time>2026-05-02T13:32:02Z</time></trkpt><trkpt lat="43.80287725962891" lon="12.365301545055106"><ele>673.1666666666666</ele><time>2026-05-02T13:32:04Z</time></trkpt><trkpt lat="43.80280526514675" lon="12.365208201893925"><ele>672.0</ele><time>2026-05-02T13:32:05Z</time></trkpt><trkpt lat="43.802743254382285" lon="12.36512574779171"><ele>672.0</ele><time>2026-05-02T13:32:06Z</time></trkpt><trkpt lat="43.80267332918454" lon="12.365029798504658"><ele>672.0</ele><time>2026-05-02T13:32:07Z</time></trkpt><trkpt lat="43.802580355541934" lon="12.36491092786024"><ele>672.0</ele><time>2026-05-02T13:32:08Z</time></trkpt><trkpt lat="43.80247255499034" lon="12.364784867017816"><ele>672.0</ele><time>2026-05-02T13:32:09Z</time></trkpt><trkpt lat="43.80235558264347" lon="12.364647906186088"><ele>674.6666666666666</ele><time>2026-05-02T13:32:10Z</time></trkpt><trkpt lat="43.8022371768932" lon="12.364502295441666"><ele>677.3333333333333</ele><time>2026-05-02T13:32:11Z</time></trkpt><trkpt lat="43.80213979124791" lon="12.36431671486707"><ele>680.0</ele><time>2026-05-02T13:32:12Z</time></trkpt><trkpt lat="43.802039670730295" lon="12.364126987481798"><ele>680.0</ele><time>2026-05-02T13:32:13Z</time></trkpt><trkpt lat="43.80195120469726" lon="12.363914476227546"><ele>680.0</ele><time>2026-05-02T13:32:14Z</time></trkpt><trkpt lat="43.80185485429302" lon="12.363710789155451"><ele>680.0</ele><time>2026-05-02T13:32:15Z</time></trkpt><trkpt lat="43.80177297839722" lon="12.363527854829071"><ele>681.5</ele><time>2026-05-02T13:32:16Z</time></trkpt><trkpt lat="43.801687155237104" lon="12.363388742266823"><ele>683.0</ele><time>2026-05-02T13:32:17Z</time></trkpt><trkpt lat="43.80158031056263" lon="12.36327209550097"><ele>684.5</ele><time>2026-05-02T13:32:18Z</time></trkpt><trkpt lat="43.80145044344625" lon="12.363174468550277"><ele>686.0</ele><time>2026-05-02T13:32:19Z</time></trkpt><trkpt lat="43.80131032871966" lon="12.363101059160948"><ele>687.6666666666666</ele><time>2026-05-02T13:32:20Z</time></trkpt><trkpt lat="43.80116093213351" lon="12.363030383005654"><ele>689.3333333333334</ele><time>2026-05-02T13:32:21Z</time></trkpt><trkpt lat="43.80101591635051" lon="12.362950921490611"><ele>691.0</ele><time>2026-05-02T13:32:22Z</time></trkpt><trkpt lat="43.80085815938927" lon="12.362864022326955"><ele>691.0</ele><time>2026-05-02T13:32:23Z</time></trkpt><trkpt lat="43.80070421268658" lon="12.3627725148281"><ele>691.0</ele><time>2026-05-02T13:32:24Z</time></trkpt><trkpt lat="43.80054646157066" lon="12.362677485602825"><ele>691.0</ele><time>2026-05-02T13:32:25Z</time></trkpt><trkpt lat="43.80038871310357" lon="12.362588911247466"><ele>691.0</ele><time>2026-05-02T13:32:26Z</time></trkpt><trkpt lat="43.80022645165491" lon="12.362492614056993"><ele>691.0</ele><time>2026-05-02T13:32:27Z</time></trkpt><trkpt lat="43.80006617371846" lon="12.362395352135424"><ele>691.0</ele><time>2026-05-02T13:32:28Z</time></trkpt><trkpt lat="43.79990438582633" lon="12.3623058917355"><ele>691.75</ele><time>2026-05-02T13:32:29Z</time></trkpt><trkpt lat="43.79975791573589" lon="12.362217253184028"><ele>692.5</ele><time>2026-05-02T13:32:30Z</time></trkpt><trkpt lat="43.79963192790326" lon="12.362150311613078"><ele>693.25</ele><time>2026-05-02T13:32:31Z</time></trkpt><trkpt lat="43.79951691708998" lon="12.362111944407111"><ele>694.0</ele><time>2026-05-02T13:32:32Z</time></trkpt><trkpt lat="43.79941054121957" lon="12.362150669347121"><ele>696.25</ele><time>2026-05-02T13:32:33Z</time></trkpt><trkpt lat="43.7993050880832" lon="12.362245803100107"><ele>698.5</ele><time>2026-05-02T13:32:34Z</time></trkpt><trkpt lat="43.799212149388325" lon="12.362405224604826"><ele>700.75</ele><time>2026-05-02T13:32:35Z</time></trkpt><trkpt lat="43.79912366428477" lon="12.362608294336518"><ele>703.0</ele><time>2026-05-02T13:32:36Z</time></trkpt><trkpt lat="43.799002627154515" lon="12.362787978987306"><ele>703.0</ele><time>2026-05-02T13:32:37Z</time></trkpt><trkpt lat="43.798870382194494" lon="12.362934915725281"><ele>703.0</ele><time>2026-05-02T13:32:38Z</time></trkpt><trkpt lat="43.79872011545934" lon="12.363059648451948"><ele>703.0</ele><time>2026-05-02T13:32:39Z</time></trkpt><trkpt lat="43.79857850577551" lon="12.363153301787369"><ele>706.0</ele><time>2026-05-02T13:32:40Z</time></trkpt><trkpt lat="43.79845363843482" lon="12.363184554278224"><ele>709.0</ele><time>2026-05-02T13:32:41Z</time></trkpt><trkpt lat="43.79830238607652" lon="12.363190920665796"><ele>712.0</ele><time>2026-05-02T13:32:41.999Z</time></trkpt><trkpt lat="43.798114232689116" lon="12.363239590935082"><ele>712.0</ele><time>2026-05-02T13:32:42.999Z</time></trkpt><trkpt lat="43.79790563857881" lon="12.363332044835516"><ele>712.0</ele><time>2026-05-02T13:32:43.999Z</time></trkpt><trkpt lat="43.79768989658736" lon="12.363424318376863"><ele>712.0</ele><time>2026-05-02T13:32:44.999Z</time></trkpt><trkpt lat="43.797505327761385" lon="12.36354295459223"><ele>712.5</ele><time>2026-05-02T13:32:45.999Z</time></trkpt><trkpt lat="43.79737518702972" lon="12.363628625012067"><ele>713.0</ele><time>2026-05-02T13:32:46.999Z</time></trkpt><trkpt lat="43.7972649557383" lon="12.36373949011664"><ele>713.5</ele><time>2026-05-02T13:32:47.999Z</time></trkpt><trkpt lat="43.797187967603456" lon="12.363916292129106"><ele>714.0</ele><time>2026-05-02T13:32:48.999Z</time></trkpt><trkpt lat="43.79712501815673" lon="12.364126250990658"><ele>714.0</ele><time>2026-05-02T13:32:49.999Z</time></trkpt><trkpt lat="43.797106931103805" lon="12.364362871459257"><ele>714.0</ele><time>2026-05-02T13:32:50.999Z</time></trkpt><trkpt lat="43.7971363651833" lon="12.364599866363847"><ele>714.0</ele><time>2026-05-02T13:32:51.999Z</time></trkpt><trkpt lat="43.79719005909816" lon="12.364817295791989"><ele>714.25</ele><time>2026-05-02T13:32:52.999Z</time></trkpt><trkpt lat="43.797162198996034" lon="12.36499095074168"><ele>714.5</ele><time>2026-05-02T13:32:53.999Z</time></trkpt><trkpt lat="43.797118535507664" lon="12.365159731384493"><ele>714.75</ele><time>2026-05-02T13:32:54.999Z</time></trkpt><trkpt lat="43.79705464262143" lon="12.365385384158737"><ele>715.0</ele><time>2026-05-02T13:32:55.999Z</time></trkpt><trkpt lat="43.79699739725862" lon="12.365637158587626"><ele>714.0</ele><time>2026-05-02T13:32:56.999Z</time></trkpt><trkpt lat="43.79690311813739" lon="12.365883445126208"><ele>713.0</ele><time>2026-05-02T13:32:57.999Z</time></trkpt><trkpt lat="43.79684321126904" lon="12.366118907118514"><ele>712.0</ele><time>2026-05-02T13:32:58.999Z</time></trkpt><trkpt lat="43.7967668915849" lon="12.366290934633366"><ele>714.0</ele><time>2026-05-02T13:32:59.999Z</time></trkpt><trkpt lat="43.796682868517074" lon="12.36640000673493"><ele>716.0</ele><time>2026-05-02T13:33:00.999Z</time></trkpt><trkpt lat="43.79658546243947" lon="12.36642751637275"><ele>718.0</ele><time>2026-05-02T13:33:01.999Z</time></trkpt><trkpt lat="43.796486461614926" lon="12.366367966604514"><ele>720.0</ele><time>2026-05-02T13:33:02.999Z</time></trkpt><trkpt lat="43.79639569707013" lon="12.366251548650428"><ele>722.0</ele><time>2026-05-02T13:33:03.999Z</time></trkpt><trkpt lat="43.79630169041416" lon="12.366081757058387"><ele>723.6666666666666</ele><time>2026-05-02T13:33:04.999Z</time></trkpt><trkpt lat="43.7961716252627" lon="12.365904235242962"><ele>725.3333333333334</ele><time>2026-05-02T13:33:05.999Z</time></trkpt><trkpt lat="43.79602235206159" lon="12.365714600443509"><ele>727.0</ele><time>2026-05-02T13:33:06.999Z</time></trkpt><trkpt lat="43.795859949883116" lon="12.365527052105234"><ele>730.0</ele><time>2026-05-02T13:33:07.999Z</time></trkpt><trkpt lat="43.79567629248951" lon="12.365387022847628"><ele>733.0</ele><time>2026-05-02T13:33:08.999Z</time></trkpt><trkpt lat="43.79546709754792" lon="12.365288320862886"><ele>736.0</ele><time>2026-05-02T13:33:09.999Z</time></trkpt><trkpt lat="43.7952468729926" lon="12.365198082992883"><ele>733.5</ele><time>2026-05-02T13:33:10.999Z</time></trkpt><trkpt lat="43.795020687533786" lon="12.365076747692282"><ele>731.0</ele><time>2026-05-02T13:33:11.999Z</time></trkpt><trkpt lat="43.794798294146275" lon="12.364960418891975"><ele>731.0</ele><time>2026-05-02T13:33:12.999Z</time></trkpt><trkpt lat="43.79457413889216" lon="12.364860664091449"><ele>731.0</ele><time>2026-05-02T13:33:13.999Z</time></trkpt><trkpt lat="43.79436813096357" lon="12.364822726630601"><ele>731.0</ele><time>2026-05-02T13:33:14.999Z</time></trkpt><trkpt lat="43.79415214151303" lon="12.36482269965568"><ele>730.3333333333333</ele><time>2026-05-02T13:33:15.999Z</time></trkpt><trkpt lat="43.793946352540985" lon="12.36485188531769"><ele>729.6666666666666</ele><time>2026-05-02T13:33:16.999Z</time></trkpt><trkpt lat="43.79373521554326" lon="12.364938723873742"><ele>729.0</ele><time>2026-05-02T13:33:17.999Z</time></trkpt><trkpt lat="43.79351043340345" lon="12.365070203999135"><ele>731.6666666666666</ele><time>2026-05-02T13:33:18.999Z</time></trkpt><trkpt lat="43.79329172872106" lon="12.365142553422855"><ele>734.3333333333333</ele><time>2026-05-02T13:33:19.999Z</time></trkpt><trkpt lat="43.793130021671644" lon="12.36523083960387"><ele>737.0</ele><time>2026-05-02T13:33:20.999Z</time></trkpt><trkpt lat="43.79298992840039" lon="12.365299811967025"><ele>737.0</ele><time>2026-05-02T13:33:21.999Z</time></trkpt><trkpt lat="43.79284991350728" lon="12.365440988873221"><ele>737.0</ele><time>2026-05-02T13:33:22.999Z</time></trkpt><trkpt lat="43.792710643474656" lon="12.365665620013138"><ele>737.0</ele><time>2026-05-02T13:33:23.999Z</time></trkpt><trkpt lat="43.79256775907336" lon="12.365928916512653"><ele>737.3333333333333</ele><time>2026-05-02T13:33:24.999Z</time></trkpt><trkpt lat="43.79242948257956" lon="12.366163437771249"><ele>737.6666666666666</ele><time>2026-05-02T13:33:25.999Z</time></trkpt><trkpt lat="43.79232026996303" lon="12.366346014437319"><ele>738.0</ele><time>2026-05-02T13:33:26.999Z</time></trkpt><trkpt lat="43.79223249389313" lon="12.366463866426505"><ele>738.0</ele><time>2026-05-02T13:33:27.999Z</time></trkpt><trkpt lat="43.79215704367978" lon="12.366520658928593"><ele>738.0</ele><time>2026-05-02T13:33:28.999Z</time></trkpt><trkpt lat="43.79206866170302" lon="12.366519600666857"><ele>738.0</ele><time>2026-05-02T13:33:29.999Z</time></trkpt><trkpt lat="43.79195690410667" lon="12.366450427911953"><ele>738.0</ele><time>2026-05-02T13:33:30.999Z</time></trkpt><trkpt lat="43.79186931951539" lon="12.366331836129927"><ele>738.0</ele><time>2026-05-02T13:33:31.999Z</time></trkpt><trkpt lat="43.791866536190206" lon="12.366179415230382"><ele>740.0</ele><time>2026-05-02T13:33:32.999Z</time></trkpt><trkpt lat="43.79188255652882" lon="12.366026081705813"><ele>742.0</ele><time>2026-05-02T13:33:33.999Z</time></trkpt><trkpt lat="43.791917932402434" lon="12.365833159973509"><ele>744.0</ele><time>2026-05-02T13:33:34.999Z</time></trkpt><trkpt lat="43.79194141474665" lon="12.365597414145542"><ele>746.0</ele><time>2026-05-02T13:33:35.999Z</time></trkpt><trkpt lat="43.79196875645051" lon="12.365329695822235"><ele>747.6666666666666</ele><time>2026-05-02T13:33:36.999Z</time></trkpt><trkpt lat="43.791995514166665" lon="12.365042745757465"><ele>749.3333333333334</ele><time>2026-05-02T13:33:37.999Z</time></trkpt><trkpt lat="43.792030124146045" lon="12.36473500123628"><ele>751.0</ele><time>2026-05-02T13:33:38.999Z</time></trkpt><trkpt lat="43.792054367307614" lon="12.364447989336723"><ele>751.0</ele><time>2026-05-02T13:33:39.999Z</time></trkpt><trkpt lat="43.79207068474873" lon="12.36419934885756"><ele>751.0</ele><time>2026-05-02T13:33:40.999Z</time></trkpt><trkpt lat="43.79206683284586" lon="12.363972168579359"><ele>751.0</ele><time>2026-05-02T13:33:41.999Z</time></trkpt><trkpt lat="43.792028010897866" lon="12.363756676038065"><ele>750.6666666666667</ele><time>2026-05-02T13:33:42.999Z</time></trkpt><trkpt lat="43.79193960806016" lon="12.363537935311754"><ele>750.3333333333334</ele><time>2026-05-02T13:33:43.999Z</time></trkpt><trkpt lat="43.7918260515872" lon="12.363336533318424"><ele>750.0</ele><time>2026-05-02T13:33:44.999Z</time></trkpt><trkpt lat="43.79167452046007" lon="12.363137353232736"><ele>748.6666666666666</ele><time>2026-05-02T13:33:45.999Z</time></trkpt><trkpt lat="43.791517155399006" lon="12.36293057355425"><ele>747.3333333333333</ele><time>2026-05-02T13:33:46.999Z</time></trkpt><trkpt lat="43.79136106740187" lon="12.362694826714105"><ele>746.0</ele><time>2026-05-02T13:33:48Z</time></trkpt><trkpt lat="43.791205867517775" lon="12.362451874808302"><ele>749.0</ele><time>2026-05-02T13:33:49Z</time></trkpt><trkpt lat="43.79103560023842" lon="12.362192707353174"><ele>752.0</ele><time>2026-05-02T13:33:50Z</time></trkpt><trkpt lat="43.790896211698026" lon="12.361982232432917"><ele>746.3333333333333</ele><time>2026-05-02T13:33:51Z</time></trkpt><trkpt lat="43.790781341695116" lon="12.36182088962321"><ele>740.6666666666666</ele><time>2026-05-02T13:33:52Z</time></trkpt><trkpt lat="43.7906561627067" lon="12.361673656234125"><ele>735.0</ele><time>2026-05-02T13:33:53Z</time></trkpt><trkpt lat="43.79049965473542" lon="12.36159010823328"><ele>735.0</ele><time>2026-05-02T13:33:54Z</time></trkpt><trkpt lat="43.79032714757005" lon="12.361548238228373"><ele>735.0</ele><time>2026-05-02T13:33:55Z</time></trkpt><trkpt lat="43.790132584598915" lon="12.361539470702775"><ele>735.0</ele><time>2026-05-02T13:33:56Z</time></trkpt><trkpt lat="43.78993099256529" lon="12.361543681271348"><ele>731.0</ele><time>2026-05-02T13:33:57Z</time></trkpt><trkpt lat="43.78973500670524" lon="12.361544545172691"><ele>727.0</ele><time>2026-05-02T13:33:58Z</time></trkpt><trkpt lat="43.789573154569204" lon="12.361541776495564"><ele>723.0</ele><time>2026-05-02T13:33:59Z</time></trkpt><trkpt lat="43.78944717458901" lon="12.361528155702796"><ele>723.0</ele><time>2026-05-02T13:34:00Z</time></trkpt><trkpt lat="43.78934546094636" lon="12.361502170029368"><ele>723.0</ele><time>2026-05-02T13:34:01Z</time></trkpt><trkpt lat="43.789285892431934" lon="12.36141171269302"><ele>723.0</ele><time>2026-05-02T13:34:02Z</time></trkpt><trkpt lat="43.78928400900952" lon="12.361269741997491"><ele>723.0</ele><time>2026-05-02T13:34:03Z</time></trkpt><trkpt lat="43.78928198987281" lon="12.361131754642413"><ele>723.0</ele><time>2026-05-02T13:34:04Z</time></trkpt><trkpt lat="43.78935545816033" lon="12.360967752995933"><ele>723.3333333333334</ele><time>2026-05-02T13:34:05Z</time></trkpt><trkpt lat="43.78944370440173" lon="12.360788790430004"><ele>723.6666666666667</ele><time>2026-05-02T13:34:06Z</time></trkpt><trkpt lat="43.78951894583578" lon="12.36057551227112"><ele>724.0</ele><time>2026-05-02T13:34:07Z</time></trkpt><trkpt lat="43.78960975808476" lon="12.360341673510863"><ele>724.0</ele><time>2026-05-02T13:34:08Z</time></trkpt><trkpt lat="43.789706495764776" lon="12.360100071485757"><ele>724.0</ele><time>2026-05-02T13:34:09Z</time></trkpt><trkpt lat="43.78978611569035" lon="12.359850977666285"><ele>724.0</ele><time>2026-05-02T13:34:10Z</time></trkpt><trkpt lat="43.78982623645074" lon="12.359590687027902"><ele>724.3333333333334</ele><time>2026-05-02T13:34:11Z</time></trkpt><trkpt lat="43.78981214091634" lon="12.359353297931397"><ele>724.6666666666666</ele><time>2026-05-02T13:34:12Z</time></trkpt><trkpt lat="43.7897559864912" lon="12.359139466115874"><ele>725.0</ele><time>2026-05-02T13:34:13Z</time></trkpt><trkpt lat="43.78965613322561" lon="12.35892529769224"><ele>727.6666666666666</ele><time>2026-05-02T13:34:14Z</time></trkpt><trkpt lat="43.78950978707021" lon="12.358728238003627"><ele>730.3333333333334</ele><time>2026-05-02T13:34:15Z</time></trkpt><trkpt lat="43.7893608546788" lon="12.358511127472946"><ele>733.0</ele><time>2026-05-02T13:34:16Z</time></trkpt><trkpt lat="43.78919635271111" lon="12.358297610736326"><ele>730.6666666666667</ele><time>2026-05-02T13:34:17Z</time></trkpt><trkpt lat="43.78902790149586" lon="12.358128149743212"><ele>728.3333333333334</ele><time>2026-05-02T13:34:18Z</time></trkpt><trkpt lat="43.788841872715224" lon="12.357986416164065"><ele>726.0</ele><time>2026-05-02T13:34:19Z</time></trkpt><trkpt lat="43.78862009175049" lon="12.357916606709457"><ele>722.0</ele><time>2026-05-02T13:34:20Z</time></trkpt><trkpt lat="43.78840045778424" lon="12.357870562094343"><ele>718.0</ele><time>2026-05-02T13:34:21Z</time></trkpt><trkpt lat="43.78821551839865" lon="12.357799119610274"><ele>714.0</ele><time>2026-05-02T13:34:22Z</time></trkpt><trkpt lat="43.788087358911675" lon="12.357693580766565"><ele>714.0</ele><time>2026-05-02T13:34:23Z</time></trkpt><trkpt lat="43.7879874816414" lon="12.35758047335202"><ele>714.0</ele><time>2026-05-02T13:34:24Z</time></trkpt><trkpt lat="43.787884995119455" lon="12.35743637343979"><ele>714.0</ele><time>2026-05-02T13:34:25Z</time></trkpt><trkpt lat="43.78781061026443" lon="12.357220794408939"><ele>714.0</ele><time>2026-05-02T13:34:26Z</time></trkpt><trkpt lat="43.787733859389505" lon="12.356979032111187"><ele>711.0</ele><time>2026-05-02T13:34:27Z</time></trkpt><trkpt lat="43.78764075118455" lon="12.356718973652931"><ele>708.0</ele><time>2026-05-02T13:34:28Z</time></trkpt><trkpt lat="43.78756812243522" lon="12.356454869088155"><ele>705.0</ele><time>2026-05-02T13:34:29Z</time></trkpt><trkpt lat="43.78751141398444" lon="12.356217753913015"><ele>705.0</ele><time>2026-05-02T13:34:30Z</time></trkpt><trkpt lat="43.78747553776508" lon="12.356001650427492"><ele>705.0</ele><time>2026-05-02T13:34:31Z</time></trkpt><trkpt lat="43.78745067982209" lon="12.355790911068656"><ele>705.0</ele><time>2026-05-02T13:34:32Z</time></trkpt><trkpt lat="43.787443049535696" lon="12.355579132411815"><ele>705.25</ele><time>2026-05-02T13:34:33Z</time></trkpt><trkpt lat="43.78744658859945" lon="12.355384756897736"><ele>705.5</ele><time>2026-05-02T13:34:34Z</time></trkpt><trkpt lat="43.787451960242635" lon="12.355199071362632"><ele>705.75</ele><time>2026-05-02T13:34:35Z</time></trkpt><trkpt lat="43.78744696315531" lon="12.355018685148522"><ele>706.0</ele><time>2026-05-02T13:34:36Z</time></trkpt><trkpt lat="43.787439016989154" lon="12.354854438790692"><ele>706.75</ele><time>2026-05-02T13:34:37Z</time></trkpt><trkpt lat="43.78743532328355" lon="12.354685853180518"><ele>707.5</ele><time>2026-05-02T13:34:38Z</time></trkpt><trkpt lat="43.78742861863622" lon="12.35452346138446"><ele>708.25</ele><time>2026-05-02T13:34:39Z</time></trkpt><trkpt lat="43.787415231482214" lon="12.354369285745445"><ele>709.0</ele><time>2026-05-02T13:34:40Z</time></trkpt><trkpt lat="43.78738276600546" lon="12.354222117230911"><ele>709.0</ele><time>2026-05-02T13:34:41Z</time></trkpt><trkpt lat="43.78733309049419" lon="12.35408185149326"><ele>709.0</ele><time>2026-05-02T13:34:41.999Z</time></trkpt><trkpt lat="43.787278495841626" lon="12.353938056281388"><ele>709.0</ele><time>2026-05-02T13:34:42.999Z</time></trkpt><trkpt lat="43.78722221904939" lon="12.353780797366975"><ele>709.0</ele><time>2026-05-02T13:34:43.999Z</time></trkpt><trkpt lat="43.78716857291188" lon="12.35362825994074"><ele>710.4000000000001</ele><time>2026-05-02T13:34:44.999Z</time></trkpt><trkpt lat="43.787129924751916" lon="12.353504523750145"><ele>711.8</ele><time>2026-05-02T13:34:45.999Z</time></trkpt><trkpt lat="43.787090525588425" lon="12.353386496590565"><ele>713.2</ele><time>2026-05-02T13:34:46.999Z</time></trkpt><trkpt lat="43.78704942704758" lon="12.353276433224877"><ele>714.5999999999999</ele><time>2026-05-02T13:34:47.999Z</time></trkpt><trkpt lat="43.78700882298314" lon="12.35316239213262"><ele>716.0</ele><time>2026-05-02T13:34:48.999Z</time></trkpt><trkpt lat="43.78696891205609" lon="12.353044359686786"><ele>716.4</ele><time>2026-05-02T13:34:49.999Z</time></trkpt><trkpt lat="43.786930261546146" lon="12.352922386346116"><ele>716.8</ele><time>2026-05-02T13:34:50.999Z</time></trkpt><trkpt lat="43.78688798737488" lon="12.352798097820669"><ele>717.1999999999999</ele><time>2026-05-02T13:34:51.999Z</time></trkpt><trkpt lat="43.78683590262969" lon="12.352661431967269"><ele>717.5999999999999</ele><time>2026-05-02T13:34:52.999Z</time></trkpt><trkpt lat="43.786784322085886" lon="12.352532150030104"><ele>718.0</ele><time>2026-05-02T13:34:53.999Z</time></trkpt><trkpt lat="43.78674040974221" lon="12.35240505646562"><ele>714.0</ele><time>2026-05-02T13:34:54.999Z</time></trkpt><trkpt lat="43.7866973135302" lon="12.352275456027014"><ele>710.0</ele><time>2026-05-02T13:34:55.999Z</time></trkpt><trkpt lat="43.786653760254225" lon="12.35215146307716"><ele>706.0</ele><time>2026-05-02T13:34:56.999Z</time></trkpt><trkpt lat="43.78660637417226" lon="12.352029028579514"><ele>702.0</ele><time>2026-05-02T13:34:57.999Z</time></trkpt><trkpt lat="43.78656389186325" lon="12.351912114005344"><ele>698.0</ele><time>2026-05-02T13:34:58.999Z</time></trkpt><trkpt lat="43.786530925597226" lon="12.351812473676048"><ele>698.0</ele><time>2026-05-02T13:34:59.999Z</time></trkpt><trkpt lat="43.786503222963375" lon="12.3517318127182"><ele>698.0</ele><time>2026-05-02T13:35:00.999Z</time></trkpt><trkpt lat="43.786474561274986" lon="12.35158118926823"><ele>698.0</ele><time>2026-05-02T13:35:02.999Z</time></trkpt><trkpt lat="43.7864456006754" lon="12.35144396166754"><ele>698.0</ele><time>2026-05-02T13:35:04.999Z</time></trkpt><trkpt lat="43.78642549319089" lon="12.351358662598352"><ele>698.0</ele><time>2026-05-02T13:35:05.999Z</time></trkpt><trkpt lat="43.78639855524816" lon="12.351261795130707"><ele>698.0</ele><time>2026-05-02T13:35:06.999Z</time></trkpt><trkpt lat="43.78635816002191" lon="12.351136202125904"><ele>698.0</ele><time>2026-05-02T13:35:08.999Z</time></trkpt><trkpt lat="43.786308704842966" lon="12.351212795370413"><ele>698.0</ele><time>2026-05-02T13:35:11.999Z</time></trkpt><trkpt lat="43.78634202972466" lon="12.351324641235083"><ele>698.0</ele><time>2026-05-02T13:35:13.999Z</time></trkpt><trkpt lat="43.78640735415345" lon="12.351332122281315"><ele>698.0</ele><time>2026-05-02T13:35:14.999Z</time></trkpt><trkpt lat="43.78649324492373" lon="12.351210050309833"><ele>698.0</ele><time>2026-05-02T13:35:16.999Z</time></trkpt><trkpt lat="43.78652616693472" lon="12.351121363187165"><ele>698.0</ele><time>2026-05-02T13:35:17.999Z</time></trkpt><trkpt lat="43.786567348876304" lon="12.35103650033461"><ele>698.0</ele><time>2026-05-02T13:35:18.999Z</time></trkpt><trkpt lat="43.78663357059133" lon="12.350915016362796"><ele>698.0</ele><time>2026-05-02T13:35:20.999Z</time></trkpt><trkpt lat="43.78671438152611" lon="12.350789774753977"><ele>698.0</ele><time>2026-05-02T13:35:22.999Z</time></trkpt><trkpt lat="43.78675990124641" lon="12.350702655076597"><ele>698.0</ele><time>2026-05-02T13:35:23.999Z</time></trkpt><trkpt lat="43.786810403361216" lon="12.350600908075073"><ele>698.0</ele><time>2026-05-02T13:35:24.999Z</time></trkpt><trkpt lat="43.78686254284123" lon="12.350491370878165"><ele>702.2</ele><time>2026-05-02T13:35:25.999Z</time></trkpt><trkpt lat="43.78689745495798" lon="12.35037184132633"><ele>706.4</ele><time>2026-05-02T13:35:26.999Z</time></trkpt><trkpt lat="43.78691244322232" lon="12.350227439752064"><ele>710.6</ele><time>2026-05-02T13:35:27.999Z</time></trkpt><trkpt lat="43.78692612458711" lon="12.35007245070156"><ele>714.8000000000001</ele><time>2026-05-02T13:35:28.999Z</time></trkpt><trkpt lat="43.786934611510944" lon="12.3499214466625"><ele>719.0</ele><time>2026-05-02T13:35:29.999Z</time></trkpt><trkpt lat="43.78693050673161" lon="12.349786149026167"><ele>718.8000000000001</ele><time>2026-05-02T13:35:30.999Z</time></trkpt><trkpt lat="43.78691625964965" lon="12.349673871615474"><ele>718.6</ele><time>2026-05-02T13:35:31.999Z</time></trkpt><trkpt lat="43.78689219004689" lon="12.349532683308524"><ele>718.4</ele><time>2026-05-02T13:35:33.999Z</time></trkpt><trkpt lat="43.786882680412454" lon="12.349440567164256"><ele>718.2</ele><time>2026-05-02T13:35:36.999Z</time></trkpt><trkpt lat="43.786814452194506" lon="12.349313942409244"><ele>718.0</ele><time>2026-05-02T13:36:00Z</time></trkpt><trkpt lat="43.78677454062652" lon="12.349207925240423"><ele>716.75</ele><time>2026-05-02T13:36:01Z</time></trkpt><trkpt lat="43.786732266948846" lon="12.349090561113233"><ele>715.5</ele><time>2026-05-02T13:36:02Z</time></trkpt><trkpt lat="43.78667101888534" lon="12.348954445163642"><ele>714.25</ele><time>2026-05-02T13:36:03Z</time></trkpt><trkpt lat="43.786604348018415" lon="12.348807977464253"><ele>713.0</ele><time>2026-05-02T13:36:04Z</time></trkpt><trkpt lat="43.78653545335384" lon="12.34863740340349"><ele>713.0</ele><time>2026-05-02T13:36:05Z</time></trkpt><trkpt lat="43.786471376078765" lon="12.348453504898204"><ele>713.0</ele><time>2026-05-02T13:36:06Z</time></trkpt><trkpt lat="43.786425591894016" lon="12.348269218296757"><ele>713.0</ele><time>2026-05-02T13:36:07Z</time></trkpt><trkpt lat="43.7864416774047" lon="12.34808893517133"><ele>713.0</ele><time>2026-05-02T13:36:08Z</time></trkpt><trkpt lat="43.78646434155567" lon="12.347890902378401"><ele>715.0</ele><time>2026-05-02T13:36:09Z</time></trkpt><trkpt lat="43.78648398915775" lon="12.347665531867191"><ele>717.0</ele><time>2026-05-02T13:36:10Z</time></trkpt><trkpt lat="43.78649524258318" lon="12.347474368499537"><ele>719.0</ele><time>2026-05-02T13:36:11Z</time></trkpt><trkpt lat="43.78647837983483" lon="12.34733374622624"><ele>721.0</ele><time>2026-05-02T13:36:12Z</time></trkpt><trkpt lat="43.786416189870664" lon="12.34722361775776"><ele>720.0</ele><time>2026-05-02T13:36:13Z</time></trkpt><trkpt lat="43.786290163867505" lon="12.347134717409071"><ele>719.0</ele><time>2026-05-02T13:36:14Z</time></trkpt><trkpt lat="43.78612815326753" lon="12.347078244711454"><ele>718.0</ele><time>2026-05-02T13:36:15Z</time></trkpt><trkpt lat="43.785959718604836" lon="12.346994487429274"><ele>718.0</ele><time>2026-05-02T13:36:16Z</time></trkpt><trkpt lat="43.78584343989122" lon="12.346923318812186"><ele>718.0</ele><time>2026-05-02T13:36:17Z</time></trkpt><trkpt lat="43.78579648467894" lon="12.346779909463551"><ele>718.0</ele><time>2026-05-02T13:36:18Z</time></trkpt><trkpt lat="43.78576272009391" lon="12.346630459538948"><ele>718.0</ele><time>2026-05-02T13:36:19Z</time></trkpt><trkpt lat="43.78571546950883" lon="12.346434243751379"><ele>720.3333333333334</ele><time>2026-05-02T13:36:20Z</time></trkpt><trkpt lat="43.78567749661536" lon="12.346173281333133"><ele>722.6666666666666</ele><time>2026-05-02T13:36:21Z</time></trkpt><trkpt lat="43.785630053523015" lon="12.345911663324372"><ele>725.0</ele><time>2026-05-02T13:36:22Z</time></trkpt><trkpt lat="43.785583423416035" lon="12.345652692377085"><ele>727.75</ele><time>2026-05-02T13:36:23Z</time></trkpt><trkpt lat="43.78554426239879" lon="12.345447029873027"><ele>730.5</ele><time>2026-05-02T13:36:24Z</time></trkpt><trkpt lat="43.785504029347" lon="12.345274058952574"><ele>733.25</ele><time>2026-05-02T13:36:25Z</time></trkpt><trkpt lat="43.78542740513108" lon="12.345145341179798"><ele>736.0</ele><time>2026-05-02T13:36:26Z</time></trkpt><trkpt lat="43.785291910529175" lon="12.345034665709633"><ele>737.3333333333334</ele><time>2026-05-02T13:36:27Z</time></trkpt><trkpt lat="43.78513100370431" lon="12.34491636956578"><ele>738.6666666666666</ele><time>2026-05-02T13:36:28Z</time></trkpt><trkpt lat="43.784978153764754" lon="12.344782178633496"><ele>740.0</ele><time>2026-05-02T13:36:29Z</time></trkpt><trkpt lat="43.78487015603863" lon="12.344638488823632"><ele>740.0</ele><time>2026-05-02T13:36:30Z</time></trkpt><trkpt lat="43.78475796938829" lon="12.344510799721713"><ele>740.0</ele><time>2026-05-02T13:36:31Z</time></trkpt><trkpt lat="43.78465773232548" lon="12.344323050991928"><ele>740.0</ele><time>2026-05-02T13:36:32Z</time></trkpt><trkpt lat="43.784548928578985" lon="12.344133367319882"><ele>740.0</ele><time>2026-05-02T13:36:33Z</time></trkpt><trkpt lat="43.78443755229354" lon="12.343932756533379"><ele>740.0</ele><time>2026-05-02T13:36:34Z</time></trkpt><trkpt lat="43.78432059398805" lon="12.343719281260707"><ele>740.0</ele><time>2026-05-02T13:36:35Z</time></trkpt><trkpt lat="43.78420458171906" lon="12.343498197738203"><ele>740.6666666666666</ele><time>2026-05-02T13:36:36Z</time></trkpt><trkpt lat="43.78408434801466" lon="12.343266447211349"><ele>741.3333333333334</ele><time>2026-05-02T13:36:37Z</time></trkpt><trkpt lat="43.783966813385476" lon="12.343046407684874"><ele>742.0</ele><time>2026-05-02T13:36:38Z</time></trkpt><trkpt lat="43.783860700316865" lon="12.342838905655535"><ele>742.0</ele><time>2026-05-02T13:36:39Z</time></trkpt><trkpt lat="43.7837587717143" lon="12.34264457243426"><ele>742.0</ele><time>2026-05-02T13:36:40Z</time></trkpt><trkpt lat="43.783656633357744" lon="12.342450621908263"><ele>742.0</ele><time>2026-05-02T13:36:41Z</time></trkpt><trkpt lat="43.783557219941535" lon="12.342257928869907"><ele>740.3333333333334</ele><time>2026-05-02T13:36:41.999Z</time></trkpt><trkpt lat="43.78345981658296" lon="12.342071137385457"><ele>738.6666666666666</ele><time>2026-05-02T13:36:42.999Z</time></trkpt><trkpt lat="43.7833662304525" lon="12.341886279573936"><ele>737.0</ele><time>2026-05-02T13:36:43.999Z</time></trkpt><trkpt lat="43.78328630597171" lon="12.341696364556567"><ele>737.0</ele><time>2026-05-02T13:36:44.999Z</time></trkpt><trkpt lat="43.78323140838961" lon="12.341512226896175"><ele>737.0</ele><time>2026-05-02T13:36:45.999Z</time></trkpt><trkpt lat="43.78319756625048" lon="12.34131375446976"><ele>737.0</ele><time>2026-05-02T13:36:46.999Z</time></trkpt><trkpt lat="43.78318054799679" lon="12.341101943295133"><ele>737.0</ele><time>2026-05-02T13:36:47.999Z</time></trkpt><trkpt lat="43.783185775999684" lon="12.340874735834202"><ele>738.3333333333333</ele><time>2026-05-02T13:36:48.999Z</time></trkpt><trkpt lat="43.7831867134591" lon="12.340639059519761"><ele>739.6666666666666</ele><time>2026-05-02T13:36:49.999Z</time></trkpt><trkpt lat="43.78318174996986" lon="12.340402351393589"><ele>741.0</ele><time>2026-05-02T13:36:50.999Z</time></trkpt><trkpt lat="43.783174310125055" lon="12.340163398057111"><ele>743.0</ele><time>2026-05-02T13:36:51.999Z</time></trkpt><trkpt lat="43.78316966690891" lon="12.339937436435763"><ele>745.0</ele><time>2026-05-02T13:36:52.999Z</time></trkpt><trkpt lat="43.783154248049925" lon="12.339743648193013"><ele>747.0</ele><time>2026-05-02T13:36:53.999Z</time></trkpt><trkpt lat="43.78312153186501" lon="12.339587143540786"><ele>749.0</ele><time>2026-05-02T13:36:54.999Z</time></trkpt><trkpt lat="43.78307444793491" lon="12.339449543410199"><ele>750.2</ele><time>2026-05-02T13:36:55.999Z</time></trkpt><trkpt lat="43.78301446970988" lon="12.339337122835099"><ele>751.4000000000001</ele><time>2026-05-02T13:36:56.999Z</time></trkpt><trkpt lat="43.78293957140144" lon="12.339232411325192"><ele>752.6</ele><time>2026-05-02T13:36:57.999Z</time></trkpt><trkpt lat="43.78285811987926" lon="12.339122025317758"><ele>753.8</ele><time>2026-05-02T13:36:58.999Z</time></trkpt><trkpt lat="43.78277218660242" lon="12.338998576105446"><ele>755.0</ele><time>2026-05-02T13:36:59.999Z</time></trkpt><trkpt lat="43.782685848380886" lon="12.338874082074303"><ele>753.8333333333333</ele><time>2026-05-02T13:37:00.999Z</time></trkpt><trkpt lat="43.78261372719065" lon="12.338781272838295"><ele>752.6666666666666</ele><time>2026-05-02T13:37:01.999Z</time></trkpt><trkpt lat="43.78256428869825" lon="12.33871621097987"><ele>751.5</ele><time>2026-05-02T13:37:02.999Z</time></trkpt><trkpt lat="43.782509274630215" lon="12.338635870395212"><ele>750.3333333333334</ele><time>2026-05-02T13:37:03.999Z</time></trkpt><trkpt lat="43.78245447411181" lon="12.338553344658685"><ele>749.1666666666667</ele><time>2026-05-02T13:37:04.999Z</time></trkpt><trkpt lat="43.78238706830187" lon="12.338450506215574"><ele>748.0</ele><time>2026-05-02T13:37:05.999Z</time></trkpt><trkpt lat="43.782314735855536" lon="12.338331421824744"><ele>748.0</ele><time>2026-05-02T13:37:06.999Z</time></trkpt><trkpt lat="43.78223511868594" lon="12.338199511502046"><ele>748.0</ele><time>2026-05-02T13:37:07.999Z</time></trkpt><trkpt lat="43.78216487430183" lon="12.338040015364815"><ele>748.0</ele><time>2026-05-02T13:37:08.999Z</time></trkpt><trkpt lat="43.78210829416267" lon="12.337882900055623"><ele>748.0</ele><time>2026-05-02T13:37:09.999Z</time></trkpt><trkpt lat="43.782057405591736" lon="12.337736751561218"><ele>749.0</ele><time>2026-05-02T13:37:10.999Z</time></trkpt><trkpt lat="43.78200925891451" lon="12.337602060105114"><ele>750.0</ele><time>2026-05-02T13:37:11.999Z</time></trkpt><trkpt lat="43.78196209232193" lon="12.337473399985672"><ele>751.0</ele><time>2026-05-02T13:37:12.999Z</time></trkpt><trkpt lat="43.78192261239812" lon="12.33735194236385"><ele>752.0</ele><time>2026-05-02T13:37:13.999Z</time></trkpt><trkpt lat="43.78189042179004" lon="12.337230270334285"><ele>753.0</ele><time>2026-05-02T13:37:14.999Z</time></trkpt><trkpt lat="43.78186285487448" lon="12.337118341158382"><ele>752.5999999999999</ele><time>2026-05-02T13:37:15.999Z</time></trkpt><trkpt lat="43.781829242010545" lon="12.337007769663728"><ele>752.1999999999999</ele><time>2026-05-02T13:37:16.999Z</time></trkpt><trkpt lat="43.78179594277159" lon="12.336898604058554"><ele>751.8</ele><time>2026-05-02T13:37:17.999Z</time></trkpt><trkpt lat="43.78175757966205" lon="12.33678315795786"><ele>751.4</ele><time>2026-05-02T13:37:18.999Z</time></trkpt><trkpt lat="43.781715567201516" lon="12.336660095259766"><ele>751.0</ele><time>2026-05-02T13:37:19.999Z</time></trkpt><trkpt lat="43.78166800018199" lon="12.336551218895856"><ele>751.0</ele><time>2026-05-02T13:37:20.999Z</time></trkpt><trkpt lat="43.781622982926855" lon="12.336458948633696"><ele>751.0</ele><time>2026-05-02T13:37:21.999Z</time></trkpt><trkpt lat="43.78157361305074" lon="12.33635806866077"><ele>751.0</ele><time>2026-05-02T13:37:22.999Z</time></trkpt><trkpt lat="43.781519214090395" lon="12.336246536000386"><ele>751.0</ele><time>2026-05-02T13:37:23.999Z</time></trkpt><trkpt lat="43.78145710608309" lon="12.336129408380893"><ele>751.0</ele><time>2026-05-02T13:37:24.999Z</time></trkpt><trkpt lat="43.781394978811306" lon="12.33600976535609"><ele>751.5999999999999</ele><time>2026-05-02T13:37:25.999Z</time></trkpt><trkpt lat="43.78133908629406" lon="12.33590018046172"><ele>752.2</ele><time>2026-05-02T13:37:26.999Z</time></trkpt><trkpt lat="43.78128375675516" lon="12.335784413296304"><ele>752.8</ele><time>2026-05-02T13:37:27.999Z</time></trkpt><trkpt lat="43.78123217991512" lon="12.335677858395258"><ele>753.4000000000001</ele><time>2026-05-02T13:37:28.999Z</time></trkpt><trkpt lat="43.78117764544029" lon="12.335569880022051"><ele>754.0</ele><time>2026-05-02T13:37:29.999Z</time></trkpt><trkpt lat="43.78112627306539" lon="12.335450632911684"><ele>754.6</ele><time>2026-05-02T13:37:30.999Z</time></trkpt><trkpt lat="43.78107318454755" lon="12.33533662802446"><ele>755.2</ele><time>2026-05-02T13:37:31.999Z</time></trkpt><trkpt lat="43.78101698289969" lon="12.335226559447378"><ele>755.8000000000001</ele><time>2026-05-02T13:37:32.999Z</time></trkpt><trkpt lat="43.78095977038894" lon="12.335107639026493"><ele>756.4000000000001</ele><time>2026-05-02T13:37:33.999Z</time></trkpt><trkpt lat="43.7809026872036" lon="12.334994298287109"><ele>757.0</ele><time>2026-05-02T13:37:34.999Z</time></trkpt><trkpt lat="43.780843727976354" lon="12.33487701849897"><ele>757.4000000000001</ele><time>2026-05-02T13:37:35.999Z</time></trkpt><trkpt lat="43.78078512335675" lon="12.334759356057537"><ele>757.8000000000001</ele><time>2026-05-02T13:37:36.999Z</time></trkpt><trkpt lat="43.78072613890419" lon="12.334642493233806"><ele>758.2</ele><time>2026-05-02T13:37:37.999Z</time></trkpt><trkpt lat="43.780668172399416" lon="12.334516901903958"><ele>758.6</ele><time>2026-05-02T13:37:38.999Z</time></trkpt><trkpt lat="43.78060706587433" lon="12.334386208103666"><ele>759.0</ele><time>2026-05-02T13:37:39.999Z</time></trkpt><trkpt lat="43.7805436743369" lon="12.334253569125762"><ele>759.0</ele><time>2026-05-02T13:37:40.999Z</time></trkpt><trkpt lat="43.780476304749605" lon="12.334118768428823"><ele>759.0</ele><time>2026-05-02T13:37:41.999Z</time></trkpt><trkpt lat="43.78041120994362" lon="12.333984580947092"><ele>759.0</ele><time>2026-05-02T13:37:42.999Z</time></trkpt><trkpt lat="43.78034412752064" lon="12.333850322728523"><ele>759.0</ele><time>2026-05-02T13:37:43.999Z</time></trkpt><trkpt lat="43.780277408851674" lon="12.333715084519298"><ele>758.25</ele><time>2026-05-02T13:37:44.999Z</time></trkpt><trkpt lat="43.780213123569844" lon="12.333585436365269"><ele>757.5</ele><time>2026-05-02T13:37:45.999Z</time></trkpt><trkpt lat="43.78014977612198" lon="12.333442478627022"><ele>756.75</ele><time>2026-05-02T13:37:46.999Z</time></trkpt><trkpt lat="43.78010570429262" lon="12.33329670020564"><ele>756.0</ele><time>2026-05-02T13:37:47.999Z</time></trkpt><trkpt lat="43.78007477132716" lon="12.333142520156262"><ele>757.0</ele><time>2026-05-02T13:37:48.999Z</time></trkpt><trkpt lat="43.780065648363795" lon="12.332979994510533"><ele>758.0</ele><time>2026-05-02T13:37:49.999Z</time></trkpt><trkpt lat="43.780064700527106" lon="12.332819900965001"><ele>759.0</ele><time>2026-05-02T13:37:50.999Z</time></trkpt><trkpt lat="43.78009277943479" lon="12.332655823197083"><ele>760.0</ele><time>2026-05-02T13:37:51.999Z</time></trkpt><trkpt lat="43.78012710751512" lon="12.332498518359827"><ele>760.0</ele><time>2026-05-02T13:37:52.999Z</time></trkpt><trkpt lat="43.78016666843745" lon="12.332342926322406"><ele>760.0</ele><time>2026-05-02T13:37:53.999Z</time></trkpt><trkpt lat="43.78020279570199" lon="12.332177337530158"><ele>760.0</ele><time>2026-05-02T13:37:54.999Z</time></trkpt><trkpt lat="43.780238214272174" lon="12.332003779573991"><ele>760.0</ele><time>2026-05-02T13:37:55.999Z</time></trkpt><trkpt lat="43.780279708538515" lon="12.331832537170532"><ele>763.0</ele><time>2026-05-02T13:37:56.999Z</time></trkpt><trkpt lat="43.78032367557623" lon="12.331651642879423"><ele>766.0</ele><time>2026-05-02T13:37:57.999Z</time></trkpt><trkpt lat="43.7803644068674" lon="12.33146541287538"><ele>769.0</ele><time>2026-05-02T13:37:59Z</time></trkpt><trkpt lat="43.780403940116564" lon="12.33126493945652"><ele>772.0</ele><time>2026-05-02T13:38:00Z</time></trkpt><trkpt lat="43.78044476768062" lon="12.331064967533727"><ele>772.3333333333333</ele><time>2026-05-02T13:38:01Z</time></trkpt><trkpt lat="43.78049790385195" lon="12.330850499885985"><ele>772.6666666666667</ele><time>2026-05-02T13:38:02Z</time></trkpt><trkpt lat="43.78055690077699" lon="12.33062671525023"><ele>773.0</ele><time>2026-05-02T13:38:03Z</time></trkpt><trkpt lat="43.780611073037406" lon="12.330395192532665"><ele>775.0</ele><time>2026-05-02T13:38:04Z</time></trkpt><trkpt lat="43.780675008402376" lon="12.330185954516569"><ele>777.0</ele><time>2026-05-02T13:38:05Z</time></trkpt><trkpt lat="43.780704767167364" lon="12.329997636173601"><ele>779.0</ele><time>2026-05-02T13:38:06Z</time></trkpt><trkpt lat="43.780712715052374" lon="12.329839615517127"><ele>781.0</ele><time>2026-05-02T13:38:07Z</time></trkpt><trkpt lat="43.78069228380808" lon="12.329699407122929"><ele>783.5</ele><time>2026-05-02T13:38:08Z</time></trkpt><trkpt lat="43.78063774767952" lon="12.329577143813486"><ele>786.0</ele><time>2026-05-02T13:38:09Z</time></trkpt><trkpt lat="43.78055481428042" lon="12.329488386589423"><ele>788.5</ele><time>2026-05-02T13:38:10Z</time></trkpt><trkpt lat="43.78043642980998" lon="12.329447305915654"><ele>791.0</ele><time>2026-05-02T13:38:11Z</time></trkpt><trkpt lat="43.780292594821894" lon="12.329421792238866"><ele>786.3333333333334</ele><time>2026-05-02T13:38:12Z</time></trkpt><trkpt lat="43.78014779808403" lon="12.329344861892217"><ele>781.6666666666667</ele><time>2026-05-02T13:38:13Z</time></trkpt><trkpt lat="43.780006890054054" lon="12.329224893830357"><ele>777.0</ele><time>2026-05-02T13:38:14Z</time></trkpt><trkpt lat="43.77985898471936" lon="12.329100699170034"><ele>777.0</ele><time>2026-05-02T13:38:15Z</time></trkpt><trkpt lat="43.77973002502628" lon="12.32897380204471"><ele>777.0</ele><time>2026-05-02T13:38:16Z</time></trkpt><trkpt lat="43.779643978026236" lon="12.328838318030614"><ele>777.0</ele><time>2026-05-02T13:38:17Z</time></trkpt><trkpt lat="43.77959366141723" lon="12.328705973691317"><ele>777.0</ele><time>2026-05-02T13:38:18Z</time></trkpt><trkpt lat="43.779579733319835" lon="12.328551033887171"><ele>781.0</ele><time>2026-05-02T13:38:19Z</time></trkpt><trkpt lat="43.77958462043272" lon="12.328360968989495"><ele>785.0</ele><time>2026-05-02T13:38:20Z</time></trkpt><trkpt lat="43.77959603672169" lon="12.328149033931252"><ele>789.0</ele><time>2026-05-02T13:38:21Z</time></trkpt><trkpt lat="43.779606600224895" lon="12.327921271545861"><ele>793.6666666666667</ele><time>2026-05-02T13:38:22Z</time></trkpt><trkpt lat="43.779594975678584" lon="12.327703178807699"><ele>798.3333333333334</ele><time>2026-05-02T13:38:23Z</time></trkpt><trkpt lat="43.77954083896713" lon="12.327508181474053"><ele>803.0</ele><time>2026-05-02T13:38:24Z</time></trkpt><trkpt lat="43.779444000235586" lon="12.327336465574982"><ele>800.6666666666667</ele><time>2026-05-02T13:38:25Z</time></trkpt><trkpt lat="43.77932204564335" lon="12.32717258474702"><ele>798.3333333333333</ele><time>2026-05-02T13:38:26Z</time></trkpt><trkpt lat="43.77922455122102" lon="12.32698060728404"><ele>796.0</ele><time>2026-05-02T13:38:27Z</time></trkpt><trkpt lat="43.77916311876165" lon="12.326766057163892"><ele>796.0</ele><time>2026-05-02T13:38:28Z</time></trkpt><trkpt lat="43.7791342965213" lon="12.326594277246267"><ele>796.0</ele><time>2026-05-02T13:38:29Z</time></trkpt><trkpt lat="43.77913660456509" lon="12.326452952230268"><ele>796.0</ele><time>2026-05-02T13:38:30Z</time></trkpt><trkpt lat="43.77918908032342" lon="12.326346372808086"><ele>796.0</ele><time>2026-05-02T13:38:31Z</time></trkpt><trkpt lat="43.77927609961774" lon="12.326243807159095"><ele>796.0</ele><time>2026-05-02T13:38:32Z</time></trkpt><trkpt lat="43.779382717120754" lon="12.326117904647877"><ele>799.75</ele><time>2026-05-02T13:38:33Z</time></trkpt><trkpt lat="43.77949471749946" lon="12.32597608601712"><ele>803.5</ele><time>2026-05-02T13:38:34Z</time></trkpt><trkpt lat="43.77959876611322" lon="12.325830118760669"><ele>807.25</ele><time>2026-05-02T13:38:35Z</time></trkpt><trkpt lat="43.77969932553207" lon="12.32568431157197"><ele>811.0</ele><time>2026-05-02T13:38:36Z</time></trkpt><trkpt lat="43.77980466800224" lon="12.325532017738846"><ele>812.0</ele><time>2026-05-02T13:38:37Z</time></trkpt><trkpt lat="43.77991996138614" lon="12.32537886880744"><ele>813.0</ele><time>2026-05-02T13:38:38Z</time></trkpt><trkpt lat="43.78003537642528" lon="12.325223550199508"><ele>814.0</ele><time>2026-05-02T13:38:39Z</time></trkpt><trkpt lat="43.780137737043894" lon="12.32507836534701"><ele>816.0</ele><time>2026-05-02T13:38:40Z</time></trkpt><trkpt lat="43.78023698863969" lon="12.32493506073431"><ele>818.0</ele><time>2026-05-02T13:38:41Z</time></trkpt><trkpt lat="43.7803355492647" lon="12.324805224854472"><ele>820.0</ele><time>2026-05-02T13:38:42Z</time></trkpt><trkpt lat="43.78043417689132" lon="12.324663811710547"><ele>822.0</ele><time>2026-05-02T13:38:42.999Z</time></trkpt><trkpt lat="43.78050916381444" lon="12.32450541651537"><ele>822.0</ele><time>2026-05-02T13:38:43.999Z</time></trkpt><trkpt lat="43.780554426149095" lon="12.324319745519034"><ele>822.0</ele><time>2026-05-02T13:38:44.999Z</time></trkpt><trkpt lat="43.78056252951395" lon="12.3240991923007"><ele>822.0</ele><time>2026-05-02T13:38:45.999Z</time></trkpt><trkpt lat="43.780557035298074" lon="12.323858399284854"><ele>823.3333333333333</ele><time>2026-05-02T13:38:46.999Z</time></trkpt><trkpt lat="43.78054768521739" lon="12.323606277755717"><ele>824.6666666666666</ele><time>2026-05-02T13:38:47.999Z</time></trkpt><trkpt lat="43.78052938456296" lon="12.323355610258144"><ele>826.0</ele><time>2026-05-02T13:38:48.999Z</time></trkpt><trkpt lat="43.780492376250535" lon="12.323102631652475"><ele>827.0</ele><time>2026-05-02T13:38:49.999Z</time></trkpt><trkpt lat="43.780458040050384" lon="12.322873637755324"><ele>828.0</ele><time>2026-05-02T13:38:50.999Z</time></trkpt><trkpt lat="43.780431126240764" lon="12.32271135825658"><ele>829.0</ele><time>2026-05-02T13:38:51.999Z</time></trkpt><trkpt lat="43.7804105028086" lon="12.322574957311433"><ele>830.0</ele><time>2026-05-02T13:38:52.999Z</time></trkpt><trkpt lat="43.78038678323931" lon="12.322458295711181"><ele>830.0000000000001</ele><time>2026-05-02T13:38:53.999Z</time></trkpt><trkpt lat="43.78036747182657" lon="12.322365027301341"><ele>830.0</ele><time>2026-05-02T13:38:54.999Z</time></trkpt><trkpt lat="43.78035465166424" lon="12.322259010619119"><ele>830.0</ele><time>2026-05-02T13:38:56.999Z</time></trkpt><trkpt lat="43.78034314376787" lon="12.322155130750495"><ele>830.0</ele><time>2026-05-02T13:39:00.999Z</time></trkpt><trkpt lat="43.7803210237528" lon="12.322025418463202"><ele>830.0000000000001</ele><time>2026-05-02T13:39:02.999Z</time></trkpt><trkpt lat="43.7802965882021" lon="12.321933629401768"><ele>830.0</ele><time>2026-05-02T13:39:03.999Z</time></trkpt><trkpt lat="43.78027765157999" lon="12.321825588508052"><ele>830.8333333333334</ele><time>2026-05-02T13:39:04.999Z</time></trkpt><trkpt lat="43.78025871147719" lon="12.321729087819843"><ele>831.6666666666667</ele><time>2026-05-02T13:39:05.999Z</time></trkpt><trkpt lat="43.7802353166258" lon="12.321604104822109"><ele>832.5</ele><time>2026-05-02T13:39:07.999Z</time></trkpt><trkpt lat="43.78018412551452" lon="12.321500474811966"><ele>833.3333333333333</ele><time>2026-05-02T13:39:11.999Z</time></trkpt><trkpt lat="43.780209540686414" lon="12.321387433055275"><ele>834.1666666666666</ele><time>2026-05-02T13:39:12.999Z</time></trkpt><trkpt lat="43.78018018729729" lon="12.321269423736286"><ele>835.0</ele><time>2026-05-02T13:39:13.999Z</time></trkpt><trkpt lat="43.78016018446501" lon="12.321138179970054"><ele>835.0</ele><time>2026-05-02T13:39:14.999Z</time></trkpt><trkpt lat="43.780126668717855" lon="12.320990038909745"><ele>835.0</ele><time>2026-05-02T13:39:15.999Z</time></trkpt><trkpt lat="43.780089920755174" lon="12.320830611273685"><ele>835.0</ele><time>2026-05-02T13:39:16.999Z</time></trkpt><trkpt lat="43.780046697630596" lon="12.320672118179088"><ele>835.0</ele><time>2026-05-02T13:39:17.999Z</time></trkpt><trkpt lat="43.77999634082719" lon="12.320503246284618"><ele>836.0</ele><time>2026-05-02T13:39:18.999Z</time></trkpt><trkpt lat="43.77994854927828" lon="12.3203234938294"><ele>837.0</ele><time>2026-05-02T13:39:19.999Z</time></trkpt><trkpt lat="43.77990361351767" lon="12.32013282710738"><ele>838.0</ele><time>2026-05-02T13:39:20.999Z</time></trkpt><trkpt lat="43.7798762855122" lon="12.31993553841307"><ele>839.0</ele><time>2026-05-02T13:39:21.999Z</time></trkpt><trkpt lat="43.77986690758842" lon="12.319729739441089"><ele>839.6666666666667</ele><time>2026-05-02T13:39:22.999Z</time></trkpt><trkpt lat="43.77986571881011" lon="12.319519793058479"><ele>840.3333333333333</ele><time>2026-05-02T13:39:23.999Z</time></trkpt><trkpt lat="43.77986998783402" lon="12.319304051096676"><ele>841.0</ele><time>2026-05-02T13:39:24.999Z</time></trkpt><trkpt lat="43.77987373567537" lon="12.319083348683424"><ele>842.6666666666666</ele><time>2026-05-02T13:39:25.999Z</time></trkpt><trkpt lat="43.77988695503091" lon="12.318856605841715"><ele>844.3333333333333</ele><time>2026-05-02T13:39:26.999Z</time></trkpt><trkpt lat="43.779904811925064" lon="12.318629029465535"><ele>846.0</ele><time>2026-05-02T13:39:27.999Z</time></trkpt><trkpt lat="43.779920041001986" lon="12.318399051243924"><ele>846.0</ele><time>2026-05-02T13:39:28.999Z</time></trkpt><trkpt lat="43.77993338303297" lon="12.31816175545051"><ele>846.0</ele><time>2026-05-02T13:39:29.999Z</time></trkpt><trkpt lat="43.77994587754506" lon="12.317918187396835"><ele>846.0</ele><time>2026-05-02T13:39:30.999Z</time></trkpt><trkpt lat="43.77994659684451" lon="12.317695765621844"><ele>848.0</ele><time>2026-05-02T13:39:31.999Z</time></trkpt><trkpt lat="43.77991984377948" lon="12.31749488226092"><ele>850.0</ele><time>2026-05-02T13:39:32.999Z</time></trkpt><trkpt lat="43.7798613490697" lon="12.31730236557858"><ele>852.0</ele><time>2026-05-02T13:39:33.999Z</time></trkpt><trkpt lat="43.77977905205922" lon="12.317099737365494"><ele>854.0</ele><time>2026-05-02T13:39:34.999Z</time></trkpt><trkpt lat="43.779679509983566" lon="12.31692388096095"><ele>856.0</ele><time>2026-05-02T13:39:35.999Z</time></trkpt><trkpt lat="43.779590261263316" lon="12.316779302953837"><ele>858.0</ele><time>2026-05-02T13:39:36.999Z</time></trkpt><trkpt lat="43.77950995823355" lon="12.316640389066748"><ele>860.0</ele><time>2026-05-02T13:39:37.999Z</time></trkpt><trkpt lat="43.77944324470715" lon="12.316506049590963"><ele>861.5</ele><time>2026-05-02T13:39:38.999Z</time></trkpt><trkpt lat="43.77938771596953" lon="12.316355140485276"><ele>863.0</ele><time>2026-05-02T13:39:39.999Z</time></trkpt><trkpt lat="43.77935660972978" lon="12.316177027155593"><ele>864.5</ele><time>2026-05-02T13:39:40.999Z</time></trkpt><trkpt lat="43.77935207908897" lon="12.315981661565022"><ele>866.0</ele><time>2026-05-02T13:39:41.999Z</time></trkpt><trkpt lat="43.7793738102037" lon="12.315776614341546"><ele>866.0</ele><time>2026-05-02T13:39:42.999Z</time></trkpt><trkpt lat="43.77945624394249" lon="12.315600938442666"><ele>866.0</ele><time>2026-05-02T13:39:43.999Z</time></trkpt><trkpt lat="43.779541720318875" lon="12.315433463600455"><ele>866.0</ele><time>2026-05-02T13:39:44.999Z</time></trkpt><trkpt lat="43.77961021871958" lon="12.31526395403807"><ele>866.0</ele><time>2026-05-02T13:39:45.999Z</time></trkpt><trkpt lat="43.77968276826053" lon="12.31512223990774"><ele>866.5</ele><time>2026-05-02T13:39:46.999Z</time></trkpt><trkpt lat="43.779730700757305" lon="12.314968064285013"><ele>867.0</ele><time>2026-05-02T13:39:47.999Z</time></trkpt><trkpt lat="43.77976249623558" lon="12.314794447266594"><ele>867.5</ele><time>2026-05-02T13:39:48.999Z</time></trkpt><trkpt lat="43.77977874448538" lon="12.314614950608368"><ele>868.0</ele><time>2026-05-02T13:39:49.999Z</time></trkpt><trkpt lat="43.779796446698114" lon="12.3144388840531"><ele>869.0</ele><time>2026-05-02T13:39:50.999Z</time></trkpt><trkpt lat="43.779798463245" lon="12.314286482023057"><ele>870.0</ele><time>2026-05-02T13:39:51.999Z</time></trkpt><trkpt lat="43.77978248312405" lon="12.314154998949878"><ele>871.0</ele><time>2026-05-02T13:39:52.999Z</time></trkpt><trkpt lat="43.77973793179526" lon="12.314028057209896"><ele>872.0</ele><time>2026-05-02T13:39:53.999Z</time></trkpt><trkpt lat="43.77966390313785" lon="12.313908630360464"><ele>873.0</ele><time>2026-05-02T13:39:54.999Z</time></trkpt><trkpt lat="43.77955310548439" lon="12.313817922827766"><ele>873.0</ele><time>2026-05-02T13:39:55.999Z</time></trkpt><trkpt lat="43.77942955428978" lon="12.31372435827042"><ele>873.0</ele><time>2026-05-02T13:39:56.999Z</time></trkpt><trkpt lat="43.77930404480572" lon="12.313626802192754"><ele>873.0</ele><time>2026-05-02T13:39:57.999Z</time></trkpt><trkpt lat="43.77918113788238" lon="12.313520403308834"><ele>873.0</ele><time>2026-05-02T13:39:58.999Z</time></trkpt><trkpt lat="43.7790583461281" lon="12.31341391037189"><ele>873.0</ele><time>2026-05-02T13:39:59.999Z</time></trkpt><trkpt lat="43.77892201299588" lon="12.313338033967293"><ele>873.0</ele><time>2026-05-02T13:40:00.999Z</time></trkpt><trkpt lat="43.77878228827929" lon="12.313287628535264"><ele>873.0</ele><time>2026-05-02T13:40:01.999Z</time></trkpt><trkpt lat="43.778637899064954" lon="12.313261668747646"><ele>873.0</ele><time>2026-05-02T13:40:02.999Z</time></trkpt><trkpt lat="43.7784965400881" lon="12.313223909548507"><ele>873.0</ele><time>2026-05-02T13:40:04Z</time></trkpt><trkpt lat="43.77836417801693" lon="12.313180949530995"><ele>873.0</ele><time>2026-05-02T13:40:05Z</time></trkpt><trkpt lat="43.77824597275439" lon="12.313130423007957"><ele>873.0</ele><time>2026-05-02T13:40:06Z</time></trkpt><trkpt lat="43.77814930292781" lon="12.313041648171641"><ele>873.0</ele><time>2026-05-02T13:40:07Z</time></trkpt><trkpt lat="43.7780517133814" lon="12.312937020606475"><ele>874.75</ele><time>2026-05-02T13:40:08Z</time></trkpt><trkpt lat="43.777987091809415" lon="12.312770056671354"><ele>876.5</ele><time>2026-05-02T13:40:09Z</time></trkpt><trkpt lat="43.77795000824165" lon="12.312586444922006"><ele>878.25</ele><time>2026-05-02T13:40:10Z</time></trkpt><trkpt lat="43.77795639940156" lon="12.312388239441718"><ele>880.0</ele><time>2026-05-02T13:40:11Z</time></trkpt><trkpt lat="43.77797537615594" lon="12.312193171635693"><ele>881.75</ele><time>2026-05-02T13:40:12Z</time></trkpt><trkpt lat="43.77799256397348" lon="12.31200099749216"><ele>883.5</ele><time>2026-05-02T13:40:13Z</time></trkpt><trkpt lat="43.778018009990404" lon="12.311806549010553"><ele>885.25</ele><time>2026-05-02T13:40:14Z</time></trkpt><trkpt lat="43.77805958822479" lon="12.311602182465927"><ele>887.0</ele><time>2026-05-02T13:40:15Z</time></trkpt><trkpt lat="43.77811122679836" lon="12.311383390249466"><ele>889.3333333333334</ele><time>2026-05-02T13:40:16Z</time></trkpt><trkpt lat="43.778161800853404" lon="12.31115746535478"><ele>891.6666666666667</ele><time>2026-05-02T13:40:17Z</time></trkpt><trkpt lat="43.778217531638084" lon="12.310927648152873"><ele>894.0</ele><time>2026-05-02T13:40:18Z</time></trkpt><trkpt lat="43.77827533265095" lon="12.310699981823321"><ele>895.6666666666667</ele><time>2026-05-02T13:40:19Z</time></trkpt><trkpt lat="43.778346905936615" lon="12.310480531407183"><ele>897.3333333333334</ele><time>2026-05-02T13:40:20Z</time></trkpt><trkpt lat="43.77844884288191" lon="12.31030458226712"><ele>899.0</ele><time>2026-05-02T13:40:21Z</time></trkpt><trkpt lat="43.77852221138083" lon="12.31011096944255"><ele>900.6666666666667</ele><time>2026-05-02T13:40:22Z</time></trkpt><trkpt lat="43.77861470670447" lon="12.309935380727916"><ele>902.3333333333333</ele><time>2026-05-02T13:40:23Z</time></trkpt><trkpt lat="43.77869718695764" lon="12.309758761980634"><ele>904.0</ele><time>2026-05-02T13:40:24Z</time></trkpt><trkpt lat="43.77878446709258" lon="12.309593062866771"><ele>905.0</ele><time>2026-05-02T13:40:25Z</time></trkpt><trkpt lat="43.778895464443494" lon="12.30945880390615"><ele>906.0</ele><time>2026-05-02T13:40:26Z</time></trkpt><trkpt lat="43.7790316302075" lon="12.309355156583916"><ele>907.0</ele><time>2026-05-02T13:40:27Z</time></trkpt><trkpt lat="43.779182155669375" lon="12.309263232109181"><ele>907.0</ele><time>2026-05-02T13:40:28Z</time></trkpt><trkpt lat="43.7793379065048" lon="12.309168561855815"><ele>907.0</ele><time>2026-05-02T13:40:29Z</time></trkpt><trkpt lat="43.77949936118809" lon="12.309071424181942"><ele>907.0</ele><time>2026-05-02T13:40:30Z</time></trkpt><trkpt lat="43.779657041790145" lon="12.30896598610213"><ele>910.0</ele><time>2026-05-02T13:40:31Z</time></trkpt><trkpt lat="43.779810412550525" lon="12.308856266232741"><ele>913.0</ele><time>2026-05-02T13:40:32Z</time></trkpt><trkpt lat="43.77994666295107" lon="12.30874973117618"><ele>916.0</ele><time>2026-05-02T13:40:33Z</time></trkpt><trkpt lat="43.78005268571407" lon="12.308621566664831"><ele>916.0</ele><time>2026-05-02T13:40:34Z</time></trkpt><trkpt lat="43.7801359573193" lon="12.308458430400485"><ele>916.0</ele><time>2026-05-02T13:40:35Z</time></trkpt><trkpt lat="43.7801895438189" lon="12.30827145987906"><ele>916.0</ele><time>2026-05-02T13:40:36Z</time></trkpt><trkpt lat="43.780223490050886" lon="12.308058290106123"><ele>916.0</ele><time>2026-05-02T13:40:37Z</time></trkpt><trkpt lat="43.78025753069142" lon="12.307838259391541"><ele>919.6666666666666</ele><time>2026-05-02T13:40:38Z</time></trkpt><trkpt lat="43.78029368158836" lon="12.30761312159638"><ele>923.3333333333333</ele><time>2026-05-02T13:40:39Z</time></trkpt><trkpt lat="43.78032747164097" lon="12.307389630293029"><ele>927.0</ele><time>2026-05-02T13:40:40Z</time></trkpt><trkpt lat="43.78036694528006" lon="12.30716240221611"><ele>929.0</ele><time>2026-05-02T13:40:41Z</time></trkpt><trkpt lat="43.78040849913722" lon="12.30693678545774"><ele>931.0</ele><time>2026-05-02T13:40:42Z</time></trkpt><trkpt lat="43.780448580598296" lon="12.306718425180415"><ele>933.0</ele><time>2026-05-02T13:40:43Z</time></trkpt><trkpt lat="43.78048667387112" lon="12.306498168300088"><ele>934.0</ele><time>2026-05-02T13:40:43.999Z</time></trkpt><trkpt lat="43.78052876062877" lon="12.306273684657084"><ele>935.0</ele><time>2026-05-02T13:40:44.999Z</time></trkpt><trkpt lat="43.78057318360551" lon="12.306043849278856"><ele>936.0</ele><time>2026-05-02T13:40:45.999Z</time></trkpt><trkpt lat="43.78061866646882" lon="12.305800370025064"><ele>937.6666666666667</ele><time>2026-05-02T13:40:46.999Z</time></trkpt><trkpt lat="43.78066269140626" lon="12.305552783606554"><ele>939.3333333333334</ele><time>2026-05-02T13:40:47.999Z</time></trkpt><trkpt lat="43.78070794389659" lon="12.305303463276243"><ele>941.0</ele><time>2026-05-02T13:40:48.999Z</time></trkpt><trkpt lat="43.78075088979874" lon="12.305078403162907"><ele>941.0</ele><time>2026-05-02T13:40:49.999Z</time></trkpt><trkpt lat="43.78079063395461" lon="12.30485704906315"><ele>941.0</ele><time>2026-05-02T13:40:50.999Z</time></trkpt><trkpt lat="43.78082122175388" lon="12.304658138360345"><ele>941.0</ele><time>2026-05-02T13:40:51.999Z</time></trkpt><trkpt lat="43.780827306734906" lon="12.304463769114003"><ele>942.0</ele><time>2026-05-02T13:40:52.999Z</time></trkpt><trkpt lat="43.780808676319495" lon="12.304258730189014"><ele>943.0</ele><time>2026-05-02T13:40:53.999Z</time></trkpt><trkpt lat="43.780756292392866" lon="12.30404986794759"><ele>944.0</ele><time>2026-05-02T13:40:54.999Z</time></trkpt><trkpt lat="43.78068881224939" lon="12.303862991446573"><ele>946.3333333333334</ele><time>2026-05-02T13:40:55.999Z</time></trkpt><trkpt lat="43.780623065278796" lon="12.303671556746645"><ele>948.6666666666667</ele><time>2026-05-02T13:40:56.999Z</time></trkpt><trkpt lat="43.780574775871216" lon="12.30347017952535"><ele>951.0</ele><time>2026-05-02T13:40:57.999Z</time></trkpt><trkpt lat="43.78052955709627" lon="12.30326814101263"><ele>952.6666666666667</ele><time>2026-05-02T13:40:58.999Z</time></trkpt><trkpt lat="43.78048248609391" lon="12.303061543881984"><ele>954.3333333333334</ele><time>2026-05-02T13:40:59.999Z</time></trkpt><trkpt lat="43.78044516317588" lon="12.302853285119932"><ele>956.0</ele><time>2026-05-02T13:41:00.999Z</time></trkpt><trkpt lat="43.78043957783411" lon="12.302648492116914"><ele>956.0</ele><time>2026-05-02T13:41:01.999Z</time></trkpt><trkpt lat="43.780468794670526" lon="12.302465601622446"><ele>956.0</ele><time>2026-05-02T13:41:02.999Z</time></trkpt><trkpt lat="43.78054822054141" lon="12.302338979649047"><ele>956.0</ele><time>2026-05-02T13:41:03.999Z</time></trkpt><trkpt lat="43.78061945709189" lon="12.302232260549676"><ele>956.0</ele><time>2026-05-02T13:41:04.999Z</time></trkpt><trkpt lat="43.780700110862" lon="12.3021466869313"><ele>955.75</ele><time>2026-05-02T13:41:05.999Z</time></trkpt><trkpt lat="43.780813510124936" lon="12.302134200025773"><ele>955.5</ele><time>2026-05-02T13:41:06.999Z</time></trkpt><trkpt lat="43.78092639355938" lon="12.302125139679086"><ele>955.25</ele><time>2026-05-02T13:41:07.999Z</time></trkpt><trkpt lat="43.78103632585342" lon="12.302175632822907"><ele>955.0</ele><time>2026-05-02T13:41:08.999Z</time></trkpt><trkpt lat="43.781127238616385" lon="12.302255598075087"><ele>956.6</ele><time>2026-05-02T13:41:09.999Z</time></trkpt><trkpt lat="43.781210251954235" lon="12.302346310600637"><ele>958.2</ele><time>2026-05-02T13:41:10.999Z</time></trkpt><trkpt lat="43.78130135372756" lon="12.302416628125018"><ele>959.8</ele><time>2026-05-02T13:41:11.999Z</time></trkpt><trkpt lat="43.78140431010094" lon="12.302445044891579"><ele>961.4</ele><time>2026-05-02T13:41:12.999Z</time></trkpt><trkpt lat="43.78151224274715" lon="12.30242444475488"><ele>963.0</ele><time>2026-05-02T13:41:13.999Z</time></trkpt><trkpt lat="43.781621526950126" lon="12.302334033449267"><ele>963.3333333333333</ele><time>2026-05-02T13:41:14.999Z</time></trkpt><trkpt lat="43.781739005158556" lon="12.302200543439872"><ele>963.6666666666666</ele><time>2026-05-02T13:41:15.999Z</time></trkpt><trkpt lat="43.781896436449074" lon="12.302076680434807"><ele>964.0</ele><time>2026-05-02T13:41:16.999Z</time></trkpt><trkpt lat="43.78206896601605" lon="12.301916646855863"><ele>966.0</ele><time>2026-05-02T13:41:17.999Z</time></trkpt><trkpt lat="43.78222542615473" lon="12.30179175170529"><ele>968.0</ele><time>2026-05-02T13:41:18.999Z</time></trkpt><trkpt lat="43.78236076558015" lon="12.301719823505975"><ele>970.0</ele><time>2026-05-02T13:41:19.999Z</time></trkpt><trkpt lat="43.78248819206988" lon="12.30173310413813"><ele>970.0</ele><time>2026-05-02T13:41:20.999Z</time></trkpt><trkpt lat="43.782618532611124" lon="12.30175530023564"><ele>970.0</ele><time>2026-05-02T13:41:21.999Z</time></trkpt><trkpt lat="43.78276363983092" lon="12.301900253256996"><ele>970.0</ele><time>2026-05-02T13:41:22.999Z</time></trkpt><trkpt lat="43.782947855860435" lon="12.302028396204737"><ele>972.6666666666666</ele><time>2026-05-02T13:41:23.999Z</time></trkpt><trkpt lat="43.78313528208981" lon="12.302204845218117"><ele>975.3333333333333</ele><time>2026-05-02T13:41:24.999Z</time></trkpt><trkpt lat="43.78332289326991" lon="12.302370242219215"><ele>978.0</ele><time>2026-05-02T13:41:25.999Z</time></trkpt><trkpt lat="43.78350225840555" lon="12.302522729546732"><ele>980.3333333333333</ele><time>2026-05-02T13:41:26.999Z</time></trkpt><trkpt lat="43.783663785548946" lon="12.302652968848852"><ele>982.6666666666666</ele><time>2026-05-02T13:41:27.999Z</time></trkpt><trkpt lat="43.78380641758178" lon="12.302753875109186"><ele>985.0</ele><time>2026-05-02T13:41:28.999Z</time></trkpt><trkpt lat="43.783934985691815" lon="12.302819758050656"><ele>985.0</ele><time>2026-05-02T13:41:29.999Z</time></trkpt><trkpt lat="43.78405458799179" lon="12.302831157401199"><ele>985.0</ele><time>2026-05-02T13:41:30.999Z</time></trkpt><trkpt lat="43.78415646513776" lon="12.302787649421077"><ele>985.0</ele><time>2026-05-02T13:41:31.999Z</time></trkpt><trkpt lat="43.78425979780879" lon="12.302694683896602"><ele>985.0</ele><time>2026-05-02T13:41:32.999Z</time></trkpt><trkpt lat="43.78437439553417" lon="12.302564735849492"><ele>988.0</ele><time>2026-05-02T13:41:33.999Z</time></trkpt><trkpt lat="43.78450289048761" lon="12.302426159326544"><ele>991.0</ele><time>2026-05-02T13:41:34.999Z</time></trkpt><trkpt lat="43.78466340988223" lon="12.302284080000595"><ele>994.0</ele><time>2026-05-02T13:41:35.999Z</time></trkpt><trkpt lat="43.78485165390783" lon="12.302132816050813"><ele>994.0</ele><time>2026-05-02T13:41:36.999Z</time></trkpt><trkpt lat="43.78504051346102" lon="12.302007121527126"><ele>994.0</ele><time>2026-05-02T13:41:37.999Z</time></trkpt><trkpt lat="43.78519016697736" lon="12.301861162933598"><ele>994.0</ele><time>2026-05-02T13:41:38.999Z</time></trkpt><trkpt lat="43.78528753292274" lon="12.301743441021422"><ele>997.25</ele><time>2026-05-02T13:41:39.999Z</time></trkpt><trkpt lat="43.78535630053529" lon="12.301615499483479"><ele>1000.5</ele><time>2026-05-02T13:41:40.999Z</time></trkpt><trkpt lat="43.785407714258646" lon="12.301426164947253"><ele>1003.75</ele><time>2026-05-02T13:41:41.999Z</time></trkpt><trkpt lat="43.785438328577854" lon="12.301213951007043"><ele>1007.0</ele><time>2026-05-02T13:41:42.999Z</time></trkpt><trkpt lat="43.785447425335434" lon="12.301004642897311"><ele>1007.6666666666667</ele><time>2026-05-02T13:41:43.999Z</time></trkpt><trkpt lat="43.78543452370821" lon="12.30079112728326"><ele>1008.3333333333333</ele><time>2026-05-02T13:41:44.999Z</time></trkpt><trkpt lat="43.78539634666812" lon="12.300575322287507"><ele>1009.0</ele><time>2026-05-02T13:41:45.999Z</time></trkpt><trkpt lat="43.78535362839521" lon="12.300357377024422"><ele>1010.0</ele><time>2026-05-02T13:41:46.999Z</time></trkpt><trkpt lat="43.785342447844606" lon="12.300136351865824"><ele>1011.0</ele><time>2026-05-02T13:41:47.999Z</time></trkpt><trkpt lat="43.78534105523929" lon="12.299901689929149"><ele>1012.0</ele><time>2026-05-02T13:41:48.999Z</time></trkpt><trkpt lat="43.78540534439486" lon="12.299677969593537"><ele>1012.0</ele><time>2026-05-02T13:41:49.999Z</time></trkpt><trkpt lat="43.785438281812205" lon="12.299455510669837"><ele>1012.0</ele><time>2026-05-02T13:41:50.999Z</time></trkpt><trkpt lat="43.78551003861583" lon="12.299305568654953"><ele>1012.0</ele><time>2026-05-02T13:41:51.999Z</time></trkpt><trkpt lat="43.785568510227606" lon="12.29916596697147"><ele>1012.0</ele><time>2026-05-02T13:41:52.999Z</time></trkpt><trkpt lat="43.78561649666404" lon="12.299035798686559"><ele>1011.9999999999999</ele><time>2026-05-02T13:41:53.999Z</time></trkpt><trkpt lat="43.78568038248953" lon="12.298920006785378"><ele>1012.0</ele><time>2026-05-02T13:41:54.999Z</time></trkpt><trkpt lat="43.785732823484416" lon="12.298815358314119"><ele>1012.0</ele><time>2026-05-02T13:41:55.999Z</time></trkpt><trkpt lat="43.78578283919819" lon="12.298710440077931"><ele>1012.0</ele><time>2026-05-02T13:41:56.999Z</time></trkpt><trkpt lat="43.78583280696653" lon="12.29861911795768"><ele>1011.9999999999999</ele><time>2026-05-02T13:41:57.999Z</time></trkpt><trkpt lat="43.78587832538816" lon="12.298530231157581"><ele>1012.0</ele><time>2026-05-02T13:41:58.999Z</time></trkpt><trkpt lat="43.785925501056646" lon="12.298445989822127"><ele>1012.4999999999999</ele><time>2026-05-02T13:41:59.999Z</time></trkpt><trkpt lat="43.785972102655116" lon="12.298364348789024"><ele>1013.0</ele><time>2026-05-02T13:42:00.999Z</time></trkpt><trkpt lat="43.78601756699847" lon="12.298283362276848"><ele>1013.5</ele><time>2026-05-02T13:42:01.999Z</time></trkpt><trkpt lat="43.786063353012416" lon="12.298191960735519"><ele>1014.0</ele><time>2026-05-02T13:42:02.999Z</time></trkpt><trkpt lat="43.78611924038685" lon="12.298105579148823"><ele>1014.4999999999999</ele><time>2026-05-02T13:42:03.999Z</time></trkpt><trkpt lat="43.7861793982775" lon="12.29803137672501"><ele>1015.0</ele><time>2026-05-02T13:42:04.999Z</time></trkpt><trkpt lat="43.786229035072346" lon="12.297970836061408"><ele>1013.1666666666666</ele><time>2026-05-02T13:42:05.999Z</time></trkpt><trkpt lat="43.78620956817673" lon="12.297876979637458"><ele>1011.3333333333333</ele><time>2026-05-02T13:42:08.999Z</time></trkpt><trkpt lat="43.78616889104094" lon="12.29777208757121"><ele>1009.5</ele><time>2026-05-02T13:42:11Z</time></trkpt><trkpt lat="43.78607720388376" lon="12.297882031166404"><ele>1007.6666666666667</ele><time>2026-05-02T13:42:13Z</time></trkpt><trkpt lat="43.786028363038" lon="12.29793847700055"><ele>1005.8333333333334</ele><time>2026-05-02T13:42:14Z</time></trkpt><trkpt lat="43.78597415209853" lon="12.298003640828018"><ele>1004.0</ele><time>2026-05-02T13:42:15Z</time></trkpt><trkpt lat="43.78592706232451" lon="12.298065782870617"><ele>1004.6666666666667</ele><time>2026-05-02T13:42:16Z</time></trkpt><trkpt lat="43.78585725692172" lon="12.298172003033423"><ele>1005.3333333333334</ele><time>2026-05-02T13:42:18Z</time></trkpt><trkpt lat="43.78580415701127" lon="12.29827918510699"><ele>1006.0</ele><time>2026-05-02T13:42:20Z</time></trkpt><trkpt lat="43.78578036669729" lon="12.29838382650009"><ele>1006.6666666666667</ele><time>2026-05-02T13:42:22Z</time></trkpt><trkpt lat="43.78576515729955" lon="12.298480736043897"><ele>1007.3333333333334</ele><time>2026-05-02T13:42:27Z</time></trkpt><trkpt lat="43.78576815217895" lon="12.298574825144769"><ele>1008.0</ele><time>2026-05-02T13:42:38Z</time></trkpt><trkpt lat="43.785988340378196" lon="12.298328210875146"><ele>1007.0</ele><time>2026-05-02T13:42:43Z</time></trkpt><trkpt lat="43.78605257202536" lon="12.298207151029722"><ele>1006.0</ele><time>2026-05-02T13:42:44Z</time></trkpt><trkpt lat="43.78613374667762" lon="12.298096295068445"><ele>1005.0</ele><time>2026-05-02T13:42:44.999Z</time></trkpt><trkpt lat="43.786216821565986" lon="12.297987064481898"><ele>1004.0</ele><time>2026-05-02T13:42:45.999Z</time></trkpt><trkpt lat="43.78633530716074" lon="12.297902870333191"><ele>1004.0</ele><time>2026-05-02T13:42:46.999Z</time></trkpt><trkpt lat="43.78646097988474" lon="12.297798903495023"><ele>1004.0</ele><time>2026-05-02T13:42:47.999Z</time></trkpt><trkpt lat="43.786592651042625" lon="12.29766831308321"><ele>1004.0</ele><time>2026-05-02T13:42:48.999Z</time></trkpt><trkpt lat="43.78673784715676" lon="12.297542881832273"><ele>1004.0</ele><time>2026-05-02T13:42:49.999Z</time></trkpt><trkpt lat="43.786874925455805" lon="12.297389623047266"><ele>1004.0</ele><time>2026-05-02T13:42:50.999Z</time></trkpt><trkpt lat="43.78701625086349" lon="12.297203271304245"><ele>1004.0</ele><time>2026-05-02T13:42:51.999Z</time></trkpt><trkpt lat="43.78715879028787" lon="12.297011200925011"><ele>1004.0</ele><time>2026-05-02T13:42:52.999Z</time></trkpt><trkpt lat="43.787295382772854" lon="12.29681540488887"><ele>1004.0</ele><time>2026-05-02T13:42:53.999Z</time></trkpt><trkpt lat="43.78742821693638" lon="12.296619766062353"><ele>1004.0</ele><time>2026-05-02T13:42:54.999Z</time></trkpt><trkpt lat="43.7875632143085" lon="12.296417531861351"><ele>1002.5</ele><time>2026-05-02T13:42:55.999Z</time></trkpt><trkpt lat="43.78767637907707" lon="12.296237311377725"><ele>1001.0</ele><time>2026-05-02T13:42:56.999Z</time></trkpt><trkpt lat="43.787762119023" lon="12.296137345777154"><ele>999.5</ele><time>2026-05-02T13:42:57.999Z</time></trkpt><trkpt lat="43.78783874512078" lon="12.29605886503717"><ele>998.0</ele><time>2026-05-02T13:42:58.999Z</time></trkpt><trkpt lat="43.787931737866124" lon="12.296018674677342"><ele>998.0</ele><time>2026-05-02T13:42:59.999Z</time></trkpt><trkpt lat="43.78802140109573" lon="12.296075254512015"><ele>998.0</ele><time>2026-05-02T13:43:00.999Z</time></trkpt><trkpt lat="43.78813292978675" lon="12.296110047811247"><ele>998.0</ele><time>2026-05-02T13:43:01.999Z</time></trkpt><trkpt lat="43.78824421555641" lon="12.296165982596786"><ele>998.0</ele><time>2026-05-02T13:43:02.999Z</time></trkpt><trkpt lat="43.78834787219881" lon="12.296163327302846"><ele>998.0</ele><time>2026-05-02T13:43:03.999Z</time></trkpt><trkpt lat="43.7884357602312" lon="12.296101668391742"><ele>998.0</ele><time>2026-05-02T13:43:04.999Z</time></trkpt><trkpt lat="43.78849692858218" lon="12.295979246595572"><ele>998.0</ele><time>2026-05-02T13:43:05.999Z</time></trkpt><trkpt lat="43.78850782674577" lon="12.295816596860995"><ele>998.0</ele><time>2026-05-02T13:43:06.999Z</time></trkpt><trkpt lat="43.78848068851831" lon="12.295639125130188"><ele>998.0</ele><time>2026-05-02T13:43:07.999Z</time></trkpt><trkpt lat="43.78844994139555" lon="12.295469191004218"><ele>996.25</ele><time>2026-05-02T13:43:08.999Z</time></trkpt><trkpt lat="43.78844876857876" lon="12.295287751651822"><ele>994.5</ele><time>2026-05-02T13:43:09.999Z</time></trkpt><trkpt lat="43.78848475185731" lon="12.295126941858632"><ele>992.75</ele><time>2026-05-02T13:43:10.999Z</time></trkpt><trkpt lat="43.78855304181893" lon="12.295005841625606"><ele>991.0</ele><time>2026-05-02T13:43:11.999Z</time></trkpt><trkpt lat="43.788655817633774" lon="12.294948660680003"><ele>989.5999999999999</ele><time>2026-05-02T13:43:12.999Z</time></trkpt><trkpt lat="43.78874183774066" lon="12.294952242248973"><ele>988.1999999999999</ele><time>2026-05-02T13:43:13.999Z</time></trkpt><trkpt lat="43.788809808943576" lon="12.295035171403992"><ele>986.8000000000001</ele><time>2026-05-02T13:43:14.999Z</time></trkpt><trkpt lat="43.788842572905814" lon="12.295178812444663"><ele>985.4000000000001</ele><time>2026-05-02T13:43:15.999Z</time></trkpt><trkpt lat="43.78888231471872" lon="12.295349302645418"><ele>984.0</ele><time>2026-05-02T13:43:16.999Z</time></trkpt><trkpt lat="43.788932974936294" lon="12.295565593608842"><ele>985.3333333333333</ele><time>2026-05-02T13:43:17.999Z</time></trkpt><trkpt lat="43.78897145224617" lon="12.295802876048363"><ele>986.6666666666666</ele><time>2026-05-02T13:43:18.999Z</time></trkpt><trkpt lat="43.789004976059005" lon="12.29603961805761"><ele>988.0</ele><time>2026-05-02T13:43:19.999Z</time></trkpt><trkpt lat="43.78904287386853" lon="12.296232694405221"><ele>988.0</ele><time>2026-05-02T13:43:20.999Z</time></trkpt><trkpt lat="43.78911015113259" lon="12.296386669012142"><ele>988.0</ele><time>2026-05-02T13:43:21.999Z</time></trkpt><trkpt lat="43.78921898924983" lon="12.296498569866545"><ele>988.0</ele><time>2026-05-02T13:43:22.999Z</time></trkpt><trkpt lat="43.78933589113112" lon="12.296545144833246"><ele>988.0</ele><time>2026-05-02T13:43:23.999Z</time></trkpt><trkpt lat="43.78944291806546" lon="12.2965269528582"><ele>986.6666666666666</ele><time>2026-05-02T13:43:24.999Z</time></trkpt><trkpt lat="43.789594733719795" lon="12.296488767836362"><ele>985.3333333333333</ele><time>2026-05-02T13:43:25.999Z</time></trkpt><trkpt lat="43.78975713589959" lon="12.29650418609952"><ele>984.0</ele><time>2026-05-02T13:43:26.999Z</time></trkpt><trkpt lat="43.78991594612069" lon="12.296579989868407"><ele>984.0</ele><time>2026-05-02T13:43:27.999Z</time></trkpt><trkpt lat="43.790091258141615" lon="12.296685242881065"><ele>984.0</ele><time>2026-05-02T13:43:28.999Z</time></trkpt><trkpt lat="43.790285952283206" lon="12.296779135312894"><ele>984.0</ele><time>2026-05-02T13:43:29.999Z</time></trkpt><trkpt lat="43.79047222708345" lon="12.296879392610002"><ele>980.3333333333333</ele><time>2026-05-02T13:43:30.999Z</time></trkpt><trkpt lat="43.79067900606148" lon="12.296955920900993"><ele>976.6666666666666</ele><time>2026-05-02T13:43:31.999Z</time></trkpt><trkpt lat="43.790897853863136" lon="12.297013304639243"><ele>973.0</ele><time>2026-05-02T13:43:32.999Z</time></trkpt><trkpt lat="43.79111573405363" lon="12.297065131465386"><ele>974.6666666666666</ele><time>2026-05-02T13:43:33.999Z</time></trkpt><trkpt lat="43.791319374542496" lon="12.29711413675139"><ele>976.3333333333333</ele><time>2026-05-02T13:43:34.999Z</time></trkpt><trkpt lat="43.79147067594466" lon="12.297205083373438"><ele>978.0</ele><time>2026-05-02T13:43:35.999Z</time></trkpt><trkpt lat="43.79160194779947" lon="12.297342450770076"><ele>978.0</ele><time>2026-05-02T13:43:36.999Z</time></trkpt><trkpt lat="43.79172572121108" lon="12.297525134460583"><ele>978.0</ele><time>2026-05-02T13:43:37.999Z</time></trkpt><trkpt lat="43.79186945261805" lon="12.297706052840125"><ele>978.0</ele><time>2026-05-02T13:43:38.999Z</time></trkpt><trkpt lat="43.791987863806646" lon="12.297818143042488"><ele>975.0</ele><time>2026-05-02T13:43:39.999Z</time></trkpt><trkpt lat="43.792120207325816" lon="12.297867835918046"><ele>972.0</ele><time>2026-05-02T13:43:40.999Z</time></trkpt><trkpt lat="43.79230299988207" lon="12.297851344689958"><ele>969.0</ele><time>2026-05-02T13:43:41.999Z</time></trkpt><trkpt lat="43.79250339107948" lon="12.297837463111978"><ele>971.0</ele><time>2026-05-02T13:43:42.999Z</time></trkpt><trkpt lat="43.79271307935929" lon="12.29779644604056"><ele>973.0</ele><time>2026-05-02T13:43:43.999Z</time></trkpt><trkpt lat="43.792911623767694" lon="12.297692458496257"><ele>975.0</ele><time>2026-05-02T13:43:44.999Z</time></trkpt><trkpt lat="43.79306550869522" lon="12.297539906307655"><ele>975.0</ele><time>2026-05-02T13:43:45.999Z</time></trkpt><trkpt lat="43.79318291352695" lon="12.297389157809864"><ele>975.0</ele><time>2026-05-02T13:43:46.999Z</time></trkpt><trkpt lat="43.79326188095581" lon="12.29720298281859"><ele>975.0</ele><time>2026-05-02T13:43:47.999Z</time></trkpt><trkpt lat="43.793309571752204" lon="12.296961565836153"><ele>970.3333333333333</ele><time>2026-05-02T13:43:48.999Z</time></trkpt><trkpt lat="43.79333868011587" lon="12.296670384059253"><ele>965.6666666666666</ele><time>2026-05-02T13:43:49.999Z</time></trkpt><trkpt lat="43.793416741002204" lon="12.296398729438453"><ele>961.0</ele><time>2026-05-02T13:43:50.999Z</time></trkpt><trkpt lat="43.79351236998793" lon="12.296165265828478"><ele>960.0</ele><time>2026-05-02T13:43:51.999Z</time></trkpt><trkpt lat="43.79365559113299" lon="12.295950876791897"><ele>959.0</ele><time>2026-05-02T13:43:52.999Z</time></trkpt><trkpt lat="43.79380753444871" lon="12.295743188414137"><ele>958.0</ele><time>2026-05-02T13:43:53.999Z</time></trkpt><trkpt lat="43.79392156033736" lon="12.295579037021975"><ele>954.75</ele><time>2026-05-02T13:43:54.999Z</time></trkpt><trkpt lat="43.794025838504844" lon="12.295495054364578"><ele>951.5</ele><time>2026-05-02T13:43:55.999Z</time></trkpt><trkpt lat="43.794118876318144" lon="12.295449234802613"><ele>948.25</ele><time>2026-05-02T13:43:56.999Z</time></trkpt><trkpt lat="43.794237826553164" lon="12.295455681679279"><ele>945.0</ele><time>2026-05-02T13:43:57.999Z</time></trkpt><trkpt lat="43.79438794447955" lon="12.295461601439683"><ele>942.75</ele><time>2026-05-02T13:43:58.999Z</time></trkpt><trkpt lat="43.79455985576221" lon="12.295500321870128"><ele>940.5</ele><time>2026-05-02T13:43:59.999Z</time></trkpt><trkpt lat="43.794698076014946" lon="12.295489931281784"><ele>938.25</ele><time>2026-05-02T13:44:00.999Z</time></trkpt><trkpt lat="43.79481282605164" lon="12.295418502392614"><ele>936.0</ele><time>2026-05-02T13:44:01.999Z</time></trkpt><trkpt lat="43.79493518254608" lon="12.29530506113181"><ele>936.0</ele><time>2026-05-02T13:44:02.999Z</time></trkpt><trkpt lat="43.79507018337235" lon="12.295161253765773"><ele>936.0</ele><time>2026-05-02T13:44:03.999Z</time></trkpt><trkpt lat="43.79519222036617" lon="12.295070912310955"><ele>936.0</ele><time>2026-05-02T13:44:04.999Z</time></trkpt><trkpt lat="43.795276806993684" lon="12.295002776844738"><ele>936.0</ele><time>2026-05-02T13:44:05.999Z</time></trkpt><trkpt lat="43.79535403098359" lon="12.294965257482824"><ele>934.5999999999999</ele><time>2026-05-02T13:44:06.999Z</time></trkpt><trkpt lat="43.79542011737859" lon="12.294938992719096"><ele>933.1999999999999</ele><time>2026-05-02T13:44:07.999Z</time></trkpt><trkpt lat="43.79550247266868" lon="12.294988680842817"><ele>931.8000000000001</ele><time>2026-05-02T13:44:08.999Z</time></trkpt><trkpt lat="43.79559031034107" lon="12.295093963405977"><ele>930.4000000000001</ele><time>2026-05-02T13:44:09.999Z</time></trkpt><trkpt lat="43.79572506333787" lon="12.295174008084782"><ele>929.0</ele><time>2026-05-02T13:44:10.999Z</time></trkpt><trkpt lat="43.79586679450527" lon="12.295208062761494"><ele>929.0</ele><time>2026-05-02T13:44:11.999Z</time></trkpt><trkpt lat="43.79598918898168" lon="12.29522528750568"><ele>929.0000000000001</ele><time>2026-05-02T13:44:12.999Z</time></trkpt><trkpt lat="43.7960779396929" lon="12.295283794273843"><ele>929.0000000000001</ele><time>2026-05-02T13:44:13.999Z</time></trkpt><trkpt lat="43.79612481382602" lon="12.295394379560646"><ele>929.0</ele><time>2026-05-02T13:44:14.999Z</time></trkpt><trkpt lat="43.79614735638572" lon="12.295542148214215"><ele>929.0</ele><time>2026-05-02T13:44:16Z</time></trkpt><trkpt lat="43.79617003413757" lon="12.295707010142223"><ele>927.3333333333334</ele><time>2026-05-02T13:44:17Z</time></trkpt><trkpt lat="43.796222874746384" lon="12.295889241596475"><ele>925.6666666666667</ele><time>2026-05-02T13:44:18Z</time></trkpt><trkpt lat="43.79632106120227" lon="12.296060151056459"><ele>924.0</ele><time>2026-05-02T13:44:19Z</time></trkpt><trkpt lat="43.7964305569347" lon="12.296225638070272"><ele>924.0</ele><time>2026-05-02T13:44:20Z</time></trkpt><trkpt lat="43.796504918472735" lon="12.296398727569942"><ele>924.0</ele><time>2026-05-02T13:44:21Z</time></trkpt><trkpt lat="43.79657824276599" lon="12.296518558939018"><ele>924.0</ele><time>2026-05-02T13:44:22Z</time></trkpt><trkpt lat="43.79665287614605" lon="12.296624806172657"><ele>924.0</ele><time>2026-05-02T13:44:23Z</time></trkpt><trkpt lat="43.796761633885126" lon="12.296673952379422"><ele>924.75</ele><time>2026-05-02T13:44:24Z</time></trkpt><trkpt lat="43.796895659515705" lon="12.296658459454989"><ele>925.5</ele><time>2026-05-02T13:44:25Z</time></trkpt><trkpt lat="43.797020778323734" lon="12.29665543439277"><ele>926.25</ele><time>2026-05-02T13:44:26Z</time></trkpt><trkpt lat="43.79712897925685" lon="12.296740529066968"><ele>927.0</ele><time>2026-05-02T13:44:27Z</time></trkpt><trkpt lat="43.797245454719885" lon="12.296844793576453"><ele>927.0</ele><time>2026-05-02T13:44:28Z</time></trkpt><trkpt lat="43.79736766038727" lon="12.296958306566356"><ele>927.0</ele><time>2026-05-02T13:44:29Z</time></trkpt><trkpt lat="43.7974621622006" lon="12.29702370257678"><ele>927.0</ele><time>2026-05-02T13:44:30Z</time></trkpt><trkpt lat="43.797535114642756" lon="12.297074634232535"><ele>927.0</ele><time>2026-05-02T13:44:31Z</time></trkpt><trkpt lat="43.797657610206045" lon="12.296972884683138"><ele>928.25</ele><time>2026-05-02T13:44:32Z</time></trkpt><trkpt lat="43.79778386003203" lon="12.296849001616295"><ele>929.5</ele><time>2026-05-02T13:44:33Z</time></trkpt><trkpt lat="43.79790825596944" lon="12.296781059857805"><ele>930.75</ele><time>2026-05-02T13:44:34Z</time></trkpt><trkpt lat="43.798029306159435" lon="12.29679535018866"><ele>932.0</ele><time>2026-05-02T13:44:35Z</time></trkpt><trkpt lat="43.798161020161864" lon="12.29685302867529"><ele>932.0</ele><time>2026-05-02T13:44:36Z</time></trkpt><trkpt lat="43.798296941950674" lon="12.296905637738583"><ele>932.0</ele><time>2026-05-02T13:44:37Z</time></trkpt><trkpt lat="43.798410061931456" lon="12.296908987963354"><ele>932.0</ele><time>2026-05-02T13:44:38Z</time></trkpt><trkpt lat="43.79850387703518" lon="12.296854905700823"><ele>932.0</ele><time>2026-05-02T13:44:39Z</time></trkpt><trkpt lat="43.798578225233264" lon="12.296732120370631"><ele>936.6666666666667</ele><time>2026-05-02T13:44:40Z</time></trkpt><trkpt lat="43.79862113964737" lon="12.296557528907774"><ele>941.3333333333333</ele><time>2026-05-02T13:44:41Z</time></trkpt><trkpt lat="43.79868529347298" lon="12.29636696932724"><ele>946.0</ele><time>2026-05-02T13:44:42Z</time></trkpt><trkpt lat="43.798722825875394" lon="12.296124545681383"><ele>946.0</ele><time>2026-05-02T13:44:43Z</time></trkpt><trkpt lat="43.79870889834497" lon="12.29587837664847"><ele>946.0</ele><time>2026-05-02T13:44:44Z</time></trkpt><trkpt lat="43.79868418166848" lon="12.295669121744183"><ele>946.0</ele><time>2026-05-02T13:44:45Z</time></trkpt><trkpt lat="43.79865298070283" lon="12.295466534404307"><ele>942.75</ele><time>2026-05-02T13:44:46Z</time></trkpt><trkpt lat="43.79859987237196" lon="12.295305194150082"><ele>939.5</ele><time>2026-05-02T13:44:47Z</time></trkpt><trkpt lat="43.798562842359054" lon="12.295177886251192"><ele>936.25</ele><time>2026-05-02T13:44:47.999Z</time></trkpt><trkpt lat="43.79859343196016" lon="12.295031009136322"><ele>933.0</ele><time>2026-05-02T13:44:48.999Z</time></trkpt><trkpt lat="43.798675526047745" lon="12.294915395863239"><ele>933.0</ele><time>2026-05-02T13:44:49.999Z</time></trkpt><trkpt lat="43.79877962607416" lon="12.294776840854878"><ele>933.0</ele><time>2026-05-02T13:44:50.999Z</time></trkpt><trkpt lat="43.7988977456032" lon="12.294616807868358"><ele>933.0</ele><time>2026-05-02T13:44:51.999Z</time></trkpt><trkpt lat="43.79896550929617" lon="12.294449143782522"><ele>933.0</ele><time>2026-05-02T13:44:52.999Z</time></trkpt><trkpt lat="43.798997513929976" lon="12.294268078061588"><ele>928.3333333333333</ele><time>2026-05-02T13:44:53.999Z</time></trkpt><trkpt lat="43.799008500831626" lon="12.294045540353459"><ele>923.6666666666666</ele><time>2026-05-02T13:44:54.999Z</time></trkpt><trkpt lat="43.799060146144505" lon="12.293814468906668"><ele>919.0</ele><time>2026-05-02T13:44:55.999Z</time></trkpt><trkpt lat="43.799073509730086" lon="12.293608045830165"><ele>918.75</ele><time>2026-05-02T13:44:56.999Z</time></trkpt><trkpt lat="43.79905681822004" lon="12.29343548550606"><ele>918.5</ele><time>2026-05-02T13:44:57.999Z</time></trkpt><trkpt lat="43.79897557084583" lon="12.29329681984762"><ele>918.25</ele><time>2026-05-02T13:44:58.999Z</time></trkpt><trkpt lat="43.798880470637975" lon="12.29315325662853"><ele>918.0</ele><time>2026-05-02T13:44:59.999Z</time></trkpt><trkpt lat="43.79878750643732" lon="12.293016787967138"><ele>918.0</ele><time>2026-05-02T13:45:00.999Z</time></trkpt><trkpt lat="43.79875931311356" lon="12.292812766450012"><ele>918.0</ele><time>2026-05-02T13:45:01.999Z</time></trkpt><trkpt lat="43.79875747837088" lon="12.292591516420451"><ele>918.0</ele><time>2026-05-02T13:45:02.999Z</time></trkpt><trkpt lat="43.79878759663481" lon="12.2923739743582"><ele>916.5999999999999</ele><time>2026-05-02T13:45:03.999Z</time></trkpt><trkpt lat="43.798816081661364" lon="12.292196898479721"><ele>915.1999999999999</ele><time>2026-05-02T13:45:04.999Z</time></trkpt><trkpt lat="43.79883322927561" lon="12.29205638170023"><ele>913.8</ele><time>2026-05-02T13:45:05.999Z</time></trkpt><trkpt lat="43.798818420633886" lon="12.291945371138361"><ele>912.4</ele><time>2026-05-02T13:45:06.999Z</time></trkpt><trkpt lat="43.798766262301044" lon="12.291873063463978"><ele>911.0</ele><time>2026-05-02T13:45:07.999Z</time></trkpt><trkpt lat="43.79867258357401" lon="12.29188760520567"><ele>911.0</ele><time>2026-05-02T13:45:08.999Z</time></trkpt><trkpt lat="43.79859438878875" lon="12.291981240443919"><ele>911.0</ele><time>2026-05-02T13:45:09.999Z</time></trkpt><trkpt lat="43.798535546157936" lon="12.292158281513133"><ele>911.0</ele><time>2026-05-02T13:45:10.999Z</time></trkpt><trkpt lat="43.79846985247405" lon="12.292334700460795"><ele>911.0</ele><time>2026-05-02T13:45:11.999Z</time></trkpt><trkpt lat="43.79836938987969" lon="12.29250520981921"><ele>907.1999999999999</ele><time>2026-05-02T13:45:12.999Z</time></trkpt><trkpt lat="43.798243176470216" lon="12.29263764456546"><ele>903.3999999999999</ele><time>2026-05-02T13:45:13.999Z</time></trkpt><trkpt lat="43.79814478435883" lon="12.292745809403232"><ele>899.6</ele><time>2026-05-02T13:45:14.999Z</time></trkpt><trkpt lat="43.79807495275294" lon="12.292797348273206"><ele>895.8</ele><time>2026-05-02T13:45:15.999Z</time></trkpt><trkpt lat="43.79800900128374" lon="12.292798622975832"><ele>892.0</ele><time>2026-05-02T13:45:16.999Z</time></trkpt><trkpt lat="43.797930982879194" lon="12.292642905035793"><ele>892.0</ele><time>2026-05-02T13:45:18.999Z</time></trkpt><trkpt lat="43.79794558669573" lon="12.292524709937485"><ele>892.0</ele><time>2026-05-02T13:45:19.999Z</time></trkpt><trkpt lat="43.79801915152702" lon="12.292401840965443"><ele>892.0</ele><time>2026-05-02T13:45:20.999Z</time></trkpt><trkpt lat="43.79812214904796" lon="12.292260925722204"><ele>892.0</ele><time>2026-05-02T13:45:21.999Z</time></trkpt><trkpt lat="43.79821315061158" lon="12.29208791811157"><ele>891.0</ele><time>2026-05-02T13:45:22.999Z</time></trkpt><trkpt lat="43.79827480750625" lon="12.291915890227447"><ele>890.0</ele><time>2026-05-02T13:45:23.999Z</time></trkpt><trkpt lat="43.79828373272789" lon="12.291711288890324"><ele>889.0</ele><time>2026-05-02T13:45:24.999Z</time></trkpt><trkpt lat="43.79826213769462" lon="12.2914686376165"><ele>886.6666666666666</ele><time>2026-05-02T13:45:25.999Z</time></trkpt><trkpt lat="43.79822406151299" lon="12.291211568731253"><ele>884.3333333333333</ele><time>2026-05-02T13:45:26.999Z</time></trkpt><trkpt lat="43.79816408311182" lon="12.290987431799321"><ele>882.0</ele><time>2026-05-02T13:45:27.999Z</time></trkpt><trkpt lat="43.79809911296488" lon="12.290830485109735"><ele>882.0</ele><time>2026-05-02T13:45:28.999Z</time></trkpt><trkpt lat="43.798066575502716" lon="12.290694801401154"><ele>882.0</ele><time>2026-05-02T13:45:29.999Z</time></trkpt><trkpt lat="43.798075608717284" lon="12.290560407055164"><ele>882.0</ele><time>2026-05-02T13:45:30.999Z</time></trkpt><trkpt lat="43.798138242104784" lon="12.290451740893767"><ele>882.0</ele><time>2026-05-02T13:45:31.999Z</time></trkpt><trkpt lat="43.798260568498634" lon="12.290396384270645"><ele>882.0</ele><time>2026-05-02T13:45:32.999Z</time></trkpt><trkpt lat="43.79838759405704" lon="12.290279672761708"><ele>881.0</ele><time>2026-05-02T13:45:33.999Z</time></trkpt><trkpt lat="43.79847653729041" lon="12.290144164650725"><ele>880.0</ele><time>2026-05-02T13:45:34.999Z</time></trkpt><trkpt lat="43.79851104969464" lon="12.289943669742708"><ele>879.0</ele><time>2026-05-02T13:45:35.999Z</time></trkpt><trkpt lat="43.79851084571721" lon="12.289709504886995"><ele>879.0</ele><time>2026-05-02T13:45:36.999Z</time></trkpt><trkpt lat="43.79849766691025" lon="12.289464568048192"><ele>879.0</ele><time>2026-05-02T13:45:37.999Z</time></trkpt><trkpt lat="43.7984935107394" lon="12.289276921055551"><ele>879.0</ele><time>2026-05-02T13:45:38.999Z</time></trkpt><trkpt lat="43.798505204008485" lon="12.28914886447265"><ele>879.0</ele><time>2026-05-02T13:45:39.999Z</time></trkpt><trkpt lat="43.7985885612345" lon="12.289009831369688"><ele>875.5</ele><time>2026-05-02T13:45:40.999Z</time></trkpt><trkpt lat="43.79873430266953" lon="12.288896062652846"><ele>872.0</ele><time>2026-05-02T13:45:41.999Z</time></trkpt><trkpt lat="43.798842682535174" lon="12.28874671370626"><ele>868.5</ele><time>2026-05-02T13:45:42.999Z</time></trkpt><trkpt lat="43.79889235706103" lon="12.28860138577239"><ele>865.0</ele><time>2026-05-02T13:45:43.999Z</time></trkpt><trkpt lat="43.798881321273484" lon="12.288383955575013"><ele>865.0</ele><time>2026-05-02T13:45:44.999Z</time></trkpt><trkpt lat="43.79884251369831" lon="12.288140920317916"><ele>865.0</ele><time>2026-05-02T13:45:45.999Z</time></trkpt><trkpt lat="43.79882345534368" lon="12.287901822051202"><ele>865.0</ele><time>2026-05-02T13:45:46.999Z</time></trkpt><trkpt lat="43.798810936202855" lon="12.287752190669242"><ele>859.6</ele><time>2026-05-02T13:45:47.999Z</time></trkpt><trkpt lat="43.79884023429853" lon="12.28765047783764"><ele>854.2</ele><time>2026-05-02T13:45:48.999Z</time></trkpt><trkpt lat="43.798912382406826" lon="12.287561914746263"><ele>848.8</ele><time>2026-05-02T13:45:49.999Z</time></trkpt><trkpt lat="43.799015985325525" lon="12.287538281922288"><ele>843.4</ele><time>2026-05-02T13:45:50.999Z</time></trkpt><trkpt lat="43.79915331582139" lon="12.287597158992327"><ele>838.0</ele><time>2026-05-02T13:45:51.999Z</time></trkpt><trkpt lat="43.79932250031821" lon="12.287622295414828"><ele>835.0</ele><time>2026-05-02T13:45:52.999Z</time></trkpt><trkpt lat="43.79949736004122" lon="12.287697433992983"><ele>832.0</ele><time>2026-05-02T13:45:53.999Z</time></trkpt><trkpt lat="43.79967103526972" lon="12.287774152546389"><ele>829.0</ele><time>2026-05-02T13:45:54.999Z</time></trkpt><trkpt lat="43.79984522589638" lon="12.28782110117731"><ele>829.0</ele><time>2026-05-02T13:45:55.999Z</time></trkpt><trkpt lat="43.80001173308851" lon="12.287866426334435"><ele>829.0</ele><time>2026-05-02T13:45:56.999Z</time></trkpt><trkpt lat="43.80019705822917" lon="12.287834846453274"><ele>829.0</ele><time>2026-05-02T13:45:57.999Z</time></trkpt><trkpt lat="43.80035845003072" lon="12.287809717339623"><ele>824.75</ele><time>2026-05-02T13:45:58.999Z</time></trkpt><trkpt lat="43.80050988756129" lon="12.287838659978103"><ele>820.5</ele><time>2026-05-02T13:45:59.999Z</time></trkpt><trkpt lat="43.80065282026843" lon="12.28791307333155"><ele>816.25</ele><time>2026-05-02T13:46:00.999Z</time></trkpt><trkpt lat="43.80079475161132" lon="12.287913312126122"><ele>812.0</ele><time>2026-05-02T13:46:01.999Z</time></trkpt><trkpt lat="43.80093515130225" lon="12.28788160030036"><ele>808.0</ele><time>2026-05-02T13:46:02.999Z</time></trkpt><trkpt lat="43.801055207770695" lon="12.28780409698874"><ele>804.0</ele><time>2026-05-02T13:46:03.999Z</time></trkpt><trkpt lat="43.801150051307346" lon="12.28774833722157"><ele>800.0</ele><time>2026-05-02T13:46:04.999Z</time></trkpt><trkpt lat="43.80122571485799" lon="12.287752348890585"><ele>796.0</ele><time>2026-05-02T13:46:05.999Z</time></trkpt><trkpt lat="43.80129164477223" lon="12.287831555125061"><ele>792.0</ele><time>2026-05-02T13:46:06.999Z</time></trkpt><trkpt lat="43.80132747366981" lon="12.287984425688911"><ele>800.3333333333333</ele><time>2026-05-02T13:46:07.999Z</time></trkpt><trkpt lat="43.80135890422729" lon="12.288183522381564"><ele>808.6666666666666</ele><time>2026-05-02T13:46:08.999Z</time></trkpt><trkpt lat="43.8014190799971" lon="12.288417924105007"><ele>817.0</ele><time>2026-05-02T13:46:09.999Z</time></trkpt><trkpt lat="43.80148283748825" lon="12.288603059846638"><ele>817.0</ele><time>2026-05-02T13:46:10.999Z</time></trkpt><trkpt lat="43.801556220356105" lon="12.288719162496855"><ele>817.0</ele><time>2026-05-02T13:46:11.999Z</time></trkpt><trkpt lat="43.80161718619177" lon="12.288826525012741"><ele>817.0</ele><time>2026-05-02T13:46:12.999Z</time></trkpt><trkpt lat="43.80173234592" lon="12.288913849089518"><ele>817.0</ele><time>2026-05-02T13:46:13.999Z</time></trkpt><trkpt lat="43.801848537805775" lon="12.288972596525971"><ele>818.5</ele><time>2026-05-02T13:46:14.999Z</time></trkpt><trkpt lat="43.80195482497443" lon="12.288992866884353"><ele>820.0</ele><time>2026-05-02T13:46:15.999Z</time></trkpt><trkpt lat="43.80206055275308" lon="12.288939093052633"><ele>821.5</ele><time>2026-05-02T13:46:16.999Z</time></trkpt><trkpt lat="43.80217050751123" lon="12.28882780376537"><ele>823.0</ele><time>2026-05-02T13:46:17.999Z</time></trkpt><trkpt lat="43.8022868590368" lon="12.28869970046605"><ele>823.0</ele><time>2026-05-02T13:46:18.999Z</time></trkpt><trkpt lat="43.802370509922845" lon="12.288625476764091"><ele>823.0</ele><time>2026-05-02T13:46:19.999Z</time></trkpt><trkpt lat="43.802441607239174" lon="12.288593354498579"><ele>823.0</ele><time>2026-05-02T13:46:20.999Z</time></trkpt><trkpt lat="43.80252165493897" lon="12.28864556911703"><ele>823.0</ele><time>2026-05-02T13:46:22Z</time></trkpt><trkpt lat="43.802577343960934" lon="12.288777914820002"><ele>823.0</ele><time>2026-05-02T13:46:23Z</time></trkpt><trkpt lat="43.80264458019487" lon="12.28892909646806"><ele>813.3333333333333</ele><time>2026-05-02T13:46:24Z</time></trkpt><trkpt lat="43.802728589853125" lon="12.289107054926337"><ele>803.6666666666667</ele><time>2026-05-02T13:46:25Z</time></trkpt><trkpt lat="43.80284866371487" lon="12.289228629331127"><ele>794.0</ele><time>2026-05-02T13:46:26Z</time></trkpt><trkpt lat="43.80300172827389" lon="12.289322955185318"><ele>794.0</ele><time>2026-05-02T13:46:27Z</time></trkpt><trkpt lat="43.803128398327395" lon="12.289402346076331"><ele>794.0</ele><time>2026-05-02T13:46:28Z</time></trkpt><trkpt lat="43.80321242306118" lon="12.289580225921945"><ele>794.0</ele><time>2026-05-02T13:46:29Z</time></trkpt><trkpt lat="43.803320118673234" lon="12.289777094425848"><ele>791.6666666666667</ele><time>2026-05-02T13:46:30Z</time></trkpt><trkpt lat="43.803458928669976" lon="12.289936728231062"><ele>789.3333333333333</ele><time>2026-05-02T13:46:31Z</time></trkpt><trkpt lat="43.80362865095961" lon="12.290058290712464"><ele>787.0</ele><time>2026-05-02T13:46:32Z</time></trkpt><trkpt lat="43.80378967912299" lon="12.290170040909578"><ele>787.0</ele><time>2026-05-02T13:46:33Z</time></trkpt><trkpt lat="43.80395031896428" lon="12.29026424277308"><ele>787.0</ele><time>2026-05-02T13:46:34Z</time></trkpt><trkpt lat="43.80410063850567" lon="12.290346191846107"><ele>787.0</ele><time>2026-05-02T13:46:35Z</time></trkpt><trkpt lat="43.804289897191445" lon="12.29041500684438"><ele>785.3333333333333</ele><time>2026-05-02T13:46:36Z</time></trkpt><trkpt lat="43.80446705384649" lon="12.290458162189575"><ele>783.6666666666667</ele><time>2026-05-02T13:46:37Z</time></trkpt><trkpt lat="43.80462656747383" lon="12.290479518605723"><ele>782.0</ele><time>2026-05-02T13:46:38Z</time></trkpt><trkpt lat="43.804757256346136" lon="12.290514720911176"><ele>782.0</ele><time>2026-05-02T13:46:39Z</time></trkpt><trkpt lat="43.80488267438313" lon="12.290524783843596"><ele>782.0</ele><time>2026-05-02T13:46:40Z</time></trkpt><trkpt lat="43.80499821756128" lon="12.290494997592981"><ele>782.0</ele><time>2026-05-02T13:46:41Z</time></trkpt><trkpt lat="43.80510972884314" lon="12.29045606902836"><ele>782.0</ele><time>2026-05-02T13:46:42Z</time></trkpt><trkpt lat="43.80521133305567" lon="12.29037027696081"><ele>783.0</ele><time>2026-05-02T13:46:43Z</time></trkpt><trkpt lat="43.8052903475647" lon="12.290268181731522"><ele>784.0</ele><time>2026-05-02T13:46:44Z</time></trkpt><trkpt lat="43.80534769724681" lon="12.290145572107523"><ele>785.0</ele><time>2026-05-02T13:46:45Z</time></trkpt><trkpt lat="43.805394824591005" lon="12.28999180046877"><ele>786.0</ele><time>2026-05-02T13:46:46Z</time></trkpt><trkpt lat="43.805425279045146" lon="12.289806394672818"><ele>782.25</ele><time>2026-05-02T13:46:47Z</time></trkpt><trkpt lat="43.805458533347085" lon="12.289614550003176"><ele>778.5</ele><time>2026-05-02T13:46:48Z</time></trkpt><trkpt lat="43.805507700406494" lon="12.289439928850296"><ele>774.75</ele><time>2026-05-02T13:46:49Z</time></trkpt><trkpt lat="43.80555440120179" lon="12.289320321655739"><ele>771.0</ele><time>2026-05-02T13:46:49.999Z</time></trkpt><trkpt lat="43.80559911345481" lon="12.289230538462684"><ele>771.0</ele><time>2026-05-02T13:46:50.999Z</time></trkpt><trkpt lat="43.80564078993442" lon="12.28915747147122"><ele>771.0</ele><time>2026-05-02T13:46:51.999Z</time></trkpt><trkpt lat="43.805730071691194" lon="12.289066614543442"><ele>771.0</ele><time>2026-05-02T13:46:53.999Z</time></trkpt><trkpt lat="43.80584392001815" lon="12.289114448809103"><ele>771.0</ele><time>2026-05-02T13:46:55.999Z</time></trkpt><trkpt lat="43.80591321247367" lon="12.289185106784437"><ele>771.0</ele><time>2026-05-02T13:46:56.999Z</time></trkpt><trkpt lat="43.80599735925614" lon="12.289318045877536"><ele>768.5</ele><time>2026-05-02T13:46:57.999Z</time></trkpt><trkpt lat="43.80607686225212" lon="12.289502430584625"><ele>766.0</ele><time>2026-05-02T13:46:58.999Z</time></trkpt><trkpt lat="43.80616284534541" lon="12.289660756044597"><ele>763.5</ele><time>2026-05-02T13:46:59.999Z</time></trkpt><trkpt lat="43.80624888612058" lon="12.289741638452831"><ele>761.0</ele><time>2026-05-02T13:47:00.999Z</time></trkpt><trkpt lat="43.806353126362815" lon="12.289756669644406"><ele>761.0</ele><time>2026-05-02T13:47:01.999Z</time></trkpt><trkpt lat="43.80646468581729" lon="12.289674508491883"><ele>761.0</ele><time>2026-05-02T13:47:02.999Z</time></trkpt><trkpt lat="43.80659722912842" lon="12.289546403300937"><ele>761.0</ele><time>2026-05-02T13:47:03.999Z</time></trkpt><trkpt lat="43.80677399917167" lon="12.289377849122502"><ele>760.3333333333333</ele><time>2026-05-02T13:47:04.999Z</time></trkpt><trkpt lat="43.806949195620604" lon="12.289259861884782"><ele>759.6666666666666</ele><time>2026-05-02T13:47:05.999Z</time></trkpt><trkpt lat="43.80709068239867" lon="12.289172763055442"><ele>759.0</ele><time>2026-05-02T13:47:06.999Z</time></trkpt><trkpt lat="43.807234356530934" lon="12.28914752503984"><ele>759.0</ele><time>2026-05-02T13:47:07.999Z</time></trkpt><trkpt lat="43.80739112784412" lon="12.289156088423203"><ele>759.0</ele><time>2026-05-02T13:47:08.999Z</time></trkpt><trkpt lat="43.80753491044094" lon="12.289169786504196"><ele>759.0</ele><time>2026-05-02T13:47:09.999Z</time></trkpt><trkpt lat="43.80765093194262" lon="12.289186411246853"><ele>759.0</ele><time>2026-05-02T13:47:10.999Z</time></trkpt><trkpt lat="43.8077630303951" lon="12.28921049156789"><ele>757.0</ele><time>2026-05-02T13:47:11.999Z</time></trkpt><trkpt lat="43.80787892518011" lon="12.289251193173461"><ele>755.0</ele><time>2026-05-02T13:47:12.999Z</time></trkpt><trkpt lat="43.80799675120647" lon="12.289296601032254"><ele>753.0</ele><time>2026-05-02T13:47:13.999Z</time></trkpt><trkpt lat="43.808119758954405" lon="12.28931728982785"><ele>751.0</ele><time>2026-05-02T13:47:14.999Z</time></trkpt><trkpt lat="43.80822367055217" lon="12.289339548184662"><ele>751.0</ele><time>2026-05-02T13:47:15.999Z</time></trkpt><trkpt lat="43.8083239395819" lon="12.289353139161816"><ele>751.0</ele><time>2026-05-02T13:47:16.999Z</time></trkpt><trkpt lat="43.80841740836604" lon="12.289334278212108"><ele>751.0</ele><time>2026-05-02T13:47:17.999Z</time></trkpt><trkpt lat="43.8085064335961" lon="12.289294689578822"><ele>751.0</ele><time>2026-05-02T13:47:18.999Z</time></trkpt><trkpt lat="43.80856395765652" lon="12.289156659573294"><ele>751.0</ele><time>2026-05-02T13:47:19.999Z</time></trkpt><trkpt lat="43.808612899188056" lon="12.289017469712325"><ele>746.6666666666667</ele><time>2026-05-02T13:47:20.999Z</time></trkpt><trkpt lat="43.808684902691255" lon="12.288816701688466"><ele>742.3333333333334</ele><time>2026-05-02T13:47:21.999Z</time></trkpt><trkpt lat="43.8087577196106" lon="12.288588771489007"><ele>738.0</ele><time>2026-05-02T13:47:22.999Z</time></trkpt><trkpt lat="43.808847441413604" lon="12.288429333676422"><ele>738.0</ele><time>2026-05-02T13:47:23.999Z</time></trkpt><trkpt lat="43.808958788007665" lon="12.288306182737275"><ele>738.0</ele><time>2026-05-02T13:47:24.999Z</time></trkpt><trkpt lat="43.809088524836014" lon="12.288179387981614"><ele>738.0</ele><time>2026-05-02T13:47:25.999Z</time></trkpt><trkpt lat="43.80921117459126" lon="12.288024691713897"><ele>737.3333333333334</ele><time>2026-05-02T13:47:26.999Z</time></trkpt><trkpt lat="43.80930841254626" lon="12.287876183492102"><ele>736.6666666666667</ele><time>2026-05-02T13:47:27.999Z</time></trkpt><trkpt lat="43.809363864251445" lon="12.287684613729352"><ele>736.0</ele><time>2026-05-02T13:47:28.999Z</time></trkpt><trkpt lat="43.809405843003724" lon="12.287458371837076"><ele>738.3333333333334</ele><time>2026-05-02T13:47:29.999Z</time></trkpt><trkpt lat="43.809489704014226" lon="12.287242734736012"><ele>740.6666666666666</ele><time>2026-05-02T13:47:30.999Z</time></trkpt><trkpt lat="43.80958136177143" lon="12.287039301069042"><ele>743.0</ele><time>2026-05-02T13:47:31.999Z</time></trkpt><trkpt lat="43.809643513570066" lon="12.286839791824159"><ele>743.0</ele><time>2026-05-02T13:47:32.999Z</time></trkpt><trkpt lat="43.8096784718168" lon="12.28665600953324"><ele>743.0</ele><time>2026-05-02T13:47:33.999Z</time></trkpt><trkpt lat="43.809680923679345" lon="12.28643769400495"><ele>743.0</ele><time>2026-05-02T13:47:34.999Z</time></trkpt><trkpt lat="43.80967795305829" lon="12.286219806928363"><ele>741.0</ele><time>2026-05-02T13:47:35.999Z</time></trkpt><trkpt lat="43.809743645107595" lon="12.28603798573798"><ele>739.0</ele><time>2026-05-02T13:47:36.999Z</time></trkpt><trkpt lat="43.809833984901786" lon="12.285832746008433"><ele>737.0</ele><time>2026-05-02T13:47:37.999Z</time></trkpt><trkpt lat="43.809908245629885" lon="12.285594030913884"><ele>735.25</ele><time>2026-05-02T13:47:38.999Z</time></trkpt><trkpt lat="43.809964594454826" lon="12.285422406518917"><ele>733.5</ele><time>2026-05-02T13:47:39.999Z</time></trkpt><trkpt lat="43.81002133666561" lon="12.28530798090341"><ele>731.75</ele><time>2026-05-02T13:47:40.999Z</time></trkpt><trkpt lat="43.81012102418542" lon="12.285233234092171"><ele>730.0</ele><time>2026-05-02T13:47:41.999Z</time></trkpt><trkpt lat="43.81024945048823" lon="12.285154571615841"><ele>730.0</ele><time>2026-05-02T13:47:42.999Z</time></trkpt><trkpt lat="43.81040073449667" lon="12.28504560024854"><ele>730.0</ele><time>2026-05-02T13:47:43.999Z</time></trkpt><trkpt lat="43.81056615798426" lon="12.284952057761076"><ele>730.0</ele><time>2026-05-02T13:47:44.999Z</time></trkpt><trkpt lat="43.810725041383506" lon="12.284812618460316"><ele>726.6666666666667</ele><time>2026-05-02T13:47:45.999Z</time></trkpt><trkpt lat="43.810881476622406" lon="12.284636362816808"><ele>723.3333333333334</ele><time>2026-05-02T13:47:46.999Z</time></trkpt><trkpt lat="43.81104068626436" lon="12.284450391943514"><ele>720.0</ele><time>2026-05-02T13:47:47.999Z</time></trkpt><trkpt lat="43.8111974145083" lon="12.284284596082289"><ele>720.0</ele><time>2026-05-02T13:47:48.999Z</time></trkpt><trkpt lat="43.81133175862811" lon="12.284134438801964"><ele>720.0</ele><time>2026-05-02T13:47:49.999Z</time></trkpt><trkpt lat="43.81144612881725" lon="12.283948698389404"><ele>720.0</ele><time>2026-05-02T13:47:50.999Z</time></trkpt><trkpt lat="43.811548841990415" lon="12.283711906904994"><ele>715.3333333333334</ele><time>2026-05-02T13:47:51.999Z</time></trkpt><trkpt lat="43.81166107231123" lon="12.283465432727812"><ele>710.6666666666667</ele><time>2026-05-02T13:47:52.999Z</time></trkpt><trkpt lat="43.811752260284834" lon="12.283246372177572"><ele>706.0</ele><time>2026-05-02T13:47:53.999Z</time></trkpt><trkpt lat="43.81181363106039" lon="12.283024221399074"><ele>707.75</ele><time>2026-05-02T13:47:54.999Z</time></trkpt><trkpt lat="43.81186264422196" lon="12.282816644322578"><ele>709.5</ele><time>2026-05-02T13:47:55.999Z</time></trkpt><trkpt lat="43.811914284041656" lon="12.282636287431812"><ele>711.25</ele><time>2026-05-02T13:47:56.999Z</time></trkpt><trkpt lat="43.81197414057381" lon="12.282501045595886"><ele>713.0</ele><time>2026-05-02T13:47:57.999Z</time></trkpt><trkpt lat="43.81206986382333" lon="12.282436840561084"><ele>713.0</ele><time>2026-05-02T13:47:58.999Z</time></trkpt><trkpt lat="43.81217617829771" lon="12.282349603245192"><ele>713.0</ele><time>2026-05-02T13:47:59.999Z</time></trkpt><trkpt lat="43.81232197977994" lon="12.282261789090564"><ele>713.0</ele><time>2026-05-02T13:48:00.999Z</time></trkpt><trkpt lat="43.81248820788759" lon="12.282163997261126"><ele>708.0</ele><time>2026-05-02T13:48:01.999Z</time></trkpt><trkpt lat="43.81265746940089" lon="12.282052340488981"><ele>703.0</ele><time>2026-05-02T13:48:02.999Z</time></trkpt><trkpt lat="43.81281460702362" lon="12.281924348999597"><ele>698.0</ele><time>2026-05-02T13:48:03.999Z</time></trkpt><trkpt lat="43.812915626034595" lon="12.281762441651194"><ele>698.0</ele><time>2026-05-02T13:48:04.999Z</time></trkpt><trkpt lat="43.813021478599616" lon="12.281669529598243"><ele>698.0</ele><time>2026-05-02T13:48:05.999Z</time></trkpt><trkpt lat="43.81313311566047" lon="12.281629469217766"><ele>698.0</ele><time>2026-05-02T13:48:06.999Z</time></trkpt><trkpt lat="43.81328508540944" lon="12.28162024000776"><ele>698.0</ele><time>2026-05-02T13:48:07.999Z</time></trkpt><trkpt lat="43.81346182262343" lon="12.2815656974945"><ele>697.3333333333333</ele><time>2026-05-02T13:48:08.999Z</time></trkpt><trkpt lat="43.81365594437757" lon="12.28147722008384"><ele>696.6666666666666</ele><time>2026-05-02T13:48:09.999Z</time></trkpt><trkpt lat="43.81386176155815" lon="12.28137767065975"><ele>696.0</ele><time>2026-05-02T13:48:10.999Z</time></trkpt><trkpt lat="43.814074587002345" lon="12.281293275108256"><ele>687.3333333333334</ele><time>2026-05-02T13:48:11.999Z</time></trkpt><trkpt lat="43.81427209636258" lon="12.281229403931562"><ele>678.6666666666667</ele><time>2026-05-02T13:48:12.999Z</time></trkpt><trkpt lat="43.81443695854195" lon="12.281170153007105"><ele>670.0</ele><time>2026-05-02T13:48:13.999Z</time></trkpt><trkpt lat="43.8145649290415" lon="12.281116639585655"><ele>669.4</ele><time>2026-05-02T13:48:14.999Z</time></trkpt><trkpt lat="43.81466274428392" lon="12.281075740208596"><ele>668.8</ele><time>2026-05-02T13:48:15.999Z</time></trkpt><trkpt lat="43.81472670394305" lon="12.281075324121662"><ele>668.2</ele><time>2026-05-02T13:48:16.999Z</time></trkpt><trkpt lat="43.81479319759766" lon="12.281109091904119"><ele>667.6</ele><time>2026-05-02T13:48:17.999Z</time></trkpt><trkpt lat="43.81485292806702" lon="12.281225960352826"><ele>667.0</ele><time>2026-05-02T13:48:18.999Z</time></trkpt><trkpt lat="43.81488740264368" lon="12.281411053256647"><ele>667.8</ele><time>2026-05-02T13:48:19.999Z</time></trkpt><trkpt lat="43.81491788879314" lon="12.281603944647918"><ele>668.6</ele><time>2026-05-02T13:48:20.999Z</time></trkpt><trkpt lat="43.814936481656204" lon="12.281707744072207"><ele>669.4</ele><time>2026-05-02T13:48:21.999Z</time></trkpt><trkpt lat="43.8149785702985" lon="12.28178617559411"><ele>670.1999999999999</ele><time>2026-05-02T13:48:22.999Z</time></trkpt><trkpt lat="43.815076151437744" lon="12.281742229440903"><ele>671.0</ele><time>2026-05-02T13:48:23.998Z</time></trkpt><trkpt lat="43.81512877515054" lon="12.281671410071553"><ele>671.0</ele><time>2026-05-02T13:48:24.998Z</time></trkpt><trkpt lat="43.815127831729406" lon="12.28150620394489"><ele>671.0</ele><time>2026-05-02T13:48:25.998Z</time></trkpt><trkpt lat="43.81513097408825" lon="12.28130211622866"><ele>671.0</ele><time>2026-05-02T13:48:26.998Z</time></trkpt><trkpt lat="43.81514185141118" lon="12.28110109743751"><ele>671.0</ele><time>2026-05-02T13:48:28Z</time></trkpt><trkpt lat="43.815149369122025" lon="12.280897929797018"><ele>666.75</ele><time>2026-05-02T13:48:29Z</time></trkpt><trkpt lat="43.81516743650868" lon="12.280719028298083"><ele>662.5</ele><time>2026-05-02T13:48:30Z</time></trkpt><trkpt lat="43.81522903499996" lon="12.2805657689916"><ele>658.25</ele><time>2026-05-02T13:48:31Z</time></trkpt><trkpt lat="43.81530368936157" lon="12.280440351272208"><ele>654.0</ele><time>2026-05-02T13:48:32Z</time></trkpt><trkpt lat="43.81538127678218" lon="12.280336876235054"><ele>653.5</ele><time>2026-05-02T13:48:33Z</time></trkpt><trkpt lat="43.81548140452856" lon="12.280349892191527"><ele>653.0</ele><time>2026-05-02T13:48:34Z</time></trkpt><trkpt lat="43.815591899118175" lon="12.280376025350064"><ele>652.5</ele><time>2026-05-02T13:48:35Z</time></trkpt><trkpt lat="43.8157237228172" lon="12.28044840408271"><ele>652.0</ele><time>2026-05-02T13:48:36Z</time></trkpt><trkpt lat="43.815851556460785" lon="12.280493814007674"><ele>652.0</ele><time>2026-05-02T13:48:37Z</time></trkpt><trkpt lat="43.81594554944083" lon="12.280496059402688"><ele>652.0</ele><time>2026-05-02T13:48:38Z</time></trkpt><trkpt lat="43.816022141172496" lon="12.280395432526253"><ele>652.0</ele><time>2026-05-02T13:48:39Z</time></trkpt><trkpt lat="43.81609108318034" lon="12.280183242937397"><ele>652.0</ele><time>2026-05-02T13:48:40Z</time></trkpt><trkpt lat="43.81616812180211" lon="12.279964069575229"><ele>647.5</ele><time>2026-05-02T13:48:41Z</time></trkpt><trkpt lat="43.8162158893456" lon="12.279752584117201"><ele>643.0</ele><time>2026-05-02T13:48:42Z</time></trkpt><trkpt lat="43.81622241503691" lon="12.279591838618824"><ele>638.5</ele><time>2026-05-02T13:48:43Z</time></trkpt><trkpt lat="43.81620004430022" lon="12.279469885491384"><ele>634.0</ele><time>2026-05-02T13:48:44Z</time></trkpt><trkpt lat="43.816111269677215" lon="12.279384763282067"><ele>634.0</ele><time>2026-05-02T13:48:45Z</time></trkpt><trkpt lat="43.816006039974674" lon="12.279369942156542"><ele>634.0</ele><time>2026-05-02T13:48:46Z</time></trkpt><trkpt lat="43.815883105634754" lon="12.279452893058293"><ele>634.0</ele><time>2026-05-02T13:48:47Z</time></trkpt><trkpt lat="43.815769868174165" lon="12.279516380103907"><ele>634.0</ele><time>2026-05-02T13:48:48Z</time></trkpt><trkpt lat="43.81564166703498" lon="12.279439515903634"><ele>635.75</ele><time>2026-05-02T13:48:48.999Z</time></trkpt><trkpt lat="43.81546985291878" lon="12.279373850484342"><ele>637.5</ele><time>2026-05-02T13:48:49.999Z</time></trkpt><trkpt lat="43.8153283173389" lon="12.27932693429652"><ele>639.25</ele><time>2026-05-02T13:48:50.999Z</time></trkpt><trkpt lat="43.81524344824768" lon="12.2792562797908"><ele>641.0</ele><time>2026-05-02T13:48:51.999Z</time></trkpt><trkpt lat="43.8151967455844" lon="12.279160070737197"><ele>641.0</ele><time>2026-05-02T13:48:52.999Z</time></trkpt><trkpt lat="43.815205634737865" lon="12.279044750043477"><ele>641.0</ele><time>2026-05-02T13:48:53.999Z</time></trkpt><trkpt lat="43.8152433974164" lon="12.278954002577336"><ele>641.0</ele><time>2026-05-02T13:48:54.999Z</time></trkpt><trkpt lat="43.815395160777754" lon="12.278922345252392"><ele>641.0</ele><time>2026-05-02T13:48:55.999Z</time></trkpt><trkpt lat="43.81552764434202" lon="12.278853147460921"><ele>638.0</ele><time>2026-05-02T13:48:56.999Z</time></trkpt><trkpt lat="43.81567055906168" lon="12.27877476640378"><ele>635.0</ele><time>2026-05-02T13:48:57.999Z</time></trkpt><trkpt lat="43.81578458747099" lon="12.278677153701606"><ele>632.0</ele><time>2026-05-02T13:48:58.999Z</time></trkpt><trkpt lat="43.81585073400043" lon="12.278584824449064"><ele>629.0</ele><time>2026-05-02T13:48:59.999Z</time></trkpt><trkpt lat="43.8159087354898" lon="12.278473662088391"><ele>629.0</ele><time>2026-05-02T13:49:00.999Z</time></trkpt><trkpt lat="43.81597603179911" lon="12.278340377539351"><ele>629.0</ele><time>2026-05-02T13:49:01.999Z</time></trkpt><trkpt lat="43.816058455491515" lon="12.27819408934638"><ele>629.0</ele><time>2026-05-02T13:49:02.999Z</time></trkpt><trkpt lat="43.816147987478196" lon="12.27803692745834"><ele>629.0</ele><time>2026-05-02T13:49:03.999Z</time></trkpt><trkpt lat="43.81624122358102" lon="12.277873020757715"><ele>627.0</ele><time>2026-05-02T13:49:04.999Z</time></trkpt><trkpt lat="43.81633592682995" lon="12.277709361744229"><ele>625.0</ele><time>2026-05-02T13:49:05.999Z</time></trkpt><trkpt lat="43.81642168754601" lon="12.277556091285984"><ele>623.0</ele><time>2026-05-02T13:49:06.999Z</time></trkpt><trkpt lat="43.81650791013923" lon="12.277398014531645"><ele>621.0</ele><time>2026-05-02T13:49:07.999Z</time></trkpt><trkpt lat="43.81660266914822" lon="12.277244069558524"><ele>619.5</ele><time>2026-05-02T13:49:08.999Z</time></trkpt><trkpt lat="43.81669470816529" lon="12.27709914284251"><ele>618.0</ele><time>2026-05-02T13:49:09.999Z</time></trkpt><trkpt lat="43.816791533260634" lon="12.276954017667752"><ele>616.5</ele><time>2026-05-02T13:49:10.999Z</time></trkpt><trkpt lat="43.8168845664343" lon="12.276815557145389"><ele>615.0</ele><time>2026-05-02T13:49:11.999Z</time></trkpt><trkpt lat="43.81697589073136" lon="12.27668842312942"><ele>614.75</ele><time>2026-05-02T13:49:12.999Z</time></trkpt><trkpt lat="43.81707119277919" lon="12.27656920611301"><ele>614.5</ele><time>2026-05-02T13:49:13.999Z</time></trkpt><trkpt lat="43.8171643021992" lon="12.276449741515547"><ele>614.25</ele><time>2026-05-02T13:49:14.999Z</time></trkpt><trkpt lat="43.817259535967835" lon="12.276329324415139"><ele>614.0</ele><time>2026-05-02T13:49:15.999Z</time></trkpt><trkpt lat="43.81735418384877" lon="12.276211754523846"><ele>613.5</ele><time>2026-05-02T13:49:16.999Z</time></trkpt><trkpt lat="43.817448857700136" lon="12.276092229569356"><ele>613.0</ele><time>2026-05-02T13:49:17.999Z</time></trkpt><trkpt lat="43.81754271597529" lon="12.27597745563037"><ele>612.5</ele><time>2026-05-02T13:49:18.999Z</time></trkpt><trkpt lat="43.81763915364518" lon="12.275858009791193"><ele>612.0</ele><time>2026-05-02T13:49:19.999Z</time></trkpt><trkpt lat="43.81773281037924" lon="12.275739377594835"><ele>612.0</ele><time>2026-05-02T13:49:20.999Z</time></trkpt><trkpt lat="43.81783503747198" lon="12.275611513844288"><ele>612.0</ele><time>2026-05-02T13:49:21.999Z</time></trkpt><trkpt lat="43.81793033006341" lon="12.275489728085732"><ele>612.0</ele><time>2026-05-02T13:49:22.999Z</time></trkpt><trkpt lat="43.81803074587369" lon="12.275365716854758"><ele>612.0</ele><time>2026-05-02T13:49:23.999Z</time></trkpt><trkpt lat="43.818129316113506" lon="12.275242352376926"><ele>611.0</ele><time>2026-05-02T13:49:24.999Z</time></trkpt><trkpt lat="43.81822796647774" lon="12.275120660390769"><ele>610.0</ele><time>2026-05-02T13:49:25.999Z</time></trkpt><trkpt lat="43.81832631943602" lon="12.274995192177396"><ele>609.0</ele><time>2026-05-02T13:49:26.999Z</time></trkpt><trkpt lat="43.81841619210592" lon="12.274864221312853"><ele>608.0</ele><time>2026-05-02T13:49:27.999Z</time></trkpt><trkpt lat="43.818472266976904" lon="12.274714071306951"><ele>606.75</ele><time>2026-05-02T13:49:28.999Z</time></trkpt><trkpt lat="43.818490919412255" lon="12.274535338391628"><ele>605.5</ele><time>2026-05-02T13:49:29.999Z</time></trkpt><trkpt lat="43.81848171484264" lon="12.274338604264813"><ele>604.25</ele><time>2026-05-02T13:49:30.999Z</time></trkpt><trkpt lat="43.81846465341593" lon="12.274117424605"><ele>603.0</ele><time>2026-05-02T13:49:31.999Z</time></trkpt><trkpt lat="43.818471197614805" lon="12.27389812623052"><ele>606.3333333333334</ele><time>2026-05-02T13:49:32.999Z</time></trkpt><trkpt lat="43.81849817201188" lon="12.273682851730804"><ele>609.6666666666667</ele><time>2026-05-02T13:49:33.999Z</time></trkpt><trkpt lat="43.81853712811252" lon="12.273468223111605"><ele>613.0</ele><time>2026-05-02T13:49:34.999Z</time></trkpt><trkpt lat="43.81858939034852" lon="12.273250152839411"><ele>610.6666666666667</ele><time>2026-05-02T13:49:35.999Z</time></trkpt><trkpt lat="43.81864184320151" lon="12.273038661002865"><ele>608.3333333333334</ele><time>2026-05-02T13:49:36.999Z</time></trkpt><trkpt lat="43.81869239192735" lon="12.272832262914886"><ele>606.0</ele><time>2026-05-02T13:49:37.999Z</time></trkpt><trkpt lat="43.81873491227769" lon="12.272630243719213"><ele>606.0</ele><time>2026-05-02T13:49:38.999Z</time></trkpt><trkpt lat="43.81877065653999" lon="12.272432311832558"><ele>606.0</ele><time>2026-05-02T13:49:39.999Z</time></trkpt><trkpt lat="43.818799957975166" lon="12.27224602371667"><ele>606.0</ele><time>2026-05-02T13:49:40.999Z</time></trkpt><trkpt lat="43.81881394804171" lon="12.27205642538034"><ele>606.0</ele><time>2026-05-02T13:49:41.999Z</time></trkpt><trkpt lat="43.818796308199246" lon="12.27187098347061"><ele>604.5</ele><time>2026-05-02T13:49:42.999Z</time></trkpt><trkpt lat="43.81876236274817" lon="12.271687995022527"><ele>603.0</ele><time>2026-05-02T13:49:43.999Z</time></trkpt><trkpt lat="43.81872248676472" lon="12.271518543558615"><ele>601.5</ele><time>2026-05-02T13:49:44.999Z</time></trkpt><trkpt lat="43.818686390305764" lon="12.271365119860054"><ele>600.0</ele><time>2026-05-02T13:49:45.999Z</time></trkpt><trkpt lat="43.81864951482121" lon="12.27121078014257"><ele>598.4</ele><time>2026-05-02T13:49:46.999Z</time></trkpt><trkpt lat="43.81861421403122" lon="12.271061829747051"><ele>596.8</ele><time>2026-05-02T13:49:47.999Z</time></trkpt><trkpt lat="43.818580343485245" lon="12.270918512508816"><ele>595.2</ele><time>2026-05-02T13:49:48.999Z</time></trkpt><trkpt lat="43.81855269611552" lon="12.270777238511402"><ele>593.6</ele><time>2026-05-02T13:49:49.999Z</time></trkpt><trkpt lat="43.818522094733865" lon="12.270640825666261"><ele>592.0</ele><time>2026-05-02T13:49:50.999Z</time></trkpt><trkpt lat="43.8184878207084" lon="12.270504652424401"><ele>590.75</ele><time>2026-05-02T13:49:51.999Z</time></trkpt><trkpt lat="43.818452441137" lon="12.270368071816343"><ele>589.5</ele><time>2026-05-02T13:49:52.999Z</time></trkpt><trkpt lat="43.81841902946556" lon="12.270229702636055"><ele>588.25</ele><time>2026-05-02T13:49:53.999Z</time></trkpt><trkpt lat="43.818386255723425" lon="12.270079755504478"><ele>587.0</ele><time>2026-05-02T13:49:54.999Z</time></trkpt><trkpt lat="43.81834886299637" lon="12.269910615134664"><ele>586.75</ele><time>2026-05-02T13:49:55.999Z</time></trkpt><trkpt lat="43.81830870804321" lon="12.26974070251169"><ele>586.5</ele><time>2026-05-02T13:49:56.999Z</time></trkpt><trkpt lat="43.81827507010486" lon="12.269578880074116"><ele>586.25</ele><time>2026-05-02T13:49:57.999Z</time></trkpt><trkpt lat="43.81824058833198" lon="12.269411824984182"><ele>586.0</ele><time>2026-05-02T13:49:58.999Z</time></trkpt><trkpt lat="43.81820674846949" lon="12.269254084066775"><ele>586.0</ele><time>2026-05-02T13:49:59.999Z</time></trkpt><trkpt lat="43.81817640294891" lon="12.269095621379883"><ele>586.0</ele><time>2026-05-02T13:50:00.999Z</time></trkpt><trkpt lat="43.81814750551226" lon="12.268937335653465"><ele>586.0</ele><time>2026-05-02T13:50:01.999Z</time></trkpt><trkpt lat="43.818114788041534" lon="12.268780126129451"><ele>586.0</ele><time>2026-05-02T13:50:02.999Z</time></trkpt><trkpt lat="43.8180825265848" lon="12.268615362978068"><ele>584.5</ele><time>2026-05-02T13:50:03.999Z</time></trkpt><trkpt lat="43.81805335606343" lon="12.2684546634954"><ele>583.0</ele><time>2026-05-02T13:50:04.999Z</time></trkpt><trkpt lat="43.81802949927227" lon="12.268288350895102"><ele>581.5</ele><time>2026-05-02T13:50:05.999Z</time></trkpt><trkpt lat="43.81802081898929" lon="12.268119473118599"><ele>580.0</ele><time>2026-05-02T13:50:06.999Z</time></trkpt><trkpt lat="43.81803148212367" lon="12.267947309214506"><ele>578.8</ele><time>2026-05-02T13:50:07.999Z</time></trkpt><trkpt lat="43.818054517042256" lon="12.267782491846104"><ele>577.6</ele><time>2026-05-02T13:50:08.999Z</time></trkpt><trkpt lat="43.818076332861345" lon="12.26763290716286"><ele>576.4</ele><time>2026-05-02T13:50:09.999Z</time></trkpt><trkpt lat="43.81809188385363" lon="12.267501411088402"><ele>575.2</ele><time>2026-05-02T13:50:10.999Z</time></trkpt><trkpt lat="43.81811340073669" lon="12.267391770638362"><ele>574.0</ele><time>2026-05-02T13:50:11.999Z</time></trkpt><trkpt lat="43.81815489247314" lon="12.267294024031791"><ele>572.6666666666667</ele><time>2026-05-02T13:50:12.999Z</time></trkpt><trkpt lat="43.81822830078708" lon="12.26722375438625"><ele>571.3333333333334</ele><time>2026-05-02T13:50:13.999Z</time></trkpt><trkpt lat="43.818318287862795" lon="12.267160195295153"><ele>570.0</ele><time>2026-05-02T13:50:14.999Z</time></trkpt><trkpt lat="43.818402256892334" lon="12.26710849720638"><ele>568.6666666666666</ele><time>2026-05-02T13:50:15.999Z</time></trkpt><trkpt lat="43.81847569077557" lon="12.267054837052358"><ele>567.3333333333333</ele><time>2026-05-02T13:50:16.999Z</time></trkpt><trkpt lat="43.81854237147503" lon="12.267003325605241"><ele>566.0</ele><time>2026-05-02T13:50:17.999Z</time></trkpt><trkpt lat="43.81859920872026" lon="12.266961209852163"><ele>565.5</ele><time>2026-05-02T13:50:18.999Z</time></trkpt><trkpt lat="43.81872061981346" lon="12.26688724386077"><ele>565.0</ele><time>2026-05-02T13:50:20.999Z</time></trkpt><trkpt lat="43.81882543133846" lon="12.266821357204883"><ele>564.5</ele><time>2026-05-02T13:50:22.999Z</time></trkpt><trkpt lat="43.81889789370952" lon="12.266759243186307"><ele>564.0</ele><time>2026-05-02T13:50:24.998Z</time></trkpt><trkpt lat="43.81901143384848" lon="12.266657065154607"><ele>564.0</ele><time>2026-05-02T13:50:26.998Z</time></trkpt><trkpt lat="43.81908490844144" lon="12.266586889640077"><ele>564.0</ele><time>2026-05-02T13:50:27.998Z</time></trkpt><trkpt lat="43.81915860785429" lon="12.266518653693613"><ele>564.0</ele><time>2026-05-02T13:50:28.998Z</time></trkpt><trkpt lat="43.819239146279074" lon="12.266443944915663"><ele>564.0</ele><time>2026-05-02T13:50:29.998Z</time></trkpt><trkpt lat="43.819331666364526" lon="12.266384147478137"><ele>564.0</ele><time>2026-05-02T13:50:30.998Z</time></trkpt><trkpt lat="43.81943004279539" lon="12.266351551634331"><ele>560.6</ele><time>2026-05-02T13:50:31.998Z</time></trkpt><trkpt lat="43.819537741548665" lon="12.266375219349976"><ele>557.2</ele><time>2026-05-02T13:50:32.998Z</time></trkpt><trkpt lat="43.81964404959027" lon="12.266379176481252"><ele>553.8000000000001</ele><time>2026-05-02T13:50:34Z</time></trkpt><trkpt lat="43.819748907457964" lon="12.266411250145886"><ele>550.4</ele><time>2026-05-02T13:50:35Z</time></trkpt><trkpt lat="43.81985734222131" lon="12.266430501784294"><ele>547.0</ele><time>2026-05-02T13:50:35.999Z</time></trkpt><trkpt lat="43.819967547272704" lon="12.266444088196513"><ele>546.5</ele><time>2026-05-02T13:50:36.999Z</time></trkpt><trkpt lat="43.820083443657076" lon="12.266459610041432"><ele>546.0</ele><time>2026-05-02T13:50:37.999Z</time></trkpt><trkpt lat="43.82020254553704" lon="12.266456946292921"><ele>545.5</ele><time>2026-05-02T13:50:38.999Z</time></trkpt><trkpt lat="43.820313268963766" lon="12.266445556828625"><ele>545.0</ele><time>2026-05-02T13:50:39.999Z</time></trkpt><trkpt lat="43.82041946479666" lon="12.266440779257085"><ele>546.4</ele><time>2026-05-02T13:50:40.999Z</time></trkpt><trkpt lat="43.820519526103524" lon="12.266450183988145"><ele>547.8</ele><time>2026-05-02T13:50:41.999Z</time></trkpt><trkpt lat="43.82061330470199" lon="12.266464774801804"><ele>549.2</ele><time>2026-05-02T13:50:42.999Z</time></trkpt><trkpt lat="43.82070740744958" lon="12.26648397646777"><ele>550.6</ele><time>2026-05-02T13:50:43.999Z</time></trkpt><trkpt lat="43.82080216491098" lon="12.266522801157791"><ele>552.0</ele><time>2026-05-02T13:50:44.999Z</time></trkpt><trkpt lat="43.82090317947841" lon="12.266561146325248"><ele>550.25</ele><time>2026-05-02T13:50:45.999Z</time></trkpt><trkpt lat="43.821010598485415" lon="12.266589840689177"><ele>548.5</ele><time>2026-05-02T13:50:46.999Z</time></trkpt><trkpt lat="43.821135030125895" lon="12.266624693021253"><ele>546.75</ele><time>2026-05-02T13:50:47.999Z</time></trkpt><trkpt lat="43.82126979414102" lon="12.266668806220206"><ele>545.0</ele><time>2026-05-02T13:50:48.999Z</time></trkpt><trkpt lat="43.821407019742075" lon="12.266713117012811"><ele>545.0</ele><time>2026-05-02T13:50:49.999Z</time></trkpt><trkpt lat="43.821562335771176" lon="12.266755763261845"><ele>545.0</ele><time>2026-05-02T13:50:50.999Z</time></trkpt><trkpt lat="43.82172247946997" lon="12.266804211425459"><ele>545.0</ele><time>2026-05-02T13:50:51.999Z</time></trkpt><trkpt lat="43.821886971841806" lon="12.26685859690699"><ele>541.3333333333333</ele><time>2026-05-02T13:50:52.999Z</time></trkpt><trkpt lat="43.822041400111296" lon="12.266938109855282"><ele>537.6666666666666</ele><time>2026-05-02T13:50:53.999Z</time></trkpt><trkpt lat="43.822182531141365" lon="12.267019396745091"><ele>534.0</ele><time>2026-05-02T13:50:54.999Z</time></trkpt><trkpt lat="43.82231519444957" lon="12.267144715638501"><ele>533.3333333333334</ele><time>2026-05-02T13:50:55.999Z</time></trkpt><trkpt lat="43.822455028001414" lon="12.267296085040423"><ele>532.6666666666667</ele><time>2026-05-02T13:50:56.999Z</time></trkpt><trkpt lat="43.822612094895966" lon="12.26744886065832"><ele>532.0</ele><time>2026-05-02T13:50:57.999Z</time></trkpt><trkpt lat="43.82277676574828" lon="12.267602345117115"><ele>532.0</ele><time>2026-05-02T13:50:58.999Z</time></trkpt><trkpt lat="43.822956782691755" lon="12.26771885508293"><ele>532.0</ele><time>2026-05-02T13:50:59.999Z</time></trkpt><trkpt lat="43.823161949785316" lon="12.267805427478594"><ele>532.0</ele><time>2026-05-02T13:51:00.999Z</time></trkpt><trkpt lat="43.82336618342767" lon="12.267885144479438"><ele>534.0</ele><time>2026-05-02T13:51:01.999Z</time></trkpt><trkpt lat="43.823575032900436" lon="12.267968255999126"><ele>536.0</ele><time>2026-05-02T13:51:02.999Z</time></trkpt><trkpt lat="43.82378992605132" lon="12.268063707837028"><ele>538.0</ele><time>2026-05-02T13:51:03.999Z</time></trkpt><trkpt lat="43.82400427599527" lon="12.268155989602555"><ele>538.0</ele><time>2026-05-02T13:51:04.999Z</time></trkpt><trkpt lat="43.82421805801739" lon="12.26824367096191"><ele>538.0</ele><time>2026-05-02T13:51:05.999Z</time></trkpt><trkpt lat="43.82443511642059" lon="12.268352572945432"><ele>533.6666666666667</ele><time>2026-05-02T13:51:06.999Z</time></trkpt><trkpt lat="43.824625366485954" lon="12.268440430427228"><ele>529.3333333333334</ele><time>2026-05-02T13:51:07.999Z</time></trkpt><trkpt lat="43.82478850482955" lon="12.268556553285112"><ele>525.0</ele><time>2026-05-02T13:51:08.999Z</time></trkpt><trkpt lat="43.82492122136488" lon="12.268718515860753"><ele>525.0</ele><time>2026-05-02T13:51:09.999Z</time></trkpt><trkpt lat="43.82502299545602" lon="12.268891574955848"><ele>525.0</ele><time>2026-05-02T13:51:10.999Z</time></trkpt><trkpt lat="43.82511026257882" lon="12.269098667310045"><ele>525.0</ele><time>2026-05-02T13:51:11.999Z</time></trkpt><trkpt lat="43.82516418324437" lon="12.26937451698421"><ele>520.0</ele><time>2026-05-02T13:51:12.999Z</time></trkpt><trkpt lat="43.82520223176101" lon="12.269696982751407"><ele>515.0</ele><time>2026-05-02T13:51:13.999Z</time></trkpt><trkpt lat="43.82522598662666" lon="12.270038806601256"><ele>515.0</ele><time>2026-05-02T13:51:14.999Z</time></trkpt><trkpt lat="43.82525561979931" lon="12.270336180952883"><ele>515.0</ele><time>2026-05-02T13:51:15.999Z</time></trkpt><trkpt lat="43.82531999356301" lon="12.270624594605898"><ele>515.0</ele><time>2026-05-02T13:51:16.999Z</time></trkpt><trkpt lat="43.82539357195777" lon="12.270870732835972"><ele>514.6666666666666</ele><time>2026-05-02T13:51:17.999Z</time></trkpt><trkpt lat="43.825432228521066" lon="12.271120114846799"><ele>514.3333333333334</ele><time>2026-05-02T13:51:18.999Z</time></trkpt><trkpt lat="43.825408126794976" lon="12.27136021612947"><ele>514.0</ele><time>2026-05-02T13:51:19.999Z</time></trkpt><trkpt lat="43.825376414071634" lon="12.271608030164067"><ele>514.0</ele><time>2026-05-02T13:51:20.999Z</time></trkpt><trkpt lat="43.82535186147199" lon="12.271895044840285"><ele>514.0</ele><time>2026-05-02T13:51:21.999Z</time></trkpt><trkpt lat="43.825320816340266" lon="12.272186088478804"><ele>514.0</ele><time>2026-05-02T13:51:22.999Z</time></trkpt><trkpt lat="43.82530672588728" lon="12.272494346852529"><ele>511.0</ele><time>2026-05-02T13:51:23.999Z</time></trkpt><trkpt lat="43.82530251152427" lon="12.272810292409913"><ele>508.0</ele><time>2026-05-02T13:51:24.999Z</time></trkpt><trkpt lat="43.82529931433563" lon="12.273117895155437"><ele>506.0</ele><time>2026-05-02T13:51:25.999Z</time></trkpt><trkpt lat="43.82529217650241" lon="12.273404183424265"><ele>504.0</ele><time>2026-05-02T13:51:26.999Z</time></trkpt><trkpt lat="43.82528445021614" lon="12.273625635564022"><ele>502.0</ele><time>2026-05-02T13:51:27.999Z</time></trkpt><trkpt lat="43.82524935089209" lon="12.273834530353884"><ele>501.33333333333337</ele><time>2026-05-02T13:51:28.999Z</time></trkpt><trkpt lat="43.82519637511352" lon="12.274045173350418"><ele>500.66666666666663</ele><time>2026-05-02T13:51:29.999Z</time></trkpt><trkpt lat="43.82511186168838" lon="12.27423821866752"><ele>500.0</ele><time>2026-05-02T13:51:30.999Z</time></trkpt><trkpt lat="43.82499485718903" lon="12.274443271402511"><ele>504.66666666666663</ele><time>2026-05-02T13:51:31.999Z</time></trkpt><trkpt lat="43.82488578457529" lon="12.274661656867945"><ele>509.33333333333337</ele><time>2026-05-02T13:51:32.999Z</time></trkpt><trkpt lat="43.82475895218256" lon="12.274877305320361"><ele>514.0</ele><time>2026-05-02T13:51:34Z</time></trkpt><trkpt lat="43.824638470186805" lon="12.275073266889219"><ele>514.0</ele><time>2026-05-02T13:51:35Z</time></trkpt><trkpt lat="43.82454705420084" lon="12.275232963056364"><ele>514.0</ele><time>2026-05-02T13:51:36Z</time></trkpt><trkpt lat="43.82447716624485" lon="12.275387633535178"><ele>514.0</ele><time>2026-05-02T13:51:37Z</time></trkpt><trkpt lat="43.82443884038724" lon="12.27557287782373"><ele>514.0</ele><time>2026-05-02T13:51:38Z</time></trkpt><trkpt lat="43.82445352634078" lon="12.275779459353808"><ele>511.33333333333337</ele><time>2026-05-02T13:51:39Z</time></trkpt><trkpt lat="43.82450354094077" lon="12.276005764850204"><ele>508.66666666666663</ele><time>2026-05-02T13:51:40Z</time></trkpt><trkpt lat="43.82456717986099" lon="12.276239796010778"><ele>506.0</ele><time>2026-05-02T13:51:41Z</time></trkpt><trkpt lat="43.8246068145126" lon="12.276445996984338"><ele>505.75</ele><time>2026-05-02T13:51:42Z</time></trkpt><trkpt lat="43.82459009118518" lon="12.276637050334497"><ele>505.5</ele><time>2026-05-02T13:51:43Z</time></trkpt><trkpt lat="43.82455814775867" lon="12.276820543594889"><ele>505.25</ele><time>2026-05-02T13:51:44Z</time></trkpt><trkpt lat="43.8244915780501" lon="12.276991118185357"><ele>505.0</ele><time>2026-05-02T13:51:45Z</time></trkpt><trkpt lat="43.82441047258744" lon="12.277174351798749"><ele>507.6666666666667</ele><time>2026-05-02T13:51:46Z</time></trkpt><trkpt lat="43.824325068695586" lon="12.277380763967178"><ele>510.33333333333337</ele><time>2026-05-02T13:51:47Z</time></trkpt><trkpt lat="43.824232902852685" lon="12.277583589564196"><ele>513.0</ele><time>2026-05-02T13:51:48Z</time></trkpt><trkpt lat="43.82418241738648" lon="12.277772705255458"><ele>513.0</ele><time>2026-05-02T13:51:49Z</time></trkpt><trkpt lat="43.824181032433685" lon="12.277965902370614"><ele>513.0</ele><time>2026-05-02T13:51:50Z</time></trkpt><trkpt lat="43.82422666018727" lon="12.278166819520719"><ele>513.0</ele><time>2026-05-02T13:51:51Z</time></trkpt><trkpt lat="43.824312814777414" lon="12.278393337147048"><ele>507.0</ele><time>2026-05-02T13:51:52Z</time></trkpt><trkpt lat="43.82441804475905" lon="12.278647986768828"><ele>501.0</ele><time>2026-05-02T13:51:53Z</time></trkpt><trkpt lat="43.824499079933304" lon="12.278895883851028"><ele>495.0</ele><time>2026-05-02T13:51:54Z</time></trkpt><trkpt lat="43.824568269190344" lon="12.279093770264707"><ele>495.0</ele><time>2026-05-02T13:51:55Z</time></trkpt><trkpt lat="43.824660971005976" lon="12.27925445805411"><ele>495.0</ele><time>2026-05-02T13:51:56Z</time></trkpt><trkpt lat="43.82479200614648" lon="12.279355195399194"><ele>495.0</ele><time>2026-05-02T13:51:57Z</time></trkpt><trkpt lat="43.824969870562455" lon="12.279411471733896"><ele>490.0</ele><time>2026-05-02T13:51:58Z</time></trkpt><trkpt lat="43.825167043762036" lon="12.279435609653047"><ele>485.0</ele><time>2026-05-02T13:51:59Z</time></trkpt><trkpt lat="43.82532913446394" lon="12.27944390152497"><ele>480.0</ele><time>2026-05-02T13:52:00Z</time></trkpt><trkpt lat="43.825458654330724" lon="12.279504425823133"><ele>480.0</ele><time>2026-05-02T13:52:01Z</time></trkpt><trkpt lat="43.82555509171551" lon="12.279640344465328"><ele>480.0</ele><time>2026-05-02T13:52:02Z</time></trkpt><trkpt lat="43.82561779490331" lon="12.27981618613531"><ele>480.0</ele><time>2026-05-02T13:52:03Z</time></trkpt><trkpt lat="43.82563981556069" lon="12.28002667244397"><ele>480.0</ele><time>2026-05-02T13:52:04Z</time></trkpt><trkpt lat="43.825617569298906" lon="12.280250742058891"><ele>482.0</ele><time>2026-05-02T13:52:05Z</time></trkpt><trkpt lat="43.8255991076765" lon="12.280486718766946"><ele>484.0</ele><time>2026-05-02T13:52:06Z</time></trkpt><trkpt lat="43.82560545009557" lon="12.280684858134618"><ele>486.0</ele><time>2026-05-02T13:52:07Z</time></trkpt><trkpt lat="43.82564157953425" lon="12.280848216779695"><ele>488.0</ele><time>2026-05-02T13:52:08Z</time></trkpt><trkpt lat="43.82572243431504" lon="12.281000715867506"><ele>488.66666666666663</ele><time>2026-05-02T13:52:09Z</time></trkpt><trkpt lat="43.82584024383296" lon="12.281116359008575"><ele>489.33333333333337</ele><time>2026-05-02T13:52:10Z</time></trkpt><trkpt lat="43.82598910890494" lon="12.281160322533685"><ele>490.0</ele><time>2026-05-02T13:52:11Z</time></trkpt><trkpt lat="43.82615027530714" lon="12.2811453691254"><ele>486.6666666666667</ele><time>2026-05-02T13:52:12Z</time></trkpt><trkpt lat="43.826331370873966" lon="12.281075985291688"><ele>483.33333333333337</ele><time>2026-05-02T13:52:13Z</time></trkpt><trkpt lat="43.826488309193195" lon="12.281046623786425"><ele>480.0</ele><time>2026-05-02T13:52:14Z</time></trkpt><trkpt lat="43.8266883419956" lon="12.281040223447228"><ele>478.0</ele><time>2026-05-02T13:52:15Z</time></trkpt><trkpt lat="43.826872146547224" lon="12.281167930665342"><ele>476.0</ele><time>2026-05-02T13:52:16Z</time></trkpt><trkpt lat="43.82704771809799" lon="12.281318153632835"><ele>474.0</ele><time>2026-05-02T13:52:17Z</time></trkpt><trkpt lat="43.82723491017361" lon="12.281478775687296"><ele>474.0</ele><time>2026-05-02T13:52:18Z</time></trkpt><trkpt lat="43.82739836005759" lon="12.281624644742342"><ele>474.0</ele><time>2026-05-02T13:52:19Z</time></trkpt><trkpt lat="43.827552443636705" lon="12.281684269499815"><ele>474.0</ele><time>2026-05-02T13:52:20Z</time></trkpt><trkpt lat="43.82770984628488" lon="12.281671988420053"><ele>475.33333333333337</ele><time>2026-05-02T13:52:21Z</time></trkpt><trkpt lat="43.827865719629095" lon="12.281569475586764"><ele>476.6666666666667</ele><time>2026-05-02T13:52:22Z</time></trkpt><trkpt lat="43.82802003639316" lon="12.281421876349349"><ele>478.0</ele><time>2026-05-02T13:52:22.999Z</time></trkpt><trkpt lat="43.828178581970214" lon="12.281228626887396"><ele>475.33333333333337</ele><time>2026-05-02T13:52:23.999Z</time></trkpt><trkpt lat="43.82834792681255" lon="12.28110829784973"><ele>472.66666666666663</ele><time>2026-05-02T13:52:24.999Z</time></trkpt><trkpt lat="43.82852102191716" lon="12.281056291825891"><ele>470.0</ele><time>2026-05-02T13:52:25.999Z</time></trkpt><trkpt lat="43.82872743252463" lon="12.281002762566576"><ele>469.5</ele><time>2026-05-02T13:52:26.999Z</time></trkpt><trkpt lat="43.828944923922606" lon="12.280935917003548"><ele>469.0</ele><time>2026-05-02T13:52:27.999Z</time></trkpt><trkpt lat="43.82917168973966" lon="12.280874501848986"><ele>468.6666666666667</ele><time>2026-05-02T13:52:28.999Z</time></trkpt><trkpt lat="43.8293940714435" lon="12.280838815061756"><ele>468.33333333333337</ele><time>2026-05-02T13:52:29.999Z</time></trkpt><trkpt lat="43.82961150373872" lon="12.280881066841467"><ele>468.0</ele><time>2026-05-02T13:52:30.999Z</time></trkpt><trkpt lat="43.82983605349216" lon="12.28088954142317"><ele>468.0</ele><time>2026-05-02T13:52:31.999Z</time></trkpt><trkpt lat="43.8300653929481" lon="12.280925135099263"><ele>468.0</ele><time>2026-05-02T13:52:32.999Z</time></trkpt><trkpt lat="43.83029611294103" lon="12.280948257760832"><ele>467.33333333333337</ele><time>2026-05-02T13:52:33.999Z</time></trkpt><trkpt lat="43.83051421678598" lon="12.28099827009911"><ele>466.6666666666667</ele><time>2026-05-02T13:52:34.999Z</time></trkpt><trkpt lat="43.83069256158552" lon="12.281039387485205"><ele>466.0</ele><time>2026-05-02T13:52:35.999Z</time></trkpt><trkpt lat="43.830846808898244" lon="12.281103735448257"><ele>466.0</ele><time>2026-05-02T13:52:36.999Z</time></trkpt><trkpt lat="43.83097403415132" lon="12.281212348449593"><ele>466.0</ele><time>2026-05-02T13:52:37.999Z</time></trkpt><trkpt lat="43.83109146941705" lon="12.28134480093398"><ele>466.0</ele><time>2026-05-02T13:52:38.999Z</time></trkpt><trkpt lat="43.831172591944004" lon="12.281536415041321"><ele>466.33333333333337</ele><time>2026-05-02T13:52:40Z</time></trkpt><trkpt lat="43.83124512691712" lon="12.28175846863829"><ele>466.66666666666663</ele><time>2026-05-02T13:52:41Z</time></trkpt><trkpt lat="43.83132832168293" lon="12.282004847353145"><ele>467.0</ele><time>2026-05-02T13:52:42Z</time></trkpt><trkpt lat="43.83142167987934" lon="12.282258304494176"><ele>467.66666666666663</ele><time>2026-05-02T13:52:43Z</time></trkpt><trkpt lat="43.83151594897311" lon="12.282514673316612"><ele>468.33333333333337</ele><time>2026-05-02T13:52:44Z</time></trkpt><trkpt lat="43.83159152180745" lon="12.28271918045592"><ele>469.0</ele><time>2026-05-02T13:52:45Z</time></trkpt><trkpt lat="43.83167634310372" lon="12.282871472889834"><ele>469.0</ele><time>2026-05-02T13:52:46Z</time></trkpt><trkpt lat="43.83180191839822" lon="12.282962557022653"><ele>469.0</ele><time>2026-05-02T13:52:47Z</time></trkpt><trkpt lat="43.83197101264905" lon="12.282978879401576"><ele>469.0</ele><time>2026-05-02T13:52:48Z</time></trkpt><trkpt lat="43.83217833690975" lon="12.282928666728928"><ele>470.0</ele><time>2026-05-02T13:52:49Z</time></trkpt><trkpt lat="43.832403948145135" lon="12.282891320490487"><ele>471.0</ele><time>2026-05-02T13:52:50Z</time></trkpt><trkpt lat="43.832658492853774" lon="12.282884177323401"><ele>471.0</ele><time>2026-05-02T13:52:51Z</time></trkpt><trkpt lat="43.83292582438402" lon="12.282867254467513"><ele>471.0</ele><time>2026-05-02T13:52:52Z</time></trkpt><trkpt lat="43.83319296764652" lon="12.282853486545006"><ele>471.0</ele><time>2026-05-02T13:52:53Z</time></trkpt><trkpt lat="43.83346200636317" lon="12.282837197708261"><ele>471.0</ele><time>2026-05-02T13:52:54Z</time></trkpt><trkpt lat="43.83371621149363" lon="12.282817433812795"><ele>470.33333333333337</ele><time>2026-05-02T13:52:55Z</time></trkpt><trkpt lat="43.83394765629293" lon="12.28280070547105"><ele>469.6666666666667</ele><time>2026-05-02T13:52:56Z</time></trkpt><trkpt lat="43.834162978826484" lon="12.282789727806009"><ele>469.0</ele><time>2026-05-02T13:52:57Z</time></trkpt><trkpt lat="43.834372709679485" lon="12.282777864171104"><ele>468.33333333333337</ele><time>2026-05-02T13:52:58Z</time></trkpt><trkpt lat="43.83458090579958" lon="12.282764237167125"><ele>467.66666666666663</ele><time>2026-05-02T13:52:59Z</time></trkpt><trkpt lat="43.83478483776857" lon="12.282749816595711"><ele>467.0</ele><time>2026-05-02T13:53:00Z</time></trkpt><trkpt lat="43.83499099820662" lon="12.282738191252239"><ele>466.0</ele><time>2026-05-02T13:53:01Z</time></trkpt><trkpt lat="43.83519461281808" lon="12.282729709507498"><ele>465.0</ele><time>2026-05-02T13:53:02Z</time></trkpt><trkpt lat="43.83540732201141" lon="12.28272124452942"><ele>464.0</ele><time>2026-05-02T13:53:03Z</time></trkpt><trkpt lat="43.835618076859646" lon="12.282732504180649"><ele>464.0</ele><time>2026-05-02T13:53:04Z</time></trkpt><trkpt lat="43.835824349572675" lon="12.28277530203021"><ele>464.0</ele><time>2026-05-02T13:53:05Z</time></trkpt><trkpt lat="43.836031241454485" lon="12.28282597950487"><ele>464.0</ele><time>2026-05-02T13:53:06Z</time></trkpt><trkpt lat="43.83624114669815" lon="12.282872981748737"><ele>463.66666666666663</ele><time>2026-05-02T13:53:07Z</time></trkpt><trkpt lat="43.83644699936039" lon="12.282915381251215"><ele>463.33333333333337</ele><time>2026-05-02T13:53:08Z</time></trkpt><trkpt lat="43.8366135309916" lon="12.282958909875319"><ele>463.0</ele><time>2026-05-02T13:53:09Z</time></trkpt><trkpt lat="43.83676901108656" lon="12.28301443096203"><ele>461.33333333333337</ele><time>2026-05-02T13:53:10Z</time></trkpt><trkpt lat="43.83690916745945" lon="12.283107579185536"><ele>459.66666666666663</ele><time>2026-05-02T13:53:11Z</time></trkpt><trkpt lat="43.83701663613562" lon="12.283261190472295"><ele>458.0</ele><time>2026-05-02T13:53:12Z</time></trkpt><trkpt lat="43.83714458764243" lon="12.283417689960098"><ele>458.0</ele><time>2026-05-02T13:53:13Z</time></trkpt><trkpt lat="43.837270917407665" lon="12.283597841872922"><ele>458.0</ele><time>2026-05-02T13:53:14Z</time></trkpt><trkpt lat="43.83740893522769" lon="12.283780700012892"><ele>458.0</ele><time>2026-05-02T13:53:15Z</time></trkpt><trkpt lat="43.837540821815665" lon="12.283955902282782"><ele>456.0</ele><time>2026-05-02T13:53:16Z</time></trkpt><trkpt lat="43.837664256055106" lon="12.284118620094173"><ele>454.0</ele><time>2026-05-02T13:53:17Z</time></trkpt><trkpt lat="43.837796169754796" lon="12.284285702479721"><ele>452.0</ele><time>2026-05-02T13:53:18Z</time></trkpt><trkpt lat="43.8379344260249" lon="12.284455612383812"><ele>452.0</ele><time>2026-05-02T13:53:19Z</time></trkpt><trkpt lat="43.83805184199514" lon="12.284614317771734"><ele>452.0</ele><time>2026-05-02T13:53:20Z</time></trkpt><trkpt lat="43.83816127855833" lon="12.284770296629224"><ele>452.0</ele><time>2026-05-02T13:53:21Z</time></trkpt><trkpt lat="43.83824488891213" lon="12.28494166659781"><ele>453.66666666666663</ele><time>2026-05-02T13:53:22Z</time></trkpt><trkpt lat="43.83831732781616" lon="12.285138634361754"><ele>455.33333333333337</ele><time>2026-05-02T13:53:23Z</time></trkpt><trkpt lat="43.83837938947091" lon="12.285352927769647"><ele>457.0</ele><time>2026-05-02T13:53:24Z</time></trkpt><trkpt lat="43.838445301202206" lon="12.285553844058455"><ele>456.75</ele><time>2026-05-02T13:53:25Z</time></trkpt><trkpt lat="43.83850450285927" lon="12.28570516139386"><ele>456.5</ele><time>2026-05-02T13:53:26Z</time></trkpt><trkpt lat="43.83857718122353" lon="12.285843497139645"><ele>456.25</ele><time>2026-05-02T13:53:27Z</time></trkpt><trkpt lat="43.8386873211683" lon="12.285927072774232"><ele>456.0</ele><time>2026-05-02T13:53:28Z</time></trkpt><trkpt lat="43.83883946494758" lon="12.285957409550605"><ele>456.0</ele><time>2026-05-02T13:53:29Z</time></trkpt><trkpt lat="43.83901125916721" lon="12.285962476806674"><ele>456.0</ele><time>2026-05-02T13:53:30Z</time></trkpt><trkpt lat="43.83919981347338" lon="12.285969765753526"><ele>456.0</ele><time>2026-05-02T13:53:31Z</time></trkpt><trkpt lat="43.83939460918267" lon="12.285994648187366"><ele>454.66666666666663</ele><time>2026-05-02T13:53:32Z</time></trkpt><trkpt lat="43.83960603613264" lon="12.286028259009301"><ele>453.3333333333333</ele><time>2026-05-02T13:53:33Z</time></trkpt><trkpt lat="43.839826099806814" lon="12.28606569679267"><ele>452.0</ele><time>2026-05-02T13:53:34Z</time></trkpt><trkpt lat="43.84003279684224" lon="12.286092008735798"><ele>452.66666666666663</ele><time>2026-05-02T13:53:35Z</time></trkpt><trkpt lat="43.840220735242184" lon="12.286099852438214"><ele>453.33333333333337</ele><time>2026-05-02T13:53:36Z</time></trkpt><trkpt lat="43.84040675753217" lon="12.286072726477101"><ele>454.0</ele><time>2026-05-02T13:53:37Z</time></trkpt><trkpt lat="43.84059970933246" lon="12.285992374756038"><ele>454.0</ele><time>2026-05-02T13:53:38Z</time></trkpt><trkpt lat="43.84079468947426" lon="12.285893305057929"><ele>454.0</ele><time>2026-05-02T13:53:39Z</time></trkpt><trkpt lat="43.840993499244775" lon="12.28577775241828"><ele>454.0</ele><time>2026-05-02T13:53:40Z</time></trkpt><trkpt lat="43.84119238539245" lon="12.285674209694655"><ele>451.6666666666667</ele><time>2026-05-02T13:53:41Z</time></trkpt><trkpt lat="43.84138056533822" lon="12.285575688023567"><ele>449.33333333333337</ele><time>2026-05-02T13:53:42Z</time></trkpt><trkpt lat="43.841523070587826" lon="12.285493993901973"><ele>447.0</ele><time>2026-05-02T13:53:43Z</time></trkpt><trkpt lat="43.84163982149359" lon="12.285442734882333"><ele>447.0</ele><time>2026-05-02T13:53:44Z</time></trkpt><trkpt lat="43.84173781951433" lon="12.285380072360121"><ele>447.00000000000006</ele><time>2026-05-02T13:53:45Z</time></trkpt><trkpt lat="43.84180836849142" lon="12.285293809543878"><ele>447.00000000000006</ele><time>2026-05-02T13:53:46Z</time></trkpt><trkpt lat="43.841860941958764" lon="12.285190681734852"><ele>447.0</ele><time>2026-05-02T13:53:47Z</time></trkpt><trkpt lat="43.84189067494352" lon="12.285102349229772"><ele>447.0</ele><time>2026-05-02T13:53:48Z</time></trkpt><trkpt lat="43.84193591430765" lon="12.284981787608693"><ele>446.6666666666667</ele><time>2026-05-02T13:53:49Z</time></trkpt><trkpt lat="43.841982019765865" lon="12.284879712976798"><ele>446.33333333333337</ele><time>2026-05-02T13:53:50Z</time></trkpt><trkpt lat="43.84204541450104" lon="12.28479812613267"><ele>446.0</ele><time>2026-05-02T13:53:51Z</time></trkpt><trkpt lat="43.84211222533681" lon="12.284739075566852"><ele>445.6666666666667</ele><time>2026-05-02T13:53:52Z</time></trkpt><trkpt lat="43.84218048737771" lon="12.284691602914831"><ele>445.33333333333337</ele><time>2026-05-02T13:53:53Z</time></trkpt><trkpt lat="43.84224048467003" lon="12.284645201884823"><ele>445.0</ele><time>2026-05-02T13:53:54Z</time></trkpt><trkpt lat="43.84231054337633" lon="12.284599354959392"><ele>445.0</ele><time>2026-05-02T13:53:56Z</time></trkpt><trkpt lat="43.842235379030996" lon="12.284648466075847"><ele>445.0</ele><time>2026-05-02T13:54:07Z</time></trkpt><trkpt lat="43.8421443614003" lon="12.284733285243764"><ele>445.0</ele><time>2026-05-02T13:54:09Z</time></trkpt><trkpt lat="43.84202736178975" lon="12.284768739681484"><ele>445.0</ele><time>2026-05-02T13:54:11Z</time></trkpt><trkpt lat="43.84211016277109" lon="12.284765803342518"><ele>445.0</ele><time>2026-05-02T13:54:24.999Z</time></trkpt><trkpt lat="43.84217177437192" lon="12.28470706929194"><ele>445.00000000000006</ele><time>2026-05-02T13:54:26.999Z</time></trkpt><trkpt lat="43.84223683845631" lon="12.284647184310662"><ele>445.0</ele><time>2026-05-02T13:54:39.999Z</time></trkpt><trkpt lat="43.84217110544512" lon="12.284707709004582"><ele>445.0</ele><time>2026-05-02T13:55:17Z</time></trkpt><trkpt lat="43.84222624183263" lon="12.284655016350847"><ele>445.0</ele><time>2026-05-02T14:14:28Z</time></trkpt><trkpt lat="43.84229587885144" lon="12.284571499484958"><ele>445.00000000000006</ele><time>2026-05-02T14:14:31Z</time></trkpt><trkpt lat="43.84237833111977" lon="12.284504039506873"><ele>445.0</ele><time>2026-05-02T14:14:33Z</time></trkpt><trkpt lat="43.84248009712945" lon="12.284413171190534"><ele>445.00000000000006</ele><time>2026-05-02T14:14:35Z</time></trkpt><trkpt lat="43.84255900624374" lon="12.28434858113595"><ele>445.0</ele><time>2026-05-02T14:14:36Z</time></trkpt><trkpt lat="43.842643928716896" lon="12.28427673826172"><ele>445.0</ele><time>2026-05-02T14:14:37Z</time></trkpt><trkpt lat="43.84271756971207" lon="12.284215080650002"><ele>445.0</ele><time>2026-05-02T14:14:38Z</time></trkpt><trkpt lat="43.84278650325" lon="12.284148612296375"><ele>445.00000000000006</ele><time>2026-05-02T14:14:39Z</time></trkpt><trkpt lat="43.84285281139003" lon="12.284088096064496"><ele>445.0</ele><time>2026-05-02T14:14:40Z</time></trkpt><trkpt lat="43.84291237226484" lon="12.28403118668869"><ele>444.42857142857144</ele><time>2026-05-02T14:14:41Z</time></trkpt><trkpt lat="43.84297756868476" lon="12.28397050819207"><ele>443.85714285714283</ele><time>2026-05-02T14:14:42Z</time></trkpt><trkpt lat="43.84304270162131" lon="12.283929213179462"><ele>443.2857142857143</ele><time>2026-05-02T14:14:43Z</time></trkpt><trkpt lat="43.84310998599517" lon="12.283905265831354"><ele>442.7142857142857</ele><time>2026-05-02T14:14:44Z</time></trkpt><trkpt lat="43.84317249814575" lon="12.2838899017266"><ele>442.1428571428571</ele><time>2026-05-02T14:14:45Z</time></trkpt><trkpt lat="43.84324617299757" lon="12.283891253234449"><ele>441.57142857142856</ele><time>2026-05-02T14:14:46Z</time></trkpt><trkpt lat="43.843320727527804" lon="12.28392954492906"><ele>441.0</ele><time>2026-05-02T14:14:47Z</time></trkpt><trkpt lat="43.84338982274254" lon="12.283998848528846"><ele>441.0</ele><time>2026-05-02T14:14:48Z</time></trkpt><trkpt lat="43.843443825367274" lon="12.28409966295811"><ele>441.0</ele><time>2026-05-02T14:14:49Z</time></trkpt><trkpt lat="43.84348333761781" lon="12.284249722649326"><ele>441.0</ele><time>2026-05-02T14:14:49.999Z</time></trkpt><trkpt lat="43.843494548998805" lon="12.284438011470629"><ele>441.0</ele><time>2026-05-02T14:14:50.999Z</time></trkpt><trkpt lat="43.84351395895481" lon="12.284628322594362"><ele>437.5</ele><time>2026-05-02T14:14:51.999Z</time></trkpt><trkpt lat="43.84354402601943" lon="12.284820756255105"><ele>434.0</ele><time>2026-05-02T14:14:52.999Z</time></trkpt><trkpt lat="43.843585080045635" lon="12.284987248657377"><ele>430.5</ele><time>2026-05-02T14:14:53.999Z</time></trkpt><trkpt lat="43.84364866268652" lon="12.285139278737438"><ele>427.0</ele><time>2026-05-02T14:14:54.999Z</time></trkpt><trkpt lat="43.843747171243116" lon="12.285280769652077"><ele>427.0</ele><time>2026-05-02T14:14:55.999Z</time></trkpt><trkpt lat="43.843857911534506" lon="12.28542140706644"><ele>427.0</ele><time>2026-05-02T14:14:56.999Z</time></trkpt><trkpt lat="43.84396872733605" lon="12.285554975327086"><ele>427.0</ele><time>2026-05-02T14:14:57.999Z</time></trkpt><trkpt lat="43.844058774033265" lon="12.285657411285692"><ele>427.0</ele><time>2026-05-02T14:14:58.999Z</time></trkpt><trkpt lat="43.84416039477199" lon="12.285726337885325"><ele>428.25</ele><time>2026-05-02T14:14:59.999Z</time></trkpt><trkpt lat="43.84428258337232" lon="12.285739068078252"><ele>429.5</ele><time>2026-05-02T14:15:00.999Z</time></trkpt><trkpt lat="43.84440557738663" lon="12.28569726949567"><ele>430.75</ele><time>2026-05-02T14:15:01.999Z</time></trkpt><trkpt lat="43.84452450671946" lon="12.2855889897726"><ele>432.0</ele><time>2026-05-02T14:15:02.999Z</time></trkpt><trkpt lat="43.84464030407784" lon="12.28543119225698"><ele>426.66666666666663</ele><time>2026-05-02T14:15:03.999Z</time></trkpt><trkpt lat="43.844766543569996" lon="12.285251384582871"><ele>421.3333333333333</ele><time>2026-05-02T14:15:04.999Z</time></trkpt><trkpt lat="43.844904101586366" lon="12.285066755639859"><ele>416.0</ele><time>2026-05-02T14:15:05.999Z</time></trkpt><trkpt lat="43.84504878067562" lon="12.28487151016093"><ele>413.0</ele><time>2026-05-02T14:15:06.999Z</time></trkpt><trkpt lat="43.84519787250077" lon="12.284676647862279"><ele>410.0</ele><time>2026-05-02T14:15:07.999Z</time></trkpt><trkpt lat="43.845356966887735" lon="12.28448494525263"><ele>407.0</ele><time>2026-05-02T14:15:08.999Z</time></trkpt><trkpt lat="43.845530854344865" lon="12.284300164993802"><ele>407.0</ele><time>2026-05-02T14:15:09.999Z</time></trkpt><trkpt lat="43.84571750940647" lon="12.284131481013098"><ele>407.0</ele><time>2026-05-02T14:15:10.999Z</time></trkpt><trkpt lat="43.845908988162414" lon="12.283968235534417"><ele>407.0</ele><time>2026-05-02T14:15:11.999Z</time></trkpt><trkpt lat="43.84610517677616" lon="12.283808112592547"><ele>406.3333333333333</ele><time>2026-05-02T14:15:12.999Z</time></trkpt><trkpt lat="43.846291724134524" lon="12.283642675630825"><ele>405.66666666666663</ele><time>2026-05-02T14:15:13.999Z</time></trkpt><trkpt lat="43.846473088006675" lon="12.28346965257416"><ele>405.0</ele><time>2026-05-02T14:15:14.999Z</time></trkpt><trkpt lat="43.84666125364979" lon="12.283306679965873"><ele>404.66666666666663</ele><time>2026-05-02T14:15:15.999Z</time></trkpt><trkpt lat="43.846847405738785" lon="12.28314738942509"><ele>404.3333333333333</ele><time>2026-05-02T14:15:16.999Z</time></trkpt><trkpt lat="43.84703084580614" lon="12.282988178576804"><ele>404.0</ele><time>2026-05-02T14:15:17.999Z</time></trkpt><trkpt lat="43.84721446956979" lon="12.282829969137849"><ele>403.0</ele><time>2026-05-02T14:15:18.999Z</time></trkpt><trkpt lat="43.84739562294905" lon="12.282671797911034"><ele>402.0</ele><time>2026-05-02T14:15:19.999Z</time></trkpt><trkpt lat="43.84757675117566" lon="12.28251193327361"><ele>401.0</ele><time>2026-05-02T14:15:20.999Z</time></trkpt><trkpt lat="43.84775714177955" lon="12.282351996203968"><ele>400.3333333333333</ele><time>2026-05-02T14:15:21.999Z</time></trkpt><trkpt lat="43.84793353059148" lon="12.282194992503781"><ele>399.66666666666663</ele><time>2026-05-02T14:15:22.999Z</time></trkpt><trkpt lat="43.84811003900134" lon="12.282046475230917"><ele>399.0</ele><time>2026-05-02T14:15:23.999Z</time></trkpt><trkpt lat="43.84828307725012" lon="12.281896006296117"><ele>399.33333333333337</ele><time>2026-05-02T14:15:24.999Z</time></trkpt><trkpt lat="43.848463785251134" lon="12.2817448563907"><ele>399.6666666666667</ele><time>2026-05-02T14:15:25.999Z</time></trkpt><trkpt lat="43.848644156682205" lon="12.281588801109276"><ele>400.0</ele><time>2026-05-02T14:15:26.999Z</time></trkpt><trkpt lat="43.848820575468324" lon="12.281435304724779"><ele>396.6666666666667</ele><time>2026-05-02T14:15:27.999Z</time></trkpt><trkpt lat="43.849003350363695" lon="12.281280896017424"><ele>393.33333333333337</ele><time>2026-05-02T14:15:28.999Z</time></trkpt><trkpt lat="43.84918897055012" lon="12.281118742335726"><ele>390.0</ele><time>2026-05-02T14:15:29.999Z</time></trkpt><trkpt lat="43.84937707723" lon="12.280966627774927"><ele>389.0</ele><time>2026-05-02T14:15:30.999Z</time></trkpt><trkpt lat="43.84956971650643" lon="12.280835669659105"><ele>388.0</ele><time>2026-05-02T14:15:31.999Z</time></trkpt><trkpt lat="43.84977627696164" lon="12.280711516077224"><ele>387.0</ele><time>2026-05-02T14:15:32.999Z</time></trkpt><trkpt lat="43.84997842016099" lon="12.280596393169713"><ele>383.6666666666667</ele><time>2026-05-02T14:15:33.999Z</time></trkpt><trkpt lat="43.85017782570615" lon="12.28047263859692"><ele>380.33333333333337</ele><time>2026-05-02T14:15:34.999Z</time></trkpt><trkpt lat="43.85035434967146" lon="12.28034055981428"><ele>377.0</ele><time>2026-05-02T14:15:35.999Z</time></trkpt><trkpt lat="43.850518607927384" lon="12.28018984780756"><ele>377.0</ele><time>2026-05-02T14:15:36.999Z</time></trkpt><trkpt lat="43.85067079360736" lon="12.28001965585946"><ele>377.0</ele><time>2026-05-02T14:15:37.999Z</time></trkpt><trkpt lat="43.8508234468979" lon="12.279825357290733"><ele>377.0</ele><time>2026-05-02T14:15:38.999Z</time></trkpt><trkpt lat="43.850974455490274" lon="12.279637832623932"><ele>375.33333333333337</ele><time>2026-05-02T14:15:39.999Z</time></trkpt><trkpt lat="43.85111392919557" lon="12.279474512186447"><ele>373.6666666666667</ele><time>2026-05-02T14:15:40.999Z</time></trkpt><trkpt lat="43.851240662265695" lon="12.279333654434932"><ele>372.0</ele><time>2026-05-02T14:15:41.999Z</time></trkpt><trkpt lat="43.85136811464787" lon="12.279221912602365"><ele>372.0</ele><time>2026-05-02T14:15:43Z</time></trkpt><trkpt lat="43.85150459086489" lon="12.279154691187449"><ele>372.0</ele><time>2026-05-02T14:15:44Z</time></trkpt><trkpt lat="43.851646904275704" lon="12.279156676397424"><ele>372.0</ele><time>2026-05-02T14:15:45Z</time></trkpt><trkpt lat="43.85178560424147" lon="12.2791823653173"><ele>372.0</ele><time>2026-05-02T14:15:46Z</time></trkpt><trkpt lat="43.851926058167834" lon="12.279265295243857"><ele>369.6666666666667</ele><time>2026-05-02T14:15:47Z</time></trkpt><trkpt lat="43.85207369686455" lon="12.279365216654654"><ele>367.33333333333337</ele><time>2026-05-02T14:15:48Z</time></trkpt><trkpt lat="43.85222614355244" lon="12.279462684512"><ele>365.0</ele><time>2026-05-02T14:15:49Z</time></trkpt><trkpt lat="43.8523580825238" lon="12.279563102174748"><ele>365.0</ele><time>2026-05-02T14:15:50Z</time></trkpt><trkpt lat="43.85244056624485" lon="12.279646745909215"><ele>365.0</ele><time>2026-05-02T14:15:51Z</time></trkpt><trkpt lat="43.85248782284648" lon="12.279739632838684"><ele>365.0</ele><time>2026-05-02T14:15:52Z</time></trkpt><trkpt lat="43.85249417607288" lon="12.27987836202127"><ele>365.0</ele><time>2026-05-02T14:15:53Z</time></trkpt><trkpt lat="43.85243387547027" lon="12.280046330644396"><ele>365.0</ele><time>2026-05-02T14:15:54Z</time></trkpt><trkpt lat="43.852344645106704" lon="12.28018680449319"><ele>365.0</ele><time>2026-05-02T14:15:55Z</time></trkpt><trkpt lat="43.85223735098697" lon="12.280351279534528"><ele>365.0</ele><time>2026-05-02T14:15:56Z</time></trkpt><trkpt lat="43.85211614049229" lon="12.280553037215922"><ele>365.0</ele><time>2026-05-02T14:15:57Z</time></trkpt><trkpt lat="43.85199411954762" lon="12.280753149063859"><ele>367.6666666666667</ele><time>2026-05-02T14:15:58Z</time></trkpt><trkpt lat="43.85188832475903" lon="12.280960971546213"><ele>370.3333333333333</ele><time>2026-05-02T14:15:59Z</time></trkpt><trkpt lat="43.85183073960322" lon="12.281145105742802"><ele>373.0</ele><time>2026-05-02T14:16:00Z</time></trkpt><trkpt lat="43.85178998693023" lon="12.281355369728846"><ele>369.0</ele><time>2026-05-02T14:16:01Z</time></trkpt><trkpt lat="43.851772883083456" lon="12.28156026545858"><ele>365.0</ele><time>2026-05-02T14:16:02Z</time></trkpt><trkpt lat="43.85177413332445" lon="12.281784305044658"><ele>361.0</ele><time>2026-05-02T14:16:03Z</time></trkpt><trkpt lat="43.8517951437571" lon="12.282018313831074"><ele>354.66666666666663</ele><time>2026-05-02T14:16:04Z</time></trkpt><trkpt lat="43.851832972719464" lon="12.282259837746025"><ele>348.3333333333333</ele><time>2026-05-02T14:16:05Z</time></trkpt><trkpt lat="43.85186964507119" lon="12.282480880479822"><ele>342.0</ele><time>2026-05-02T14:16:06Z</time></trkpt><trkpt lat="43.85189768221847" lon="12.282655788412479"><ele>341.40000000000003</ele><time>2026-05-02T14:16:07Z</time></trkpt><trkpt lat="43.85192478374598" lon="12.282784693842837"><ele>340.8</ele><time>2026-05-02T14:16:08Z</time></trkpt><trkpt lat="43.851984074096684" lon="12.282862587533105"><ele>340.2</ele><time>2026-05-02T14:16:09Z</time></trkpt><trkpt lat="43.85208290382998" lon="12.282880269751137"><ele>339.6</ele><time>2026-05-02T14:16:10Z</time></trkpt><trkpt lat="43.85218463050132" lon="12.282821445411372"><ele>339.0</ele><time>2026-05-02T14:16:11Z</time></trkpt><trkpt lat="43.85225584579751" lon="12.282684065130358"><ele>339.0</ele><time>2026-05-02T14:16:12Z</time></trkpt><trkpt lat="43.85228905047115" lon="12.282489649635346"><ele>339.0</ele><time>2026-05-02T14:16:13Z</time></trkpt><trkpt lat="43.85232144435361" lon="12.282261780918844"><ele>339.0</ele><time>2026-05-02T14:16:14Z</time></trkpt><trkpt lat="43.85236255577651" lon="12.282014207662552"><ele>340.0</ele><time>2026-05-02T14:16:15Z</time></trkpt><trkpt lat="43.85243031919777" lon="12.281793291719264"><ele>341.0</ele><time>2026-05-02T14:16:16Z</time></trkpt><trkpt lat="43.85249978624439" lon="12.281602048769557"><ele>342.0</ele><time>2026-05-02T14:16:17Z</time></trkpt><trkpt lat="43.85263291488259" lon="12.281467400732005"><ele>339.3333333333333</ele><time>2026-05-02T14:16:18Z</time></trkpt><trkpt lat="43.85279476631829" lon="12.281348446454226"><ele>336.66666666666663</ele><time>2026-05-02T14:16:19Z</time></trkpt><trkpt lat="43.852968366090295" lon="12.281202610993292"><ele>334.0</ele><time>2026-05-02T14:16:20Z</time></trkpt><trkpt lat="43.85315887648656" lon="12.281086739835008"><ele>334.0</ele><time>2026-05-02T14:16:21Z</time></trkpt><trkpt lat="43.85333648589222" lon="12.28096230716737"><ele>334.0</ele><time>2026-05-02T14:16:22Z</time></trkpt><trkpt lat="43.853487875843456" lon="12.280848533436659"><ele>334.0</ele><time>2026-05-02T14:16:23Z</time></trkpt><trkpt lat="43.85361384596519" lon="12.280756332682854"><ele>332.6</ele><time>2026-05-02T14:16:24Z</time></trkpt><trkpt lat="43.853723281158686" lon="12.28066598121343"><ele>331.2</ele><time>2026-05-02T14:16:25Z</time></trkpt><trkpt lat="43.85380853787878" lon="12.280575859154883"><ele>329.8</ele><time>2026-05-02T14:16:26Z</time></trkpt><trkpt lat="43.85387687739662" lon="12.280495337206787"><ele>328.40000000000003</ele><time>2026-05-02T14:16:27Z</time></trkpt><trkpt lat="43.85392196171494" lon="12.280422176013287"><ele>327.0</ele><time>2026-05-02T14:16:28Z</time></trkpt><trkpt lat="43.85396252447829" lon="12.280555520340451"><ele>325.5</ele><time>2026-05-02T14:16:32Z</time></trkpt><trkpt lat="43.85395289124082" lon="12.280674629243276"><ele>324.0</ele><time>2026-05-02T14:16:33Z</time></trkpt><trkpt lat="43.853922717984716" lon="12.280834853549086"><ele>322.5</ele><time>2026-05-02T14:16:34Z</time></trkpt><trkpt lat="43.85389345783649" lon="12.281015887593908"><ele>321.0</ele><time>2026-05-02T14:16:35Z</time></trkpt><trkpt lat="43.85386456803982" lon="12.281210727794724"><ele>321.0</ele><time>2026-05-02T14:16:36Z</time></trkpt><trkpt lat="43.85384415044588" lon="12.281421361871702"><ele>321.0</ele><time>2026-05-02T14:16:37Z</time></trkpt><trkpt lat="43.85382426103963" lon="12.281603229066617"><ele>321.0</ele><time>2026-05-02T14:16:38Z</time></trkpt><trkpt lat="43.8538469837216" lon="12.281772683868276"><ele>321.0</ele><time>2026-05-02T14:16:39Z</time></trkpt><trkpt lat="43.85391942732133" lon="12.281932390151763"><ele>321.25</ele><time>2026-05-02T14:16:40Z</time></trkpt><trkpt lat="43.85402109220831" lon="12.282103603835315"><ele>321.5</ele><time>2026-05-02T14:16:41Z</time></trkpt><trkpt lat="43.854119571186885" lon="12.282265390312826"><ele>321.75</ele><time>2026-05-02T14:16:42Z</time></trkpt><trkpt lat="43.85422481106218" lon="12.282359842681974"><ele>322.0</ele><time>2026-05-02T14:16:43Z</time></trkpt><trkpt lat="43.85435490550298" lon="12.282385797104082"><ele>321.3333333333333</ele><time>2026-05-02T14:16:44Z</time></trkpt><trkpt lat="43.85450296893813" lon="12.282357809366308"><ele>320.6666666666667</ele><time>2026-05-02T14:16:45Z</time></trkpt><trkpt lat="43.85466918062709" lon="12.28228265867805"><ele>320.0</ele><time>2026-05-02T14:16:46Z</time></trkpt><trkpt lat="43.854846485508006" lon="12.28219016789747"><ele>320.0</ele><time>2026-05-02T14:16:47Z</time></trkpt><trkpt lat="43.855036727891914" lon="12.28211387466636"><ele>320.0</ele><time>2026-05-02T14:16:48Z</time></trkpt><trkpt lat="43.85523618989401" lon="12.282071912140433"><ele>320.0</ele><time>2026-05-02T14:16:49Z</time></trkpt><trkpt lat="43.85542902270982" lon="12.28204482352752"><ele>323.6666666666667</ele><time>2026-05-02T14:16:49.999Z</time></trkpt><trkpt lat="43.85560016939844" lon="12.282003641364517"><ele>327.3333333333333</ele><time>2026-05-02T14:16:50.999Z</time></trkpt><trkpt lat="43.855746599905174" lon="12.281935622771194"><ele>331.0</ele><time>2026-05-02T14:16:51.999Z</time></trkpt><trkpt lat="43.85588736195708" lon="12.281857426383239"><ele>331.0</ele><time>2026-05-02T14:16:52.999Z</time></trkpt><trkpt lat="43.855998243936085" lon="12.281707912908312"><ele>331.0</ele><time>2026-05-02T14:16:53.999Z</time></trkpt><trkpt lat="43.85607529997048" lon="12.281493072621032"><ele>331.0</ele><time>2026-05-02T14:16:54.999Z</time></trkpt><trkpt lat="43.8561204361177" lon="12.281229120133297"><ele>331.0</ele><time>2026-05-02T14:16:55.999Z</time></trkpt><trkpt lat="43.85615693106628" lon="12.280958336539696"><ele>331.0</ele><time>2026-05-02T14:16:56.999Z</time></trkpt><trkpt lat="43.85621753161635" lon="12.280808698780051"><ele>331.0</ele><time>2026-05-02T14:16:57.999Z</time></trkpt><trkpt lat="43.856281368398605" lon="12.280707703335374"><ele>331.0</ele><time>2026-05-02T14:16:58.999Z</time></trkpt><trkpt lat="43.856405884517535" lon="12.280642147665207"><ele>331.0</ele><time>2026-05-02T14:16:59.999Z</time></trkpt><trkpt lat="43.85657129447685" lon="12.280614618060907"><ele>331.0</ele><time>2026-05-02T14:17:00.999Z</time></trkpt><trkpt lat="43.85674785432152" lon="12.28054353089488"><ele>331.0</ele><time>2026-05-02T14:17:01.999Z</time></trkpt><trkpt lat="43.8569420661368" lon="12.280467598509532"><ele>326.66666666666663</ele><time>2026-05-02T14:17:02.999Z</time></trkpt><trkpt lat="43.85714700669188" lon="12.280375612090536"><ele>322.3333333333333</ele><time>2026-05-02T14:17:03.999Z</time></trkpt><trkpt lat="43.857369343634055" lon="12.28027753527157"><ele>318.0</ele><time>2026-05-02T14:17:04.999Z</time></trkpt><trkpt lat="43.85759553332717" lon="12.2801599354628"><ele>319.0</ele><time>2026-05-02T14:17:05.999Z</time></trkpt><trkpt lat="43.857817462922114" lon="12.280045921699891"><ele>320.0</ele><time>2026-05-02T14:17:06.999Z</time></trkpt><trkpt lat="43.85800201563258" lon="12.279971276178973"><ele>321.0</ele><time>2026-05-02T14:17:07.999Z</time></trkpt><trkpt lat="43.85815723131382" lon="12.279922576951822"><ele>321.0</ele><time>2026-05-02T14:17:08.999Z</time></trkpt><trkpt lat="43.858300364410866" lon="12.279933004941379"><ele>321.0</ele><time>2026-05-02T14:17:09.999Z</time></trkpt><trkpt lat="43.85843291978895" lon="12.279972868020202"><ele>321.0</ele><time>2026-05-02T14:17:10.999Z</time></trkpt><trkpt lat="43.85856066739065" lon="12.280051328080887"><ele>321.0</ele><time>2026-05-02T14:17:11.999Z</time></trkpt><trkpt lat="43.858699566919036" lon="12.280165946807305"><ele>321.3333333333333</ele><time>2026-05-02T14:17:12.999Z</time></trkpt><trkpt lat="43.85883542074344" lon="12.280330429565923"><ele>321.66666666666663</ele><time>2026-05-02T14:17:13.999Z</time></trkpt><trkpt lat="43.85895719141859" lon="12.28053156793369"><ele>322.0</ele><time>2026-05-02T14:17:14.999Z</time></trkpt><trkpt lat="43.85906560912021" lon="12.28076425078906"><ele>322.0</ele><time>2026-05-02T14:17:15.999Z</time></trkpt><trkpt lat="43.85919397641159" lon="12.281006675525438"><ele>322.0</ele><time>2026-05-02T14:17:16.999Z</time></trkpt><trkpt lat="43.8593064092833" lon="12.28126983370353"><ele>322.0</ele><time>2026-05-02T14:17:17.999Z</time></trkpt><trkpt lat="43.85943751772485" lon="12.281527924678873"><ele>317.5</ele><time>2026-05-02T14:17:18.999Z</time></trkpt><trkpt lat="43.859575918068316" lon="12.281788406028783"><ele>313.0</ele><time>2026-05-02T14:17:19.999Z</time></trkpt><trkpt lat="43.859733571986915" lon="12.282019769087256"><ele>313.0</ele><time>2026-05-02T14:17:20.999Z</time></trkpt><trkpt lat="43.85991647513046" lon="12.28220195847282"><ele>313.0</ele><time>2026-05-02T14:17:21.999Z</time></trkpt><trkpt lat="43.86011108059497" lon="12.28236127885813"><ele>311.5</ele><time>2026-05-02T14:17:22.999Z</time></trkpt><trkpt lat="43.86030919480313" lon="12.282501349152215"><ele>310.0</ele><time>2026-05-02T14:17:23.999Z</time></trkpt><trkpt lat="43.86051719010657" lon="12.2826394031687"><ele>310.0</ele><time>2026-05-02T14:17:24.999Z</time></trkpt><trkpt lat="43.860725212269365" lon="12.28279676470065"><ele>310.0</ele><time>2026-05-02T14:17:25.999Z</time></trkpt><trkpt lat="43.86093046844851" lon="12.282978299843041"><ele>311.5</ele><time>2026-05-02T14:17:26.999Z</time></trkpt><trkpt lat="43.86112607451752" lon="12.283187466435205"><ele>313.0</ele><time>2026-05-02T14:17:27.999Z</time></trkpt><trkpt lat="43.86130027065795" lon="12.28339604519705"><ele>313.0</ele><time>2026-05-02T14:17:28.999Z</time></trkpt><trkpt lat="43.8614520250483" lon="12.283570444868237"><ele>313.0</ele><time>2026-05-02T14:17:29.999Z</time></trkpt><trkpt lat="43.861595163583964" lon="12.283689652489715"><ele>313.0</ele><time>2026-05-02T14:17:30.999Z</time></trkpt><trkpt lat="43.86174435651615" lon="12.283741918103768"><ele>314.0</ele><time>2026-05-02T14:17:31.999Z</time></trkpt><trkpt lat="43.86191437225843" lon="12.283723472271985"><ele>315.0</ele><time>2026-05-02T14:17:32.999Z</time></trkpt><trkpt lat="43.86209788191344" lon="12.283647399872464"><ele>316.0</ele><time>2026-05-02T14:17:33.999Z</time></trkpt><trkpt lat="43.86228055965513" lon="12.283528937548281"><ele>316.0</ele><time>2026-05-02T14:17:34.999Z</time></trkpt><trkpt lat="43.862442369663796" lon="12.28337643737598"><ele>316.0</ele><time>2026-05-02T14:17:35.999Z</time></trkpt><trkpt lat="43.86258856646987" lon="12.283245534658505"><ele>316.0</ele><time>2026-05-02T14:17:36.999Z</time></trkpt><trkpt lat="43.86274140542696" lon="12.283179866265797"><ele>315.66666666666663</ele><time>2026-05-02T14:17:37.999Z</time></trkpt><trkpt lat="43.862916129470065" lon="12.283187984970581"><ele>315.3333333333333</ele><time>2026-05-02T14:17:38.999Z</time></trkpt><trkpt lat="43.86307126497789" lon="12.283176088441321"><ele>315.0</ele><time>2026-05-02T14:17:39.999Z</time></trkpt><trkpt lat="43.863198735383016" lon="12.283252217844353"><ele>315.0</ele><time>2026-05-02T14:17:40.999Z</time></trkpt><trkpt lat="43.86330250910437" lon="12.283361643750888"><ele>315.0</ele><time>2026-05-02T14:17:41.999Z</time></trkpt><trkpt lat="43.863401607259966" lon="12.283481050928275"><ele>315.0</ele><time>2026-05-02T14:17:42.999Z</time></trkpt><trkpt lat="43.86349302083636" lon="12.283599582381791"><ele>315.0</ele><time>2026-05-02T14:17:43.999Z</time></trkpt><trkpt lat="43.863580932772294" lon="12.283720307331107"><ele>313.8</ele><time>2026-05-02T14:17:44.999Z</time></trkpt><trkpt lat="43.86367256507138" lon="12.283802475606846"><ele>312.6</ele><time>2026-05-02T14:17:45.999Z</time></trkpt><trkpt lat="43.86376797364173" lon="12.283862439672873"><ele>311.4</ele><time>2026-05-02T14:17:46.999Z</time></trkpt><trkpt lat="43.86387743850775" lon="12.283857409155106"><ele>310.2</ele><time>2026-05-02T14:17:47.999Z</time></trkpt><trkpt lat="43.86398129585678" lon="12.283799746111747"><ele>309.0</ele><time>2026-05-02T14:17:49Z</time></trkpt><trkpt lat="43.864068613088826" lon="12.283708877872385"><ele>309.0</ele><time>2026-05-02T14:17:50Z</time></trkpt><trkpt lat="43.864145245224236" lon="12.283602324579668"><ele>309.0</ele><time>2026-05-02T14:17:51Z</time></trkpt><trkpt lat="43.86421976637883" lon="12.28350302207918"><ele>309.0</ele><time>2026-05-02T14:17:52Z</time></trkpt><trkpt lat="43.86431110286419" lon="12.283423345391995"><ele>309.0</ele><time>2026-05-02T14:17:53Z</time></trkpt><trkpt lat="43.86441327140612" lon="12.2833724673892"><ele>309.0</ele><time>2026-05-02T14:17:54Z</time></trkpt><trkpt lat="43.86453125754973" lon="12.283367287059296"><ele>306.5</ele><time>2026-05-02T14:17:55Z</time></trkpt><trkpt lat="43.864645089278596" lon="12.283407575677662"><ele>304.0</ele><time>2026-05-02T14:17:56Z</time></trkpt><trkpt lat="43.864741473432574" lon="12.283502566505971"><ele>301.5</ele><time>2026-05-02T14:17:57Z</time></trkpt><trkpt lat="43.86484216958912" lon="12.283577347421359"><ele>299.0</ele><time>2026-05-02T14:17:58Z</time></trkpt><trkpt lat="43.86493449852192" lon="12.283676671394138"><ele>299.0</ele><time>2026-05-02T14:17:59Z</time></trkpt><trkpt lat="43.865037538396315" lon="12.283751008599053"><ele>299.0</ele><time>2026-05-02T14:18:00Z</time></trkpt><trkpt lat="43.86514939506202" lon="12.283792203343001"><ele>299.0</ele><time>2026-05-02T14:18:01Z</time></trkpt><trkpt lat="43.865267728219024" lon="12.283794422286505"><ele>299.0</ele><time>2026-05-02T14:18:02Z</time></trkpt><trkpt lat="43.86539662693184" lon="12.28376022558009"><ele>296.75</ele><time>2026-05-02T14:18:03Z</time></trkpt><trkpt lat="43.86552760818668" lon="12.283686294066719"><ele>294.5</ele><time>2026-05-02T14:18:04Z</time></trkpt><trkpt lat="43.86564983428378" lon="12.283615072623983"><ele>292.25</ele><time>2026-05-02T14:18:05Z</time></trkpt><trkpt lat="43.8657758889179" lon="12.283562505221793"><ele>290.0</ele><time>2026-05-02T14:18:06Z</time></trkpt><trkpt lat="43.86590008723138" lon="12.283538242173824"><ele>288.25</ele><time>2026-05-02T14:18:07Z</time></trkpt><trkpt lat="43.8660236350382" lon="12.283559977595935"><ele>286.5</ele><time>2026-05-02T14:18:08Z</time></trkpt><trkpt lat="43.866135831645906" lon="12.283615858098779"><ele>284.75</ele><time>2026-05-02T14:18:09Z</time></trkpt><trkpt lat="43.86623784287248" lon="12.283719570412373"><ele>283.0</ele><time>2026-05-02T14:18:10Z</time></trkpt><trkpt lat="43.866329165059184" lon="12.283839938240101"><ele>284.0</ele><time>2026-05-02T14:18:11Z</time></trkpt><trkpt lat="43.86641017584566" lon="12.283971191565533"><ele>285.0</ele><time>2026-05-02T14:18:12Z</time></trkpt><trkpt lat="43.86648730957693" lon="12.284109340942667"><ele>286.0</ele><time>2026-05-02T14:18:13Z</time></trkpt><trkpt lat="43.8665670294849" lon="12.284243492241513"><ele>287.0</ele><time>2026-05-02T14:18:14Z</time></trkpt><trkpt lat="43.86665210007747" lon="12.28438049199284"><ele>287.0</ele><time>2026-05-02T14:18:15Z</time></trkpt><trkpt lat="43.86673445487818" lon="12.284511042918682"><ele>287.0</ele><time>2026-05-02T14:18:16Z</time></trkpt><trkpt lat="43.86681826772022" lon="12.284651262418953"><ele>287.0</ele><time>2026-05-02T14:18:17Z</time></trkpt><trkpt lat="43.866908320858485" lon="12.284794451009233"><ele>287.0</ele><time>2026-05-02T14:18:18Z</time></trkpt><trkpt lat="43.86699939863466" lon="12.284937483422997"><ele>286.5</ele><time>2026-05-02T14:18:19Z</time></trkpt><trkpt lat="43.86710056148313" lon="12.285071632504202"><ele>286.0</ele><time>2026-05-02T14:18:20Z</time></trkpt><trkpt lat="43.86721703100477" lon="12.285182933424709"><ele>285.5</ele><time>2026-05-02T14:18:21Z</time></trkpt><trkpt lat="43.867345047766" lon="12.285239945827461"><ele>285.0</ele><time>2026-05-02T14:18:22Z</time></trkpt><trkpt lat="43.867480333436276" lon="12.285232904805858"><ele>283.0</ele><time>2026-05-02T14:18:23Z</time></trkpt><trkpt lat="43.86761586587472" lon="12.285166453506129"><ele>281.0</ele><time>2026-05-02T14:18:24Z</time></trkpt><trkpt lat="43.86774434407356" lon="12.285068353657286"><ele>279.0</ele><time>2026-05-02T14:18:25Z</time></trkpt><trkpt lat="43.867865623043826" lon="12.28497680158"><ele>277.0</ele><time>2026-05-02T14:18:26Z</time></trkpt><trkpt lat="43.86798597612965" lon="12.284889063413978"><ele>277.0</ele><time>2026-05-02T14:18:27Z</time></trkpt><trkpt lat="43.868096867223166" lon="12.284809455368032"><ele>277.0</ele><time>2026-05-02T14:18:28Z</time></trkpt><trkpt lat="43.86820451349756" lon="12.284740234586124"><ele>277.0</ele><time>2026-05-02T14:18:29Z</time></trkpt><trkpt lat="43.86830294098597" lon="12.28466844985716"><ele>277.0</ele><time>2026-05-02T14:18:30Z</time></trkpt><trkpt lat="43.86840188084144" lon="12.284596813020048"><ele>279.25</ele><time>2026-05-02T14:18:31Z</time></trkpt><trkpt lat="43.868505600836485" lon="12.284524556636587"><ele>281.5</ele><time>2026-05-02T14:18:32Z</time></trkpt><trkpt lat="43.86861099257158" lon="12.284449934689984"><ele>283.75</ele><time>2026-05-02T14:18:33Z</time></trkpt><trkpt lat="43.86872451850617" lon="12.284371258237822"><ele>286.0</ele><time>2026-05-02T14:18:34Z</time></trkpt><trkpt lat="43.86884951173409" lon="12.28428965681572"><ele>286.0</ele><time>2026-05-02T14:18:35Z</time></trkpt><trkpt lat="43.86898606069354" lon="12.284206773374232"><ele>286.0</ele><time>2026-05-02T14:18:36Z</time></trkpt><trkpt lat="43.86913228909153" lon="12.284136913006344"><ele>286.0</ele><time>2026-05-02T14:18:37Z</time></trkpt><trkpt lat="43.86929174273901" lon="12.284104896476327"><ele>286.3333333333333</ele><time>2026-05-02T14:18:38Z</time></trkpt><trkpt lat="43.869460015308825" lon="12.284109691370881"><ele>286.6666666666667</ele><time>2026-05-02T14:18:39Z</time></trkpt><trkpt lat="43.86962976950585" lon="12.28410969665534"><ele>287.0</ele><time>2026-05-02T14:18:40Z</time></trkpt><trkpt lat="43.86980016295588" lon="12.284111046080126"><ele>287.0</ele><time>2026-05-02T14:18:41Z</time></trkpt><trkpt lat="43.86996426902702" lon="12.284108246620294"><ele>287.0</ele><time>2026-05-02T14:18:42Z</time></trkpt><trkpt lat="43.87011730223902" lon="12.284106964225886"><ele>287.0</ele><time>2026-05-02T14:18:43Z</time></trkpt><trkpt lat="43.870262521098844" lon="12.284106657368635"><ele>286.25</ele><time>2026-05-02T14:18:44Z</time></trkpt><trkpt lat="43.87040237410394" lon="12.28409841774579"><ele>285.5</ele><time>2026-05-02T14:18:45Z</time></trkpt><trkpt lat="43.87053005739679" lon="12.28407815086911"><ele>284.75</ele><time>2026-05-02T14:18:46Z</time></trkpt><trkpt lat="43.87064957694507" lon="12.284053832806382"><ele>284.0</ele><time>2026-05-02T14:18:46.999Z</time></trkpt><trkpt lat="43.87076650518236" lon="12.284021550329436"><ele>284.0</ele><time>2026-05-02T14:18:47.999Z</time></trkpt><trkpt lat="43.87089361260233" lon="12.283985825147505"><ele>284.0</ele><time>2026-05-02T14:18:48.999Z</time></trkpt><trkpt lat="43.871032178900315" lon="12.283946822376404"><ele>284.0</ele><time>2026-05-02T14:18:49.999Z</time></trkpt><trkpt lat="43.87117588685484" lon="12.28390468243851"><ele>284.0</ele><time>2026-05-02T14:18:50.999Z</time></trkpt><trkpt lat="43.87132353673113" lon="12.283860347164346"><ele>286.0</ele><time>2026-05-02T14:18:51.999Z</time></trkpt><trkpt lat="43.87147668608929" lon="12.283814250971792"><ele>288.0</ele><time>2026-05-02T14:18:52.999Z</time></trkpt><trkpt lat="43.87162590688215" lon="12.283768147586223"><ele>290.0</ele><time>2026-05-02T14:18:53.999Z</time></trkpt><trkpt lat="43.871776181165586" lon="12.283719822679348"><ele>290.0</ele><time>2026-05-02T14:18:54.999Z</time></trkpt><trkpt lat="43.871923936534095" lon="12.283670844803195"><ele>290.0</ele><time>2026-05-02T14:18:55.999Z</time></trkpt><trkpt lat="43.872065123343724" lon="12.283617578245108"><ele>290.0</ele><time>2026-05-02T14:18:56.999Z</time></trkpt><trkpt lat="43.87219840763754" lon="12.28356031733461"><ele>290.0</ele><time>2026-05-02T14:18:57.999Z</time></trkpt><trkpt lat="43.87231790868956" lon="12.283511609877428"><ele>290.0</ele><time>2026-05-02T14:18:58.999Z</time></trkpt><trkpt lat="43.872438991743934" lon="12.283465712091132"><ele>290.0</ele><time>2026-05-02T14:18:59.999Z</time></trkpt><trkpt lat="43.8725559984032" lon="12.283422466947002"><ele>290.0</ele><time>2026-05-02T14:19:00.999Z</time></trkpt><trkpt lat="43.872678838147614" lon="12.283369850975426"><ele>290.0</ele><time>2026-05-02T14:19:01.999Z</time></trkpt><trkpt lat="43.87280795810251" lon="12.283312249941302"><ele>290.0</ele><time>2026-05-02T14:19:02.999Z</time></trkpt><trkpt lat="43.87294382292723" lon="12.28324679077914"><ele>290.0</ele><time>2026-05-02T14:19:03.999Z</time></trkpt><trkpt lat="43.873074035992154" lon="12.283167007598971"><ele>290.0</ele><time>2026-05-02T14:19:04.999Z</time></trkpt><trkpt lat="43.87318870801897" lon="12.283093175581916"><ele>290.0</ele><time>2026-05-02T14:19:05.999Z</time></trkpt><trkpt lat="43.8732879750501" lon="12.283023291318502"><ele>292.2</ele><time>2026-05-02T14:19:06.999Z</time></trkpt><trkpt lat="43.8733759076065" lon="12.282950604928953"><ele>294.4</ele><time>2026-05-02T14:19:07.999Z</time></trkpt><trkpt lat="43.87346660135715" lon="12.282885892072832"><ele>296.6</ele><time>2026-05-02T14:19:08.999Z</time></trkpt><trkpt lat="43.87356230568212" lon="12.28281928958091"><ele>298.8</ele><time>2026-05-02T14:19:09.999Z</time></trkpt><trkpt lat="43.873666116913526" lon="12.282753600454601"><ele>301.0</ele><time>2026-05-02T14:19:10.999Z</time></trkpt><trkpt lat="43.87377582314927" lon="12.282704116532093"><ele>301.0</ele><time>2026-05-02T14:19:11.999Z</time></trkpt><trkpt lat="43.873879785766505" lon="12.282670342247407"><ele>301.0</ele><time>2026-05-02T14:19:12.999Z</time></trkpt><trkpt lat="43.87398462557857" lon="12.28264065103494"><ele>301.0</ele><time>2026-05-02T14:19:13.999Z</time></trkpt><trkpt lat="43.87409362262316" lon="12.282620475693054"><ele>301.0</ele><time>2026-05-02T14:19:14.999Z</time></trkpt><trkpt lat="43.87419566568395" lon="12.282607555312515"><ele>301.0</ele><time>2026-05-02T14:19:15.999Z</time></trkpt><trkpt lat="43.87430990773216" lon="12.28260331024599"><ele>302.2</ele><time>2026-05-02T14:19:16.999Z</time></trkpt><trkpt lat="43.874429387819134" lon="12.282594789857336"><ele>303.40000000000003</ele><time>2026-05-02T14:19:17.999Z</time></trkpt><trkpt lat="43.874545253724236" lon="12.282586966754604"><ele>304.6</ele><time>2026-05-02T14:19:18.999Z</time></trkpt><trkpt lat="43.87465064694518" lon="12.28257296970623"><ele>305.8</ele><time>2026-05-02T14:19:19.999Z</time></trkpt><trkpt lat="43.874748520195645" lon="12.282567709103374"><ele>307.0</ele><time>2026-05-02T14:19:20.999Z</time></trkpt><trkpt lat="43.87484648580664" lon="12.282565310689337"><ele>307.0</ele><time>2026-05-02T14:19:21.999Z</time></trkpt><trkpt lat="43.874949631534435" lon="12.282581918518227"><ele>307.0</ele><time>2026-05-02T14:19:22.999Z</time></trkpt><trkpt lat="43.87505474574382" lon="12.282617816249722"><ele>307.0</ele><time>2026-05-02T14:19:23.999Z</time></trkpt><trkpt lat="43.87514693154615" lon="12.282677915509678"><ele>307.0</ele><time>2026-05-02T14:19:24.999Z</time></trkpt><trkpt lat="43.875234433271814" lon="12.282749307869624"><ele>307.0</ele><time>2026-05-02T14:19:25.999Z</time></trkpt><trkpt lat="43.87531560527954" lon="12.282822904017731"><ele>306.8333333333333</ele><time>2026-05-02T14:19:26.999Z</time></trkpt><trkpt lat="43.875387152536" lon="12.282898150598639"><ele>306.66666666666663</ele><time>2026-05-02T14:19:27.999Z</time></trkpt><trkpt lat="43.875450245561034" lon="12.282967331103665"><ele>306.5</ele><time>2026-05-02T14:19:28.999Z</time></trkpt><trkpt lat="43.87551516236011" lon="12.283032035006958"><ele>306.3333333333333</ele><time>2026-05-02T14:19:29.999Z</time></trkpt><trkpt lat="43.875593439217496" lon="12.283094012324007"><ele>306.1666666666667</ele><time>2026-05-02T14:19:30.999Z</time></trkpt><trkpt lat="43.875680691169634" lon="12.283152362717926"><ele>306.0</ele><time>2026-05-02T14:19:31.999Z</time></trkpt><trkpt lat="43.875778251149825" lon="12.283121995608559"><ele>306.0</ele><time>2026-05-02T14:19:32.999Z</time></trkpt><trkpt lat="43.87585844295609" lon="12.283075651041592"><ele>306.0</ele><time>2026-05-02T14:19:33.999Z</time></trkpt><trkpt lat="43.875927386082445" lon="12.282992917162565"><ele>306.0</ele><time>2026-05-02T14:19:34.999Z</time></trkpt><trkpt lat="43.87598103094097" lon="12.282891784170788"><ele>306.0</ele><time>2026-05-02T14:19:35.999Z</time></trkpt><trkpt lat="43.8760220549017" lon="12.282767572055716"><ele>306.0</ele><time>2026-05-02T14:19:36.999Z</time></trkpt><trkpt lat="43.87606540452692" lon="12.282638536138965"><ele>305.40000000000003</ele><time>2026-05-02T14:19:37.999Z</time></trkpt><trkpt lat="43.87610359920811" lon="12.282527897501701"><ele>304.8</ele><time>2026-05-02T14:19:38.999Z</time></trkpt><trkpt lat="43.87614652381501" lon="12.282415699735571"><ele>304.20000000000005</ele><time>2026-05-02T14:19:39.999Z</time></trkpt><trkpt lat="43.87619124954548" lon="12.282298849777888"><ele>303.6</ele><time>2026-05-02T14:19:40.999Z</time></trkpt><trkpt lat="43.87625102681729" lon="12.282175695703197"><ele>303.0</ele><time>2026-05-02T14:19:41.999Z</time></trkpt><trkpt lat="43.87633105071333" lon="12.282059389210211"><ele>303.0</ele><time>2026-05-02T14:19:42.999Z</time></trkpt><trkpt lat="43.87641808734536" lon="12.281962057925684"><ele>303.0</ele><time>2026-05-02T14:19:43.999Z</time></trkpt><trkpt lat="43.87650158606838" lon="12.281879512258273"><ele>303.0</ele><time>2026-05-02T14:19:44.999Z</time></trkpt><trkpt lat="43.87658243476251" lon="12.281794756403773"><ele>303.0</ele><time>2026-05-02T14:19:45.999Z</time></trkpt><trkpt lat="43.87666424361053" lon="12.281707559833691"><ele>303.0</ele><time>2026-05-02T14:19:46.999Z</time></trkpt><trkpt lat="43.87675188989586" lon="12.281616953902905"><ele>303.6</ele><time>2026-05-02T14:19:47.999Z</time></trkpt><trkpt lat="43.8768330253079" lon="12.281520277851703"><ele>304.20000000000005</ele><time>2026-05-02T14:19:48.999Z</time></trkpt><trkpt lat="43.876900338269515" lon="12.28141414870615"><ele>304.8</ele><time>2026-05-02T14:19:49.999Z</time></trkpt><trkpt lat="43.876948036045555" lon="12.281289405261285"><ele>305.40000000000003</ele><time>2026-05-02T14:19:50.999Z</time></trkpt><trkpt lat="43.876962002688984" lon="12.281145179194631"><ele>306.0</ele><time>2026-05-02T14:19:51.999Z</time></trkpt><trkpt lat="43.87696499357346" lon="12.281003949503702"><ele>306.0</ele><time>2026-05-02T14:19:52.999Z</time></trkpt><trkpt lat="43.876969316980784" lon="12.280876192852444"><ele>306.0</ele><time>2026-05-02T14:19:53.999Z</time></trkpt><trkpt lat="43.87698276144474" lon="12.280749450274723"><ele>306.0</ele><time>2026-05-02T14:19:55Z</time></trkpt><trkpt lat="43.87703052817732" lon="12.280647230509105"><ele>306.0</ele><time>2026-05-02T14:19:56Z</time></trkpt><trkpt lat="43.877105698450166" lon="12.280557689685521"><ele>306.0</ele><time>2026-05-02T14:19:57Z</time></trkpt><trkpt lat="43.87720164573249" lon="12.280483136523285"><ele>309.0</ele><time>2026-05-02T14:19:58Z</time></trkpt><trkpt lat="43.877308848433174" lon="12.28043315366801"><ele>312.0</ele><time>2026-05-02T14:19:59Z</time></trkpt><trkpt lat="43.877421965893305" lon="12.280405460918688"><ele>315.0</ele><time>2026-05-02T14:20:00Z</time></trkpt><trkpt lat="43.877537145473454" lon="12.280415140350126"><ele>318.0</ele><time>2026-05-02T14:20:01Z</time></trkpt><trkpt lat="43.87764854397783" lon="12.280454317735357"><ele>317.5</ele><time>2026-05-02T14:20:02Z</time></trkpt><trkpt lat="43.87777036500392" lon="12.280508867234703"><ele>317.0</ele><time>2026-05-02T14:20:03Z</time></trkpt><trkpt lat="43.87789287772335" lon="12.280579667279904"><ele>316.5</ele><time>2026-05-02T14:20:04Z</time></trkpt><trkpt lat="43.87801667883204" lon="12.280666162232345"><ele>316.0</ele><time>2026-05-02T14:20:05Z</time></trkpt><trkpt lat="43.87814241855509" lon="12.280751305448046"><ele>316.0</ele><time>2026-05-02T14:20:06Z</time></trkpt><trkpt lat="43.87825643921516" lon="12.2808362715855"><ele>316.0</ele><time>2026-05-02T14:20:07Z</time></trkpt><trkpt lat="43.878367045617196" lon="12.280921586251772"><ele>316.0</ele><time>2026-05-02T14:20:08Z</time></trkpt><trkpt lat="43.87847983618517" lon="12.281004248905159"><ele>316.0</ele><time>2026-05-02T14:20:09Z</time></trkpt><trkpt lat="43.87858812090658" lon="12.281078388678209"><ele>320.25</ele><time>2026-05-02T14:20:10Z</time></trkpt><trkpt lat="43.87869674921076" lon="12.28114563242143"><ele>324.5</ele><time>2026-05-02T14:20:11Z</time></trkpt><trkpt lat="43.87881989372205" lon="12.281199555166351"><ele>328.75</ele><time>2026-05-02T14:20:12Z</time></trkpt><trkpt lat="43.87895235712303" lon="12.281248176449374"><ele>333.0</ele><time>2026-05-02T14:20:13Z</time></trkpt><trkpt lat="43.87910203437941" lon="12.281293783493577"><ele>336.3333333333333</ele><time>2026-05-02T14:20:14Z</time></trkpt><trkpt lat="43.879283713496676" lon="12.281393119120974"><ele>339.66666666666663</ele><time>2026-05-02T14:20:15Z</time></trkpt><trkpt lat="43.87949871872281" lon="12.281483190595639"><ele>343.0</ele><time>2026-05-02T14:20:16Z</time></trkpt><trkpt lat="43.87972646638617" lon="12.281578600225696"><ele>341.66666666666663</ele><time>2026-05-02T14:20:17Z</time></trkpt><trkpt lat="43.87992195791209" lon="12.281637899208594"><ele>340.3333333333333</ele><time>2026-05-02T14:20:18Z</time></trkpt><trkpt lat="43.88007920145939" lon="12.281709962366156"><ele>339.0</ele><time>2026-05-02T14:20:19Z</time></trkpt><trkpt lat="43.880205682245794" lon="12.281777585078261"><ele>339.0</ele><time>2026-05-02T14:20:20Z</time></trkpt><trkpt lat="43.88031295476568" lon="12.28183810856709"><ele>339.0</ele><time>2026-05-02T14:20:21Z</time></trkpt><trkpt lat="43.8804056773251" lon="12.281897217713171"><ele>339.0</ele><time>2026-05-02T14:20:22Z</time></trkpt><trkpt lat="43.88048578647352" lon="12.28196813165541"><ele>339.0</ele><time>2026-05-02T14:20:23Z</time></trkpt><trkpt lat="43.88057106973666" lon="12.282065003625009"><ele>339.0</ele><time>2026-05-02T14:20:24Z</time></trkpt><trkpt lat="43.88066270768227" lon="12.282185571426579"><ele>338.3333333333333</ele><time>2026-05-02T14:20:25Z</time></trkpt><trkpt lat="43.88074299451937" lon="12.282343925536516"><ele>337.66666666666663</ele><time>2026-05-02T14:20:26Z</time></trkpt><trkpt lat="43.88086016343477" lon="12.282496624521656"><ele>337.0</ele><time>2026-05-02T14:20:27Z</time></trkpt><trkpt lat="43.88095734452566" lon="12.2826561286927"><ele>337.0</ele><time>2026-05-02T14:20:28Z</time></trkpt><trkpt lat="43.88105115473122" lon="12.282800256145256"><ele>337.0</ele><time>2026-05-02T14:20:29Z</time></trkpt><trkpt lat="43.881158166715984" lon="12.28296973873781"><ele>337.0</ele><time>2026-05-02T14:20:30Z</time></trkpt><trkpt lat="43.88126281101486" lon="12.283144635428702"><ele>333.66666666666663</ele><time>2026-05-02T14:20:31Z</time></trkpt><trkpt lat="43.88135934801747" lon="12.283309147447929"><ele>330.3333333333333</ele><time>2026-05-02T14:20:32Z</time></trkpt><trkpt lat="43.8814708320577" lon="12.283498876975477"><ele>327.0</ele><time>2026-05-02T14:20:33Z</time></trkpt><trkpt lat="43.88157761036681" lon="12.283626964127997"><ele>327.0</ele><time>2026-05-02T14:20:34Z</time></trkpt><trkpt lat="43.881674741623854" lon="12.28374440606861"><ele>327.0</ele><time>2026-05-02T14:20:35Z</time></trkpt><trkpt lat="43.881779374789545" lon="12.283828207255972"><ele>327.0</ele><time>2026-05-02T14:20:36Z</time></trkpt><trkpt lat="43.881908673865084" lon="12.283889627178855"><ele>327.0</ele><time>2026-05-02T14:20:37Z</time></trkpt><trkpt lat="43.88205530066154" lon="12.283929019235192"><ele>328.0</ele><time>2026-05-02T14:20:38Z</time></trkpt><trkpt lat="43.88221288694552" lon="12.283939913025568"><ele>329.0</ele><time>2026-05-02T14:20:39Z</time></trkpt><trkpt lat="43.88238584347888" lon="12.28392436801963"><ele>330.0</ele><time>2026-05-02T14:20:40Z</time></trkpt><trkpt lat="43.88256268986265" lon="12.283900378981187"><ele>326.3333333333333</ele><time>2026-05-02T14:20:41Z</time></trkpt><trkpt lat="43.88273705023706" lon="12.283838082616505"><ele>322.66666666666663</ele><time>2026-05-02T14:20:42Z</time></trkpt><trkpt lat="43.8829153467797" lon="12.283716463199587"><ele>319.0</ele><time>2026-05-02T14:20:43Z</time></trkpt><trkpt lat="43.883097102294784" lon="12.283566842754622"><ele>319.0</ele><time>2026-05-02T14:20:43.999Z</time></trkpt><trkpt lat="43.883286726263655" lon="12.283408815522073"><ele>319.0</ele><time>2026-05-02T14:20:44.999Z</time></trkpt><trkpt lat="43.8834732851665" lon="12.283253418179477"><ele>319.0</ele><time>2026-05-02T14:20:45.999Z</time></trkpt><trkpt lat="43.8836431195767" lon="12.28311976146334"><ele>321.3333333333333</ele><time>2026-05-02T14:20:46.999Z</time></trkpt><trkpt lat="43.883805857753465" lon="12.283042420549245"><ele>323.6666666666667</ele><time>2026-05-02T14:20:47.999Z</time></trkpt><trkpt lat="43.88396909674444" lon="12.283034315715485"><ele>326.0</ele><time>2026-05-02T14:20:48.999Z</time></trkpt><trkpt lat="43.88415020296512" lon="12.28309164907981"><ele>321.33333333333337</ele><time>2026-05-02T14:20:49.999Z</time></trkpt><trkpt lat="43.88435320854157" lon="12.283208770818753"><ele>316.6666666666667</ele><time>2026-05-02T14:20:50.999Z</time></trkpt><trkpt lat="43.884543185409186" lon="12.28335598337008"><ele>312.0</ele><time>2026-05-02T14:20:51.999Z</time></trkpt><trkpt lat="43.884716044429766" lon="12.283480347743556"><ele>312.0</ele><time>2026-05-02T14:20:52.999Z</time></trkpt><trkpt lat="43.88485945813945" lon="12.283627145993753"><ele>312.0</ele><time>2026-05-02T14:20:53.999Z</time></trkpt><trkpt lat="43.884958646541996" lon="12.28381609567602"><ele>312.0</ele><time>2026-05-02T14:20:54.999Z</time></trkpt><trkpt lat="43.88502933162346" lon="12.284025957579274"><ele>309.25</ele><time>2026-05-02T14:20:55.999Z</time></trkpt><trkpt lat="43.885099709965914" lon="12.284220980199597"><ele>306.5</ele><time>2026-05-02T14:20:56.999Z</time></trkpt><trkpt lat="43.88514485041598" lon="12.284384086744007"><ele>303.75</ele><time>2026-05-02T14:20:57.999Z</time></trkpt><trkpt lat="43.88522540440524" lon="12.284504963080797"><ele>301.0</ele><time>2026-05-02T14:20:58.999Z</time></trkpt><trkpt lat="43.885348808550965" lon="12.284575696571622"><ele>301.0</ele><time>2026-05-02T14:20:59.999Z</time></trkpt><trkpt lat="43.88550218205649" lon="12.284607751073315"><ele>301.0</ele><time>2026-05-02T14:21:00.999Z</time></trkpt><trkpt lat="43.885669435074846" lon="12.284617567762847"><ele>301.0</ele><time>2026-05-02T14:21:01.999Z</time></trkpt><trkpt lat="43.88584371714726" lon="12.284647764375569"><ele>300.66666666666663</ele><time>2026-05-02T14:21:02.999Z</time></trkpt><trkpt lat="43.88599709836693" lon="12.284723299305197"><ele>300.3333333333333</ele><time>2026-05-02T14:21:03.999Z</time></trkpt><trkpt lat="43.886112074608135" lon="12.28487258898586"><ele>300.0</ele><time>2026-05-02T14:21:04.999Z</time></trkpt><trkpt lat="43.88622941418807" lon="12.285023548031"><ele>297.6666666666667</ele><time>2026-05-02T14:21:05.999Z</time></trkpt><trkpt lat="43.88636525585546" lon="12.28518418724846"><ele>295.33333333333337</ele><time>2026-05-02T14:21:06.999Z</time></trkpt><trkpt lat="43.88650239195428" lon="12.28534254104834"><ele>293.0</ele><time>2026-05-02T14:21:07.999Z</time></trkpt><trkpt lat="43.88664945390479" lon="12.285458821109195"><ele>292.6666666666667</ele><time>2026-05-02T14:21:08.999Z</time></trkpt><trkpt lat="43.88679327284033" lon="12.285521860302488"><ele>292.3333333333333</ele><time>2026-05-02T14:21:09.999Z</time></trkpt><trkpt lat="43.88694594038556" lon="12.285514433056877"><ele>292.0</ele><time>2026-05-02T14:21:10.999Z</time></trkpt><trkpt lat="43.887093396753414" lon="12.285476038996649"><ele>292.0</ele><time>2026-05-02T14:21:11.999Z</time></trkpt><trkpt lat="43.88723598939111" lon="12.285439724130338"><ele>292.0</ele><time>2026-05-02T14:21:12.999Z</time></trkpt><trkpt lat="43.887378664603595" lon="12.28543308974937"><ele>292.0</ele><time>2026-05-02T14:21:13.999Z</time></trkpt><trkpt lat="43.8875008095241" lon="12.285468503958265"><ele>292.0</ele><time>2026-05-02T14:21:14.999Z</time></trkpt><trkpt lat="43.887595018850746" lon="12.285588798112297"><ele>290.75</ele><time>2026-05-02T14:21:15.999Z</time></trkpt><trkpt lat="43.887715113186665" lon="12.285699540652182"><ele>289.5</ele><time>2026-05-02T14:21:16.999Z</time></trkpt><trkpt lat="43.88781838705094" lon="12.285850324419787"><ele>288.25</ele><time>2026-05-02T14:21:17.999Z</time></trkpt><trkpt lat="43.88793149037256" lon="12.285998059421532"><ele>287.0</ele><time>2026-05-02T14:21:18.999Z</time></trkpt><trkpt lat="43.88804270442012" lon="12.286137463830153"><ele>287.0</ele><time>2026-05-02T14:21:19.999Z</time></trkpt><trkpt lat="43.88814617210811" lon="12.2862760924314"><ele>287.0</ele><time>2026-05-02T14:21:20.999Z</time></trkpt><trkpt lat="43.88823360810878" lon="12.286419119846622"><ele>287.0</ele><time>2026-05-02T14:21:21.999Z</time></trkpt><trkpt lat="43.88829617502585" lon="12.286557789931626"><ele>287.0</ele><time>2026-05-02T14:21:22.999Z</time></trkpt><trkpt lat="43.88832457463862" lon="12.286683163098436"><ele>286.83333333333337</ele><time>2026-05-02T14:21:23.999Z</time></trkpt><trkpt lat="43.88833543433308" lon="12.286790313840028"><ele>286.6666666666667</ele><time>2026-05-02T14:21:24.999Z</time></trkpt><trkpt lat="43.8883228902985" lon="12.286884503066728"><ele>286.5</ele><time>2026-05-02T14:21:25.999Z</time></trkpt><trkpt lat="43.888316694027516" lon="12.286972577683553"><ele>286.3333333333333</ele><time>2026-05-02T14:21:26.999Z</time></trkpt><trkpt lat="43.88836356596786" lon="12.287109547327393"><ele>286.16666666666663</ele><time>2026-05-02T14:21:28.999Z</time></trkpt><trkpt lat="43.88839871753142" lon="12.287264193836936"><ele>286.0</ele><time>2026-05-02T14:21:30.999Z</time></trkpt><trkpt lat="43.88841857165888" lon="12.287374751078627"><ele>287.0</ele><time>2026-05-02T14:21:31.999Z</time></trkpt><trkpt lat="43.88844984387208" lon="12.287494712999306"><ele>288.0</ele><time>2026-05-02T14:21:32.999Z</time></trkpt><trkpt lat="43.88848953919051" lon="12.28759592318075"><ele>289.0</ele><time>2026-05-02T14:21:33.999Z</time></trkpt><trkpt lat="43.88854541056048" lon="12.28769777448222"><ele>290.0</ele><time>2026-05-02T14:21:34.999Z</time></trkpt><trkpt lat="43.88860713698665" lon="12.287798439642888"><ele>291.0</ele><time>2026-05-02T14:21:35.999Z</time></trkpt><trkpt lat="43.88867911019363" lon="12.287886334678948"><ele>291.0</ele><time>2026-05-02T14:21:36.999Z</time></trkpt><trkpt lat="43.888766872403075" lon="12.287958129959904"><ele>291.0</ele><time>2026-05-02T14:21:37.999Z</time></trkpt><trkpt lat="43.888876536027404" lon="12.288014373782604"><ele>291.0</ele><time>2026-05-02T14:21:38.999Z</time></trkpt><trkpt lat="43.889001807735184" lon="12.288074471495053"><ele>291.0</ele><time>2026-05-02T14:21:39.999Z</time></trkpt><trkpt lat="43.889147582260364" lon="12.288129515970786"><ele>290.6666666666667</ele><time>2026-05-02T14:21:40.999Z</time></trkpt><trkpt lat="43.88930393817919" lon="12.288187698941144"><ele>290.33333333333337</ele><time>2026-05-02T14:21:41.999Z</time></trkpt><trkpt lat="43.88946696956162" lon="12.288228110123086"><ele>290.0</ele><time>2026-05-02T14:21:42.999Z</time></trkpt><trkpt lat="43.88963027702969" lon="12.288294198547806"><ele>290.0</ele><time>2026-05-02T14:21:43.999Z</time></trkpt><trkpt lat="43.88979076812745" lon="12.288354998957299"><ele>290.0</ele><time>2026-05-02T14:21:44.999Z</time></trkpt><trkpt lat="43.88994980527974" lon="12.288418426336543"><ele>290.0</ele><time>2026-05-02T14:21:45.999Z</time></trkpt><trkpt lat="43.89011044443394" lon="12.28847913690796"><ele>291.6666666666667</ele><time>2026-05-02T14:21:46.999Z</time></trkpt><trkpt lat="43.89026692508799" lon="12.288535939835116"><ele>293.3333333333333</ele><time>2026-05-02T14:21:47.999Z</time></trkpt><trkpt lat="43.89042076278205" lon="12.28859016631116"><ele>295.0</ele><time>2026-05-02T14:21:48.999Z</time></trkpt><trkpt lat="43.89056735448104" lon="12.288644281495177"><ele>295.0</ele><time>2026-05-02T14:21:49.999Z</time></trkpt><trkpt lat="43.89071325914923" lon="12.288703149615113"><ele>295.0</ele><time>2026-05-02T14:21:50.999Z</time></trkpt><trkpt lat="43.89086447645023" lon="12.288759445724716"><ele>295.0</ele><time>2026-05-02T14:21:51.999Z</time></trkpt><trkpt lat="43.89100739937801" lon="12.28881580128276"><ele>294.5</ele><time>2026-05-02T14:21:52.999Z</time></trkpt><trkpt lat="43.89114669346186" lon="12.288864556699695"><ele>294.0</ele><time>2026-05-02T14:21:53.999Z</time></trkpt><trkpt lat="43.891292927714815" lon="12.28891349149281"><ele>293.5</ele><time>2026-05-02T14:21:54.999Z</time></trkpt><trkpt lat="43.89143652885483" lon="12.288965192379228"><ele>293.0</ele><time>2026-05-02T14:21:55.999Z</time></trkpt><trkpt lat="43.89157621029072" lon="12.28901666855139"><ele>293.0</ele><time>2026-05-02T14:21:56.999Z</time></trkpt><trkpt lat="43.89171108063895" lon="12.289063301761333"><ele>293.0</ele><time>2026-05-02T14:21:57.999Z</time></trkpt><trkpt lat="43.891841335183784" lon="12.289107634059034"><ele>293.0</ele><time>2026-05-02T14:21:58.999Z</time></trkpt><trkpt lat="43.8919754058581" lon="12.289161420917775"><ele>293.0</ele><time>2026-05-02T14:22:00Z</time></trkpt><trkpt lat="43.8921025914642" lon="12.289229478417829"><ele>293.0</ele><time>2026-05-02T14:22:01Z</time></trkpt><trkpt lat="43.892231898768294" lon="12.289256973882974"><ele>293.0</ele><time>2026-05-02T14:22:02Z</time></trkpt><trkpt lat="43.89235973417097" lon="12.289304135374186"><ele>293.0</ele><time>2026-05-02T14:22:03Z</time></trkpt><trkpt lat="43.8924957186676" lon="12.28935180383761"><ele>293.0</ele><time>2026-05-02T14:22:04Z</time></trkpt><trkpt lat="43.892631860176486" lon="12.289398862828703"><ele>293.0</ele><time>2026-05-02T14:22:05Z</time></trkpt><trkpt lat="43.89277295015925" lon="12.289447348694514"><ele>293.0</ele><time>2026-05-02T14:22:06Z</time></trkpt><trkpt lat="43.89291461320978" lon="12.289495432857262"><ele>293.0</ele><time>2026-05-02T14:22:07Z</time></trkpt><trkpt lat="43.89306020449444" lon="12.289532914324036"><ele>293.0</ele><time>2026-05-02T14:22:08Z</time></trkpt><trkpt lat="43.89320759167608" lon="12.289542160345947"><ele>293.0</ele><time>2026-05-02T14:22:09Z</time></trkpt><trkpt lat="43.893357579669406" lon="12.289512872577415"><ele>293.0</ele><time>2026-05-02T14:22:10Z</time></trkpt><trkpt lat="43.893503711249366" lon="12.289465229367906"><ele>293.0</ele><time>2026-05-02T14:22:11Z</time></trkpt><trkpt lat="43.89364408211628" lon="12.289417938803417"><ele>293.0</ele><time>2026-05-02T14:22:12Z</time></trkpt><trkpt lat="43.89377712895286" lon="12.289391751476069"><ele>292.25</ele><time>2026-05-02T14:22:13Z</time></trkpt><trkpt lat="43.893902870050674" lon="12.289363270401894"><ele>291.5</ele><time>2026-05-02T14:22:14Z</time></trkpt><trkpt lat="43.8940286308234" lon="12.289329975503087"><ele>290.75</ele><time>2026-05-02T14:22:15Z</time></trkpt><trkpt lat="43.89416041973748" lon="12.289299906865008"><ele>290.0</ele><time>2026-05-02T14:22:16Z</time></trkpt><trkpt lat="43.89429840315085" lon="12.289267824644554"><ele>289.25</ele><time>2026-05-02T14:22:17Z</time></trkpt><trkpt lat="43.8944372639703" lon="12.289237350975583"><ele>288.5</ele><time>2026-05-02T14:22:18Z</time></trkpt><trkpt lat="43.894563678882434" lon="12.289203011666132"><ele>287.75</ele><time>2026-05-02T14:22:19Z</time></trkpt><trkpt lat="43.894673130815704" lon="12.289142619638115"><ele>287.0</ele><time>2026-05-02T14:22:20Z</time></trkpt><trkpt lat="43.89476281305377" lon="12.289059421981653"><ele>287.0</ele><time>2026-05-02T14:22:21Z</time></trkpt><trkpt lat="43.89483261385733" lon="12.288964820465369"><ele>287.0</ele><time>2026-05-02T14:22:22Z</time></trkpt><trkpt lat="43.89489681326913" lon="12.288869251847183"><ele>287.0</ele><time>2026-05-02T14:22:23Z</time></trkpt><trkpt lat="43.89493562414554" lon="12.288792371066153"><ele>287.0</ele><time>2026-05-02T14:22:24Z</time></trkpt><trkpt lat="43.89501004858509" lon="12.288674640337392"><ele>287.0</ele><time>2026-05-02T14:22:26Z</time></trkpt><trkpt lat="43.894878704118284" lon="12.288505451992195"><ele>287.25</ele><time>2026-05-02T14:22:27Z</time></trkpt><trkpt lat="43.894835534905724" lon="12.288354649132286"><ele>287.5</ele><time>2026-05-02T14:22:28Z</time></trkpt><trkpt lat="43.894822693016934" lon="12.288164605278022"><ele>287.75</ele><time>2026-05-02T14:22:29Z</time></trkpt><trkpt lat="43.8948104289625" lon="12.287958380040642"><ele>288.0</ele><time>2026-05-02T14:22:30Z</time></trkpt><trkpt lat="43.89480974380105" lon="12.287775394572229"><ele>289.25</ele><time>2026-05-02T14:22:31Z</time></trkpt><trkpt lat="43.89480728845993" lon="12.28762283477043"><ele>290.5</ele><time>2026-05-02T14:22:32Z</time></trkpt><trkpt lat="43.894765807774505" lon="12.287481162215771"><ele>291.75</ele><time>2026-05-02T14:22:33Z</time></trkpt><trkpt lat="43.89467617315301" lon="12.287373648462196"><ele>293.0</ele><time>2026-05-02T14:22:34Z</time></trkpt><trkpt lat="43.894557310251386" lon="12.287321104310362"><ele>293.0</ele><time>2026-05-02T14:22:35Z</time></trkpt><trkpt lat="43.89443154219338" lon="12.287335102250621"><ele>293.0</ele><time>2026-05-02T14:22:36Z</time></trkpt><trkpt lat="43.89432044757383" lon="12.287419039457257"><ele>293.0</ele><time>2026-05-02T14:22:37Z</time></trkpt><trkpt lat="43.89424494248433" lon="12.287566505910203"><ele>293.0</ele><time>2026-05-02T14:22:38Z</time></trkpt><trkpt lat="43.89420355472041" lon="12.287764149944465"><ele>294.0</ele><time>2026-05-02T14:22:39Z</time></trkpt><trkpt lat="43.89416593073239" lon="12.287965675196645"><ele>295.0</ele><time>2026-05-02T14:22:40Z</time></trkpt><trkpt lat="43.89412364759988" lon="12.288155107433521"><ele>296.0</ele><time>2026-05-02T14:22:41Z</time></trkpt><trkpt lat="43.8940720602787" lon="12.288305369173116"><ele>297.0</ele><time>2026-05-02T14:22:42Z</time></trkpt><trkpt lat="43.893988899788134" lon="12.28839956082191"><ele>297.0</ele><time>2026-05-02T14:22:43Z</time></trkpt><trkpt lat="43.89388449928588" lon="12.288444089050556"><ele>297.0</ele><time>2026-05-02T14:22:44Z</time></trkpt><trkpt lat="43.89377130004021" lon="12.288411461158516"><ele>297.0</ele><time>2026-05-02T14:22:44.999Z</time></trkpt><trkpt lat="43.89368114131799" lon="12.288319002324679"><ele>297.0</ele><time>2026-05-02T14:22:45.999Z</time></trkpt><trkpt lat="43.89362781907709" lon="12.288176348038395"><ele>300.25</ele><time>2026-05-02T14:22:46.999Z</time></trkpt><trkpt lat="43.89360548279426" lon="12.287989275038397"><ele>303.5</ele><time>2026-05-02T14:22:47.999Z</time></trkpt><trkpt lat="43.89359286875197" lon="12.287786748140677"><ele>306.75</ele><time>2026-05-02T14:22:48.999Z</time></trkpt><trkpt lat="43.89354768814355" lon="12.287625372738756"><ele>310.0</ele><time>2026-05-02T14:22:49.999Z</time></trkpt><trkpt lat="43.893454458881045" lon="12.287507085048022"><ele>310.25</ele><time>2026-05-02T14:22:50.999Z</time></trkpt><trkpt lat="43.893328664185766" lon="12.287435142775216"><ele>310.5</ele><time>2026-05-02T14:22:51.999Z</time></trkpt><trkpt lat="43.89318613270038" lon="12.287451224820074"><ele>310.75</ele><time>2026-05-02T14:22:52.999Z</time></trkpt><trkpt lat="43.89303953026174" lon="12.287531733549063"><ele>311.0</ele><time>2026-05-02T14:22:53.999Z</time></trkpt><trkpt lat="43.892892014020376" lon="12.287644498918178"><ele>311.0</ele><time>2026-05-02T14:22:54.999Z</time></trkpt><trkpt lat="43.89276269053138" lon="12.287706128609996"><ele>311.0</ele><time>2026-05-02T14:22:55.999Z</time></trkpt><trkpt lat="43.89265676411779" lon="12.287687434921231"><ele>311.0</ele><time>2026-05-02T14:22:56.999Z</time></trkpt><trkpt lat="43.8925538323408" lon="12.287593730492636"><ele>311.0</ele><time>2026-05-02T14:22:57.999Z</time></trkpt><trkpt lat="43.89247023403683" lon="12.287453398950413"><ele>312.0</ele><time>2026-05-02T14:22:58.999Z</time></trkpt><trkpt lat="43.892340354004475" lon="12.287317812149144"><ele>313.0</ele><time>2026-05-02T14:22:59.999Z</time></trkpt><trkpt lat="43.89221090786787" lon="12.287137946123854"><ele>314.0</ele><time>2026-05-02T14:23:00.999Z</time></trkpt><trkpt lat="43.892101864042125" lon="12.286937862498535"><ele>318.0</ele><time>2026-05-02T14:23:01.999Z</time></trkpt><trkpt lat="43.89202752013671" lon="12.286706549312877"><ele>322.0</ele><time>2026-05-02T14:23:02.999Z</time></trkpt><trkpt lat="43.891972406951815" lon="12.286448160267051"><ele>326.0</ele><time>2026-05-02T14:23:03.999Z</time></trkpt><trkpt lat="43.89192491847915" lon="12.286168352949575"><ele>328.33333333333337</ele><time>2026-05-02T14:23:04.999Z</time></trkpt><trkpt lat="43.89187926292259" lon="12.285893280200192"><ele>330.6666666666667</ele><time>2026-05-02T14:23:05.999Z</time></trkpt><trkpt lat="43.89183398682683" lon="12.285638150418574"><ele>333.0</ele><time>2026-05-02T14:23:06.999Z</time></trkpt><trkpt lat="43.891812260228214" lon="12.285448411784934"><ele>334.0</ele><time>2026-05-02T14:23:07.999Z</time></trkpt><trkpt lat="43.891828056043906" lon="12.285300212781385"><ele>335.0</ele><time>2026-05-02T14:23:08.999Z</time></trkpt><trkpt lat="43.891889703409035" lon="12.28519520159358"><ele>336.0</ele><time>2026-05-02T14:23:09.999Z</time></trkpt><trkpt lat="43.89198199958152" lon="12.28514042112322"><ele>337.0</ele><time>2026-05-02T14:23:10.999Z</time></trkpt><trkpt lat="43.8920948488462" lon="12.285116517043488"><ele>338.0</ele><time>2026-05-02T14:23:11.999Z</time></trkpt><trkpt lat="43.89221315040855" lon="12.285168629235757"><ele>338.0</ele><time>2026-05-02T14:23:12.999Z</time></trkpt><trkpt lat="43.892313951710655" lon="12.285290576654296"><ele>338.0</ele><time>2026-05-02T14:23:13.999Z</time></trkpt><trkpt lat="43.89242006953974" lon="12.285433296436421"><ele>338.0</ele><time>2026-05-02T14:23:14.999Z</time></trkpt><trkpt lat="43.892550203264676" lon="12.285563231103147"><ele>338.0</ele><time>2026-05-02T14:23:15.999Z</time></trkpt><trkpt lat="43.8927038282903" lon="12.285653799960905"><ele>337.25</ele><time>2026-05-02T14:23:16.999Z</time></trkpt><trkpt lat="43.892864594726355" lon="12.285683800053357"><ele>336.5</ele><time>2026-05-02T14:23:17.999Z</time></trkpt><trkpt lat="43.89299375691928" lon="12.285624243829004"><ele>335.75</ele><time>2026-05-02T14:23:18.999Z</time></trkpt><trkpt lat="43.89312038567707" lon="12.285517733475901"><ele>335.0</ele><time>2026-05-02T14:23:19.999Z</time></trkpt><trkpt lat="43.89323046456825" lon="12.285357352857522"><ele>337.6666666666667</ele><time>2026-05-02T14:23:20.999Z</time></trkpt><trkpt lat="43.893342815335025" lon="12.285168243050192"><ele>340.3333333333333</ele><time>2026-05-02T14:23:21.999Z</time></trkpt><trkpt lat="43.89344595527063" lon="12.284998105020177"><ele>343.0</ele><time>2026-05-02T14:23:22.999Z</time></trkpt><trkpt lat="43.893559434392074" lon="12.284762703715774"><ele>345.3333333333333</ele><time>2026-05-02T14:23:23.999Z</time></trkpt><trkpt lat="43.89367274736658" lon="12.284518049397674"><ele>347.6666666666667</ele><time>2026-05-02T14:23:24.999Z</time></trkpt><trkpt lat="43.89379455492509" lon="12.28427742851817"><ele>350.0</ele><time>2026-05-02T14:23:25.999Z</time></trkpt><trkpt lat="43.89392136437695" lon="12.284038327988949"><ele>352.6666666666667</ele><time>2026-05-02T14:23:26.999Z</time></trkpt><trkpt lat="43.89404441766957" lon="12.283797937070988"><ele>355.3333333333333</ele><time>2026-05-02T14:23:27.999Z</time></trkpt><trkpt lat="43.89415997942666" lon="12.283580999390459"><ele>358.0</ele><time>2026-05-02T14:23:28.999Z</time></trkpt><trkpt lat="43.894253687829725" lon="12.283355312426908"><ele>356.3333333333333</ele><time>2026-05-02T14:23:29.999Z</time></trkpt><trkpt lat="43.894314754848764" lon="12.283114427018658"><ele>354.6666666666667</ele><time>2026-05-02T14:23:30.999Z</time></trkpt><trkpt lat="43.894358078246995" lon="12.282850090871497"><ele>353.0</ele><time>2026-05-02T14:23:31.999Z</time></trkpt><trkpt lat="43.89440413392762" lon="12.28257879714938"><ele>353.0</ele><time>2026-05-02T14:23:32.999Z</time></trkpt><trkpt lat="43.894450433931176" lon="12.282290920073079"><ele>353.0</ele><time>2026-05-02T14:23:33.999Z</time></trkpt><trkpt lat="43.89449966813068" lon="12.281990668391499"><ele>353.0</ele><time>2026-05-02T14:23:34.999Z</time></trkpt><trkpt lat="43.89454212480153" lon="12.281682524373167"><ele>356.5</ele><time>2026-05-02T14:23:35.999Z</time></trkpt><trkpt lat="43.89459126003853" lon="12.281372563991786"><ele>360.0</ele><time>2026-05-02T14:23:36.999Z</time></trkpt><trkpt lat="43.894642166548095" lon="12.28106030462767"><ele>360.0</ele><time>2026-05-02T14:23:37.999Z</time></trkpt><trkpt lat="43.89468906428118" lon="12.280790562668042"><ele>360.0</ele><time>2026-05-02T14:23:38.999Z</time></trkpt><trkpt lat="43.894729483163204" lon="12.28056051912285"><ele>360.0</ele><time>2026-05-02T14:23:39.999Z</time></trkpt><trkpt lat="43.894765856413514" lon="12.280350505676992"><ele>361.25</ele><time>2026-05-02T14:23:40.999Z</time></trkpt><trkpt lat="43.894802254922496" lon="12.280151926291236"><ele>362.5</ele><time>2026-05-02T14:23:41.999Z</time></trkpt><trkpt lat="43.89482442123123" lon="12.279966977942243"><ele>363.75</ele><time>2026-05-02T14:23:42.999Z</time></trkpt><trkpt lat="43.8948505162553" lon="12.279784218748357"><ele>365.0</ele><time>2026-05-02T14:23:43.999Z</time></trkpt><trkpt lat="43.89486467248572" lon="12.279607988261763"><ele>366.5</ele><time>2026-05-02T14:23:44.999Z</time></trkpt><trkpt lat="43.89485503775054" lon="12.279443528172052"><ele>368.0</ele><time>2026-05-02T14:23:45.999Z</time></trkpt><trkpt lat="43.8948451212576" lon="12.279277674787801"><ele>369.5</ele><time>2026-05-02T14:23:46.999Z</time></trkpt><trkpt lat="43.89483657144303" lon="12.27910988372711"><ele>371.0</ele><time>2026-05-02T14:23:47.999Z</time></trkpt><trkpt lat="43.89483285709421" lon="12.278950416337759"><ele>372.0</ele><time>2026-05-02T14:23:48.999Z</time></trkpt><trkpt lat="43.89482280495248" lon="12.27879378962746"><ele>373.0</ele><time>2026-05-02T14:23:49.999Z</time></trkpt><trkpt lat="43.89482171975373" lon="12.278640465331323"><ele>374.0</ele><time>2026-05-02T14:23:50.999Z</time></trkpt><trkpt lat="43.894860261227365" lon="12.27850222474215"><ele>375.0</ele><time>2026-05-02T14:23:51.999Z</time></trkpt><trkpt lat="43.894908717624055" lon="12.278354251949274"><ele>376.0</ele><time>2026-05-02T14:23:52.999Z</time></trkpt><trkpt lat="43.8950117705898" lon="12.278253148120525"><ele>378.0</ele><time>2026-05-02T14:23:53.999Z</time></trkpt><trkpt lat="43.895143787765576" lon="12.27824732991265"><ele>380.0</ele><time>2026-05-02T14:23:54.999Z</time></trkpt><trkpt lat="43.89526422622375" lon="12.278286302564931"><ele>382.0</ele><time>2026-05-02T14:23:55.999Z</time></trkpt><trkpt lat="43.89539930385882" lon="12.278361483782499"><ele>384.0</ele><time>2026-05-02T14:23:56.999Z</time></trkpt><trkpt lat="43.8955571163754" lon="12.278460971488522"><ele>384.0</ele><time>2026-05-02T14:23:57.999Z</time></trkpt><trkpt lat="43.89569855258393" lon="12.278550360634094"><ele>384.0</ele><time>2026-05-02T14:23:58.999Z</time></trkpt><trkpt lat="43.89581807851465" lon="12.278608566264381"><ele>384.0</ele><time>2026-05-02T14:23:59.999Z</time></trkpt><trkpt lat="43.89593363680798" lon="12.278687041530535"><ele>384.0</ele><time>2026-05-02T14:24:00.999Z</time></trkpt><trkpt lat="43.89605375726698" lon="12.278754021030087"><ele>385.0</ele><time>2026-05-02T14:24:01.999Z</time></trkpt><trkpt lat="43.89617351854312" lon="12.278784876676744"><ele>386.0</ele><time>2026-05-02T14:24:02.999Z</time></trkpt><trkpt lat="43.89630963946196" lon="12.278759127690156"><ele>387.0</ele><time>2026-05-02T14:24:03.999Z</time></trkpt><trkpt lat="43.89643982994294" lon="12.278706939854839"><ele>388.0</ele><time>2026-05-02T14:24:04.999Z</time></trkpt><trkpt lat="43.89655929817338" lon="12.278625765820696"><ele>388.0</ele><time>2026-05-02T14:24:06Z</time></trkpt><trkpt lat="43.89665670739878" lon="12.278527419579822"><ele>388.0</ele><time>2026-05-02T14:24:07Z</time></trkpt><trkpt lat="43.89674802654303" lon="12.278431960215128"><ele>388.0</ele><time>2026-05-02T14:24:08Z</time></trkpt><trkpt lat="43.896856454435074" lon="12.278360381690842"><ele>388.0</ele><time>2026-05-02T14:24:09Z</time></trkpt><trkpt lat="43.896975542689184" lon="12.278328222701711"><ele>390.25</ele><time>2026-05-02T14:24:10Z</time></trkpt><trkpt lat="43.897089535712055" lon="12.278347746319822"><ele>392.5</ele><time>2026-05-02T14:24:11Z</time></trkpt><trkpt lat="43.89719473487792" lon="12.278404803676514"><ele>394.75</ele><time>2026-05-02T14:24:12Z</time></trkpt><trkpt lat="43.897292961716175" lon="12.278491941742828"><ele>397.0</ele><time>2026-05-02T14:24:13Z</time></trkpt><trkpt lat="43.897369644118335" lon="12.278627206395495"><ele>397.0</ele><time>2026-05-02T14:24:14Z</time></trkpt><trkpt lat="43.89744774355731" lon="12.278773137515808"><ele>397.0</ele><time>2026-05-02T14:24:15Z</time></trkpt><trkpt lat="43.89752800276302" lon="12.278925734796655"><ele>397.0</ele><time>2026-05-02T14:24:16Z</time></trkpt><trkpt lat="43.897591945311866" lon="12.279081753910624"><ele>397.0</ele><time>2026-05-02T14:24:17Z</time></trkpt><trkpt lat="43.8976634000705" lon="12.27921618669435"><ele>396.75</ele><time>2026-05-02T14:24:18Z</time></trkpt><trkpt lat="43.89776118710106" lon="12.279320973153144"><ele>396.5</ele><time>2026-05-02T14:24:19Z</time></trkpt><trkpt lat="43.89788647673852" lon="12.279391639614925"><ele>396.25</ele><time>2026-05-02T14:24:20Z</time></trkpt><trkpt lat="43.898025691073265" lon="12.279428184921866"><ele>396.0</ele><time>2026-05-02T14:24:21Z</time></trkpt><trkpt lat="43.89816237775514" lon="12.279469851742205"><ele>396.0</ele><time>2026-05-02T14:24:22Z</time></trkpt><trkpt lat="43.89828228212015" lon="12.279509903766971"><ele>396.0</ele><time>2026-05-02T14:24:23Z</time></trkpt><trkpt lat="43.89838896243787" lon="12.279518144859663"><ele>396.0</ele><time>2026-05-02T14:24:24Z</time></trkpt><trkpt lat="43.898486053817564" lon="12.27947195735553"><ele>396.0</ele><time>2026-05-02T14:24:25Z</time></trkpt><trkpt lat="43.89857295630855" lon="12.279371452282207"><ele>396.0</ele><time>2026-05-02T14:24:26Z</time></trkpt><trkpt lat="43.89861686139164" lon="12.279246186746425"><ele>397.0</ele><time>2026-05-02T14:24:27Z</time></trkpt><trkpt lat="43.8986265160603" lon="12.279105001102883"><ele>398.0</ele><time>2026-05-02T14:24:28Z</time></trkpt><trkpt lat="43.898607974376695" lon="12.278963698994419"><ele>399.0</ele><time>2026-05-02T14:24:29Z</time></trkpt><trkpt lat="43.898558807882715" lon="12.278868976941698"><ele>400.0</ele><time>2026-05-02T14:24:30Z</time></trkpt><trkpt lat="43.89850221538442" lon="12.27880083534666"><ele>401.0</ele><time>2026-05-02T14:24:31Z</time></trkpt><trkpt lat="43.89842625416679" lon="12.27875935608198"><ele>402.0</ele><time>2026-05-02T14:24:32Z</time></trkpt><trkpt lat="43.89833863962241" lon="12.278740220981389"><ele>405.40000000000003</ele><time>2026-05-02T14:24:33Z</time></trkpt><trkpt lat="43.898242824710564" lon="12.27873827322847"><ele>408.8</ele><time>2026-05-02T14:24:34Z</time></trkpt><trkpt lat="43.898141208038254" lon="12.278735598089158"><ele>412.2</ele><time>2026-05-02T14:24:35Z</time></trkpt><trkpt lat="43.89805312096758" lon="12.278700945043369"><ele>415.6</ele><time>2026-05-02T14:24:35.999Z</time></trkpt><trkpt lat="43.897992089472545" lon="12.278613275196097"><ele>419.0</ele><time>2026-05-02T14:24:36.999Z</time></trkpt><trkpt lat="43.897947818970664" lon="12.278479451111155"><ele>419.0</ele><time>2026-05-02T14:24:37.999Z</time></trkpt><trkpt lat="43.8979354434132" lon="12.278289688452348"><ele>419.0</ele><time>2026-05-02T14:24:38.999Z</time></trkpt><trkpt lat="43.89789559878372" lon="12.278058084858298"><ele>419.0</ele><time>2026-05-02T14:24:39.999Z</time></trkpt><trkpt lat="43.89781685559236" lon="12.277795926123485"><ele>429.0</ele><time>2026-05-02T14:24:40.999Z</time></trkpt><trkpt lat="43.89774884274355" lon="12.277493320268357"><ele>439.0</ele><time>2026-05-02T14:24:41.999Z</time></trkpt><trkpt lat="43.897655782699076" lon="12.277197619701823"><ele>435.0</ele><time>2026-05-02T14:24:42.999Z</time></trkpt><trkpt lat="43.89754659101293" lon="12.276920713753524"><ele>431.0</ele><time>2026-05-02T14:24:43.999Z</time></trkpt><trkpt lat="43.89742539683976" lon="12.276667796147349"><ele>427.0</ele><time>2026-05-02T14:24:44.999Z</time></trkpt><trkpt lat="43.89727743068513" lon="12.276444084922206"><ele>431.33333333333337</ele><time>2026-05-02T14:24:45.999Z</time></trkpt><trkpt lat="43.897110857515024" lon="12.276246144656337"><ele>435.66666666666663</ele><time>2026-05-02T14:24:46.999Z</time></trkpt><trkpt lat="43.89696427490995" lon="12.276089936590562"><ele>440.0</ele><time>2026-05-02T14:24:47.999Z</time></trkpt><trkpt lat="43.89686370520589" lon="12.275965404538665"><ele>440.0</ele><time>2026-05-02T14:24:48.999Z</time></trkpt><trkpt lat="43.896804059782504" lon="12.275822711993218"><ele>440.0</ele><time>2026-05-02T14:24:49.999Z</time></trkpt><trkpt lat="43.89679501513757" lon="12.275639088676328"><ele>440.0</ele><time>2026-05-02T14:24:50.999Z</time></trkpt><trkpt lat="43.8967670931129" lon="12.275437316540863"><ele>440.0</ele><time>2026-05-02T14:24:51.999Z</time></trkpt><trkpt lat="43.89692130943935" lon="12.27523636208243"><ele>445.3333333333333</ele><time>2026-05-02T14:24:52.999Z</time></trkpt><trkpt lat="43.89702044964971" lon="12.274995030921561"><ele>450.66666666666663</ele><time>2026-05-02T14:24:53.999Z</time></trkpt><trkpt lat="43.89706485943066" lon="12.274702895658647"><ele>456.0</ele><time>2026-05-02T14:24:54.999Z</time></trkpt><trkpt lat="43.89707064958921" lon="12.27438051485015"><ele>461.0</ele><time>2026-05-02T14:24:55.999Z</time></trkpt><trkpt lat="43.897064637387636" lon="12.274028980659274"><ele>466.0</ele><time>2026-05-02T14:24:56.999Z</time></trkpt><trkpt lat="43.89705788300519" lon="12.273698922182977"><ele>467.33333333333337</ele><time>2026-05-02T14:24:57.999Z</time></trkpt><trkpt lat="43.897024462359894" lon="12.273428513441042"><ele>468.66666666666663</ele><time>2026-05-02T14:24:58.999Z</time></trkpt><trkpt lat="43.89695143352248" lon="12.273168262353616"><ele>470.0</ele><time>2026-05-02T14:24:59.999Z</time></trkpt><trkpt lat="43.89684472099255" lon="12.272894248569939"><ele>465.0</ele><time>2026-05-02T14:25:00.999Z</time></trkpt><trkpt lat="43.89674912640855" lon="12.272645947552894"><ele>460.0</ele><time>2026-05-02T14:25:01.999Z</time></trkpt><trkpt lat="43.89669036654759" lon="12.272408992316675"><ele>455.0</ele><time>2026-05-02T14:25:02.999Z</time></trkpt><trkpt lat="43.89670868926426" lon="12.27214441915642"><ele>455.0</ele><time>2026-05-02T14:25:03.999Z</time></trkpt><trkpt lat="43.89673775125442" lon="12.271826304842648"><ele>455.0</ele><time>2026-05-02T14:25:04.999Z</time></trkpt><trkpt lat="43.89677521339925" lon="12.271464880428953"><ele>465.5</ele><time>2026-05-02T14:25:05.999Z</time></trkpt><trkpt lat="43.89681761014717" lon="12.271067329219743"><ele>476.0</ele><time>2026-05-02T14:25:06.999Z</time></trkpt><trkpt lat="43.89685693685855" lon="12.270645082647746"><ele>479.5</ele><time>2026-05-02T14:25:07.999Z</time></trkpt><trkpt lat="43.89690360238793" lon="12.270215105475478"><ele>483.0</ele><time>2026-05-02T14:25:08.999Z</time></trkpt><trkpt lat="43.8969379550963" lon="12.269856845762275"><ele>486.66666666666663</ele><time>2026-05-02T14:25:09.999Z</time></trkpt><trkpt lat="43.89696136229728" lon="12.269558542450683"><ele>490.3333333333333</ele><time>2026-05-02T14:25:10.999Z</time></trkpt><trkpt lat="43.896948495160665" lon="12.269261005376844"><ele>494.0</ele><time>2026-05-02T14:25:11.999Z</time></trkpt><trkpt lat="43.896898125438895" lon="12.268935119306583"><ele>498.0</ele><time>2026-05-02T14:25:12.999Z</time></trkpt><trkpt lat="43.89685071474601" lon="12.268612336673371"><ele>502.0</ele><time>2026-05-02T14:25:13.999Z</time></trkpt><trkpt lat="43.89680865715617" lon="12.268314340699801"><ele>506.6666666666667</ele><time>2026-05-02T14:25:14.999Z</time></trkpt><trkpt lat="43.89676517994137" lon="12.268014560424815"><ele>511.33333333333337</ele><time>2026-05-02T14:25:15.999Z</time></trkpt><trkpt lat="43.89672086604637" lon="12.2677070166157"><ele>516.0</ele><time>2026-05-02T14:25:16.999Z</time></trkpt><trkpt lat="43.89667769153408" lon="12.267405337379257"><ele>508.0</ele><time>2026-05-02T14:25:17.999Z</time></trkpt><trkpt lat="43.896633972850516" lon="12.267109598724016"><ele>500.0</ele><time>2026-05-02T14:25:18.999Z</time></trkpt><trkpt lat="43.89658950626509" lon="12.266831734641533"><ele>492.0</ele><time>2026-05-02T14:25:19.999Z</time></trkpt><trkpt lat="43.896543912450575" lon="12.266532424436217"><ele>493.66666666666663</ele><time>2026-05-02T14:25:20.999Z</time></trkpt><trkpt lat="43.8965028192192" lon="12.266256618444462"><ele>495.3333333333333</ele><time>2026-05-02T14:25:21.999Z</time></trkpt><trkpt lat="43.896468074224344" lon="12.26599196105081"><ele>497.0</ele><time>2026-05-02T14:25:22.999Z</time></trkpt><trkpt lat="43.89647688844823" lon="12.265712882704493"><ele>496.3333333333333</ele><time>2026-05-02T14:25:23.999Z</time></trkpt><trkpt lat="43.896511982666674" lon="12.265451386865966"><ele>495.66666666666663</ele><time>2026-05-02T14:25:24.999Z</time></trkpt><trkpt lat="43.89657756572594" lon="12.265182913777418"><ele>495.0</ele><time>2026-05-02T14:25:25.999Z</time></trkpt><trkpt lat="43.89664646274552" lon="12.264898850062403"><ele>493.66666666666663</ele><time>2026-05-02T14:25:26.999Z</time></trkpt><trkpt lat="43.8967103306994" lon="12.264605832581202"><ele>492.3333333333333</ele><time>2026-05-02T14:25:27.999Z</time></trkpt><trkpt lat="43.89673947093587" lon="12.264355428646486"><ele>491.0</ele><time>2026-05-02T14:25:28.999Z</time></trkpt><trkpt lat="43.89678005986381" lon="12.264159958116975"><ele>498.3333333333333</ele><time>2026-05-02T14:25:29.999Z</time></trkpt><trkpt lat="43.896888642742034" lon="12.264036736962096"><ele>505.66666666666663</ele><time>2026-05-02T14:25:30.999Z</time></trkpt><trkpt lat="43.8970228538688" lon="12.26388646574646"><ele>513.0</ele><time>2026-05-02T14:25:31.999Z</time></trkpt><trkpt lat="43.89715666908284" lon="12.263732277590526"><ele>513.0</ele><time>2026-05-02T14:25:32.999Z</time></trkpt><trkpt lat="43.89722584312414" lon="12.263488546902257"><ele>513.0</ele><time>2026-05-02T14:25:33.999Z</time></trkpt><trkpt lat="43.89725845125673" lon="12.26318393132291"><ele>513.0</ele><time>2026-05-02T14:25:34.999Z</time></trkpt><trkpt lat="43.8972935453586" lon="12.262859227616671"><ele>513.0</ele><time>2026-05-02T14:25:35.999Z</time></trkpt><trkpt lat="43.897353692833555" lon="12.262540265982352"><ele>513.0</ele><time>2026-05-02T14:25:36.999Z</time></trkpt><trkpt lat="43.89743231102412" lon="12.262229886620865"><ele>512.5</ele><time>2026-05-02T14:25:37.999Z</time></trkpt><trkpt lat="43.897545392093804" lon="12.261943509527276"><ele>512.0</ele><time>2026-05-02T14:25:38.999Z</time></trkpt><trkpt lat="43.89767035182028" lon="12.261667307980955"><ele>519.0</ele><time>2026-05-02T14:25:39.999Z</time></trkpt><trkpt lat="43.89780994012738" lon="12.261409521357727"><ele>526.0</ele><time>2026-05-02T14:25:40.999Z</time></trkpt><trkpt lat="43.89797138957139" lon="12.261193637429594"><ele>526.0</ele><time>2026-05-02T14:25:41.999Z</time></trkpt><trkpt lat="43.89813517277884" lon="12.260991878572895"><ele>526.0</ele><time>2026-05-02T14:25:42.999Z</time></trkpt><trkpt lat="43.89829303477928" lon="12.260787161703986"><ele>526.0</ele><time>2026-05-02T14:25:43.999Z</time></trkpt><trkpt lat="43.89842014365347" lon="12.260595275658142"><ele>530.3333333333334</ele><time>2026-05-02T14:25:44.999Z</time></trkpt><trkpt lat="43.89850558179814" lon="12.260400626898567"><ele>534.6666666666666</ele><time>2026-05-02T14:25:45.999Z</time></trkpt><trkpt lat="43.89855048868218" lon="12.26017422637294"><ele>539.0</ele><time>2026-05-02T14:25:46.999Z</time></trkpt><trkpt lat="43.89858151222323" lon="12.25992722533694"><ele>540.0</ele><time>2026-05-02T14:25:47.999Z</time></trkpt><trkpt lat="43.8986074428853" lon="12.259674293595356"><ele>541.0</ele><time>2026-05-02T14:25:48.999Z</time></trkpt><trkpt lat="43.89864021169291" lon="12.259420202975427"><ele>542.0</ele><time>2026-05-02T14:25:49.999Z</time></trkpt><trkpt lat="43.89866997428131" lon="12.259152970262797"><ele>542.0</ele><time>2026-05-02T14:25:50.999Z</time></trkpt><trkpt lat="43.89870604010354" lon="12.25887914720358"><ele>542.0</ele><time>2026-05-02T14:25:51.999Z</time></trkpt><trkpt lat="43.89874356355473" lon="12.258600046161503"><ele>542.0</ele><time>2026-05-02T14:25:52.999Z</time></trkpt><trkpt lat="43.89877798934882" lon="12.258324762770558"><ele>542.6666666666666</ele><time>2026-05-02T14:25:53.999Z</time></trkpt><trkpt lat="43.898805528384635" lon="12.258089633273968"><ele>543.3333333333334</ele><time>2026-05-02T14:25:54.999Z</time></trkpt><trkpt lat="43.89879579825137" lon="12.257858268633427"><ele>544.0</ele><time>2026-05-02T14:25:55.999Z</time></trkpt><trkpt lat="43.89874392595724" lon="12.257597354657666"><ele>544.0</ele><time>2026-05-02T14:25:56.999Z</time></trkpt><trkpt lat="43.89867252321145" lon="12.257312696573562"><ele>544.0</ele><time>2026-05-02T14:25:57.999Z</time></trkpt><trkpt lat="43.89860985596347" lon="12.257019235104057"><ele>544.0</ele><time>2026-05-02T14:25:58.999Z</time></trkpt><trkpt lat="43.898545573356046" lon="12.256715301716339"><ele>545.0</ele><time>2026-05-02T14:25:59.999Z</time></trkpt><trkpt lat="43.89847712047917" lon="12.256402361834041"><ele>546.0</ele><time>2026-05-02T14:26:00.999Z</time></trkpt><trkpt lat="43.89842344224826" lon="12.256148246927777"><ele>547.0</ele><time>2026-05-02T14:26:01.999Z</time></trkpt><trkpt lat="43.898379825323545" lon="12.255967441084952"><ele>547.75</ele><time>2026-05-02T14:26:02.999Z</time></trkpt><trkpt lat="43.89832102732171" lon="12.25579811374764"><ele>548.5</ele><time>2026-05-02T14:26:03.999Z</time></trkpt><trkpt lat="43.89822527649418" lon="12.255664009751774"><ele>549.25</ele><time>2026-05-02T14:26:04.999Z</time></trkpt><trkpt lat="43.89808845545487" lon="12.255598172418917"><ele>550.0</ele><time>2026-05-02T14:26:05.999Z</time></trkpt><trkpt lat="43.897937230584546" lon="12.255602725660141"><ele>548.0</ele><time>2026-05-02T14:26:06.999Z</time></trkpt><trkpt lat="43.897786466727375" lon="12.255707734599481"><ele>546.0</ele><time>2026-05-02T14:26:07.999Z</time></trkpt><trkpt lat="43.89765618383409" lon="12.255797975453763"><ele>544.0</ele><time>2026-05-02T14:26:08.999Z</time></trkpt><trkpt lat="43.89755403338112" lon="12.255791934864472"><ele>542.0</ele><time>2026-05-02T14:26:09.999Z</time></trkpt><trkpt lat="43.89744228186009" lon="12.255710838690247"><ele>543.5</ele><time>2026-05-02T14:26:10.999Z</time></trkpt><trkpt lat="43.89738088219879" lon="12.255557042197806"><ele>545.0</ele><time>2026-05-02T14:26:12Z</time></trkpt><trkpt lat="43.897374071325174" lon="12.255393278381007"><ele>546.5</ele><time>2026-05-02T14:26:13Z</time></trkpt><trkpt lat="43.89744238450659" lon="12.25523130572671"><ele>548.0</ele><time>2026-05-02T14:26:14Z</time></trkpt><trkpt lat="43.89755224602577" lon="12.255114651031656"><ele>548.6666666666666</ele><time>2026-05-02T14:26:15Z</time></trkpt><trkpt lat="43.89768931290806" lon="12.2550756839971"><ele>549.3333333333334</ele><time>2026-05-02T14:26:16Z</time></trkpt><trkpt lat="43.89785410947977" lon="12.255120686625228"><ele>550.0</ele><time>2026-05-02T14:26:17Z</time></trkpt><trkpt lat="43.89803980456377" lon="12.255183142190798"><ele>550.0</ele><time>2026-05-02T14:26:18Z</time></trkpt><trkpt lat="43.89825053916152" lon="12.25518802894811"><ele>550.0</ele><time>2026-05-02T14:26:19Z</time></trkpt><trkpt lat="43.89846828818663" lon="12.255154238459605"><ele>550.0</ele><time>2026-05-02T14:26:20Z</time></trkpt><trkpt lat="43.89867706375271" lon="12.255056419274993"><ele>550.5</ele><time>2026-05-02T14:26:21Z</time></trkpt><trkpt lat="43.898882278518194" lon="12.254905276727106"><ele>551.0</ele><time>2026-05-02T14:26:22Z</time></trkpt><trkpt lat="43.899107770495355" lon="12.254709942906057"><ele>558.0</ele><time>2026-05-02T14:26:23Z</time></trkpt><trkpt lat="43.89934613127962" lon="12.254494803638359"><ele>565.0</ele><time>2026-05-02T14:26:24Z</time></trkpt><trkpt lat="43.8995854084041" lon="12.254287715800256"><ele>565.0</ele><time>2026-05-02T14:26:25Z</time></trkpt><trkpt lat="43.89980430707026" lon="12.254096312133074"><ele>565.0</ele><time>2026-05-02T14:26:26Z</time></trkpt><trkpt lat="43.89999026445318" lon="12.25394147713905"><ele>569.6666666666667</ele><time>2026-05-02T14:26:27Z</time></trkpt><trkpt lat="43.90012047251042" lon="12.25381449651357"><ele>574.3333333333334</ele><time>2026-05-02T14:26:28Z</time></trkpt><trkpt lat="43.900262880666986" lon="12.253732403597946"><ele>579.0</ele><time>2026-05-02T14:26:29Z</time></trkpt><trkpt lat="43.900428090288656" lon="12.25372949511913"><ele>579.0</ele><time>2026-05-02T14:26:30Z</time></trkpt><trkpt lat="43.900601015942726" lon="12.25377181026956"><ele>579.0</ele><time>2026-05-02T14:26:31Z</time></trkpt><trkpt lat="43.90075021026541" lon="12.253799522428821"><ele>579.0</ele><time>2026-05-02T14:26:32Z</time></trkpt><trkpt lat="43.900867654418896" lon="12.253748004806285"><ele>579.0</ele><time>2026-05-02T14:26:33Z</time></trkpt><trkpt lat="43.900956603914025" lon="12.253623648518685"><ele>587.0</ele><time>2026-05-02T14:26:34Z</time></trkpt><trkpt lat="43.90100318812253" lon="12.253453093789503"><ele>595.0</ele><time>2026-05-02T14:26:35Z</time></trkpt><trkpt lat="43.90099578494796" lon="12.253247748215642"><ele>603.0</ele><time>2026-05-02T14:26:36Z</time></trkpt><trkpt lat="43.900933053155136" lon="12.253025662204085"><ele>598.0</ele><time>2026-05-02T14:26:37Z</time></trkpt><trkpt lat="43.90084978480159" lon="12.25280314402536"><ele>593.0</ele><time>2026-05-02T14:26:38Z</time></trkpt><trkpt lat="43.90076609592392" lon="12.252659531068247"><ele>588.0</ele><time>2026-05-02T14:26:39Z</time></trkpt><trkpt lat="43.90064338270597" lon="12.252592324490468"><ele>583.0</ele><time>2026-05-02T14:26:40Z</time></trkpt><trkpt lat="43.90048329124801" lon="12.252593697402935"><ele>583.0</ele><time>2026-05-02T14:26:41Z</time></trkpt><trkpt lat="43.90030875078988" lon="12.252651219191907"><ele>583.0</ele><time>2026-05-02T14:26:42Z</time></trkpt><trkpt lat="43.90012936310869" lon="12.25265279666967"><ele>583.0</ele><time>2026-05-02T14:26:43Z</time></trkpt><trkpt lat="43.899946827121056" lon="12.252526061234905"><ele>581.5</ele><time>2026-05-02T14:26:44Z</time></trkpt><trkpt lat="43.89973837506916" lon="12.2523761344841"><ele>580.0</ele><time>2026-05-02T14:26:45Z</time></trkpt><trkpt lat="43.89950866064696" lon="12.252261398273145"><ele>583.3333333333334</ele><time>2026-05-02T14:26:46Z</time></trkpt><trkpt lat="43.8992696784214" lon="12.252178103617746"><ele>586.6666666666666</ele><time>2026-05-02T14:26:47Z</time></trkpt><trkpt lat="43.89907695748921" lon="12.252120945122613"><ele>590.0</ele><time>2026-05-02T14:26:47.999Z</time></trkpt><trkpt lat="43.89894648084451" lon="12.252061325767079"><ele>591.0</ele><time>2026-05-02T14:26:48.999Z</time></trkpt><trkpt lat="43.898869197827935" lon="12.251943335929509"><ele>592.0</ele><time>2026-05-02T14:26:49.999Z</time></trkpt><trkpt lat="43.898815164918084" lon="12.251844451428065"><ele>593.0</ele><time>2026-05-02T14:26:50.999Z</time></trkpt><trkpt lat="43.898830789536" lon="12.251712942641104"><ele>594.0</ele><time>2026-05-02T14:26:51.999Z</time></trkpt><trkpt lat="43.89887978508504" lon="12.251577751066744"><ele>595.0</ele><time>2026-05-02T14:26:52.999Z</time></trkpt><trkpt lat="43.89899397699513" lon="12.251461333161966"><ele>596.3333333333334</ele><time>2026-05-02T14:26:53.999Z</time></trkpt><trkpt lat="43.899141823209646" lon="12.25133730141186"><ele>597.6666666666666</ele><time>2026-05-02T14:26:54.999Z</time></trkpt><trkpt lat="43.899300086280455" lon="12.251193841684316"><ele>599.0</ele><time>2026-05-02T14:26:55.999Z</time></trkpt><trkpt lat="43.89947054636822" lon="12.251033577354432"><ele>599.0</ele><time>2026-05-02T14:26:56.999Z</time></trkpt><trkpt lat="43.899653206764505" lon="12.25086729671895"><ele>599.0</ele><time>2026-05-02T14:26:57.999Z</time></trkpt><trkpt lat="43.89983842751646" lon="12.25070055696028"><ele>599.0</ele><time>2026-05-02T14:26:58.999Z</time></trkpt><trkpt lat="43.90001311337429" lon="12.250542759597645"><ele>602.3333333333333</ele><time>2026-05-02T14:26:59.999Z</time></trkpt><trkpt lat="43.9001669651793" lon="12.250391121561185"><ele>605.6666666666666</ele><time>2026-05-02T14:27:00.999Z</time></trkpt><trkpt lat="43.90029610940459" lon="12.250252406134004"><ele>609.0</ele><time>2026-05-02T14:27:01.999Z</time></trkpt><trkpt lat="43.90037202026008" lon="12.250099004367103"><ele>609.0</ele><time>2026-05-02T14:27:02.999Z</time></trkpt><trkpt lat="43.90040494188423" lon="12.249914018975229"><ele>609.0</ele><time>2026-05-02T14:27:03.999Z</time></trkpt><trkpt lat="43.90038249317075" lon="12.249714423153156"><ele>609.0</ele><time>2026-05-02T14:27:04.999Z</time></trkpt><trkpt lat="43.900310981584376" lon="12.249541935862995"><ele>609.0</ele><time>2026-05-02T14:27:05.999Z</time></trkpt><trkpt lat="43.900205325157955" lon="12.249399273642677"><ele>614.0</ele><time>2026-05-02T14:27:06.999Z</time></trkpt><trkpt lat="43.90005678545838" lon="12.249319287447442"><ele>619.0</ele><time>2026-05-02T14:27:07.999Z</time></trkpt><trkpt lat="43.89989008541278" lon="12.24933789596929"><ele>624.0</ele><time>2026-05-02T14:27:08.999Z</time></trkpt><trkpt lat="43.89970848270686" lon="12.249410937162345"><ele>624.0</ele><time>2026-05-02T14:27:09.999Z</time></trkpt><trkpt lat="43.899495751910685" lon="12.249509504352794"><ele>624.0</ele><time>2026-05-02T14:27:10.999Z</time></trkpt><trkpt lat="43.89926301741113" lon="12.249605629380161"><ele>628.0</ele><time>2026-05-02T14:27:11.999Z</time></trkpt><trkpt lat="43.899015769833454" lon="12.249698263255544"><ele>632.0</ele><time>2026-05-02T14:27:12.999Z</time></trkpt><trkpt lat="43.8987760164564" lon="12.249782469184876"><ele>630.75</ele><time>2026-05-02T14:27:13.999Z</time></trkpt><trkpt lat="43.898598570461324" lon="12.249846334224987"><ele>629.5</ele><time>2026-05-02T14:27:14.999Z</time></trkpt><trkpt lat="43.898458206030384" lon="12.249885994165448"><ele>628.25</ele><time>2026-05-02T14:27:15.999Z</time></trkpt><trkpt lat="43.898341253745116" lon="12.249869329811181"><ele>627.0</ele><time>2026-05-02T14:27:16.999Z</time></trkpt><trkpt lat="43.898255712742724" lon="12.249773985955072"><ele>629.5</ele><time>2026-05-02T14:27:17.999Z</time></trkpt><trkpt lat="43.8982059161609" lon="12.249627750673426"><ele>632.0</ele><time>2026-05-02T14:27:18.999Z</time></trkpt><trkpt lat="43.898197629670115" lon="12.249453050142804"><ele>634.5</ele><time>2026-05-02T14:27:19.999Z</time></trkpt><trkpt lat="43.898251351140686" lon="12.249281158036704"><ele>637.0</ele><time>2026-05-02T14:27:20.999Z</time></trkpt><trkpt lat="43.89835987511416" lon="12.249162449147686"><ele>635.3333333333334</ele><time>2026-05-02T14:27:21.999Z</time></trkpt><trkpt lat="43.898508167350805" lon="12.249167462241598"><ele>633.6666666666666</ele><time>2026-05-02T14:27:22.999Z</time></trkpt><trkpt lat="43.89867128906743" lon="12.249178973718712"><ele>632.0</ele><time>2026-05-02T14:27:23.999Z</time></trkpt><trkpt lat="43.8988540796022" lon="12.249180902700774"><ele>632.0</ele><time>2026-05-02T14:27:24.999Z</time></trkpt><trkpt lat="43.89899512287457" lon="12.249161466201434"><ele>632.0</ele><time>2026-05-02T14:27:25.999Z</time></trkpt><trkpt lat="43.899107944604566" lon="12.249078295365692"><ele>632.0</ele><time>2026-05-02T14:27:26.999Z</time></trkpt><trkpt lat="43.89917637793687" lon="12.248931462695412"><ele>632.0</ele><time>2026-05-02T14:27:27.999Z</time></trkpt><trkpt lat="43.899185711229435" lon="12.24874702455315"><ele>634.0</ele><time>2026-05-02T14:27:28.999Z</time></trkpt><trkpt lat="43.899132844440636" lon="12.248564085573092"><ele>636.0</ele><time>2026-05-02T14:27:29.999Z</time></trkpt><trkpt lat="43.899023496553376" lon="12.248425725584598"><ele>638.0</ele><time>2026-05-02T14:27:30.999Z</time></trkpt><trkpt lat="43.898894501736336" lon="12.24837013623256"><ele>640.0</ele><time>2026-05-02T14:27:31.999Z</time></trkpt><trkpt lat="43.898758147682194" lon="12.248414215185303"><ele>640.0</ele><time>2026-05-02T14:27:32.999Z</time></trkpt><trkpt lat="43.89864144324893" lon="12.248542245943387"><ele>640.0</ele><time>2026-05-02T14:27:33.999Z</time></trkpt><trkpt lat="43.89855119656582" lon="12.248723741678589"><ele>640.0</ele><time>2026-05-02T14:27:34.999Z</time></trkpt><trkpt lat="43.89845231099065" lon="12.24882626018363"><ele>640.0</ele><time>2026-05-02T14:27:35.999Z</time></trkpt><trkpt lat="43.89833021101885" lon="12.248824729388733"><ele>642.0</ele><time>2026-05-02T14:27:36.999Z</time></trkpt><trkpt lat="43.89821117780351" lon="12.248747196497254"><ele>644.0</ele><time>2026-05-02T14:27:37.999Z</time></trkpt><trkpt lat="43.89814023274679" lon="12.248601211882047"><ele>646.0</ele><time>2026-05-02T14:27:38.999Z</time></trkpt><trkpt lat="43.89813882347159" lon="12.248406181101874"><ele>648.0</ele><time>2026-05-02T14:27:39.999Z</time></trkpt><trkpt lat="43.89817259395192" lon="12.24823360948358"><ele>649.25</ele><time>2026-05-02T14:27:40.999Z</time></trkpt><trkpt lat="43.89827384418623" lon="12.248108876730026"><ele>650.5</ele><time>2026-05-02T14:27:41.999Z</time></trkpt><trkpt lat="43.898418565633385" lon="12.248092694122867"><ele>651.75</ele><time>2026-05-02T14:27:42.999Z</time></trkpt><trkpt lat="43.898548576941" lon="12.24814877852474"><ele>653.0</ele><time>2026-05-02T14:27:43.999Z</time></trkpt><trkpt lat="43.898687164366265" lon="12.248141412941946"><ele>653.0</ele><time>2026-05-02T14:27:44.999Z</time></trkpt><trkpt lat="43.898793411392056" lon="12.248072135446645"><ele>653.0</ele><time>2026-05-02T14:27:45.999Z</time></trkpt><trkpt lat="43.89887407887375" lon="12.247920543619529"><ele>653.0</ele><time>2026-05-02T14:27:46.999Z</time></trkpt><trkpt lat="43.89891232291446" lon="12.247763415288038"><ele>653.0</ele><time>2026-05-02T14:27:47.999Z</time></trkpt><trkpt lat="43.89889118294001" lon="12.247580840992203"><ele>653.0</ele><time>2026-05-02T14:27:48.999Z</time></trkpt><trkpt lat="43.89881284890095" lon="12.247432754582395"><ele>653.0</ele><time>2026-05-02T14:27:49.999Z</time></trkpt><trkpt lat="43.898694007759346" lon="12.24734704465956"><ele>653.0</ele><time>2026-05-02T14:27:50.999Z</time></trkpt><trkpt lat="43.89854585560356" lon="12.247354399114432"><ele>653.0</ele><time>2026-05-02T14:27:51.999Z</time></trkpt><trkpt lat="43.89839443266969" lon="12.247402415737742"><ele>653.75</ele><time>2026-05-02T14:27:52.999Z</time></trkpt><trkpt lat="43.89828041852582" lon="12.24735164639673"><ele>654.5</ele><time>2026-05-02T14:27:53.999Z</time></trkpt><trkpt lat="43.8981875107052" lon="12.24724563350022"><ele>655.25</ele><time>2026-05-02T14:27:54.999Z</time></trkpt><trkpt lat="43.898079054703956" lon="12.247123993232183"><ele>656.0</ele><time>2026-05-02T14:27:55.999Z</time></trkpt><trkpt lat="43.897978076909176" lon="12.247015993229104"><ele>656.0</ele><time>2026-05-02T14:27:56.999Z</time></trkpt><trkpt lat="43.89788829671429" lon="12.246944331990493"><ele>656.0</ele><time>2026-05-02T14:27:57.999Z</time></trkpt><trkpt lat="43.89779277540469" lon="12.246892770708317"><ele>656.0</ele><time>2026-05-02T14:27:58.999Z</time></trkpt><trkpt lat="43.89769738030516" lon="12.24686121441891"><ele>656.0</ele><time>2026-05-02T14:27:59.999Z</time></trkpt><trkpt lat="43.89760047286526" lon="12.246834783207412"><ele>656.0</ele><time>2026-05-02T14:28:00.999Z</time></trkpt><trkpt lat="43.897504670603844" lon="12.246805835597167"><ele>655.8</ele><time>2026-05-02T14:28:01.999Z</time></trkpt><trkpt lat="43.8974049142631" lon="12.24677782768808"><ele>655.5999999999999</ele><time>2026-05-02T14:28:02.999Z</time></trkpt><trkpt lat="43.897308779171865" lon="12.246736229844633"><ele>655.4</ele><time>2026-05-02T14:28:03.999Z</time></trkpt><trkpt lat="43.897220355301606" lon="12.246689550239132"><ele>655.2</ele><time>2026-05-02T14:28:04.999Z</time></trkpt><trkpt lat="43.89715073885348" lon="12.246653628716402"><ele>655.0</ele><time>2026-05-02T14:28:05.999Z</time></trkpt><trkpt lat="43.897033466231385" lon="12.246602852869685"><ele>655.0</ele><time>2026-05-02T14:28:07.999Z</time></trkpt><trkpt lat="43.89695983027277" lon="12.246584468745638"><ele>655.0</ele><time>2026-05-02T14:28:09.999Z</time></trkpt><trkpt lat="43.89702331215176" lon="12.246621333784033"><ele>655.0</ele><time>2026-05-02T14:28:12.999Z</time></trkpt><trkpt lat="43.89716107590794" lon="12.246707015034447"><ele>655.0</ele><time>2026-05-02T14:28:14.999Z</time></trkpt><trkpt lat="43.89726432783718" lon="12.246750787639188"><ele>655.0</ele><time>2026-05-02T14:28:15.999Z</time></trkpt><trkpt lat="43.89738328020178" lon="12.246800497601798"><ele>655.0</ele><time>2026-05-02T14:28:17Z</time></trkpt><trkpt lat="43.89750691166355" lon="12.246844529421953"><ele>655.0</ele><time>2026-05-02T14:28:18Z</time></trkpt><trkpt lat="43.89762934171326" lon="12.246885991854832"><ele>655.0</ele><time>2026-05-02T14:28:19Z</time></trkpt><trkpt lat="43.89773419245673" lon="12.246924862145683"><ele>655.0</ele><time>2026-05-02T14:28:20Z</time></trkpt><trkpt lat="43.89782861538481" lon="12.24697023907731"><ele>655.2</ele><time>2026-05-02T14:28:21Z</time></trkpt><trkpt lat="43.89791381380977" lon="12.247008226467756"><ele>655.4</ele><time>2026-05-02T14:28:22Z</time></trkpt><trkpt lat="43.89800588705369" lon="12.247019897858372"><ele>655.5999999999999</ele><time>2026-05-02T14:28:23Z</time></trkpt><trkpt lat="43.898107435325336" lon="12.246998495810393"><ele>655.8</ele><time>2026-05-02T14:28:24Z</time></trkpt><trkpt lat="43.89821892418494" lon="12.24695745669166"><ele>656.0</ele><time>2026-05-02T14:28:25Z</time></trkpt><trkpt lat="43.89834756992009" lon="12.246920188897066"><ele>656.3333333333333</ele><time>2026-05-02T14:28:26Z</time></trkpt><trkpt lat="43.898488406392644" lon="12.246879278865737"><ele>656.6666666666666</ele><time>2026-05-02T14:28:27Z</time></trkpt><trkpt lat="43.89863944154884" lon="12.246829190485212"><ele>657.0</ele><time>2026-05-02T14:28:28Z</time></trkpt><trkpt lat="43.89883988822256" lon="12.246734983452248"><ele>657.0</ele><time>2026-05-02T14:28:29Z</time></trkpt><trkpt lat="43.899004122123145" lon="12.246665323561235"><ele>657.0</ele><time>2026-05-02T14:28:30Z</time></trkpt><trkpt lat="43.89915281203496" lon="12.246599859894893"><ele>657.0</ele><time>2026-05-02T14:28:31Z</time></trkpt><trkpt lat="43.89929661182567" lon="12.246539783014208"><ele>655.75</ele><time>2026-05-02T14:28:32Z</time></trkpt><trkpt lat="43.899427565676234" lon="12.246490834808524"><ele>654.5</ele><time>2026-05-02T14:28:33Z</time></trkpt><trkpt lat="43.899549594972726" lon="12.246441507985876"><ele>653.25</ele><time>2026-05-02T14:28:34Z</time></trkpt><trkpt lat="43.8996751004356" lon="12.246426350675875"><ele>652.0</ele><time>2026-05-02T14:28:35Z</time></trkpt><trkpt lat="43.89980935346896" lon="12.246489194557782"><ele>652.0</ele><time>2026-05-02T14:28:36Z</time></trkpt><trkpt lat="43.899961253445845" lon="12.246505708621934"><ele>652.0</ele><time>2026-05-02T14:28:37Z</time></trkpt><trkpt lat="43.900126141193205" lon="12.246550734893777"><ele>652.0</ele><time>2026-05-02T14:28:38Z</time></trkpt><trkpt lat="43.90030451936831" lon="12.246550537319811"><ele>652.0</ele><time>2026-05-02T14:28:39Z</time></trkpt><trkpt lat="43.900486005442914" lon="12.246524678800029"><ele>652.0</ele><time>2026-05-02T14:28:40Z</time></trkpt><trkpt lat="43.900667091684184" lon="12.24645878409379"><ele>652.0</ele><time>2026-05-02T14:28:41Z</time></trkpt><trkpt lat="43.90083587323031" lon="12.246344230572294"><ele>654.6666666666667</ele><time>2026-05-02T14:28:42Z</time></trkpt><trkpt lat="43.90098765901911" lon="12.246220131349109"><ele>657.3333333333334</ele><time>2026-05-02T14:28:43Z</time></trkpt><trkpt lat="43.90112908462218" lon="12.246111119987624"><ele>660.0</ele><time>2026-05-02T14:28:44Z</time></trkpt><trkpt lat="43.90125330331174" lon="12.246012585535794"><ele>660.0</ele><time>2026-05-02T14:28:45Z</time></trkpt><trkpt lat="43.901388809404764" lon="12.245910205649256"><ele>660.0</ele><time>2026-05-02T14:28:46Z</time></trkpt><trkpt lat="43.901539447954356" lon="12.245871351751711"><ele>660.0</ele><time>2026-05-02T14:28:47Z</time></trkpt><trkpt lat="43.90168983383155" lon="12.245861025245668"><ele>662.6666666666666</ele><time>2026-05-02T14:28:48Z</time></trkpt><trkpt lat="43.90185722460459" lon="12.245851422192867"><ele>665.3333333333333</ele><time>2026-05-02T14:28:49Z</time></trkpt><trkpt lat="43.90203129328009" lon="12.24587226829089"><ele>668.0</ele><time>2026-05-02T14:28:50Z</time></trkpt><trkpt lat="43.902215700637846" lon="12.245871926468812"><ele>668.0</ele><time>2026-05-02T14:28:51Z</time></trkpt><trkpt lat="43.90240544473742" lon="12.24586212640348"><ele>668.0</ele><time>2026-05-02T14:28:52Z</time></trkpt><trkpt lat="43.90257594182951" lon="12.245846432881985"><ele>668.0</ele><time>2026-05-02T14:28:53Z</time></trkpt><trkpt lat="43.902727682905294" lon="12.245825965003261"><ele>666.6666666666666</ele><time>2026-05-02T14:28:54Z</time></trkpt><trkpt lat="43.90286797015358" lon="12.24575689804183"><ele>665.3333333333334</ele><time>2026-05-02T14:28:55Z</time></trkpt><trkpt lat="43.903011690690704" lon="12.245651812853092"><ele>664.0</ele><time>2026-05-02T14:28:56Z</time></trkpt><trkpt lat="43.903160334413464" lon="12.245537570263295"><ele>664.0</ele><time>2026-05-02T14:28:56.999Z</time></trkpt><trkpt lat="43.903308821143234" lon="12.2454200997058"><ele>664.0</ele><time>2026-05-02T14:28:57.999Z</time></trkpt><trkpt lat="43.90344946502081" lon="12.245329766300044"><ele>664.0</ele><time>2026-05-02T14:28:58.999Z</time></trkpt><trkpt lat="43.90359452567068" lon="12.245273265357445"><ele>665.6666666666667</ele><time>2026-05-02T14:28:59.999Z</time></trkpt><trkpt lat="43.903755216776325" lon="12.245249461753156"><ele>667.3333333333334</ele><time>2026-05-02T14:29:00.999Z</time></trkpt><trkpt lat="43.903916460865005" lon="12.245189027858492"><ele>669.0</ele><time>2026-05-02T14:29:01.999Z</time></trkpt><trkpt lat="43.904069575810816" lon="12.245118480510845"><ele>669.0</ele><time>2026-05-02T14:29:02.999Z</time></trkpt><trkpt lat="43.90420808973442" lon="12.24505001324223"><ele>669.0</ele><time>2026-05-02T14:29:03.999Z</time></trkpt><trkpt lat="43.90433506216127" lon="12.245029781114257"><ele>669.0</ele><time>2026-05-02T14:29:04.999Z</time></trkpt><trkpt lat="43.90443266351898" lon="12.245088451844587"><ele>669.0</ele><time>2026-05-02T14:29:05.999Z</time></trkpt><trkpt lat="43.904536352320946" lon="12.245116032041645"><ele>668.5</ele><time>2026-05-02T14:29:06.999Z</time></trkpt><trkpt lat="43.90465489245584" lon="12.245145461042304"><ele>668.0</ele><time>2026-05-02T14:29:07.999Z</time></trkpt><trkpt lat="43.90478986426115" lon="12.245175281818767"><ele>667.5</ele><time>2026-05-02T14:29:08.999Z</time></trkpt><trkpt lat="43.90495360466554" lon="12.24520161374754"><ele>667.0</ele><time>2026-05-02T14:29:09.999Z</time></trkpt><trkpt lat="43.905111044535104" lon="12.245210532021806"><ele>668.25</ele><time>2026-05-02T14:29:10.999Z</time></trkpt><trkpt lat="43.90525820353824" lon="12.24520191179813"><ele>669.5</ele><time>2026-05-02T14:29:11.999Z</time></trkpt><trkpt lat="43.905381523349725" lon="12.245172295493385"><ele>670.75</ele><time>2026-05-02T14:29:12.999Z</time></trkpt><trkpt lat="43.905492889166084" lon="12.245092266859038"><ele>672.0</ele><time>2026-05-02T14:29:13.999Z</time></trkpt><trkpt lat="43.90560288345457" lon="12.244973097366522"><ele>672.0</ele><time>2026-05-02T14:29:14.999Z</time></trkpt><trkpt lat="43.90571337773082" lon="12.244837723999938"><ele>672.0</ele><time>2026-05-02T14:29:15.999Z</time></trkpt><trkpt lat="43.905825081019124" lon="12.244708322766437"><ele>672.0</ele><time>2026-05-02T14:29:16.999Z</time></trkpt><trkpt lat="43.9059248104982" lon="12.244578210358872"><ele>672.0</ele><time>2026-05-02T14:29:17.999Z</time></trkpt><trkpt lat="43.90599437799451" lon="12.244421434541724"><ele>670.25</ele><time>2026-05-02T14:29:18.999Z</time></trkpt><trkpt lat="43.90603358772019" lon="12.24421959174822"><ele>668.5</ele><time>2026-05-02T14:29:19.999Z</time></trkpt><trkpt lat="43.90607337803377" lon="12.24402612750763"><ele>666.75</ele><time>2026-05-02T14:29:20.999Z</time></trkpt><trkpt lat="43.90612505479633" lon="12.24385566170622"><ele>665.0</ele><time>2026-05-02T14:29:21.999Z</time></trkpt><trkpt lat="43.906200585519514" lon="12.243700053098259"><ele>665.0</ele><time>2026-05-02T14:29:22.999Z</time></trkpt><trkpt lat="43.90629116617058" lon="12.24354893594037"><ele>665.0</ele><time>2026-05-02T14:29:23.999Z</time></trkpt><trkpt lat="43.90637741678162" lon="12.243397095530662"><ele>665.0</ele><time>2026-05-02T14:29:24.999Z</time></trkpt><trkpt lat="43.9064542250454" lon="12.243236283594257"><ele>665.0</ele><time>2026-05-02T14:29:25.999Z</time></trkpt><trkpt lat="43.906523938231196" lon="12.243079055053794"><ele>664.0</ele><time>2026-05-02T14:29:26.999Z</time></trkpt><trkpt lat="43.90659263055567" lon="12.242927253317335"><ele>663.0</ele><time>2026-05-02T14:29:27.999Z</time></trkpt><trkpt lat="43.90665660438405" lon="12.242785086287075"><ele>662.0</ele><time>2026-05-02T14:29:28.999Z</time></trkpt><trkpt lat="43.9067111965778" lon="12.2426493624884"><ele>661.0</ele><time>2026-05-02T14:29:29.999Z</time></trkpt><trkpt lat="43.906756953135194" lon="12.242505432647595"><ele>661.4</ele><time>2026-05-02T14:29:30.999Z</time></trkpt><trkpt lat="43.90678293944558" lon="12.24235716203242"><ele>661.8</ele><time>2026-05-02T14:29:31.999Z</time></trkpt><trkpt lat="43.906791734608" lon="12.24220982245474"><ele>662.1999999999999</ele><time>2026-05-02T14:29:32.999Z</time></trkpt><trkpt lat="43.906755167620155" lon="12.242071818595194"><ele>662.5999999999999</ele><time>2026-05-02T14:29:33.999Z</time></trkpt><trkpt lat="43.90669483319266" lon="12.241938491420454"><ele>663.0</ele><time>2026-05-02T14:29:34.999Z</time></trkpt><trkpt lat="43.90662640978396" lon="12.241799329825485"><ele>661.5</ele><time>2026-05-02T14:29:35.999Z</time></trkpt><trkpt lat="43.90656365645116" lon="12.241660376869927"><ele>660.0</ele><time>2026-05-02T14:29:36.999Z</time></trkpt><trkpt lat="43.90651443583545" lon="12.24151158319865"><ele>658.5</ele><time>2026-05-02T14:29:37.999Z</time></trkpt><trkpt lat="43.906471405223776" lon="12.241360752117725"><ele>657.0</ele><time>2026-05-02T14:29:38.999Z</time></trkpt><trkpt lat="43.90644542177108" lon="12.241208173865836"><ele>656.2</ele><time>2026-05-02T14:29:39.999Z</time></trkpt><trkpt lat="43.9064205720727" lon="12.241062698401223"><ele>655.4000000000001</ele><time>2026-05-02T14:29:40.999Z</time></trkpt><trkpt lat="43.90638663743105" lon="12.240926607397183"><ele>654.5999999999999</ele><time>2026-05-02T14:29:41.999Z</time></trkpt><trkpt lat="43.90635669136862" lon="12.240809009301724"><ele>653.8</ele><time>2026-05-02T14:29:42.999Z</time></trkpt><trkpt lat="43.906338426936806" lon="12.240702367831577"><ele>653.0</ele><time>2026-05-02T14:29:43.999Z</time></trkpt><trkpt lat="43.90635651467031" lon="12.240550044439267"><ele>653.0</ele><time>2026-05-02T14:29:45.999Z</time></trkpt><trkpt lat="43.90645745295142" lon="12.240508372735293"><ele>653.0</ele><time>2026-05-02T14:29:47.999Z</time></trkpt><trkpt lat="43.90652917633568" lon="12.240555691442344"><ele>653.0</ele><time>2026-05-02T14:29:48.999Z</time></trkpt><trkpt lat="43.90660481204933" lon="12.240611293620093"><ele>653.0</ele><time>2026-05-02T14:29:49.999Z</time></trkpt><trkpt lat="43.906679557662166" lon="12.240670485655063"><ele>653.0</ele><time>2026-05-02T14:29:50.999Z</time></trkpt><trkpt lat="43.90675057226746" lon="12.240738061235847"><ele>653.0</ele><time>2026-05-02T14:29:51.999Z</time></trkpt><trkpt lat="43.90681044840748" lon="12.240806301701506"><ele>652.6666666666666</ele><time>2026-05-02T14:29:52.999Z</time></trkpt><trkpt lat="43.906877127606734" lon="12.240882961416284"><ele>652.3333333333333</ele><time>2026-05-02T14:29:53.999Z</time></trkpt><trkpt lat="43.90694530051543" lon="12.2409607389155"><ele>652.0</ele><time>2026-05-02T14:29:54.999Z</time></trkpt><trkpt lat="43.90701031708609" lon="12.241046309285082"><ele>651.6666666666666</ele><time>2026-05-02T14:29:55.999Z</time></trkpt><trkpt lat="43.907074430432104" lon="12.241120257209"><ele>651.3333333333334</ele><time>2026-05-02T14:29:56.999Z</time></trkpt><trkpt lat="43.90714466037581" lon="12.24119451922686"><ele>651.0</ele><time>2026-05-02T14:29:57.999Z</time></trkpt><trkpt lat="43.90722070554655" lon="12.241263021463471"><ele>651.0</ele><time>2026-05-02T14:29:58.999Z</time></trkpt><trkpt lat="43.907306691243214" lon="12.241303844340061"><ele>651.0</ele><time>2026-05-02T14:29:59.999Z</time></trkpt><trkpt lat="43.90739961065866" lon="12.241316165062685"><ele>651.0</ele><time>2026-05-02T14:30:00.999Z</time></trkpt><trkpt lat="43.90748838967694" lon="12.241287796245715"><ele>651.0</ele><time>2026-05-02T14:30:01.999Z</time></trkpt><trkpt lat="43.90757090451198" lon="12.241232869094013"><ele>651.0</ele><time>2026-05-02T14:30:02.999Z</time></trkpt><trkpt lat="43.90764677810397" lon="12.241155777208807"><ele>649.8</ele><time>2026-05-02T14:30:03.999Z</time></trkpt><trkpt lat="43.907707800023466" lon="12.241060247910932"><ele>648.5999999999999</ele><time>2026-05-02T14:30:04.999Z</time></trkpt><trkpt lat="43.907767439767696" lon="12.24094919334951"><ele>647.4</ele><time>2026-05-02T14:30:05.999Z</time></trkpt><trkpt lat="43.907838433800244" lon="12.24083100124961"><ele>646.2</ele><time>2026-05-02T14:30:06.999Z</time></trkpt><trkpt lat="43.90792043438208" lon="12.240707857181325"><ele>645.0</ele><time>2026-05-02T14:30:07.999Z</time></trkpt><trkpt lat="43.90800725144481" lon="12.240581446067985"><ele>645.0</ele><time>2026-05-02T14:30:08.999Z</time></trkpt><trkpt lat="43.90808597345644" lon="12.24044387048867"><ele>645.0</ele><time>2026-05-02T14:30:09.999Z</time></trkpt><trkpt lat="43.90815379699012" lon="12.240306080073005"><ele>645.0</ele><time>2026-05-02T14:30:10.999Z</time></trkpt><trkpt lat="43.90822114629133" lon="12.240181742680708"><ele>645.0</ele><time>2026-05-02T14:30:11.999Z</time></trkpt><trkpt lat="43.9082975620806" lon="12.240079556335926"><ele>647.25</ele><time>2026-05-02T14:30:12.999Z</time></trkpt><trkpt lat="43.90841633295812" lon="12.240032999501162"><ele>649.5</ele><time>2026-05-02T14:30:13.999Z</time></trkpt><trkpt lat="43.90854981088564" lon="12.23992820335488"><ele>651.75</ele><time>2026-05-02T14:30:14.999Z</time></trkpt><trkpt lat="43.90870797479493" lon="12.23983708881445"><ele>654.0</ele><time>2026-05-02T14:30:15.999Z</time></trkpt><trkpt lat="43.90884594721793" lon="12.239754058714796"><ele>648.75</ele><time>2026-05-02T14:30:16.999Z</time></trkpt><trkpt lat="43.908981411813436" lon="12.239681386707321"><ele>643.5</ele><time>2026-05-02T14:30:17.999Z</time></trkpt><trkpt lat="43.909110516887296" lon="12.239626154829205"><ele>638.25</ele><time>2026-05-02T14:30:18.999Z</time></trkpt><trkpt lat="43.909246807373094" lon="12.239642938240868"><ele>633.0</ele><time>2026-05-02T14:30:19.999Z</time></trkpt><trkpt lat="43.90938292951347" lon="12.239646333698802"><ele>631.75</ele><time>2026-05-02T14:30:20.999Z</time></trkpt><trkpt lat="43.90952816111219" lon="12.239640572568709"><ele>630.5</ele><time>2026-05-02T14:30:22Z</time></trkpt><trkpt lat="43.90968035121658" lon="12.239650543980991"><ele>629.25</ele><time>2026-05-02T14:30:23Z</time></trkpt><trkpt lat="43.909822235781185" lon="12.239646805975473"><ele>628.0</ele><time>2026-05-02T14:30:24Z</time></trkpt><trkpt lat="43.9099595130581" lon="12.239647422855933"><ele>625.75</ele><time>2026-05-02T14:30:25Z</time></trkpt><trkpt lat="43.910089776893" lon="12.239661572359404"><ele>623.5</ele><time>2026-05-02T14:30:26Z</time></trkpt><trkpt lat="43.91021682794975" lon="12.239653187596778"><ele>621.25</ele><time>2026-05-02T14:30:27Z</time></trkpt><trkpt lat="43.910343258763255" lon="12.239628271236539"><ele>619.0</ele><time>2026-05-02T14:30:28Z</time></trkpt><trkpt lat="43.91046281084096" lon="12.239621168546433"><ele>619.0</ele><time>2026-05-02T14:30:29Z</time></trkpt><trkpt lat="43.91058365296664" lon="12.239615804113015"><ele>619.0</ele><time>2026-05-02T14:30:30Z</time></trkpt><trkpt lat="43.91070708301855" lon="12.239643085229002"><ele>619.0</ele><time>2026-05-02T14:30:31Z</time></trkpt><trkpt lat="43.910826341920284" lon="12.239745994819527"><ele>619.0</ele><time>2026-05-02T14:30:32Z</time></trkpt><trkpt lat="43.91096239036735" lon="12.239810561743857"><ele>621.6666666666667</ele><time>2026-05-02T14:30:33Z</time></trkpt><trkpt lat="43.9110987128512" lon="12.239876033411393"><ele>624.3333333333334</ele><time>2026-05-02T14:30:34Z</time></trkpt><trkpt lat="43.911252684614844" lon="12.239862928385454"><ele>627.0</ele><time>2026-05-02T14:30:35Z</time></trkpt><trkpt lat="43.91140548636191" lon="12.239841703796248"><ele>627.0</ele><time>2026-05-02T14:30:36Z</time></trkpt><trkpt lat="43.91155834552778" lon="12.239829879647626"><ele>627.0</ele><time>2026-05-02T14:30:37Z</time></trkpt><trkpt lat="43.9117082570681" lon="12.23984710480741"><ele>627.0</ele><time>2026-05-02T14:30:38Z</time></trkpt><trkpt lat="43.91184207749165" lon="12.239870256507471"><ele>627.0</ele><time>2026-05-02T14:30:39Z</time></trkpt><trkpt lat="43.911959742807944" lon="12.239845019357178"><ele>623.75</ele><time>2026-05-02T14:30:40Z</time></trkpt><trkpt lat="43.91206716608153" lon="12.239763228230636"><ele>620.5</ele><time>2026-05-02T14:30:41Z</time></trkpt><trkpt lat="43.912171491760844" lon="12.239633213281222"><ele>617.25</ele><time>2026-05-02T14:30:42Z</time></trkpt><trkpt lat="43.912278518290925" lon="12.239515741925368"><ele>614.0</ele><time>2026-05-02T14:30:43Z</time></trkpt><trkpt lat="43.912391411780185" lon="12.239459737250288"><ele>614.0</ele><time>2026-05-02T14:30:44Z</time></trkpt><trkpt lat="43.91250136189634" lon="12.239492660431626"><ele>614.0</ele><time>2026-05-02T14:30:45Z</time></trkpt><trkpt lat="43.91260298720914" lon="12.23954625251559"><ele>614.0</ele><time>2026-05-02T14:30:46Z</time></trkpt><trkpt lat="43.91272040594961" lon="12.23959324998196"><ele>614.0</ele><time>2026-05-02T14:30:47Z</time></trkpt><trkpt lat="43.91284598983974" lon="12.23965250097557"><ele>612.5</ele><time>2026-05-02T14:30:48Z</time></trkpt><trkpt lat="43.91298968691434" lon="12.239629455662948"><ele>611.0</ele><time>2026-05-02T14:30:49Z</time></trkpt><trkpt lat="43.91312488703129" lon="12.239543962003614"><ele>609.5</ele><time>2026-05-02T14:30:50Z</time></trkpt><trkpt lat="43.91324466602054" lon="12.239425714094024"><ele>608.0</ele><time>2026-05-02T14:30:51Z</time></trkpt><trkpt lat="43.91334902368921" lon="12.239278673919802"><ele>608.3333333333333</ele><time>2026-05-02T14:30:52Z</time></trkpt><trkpt lat="43.91345135029967" lon="12.239120509464744"><ele>608.6666666666666</ele><time>2026-05-02T14:30:53Z</time></trkpt><trkpt lat="43.9135504181113" lon="12.238940996123926"><ele>609.0</ele><time>2026-05-02T14:30:54Z</time></trkpt><trkpt lat="43.91364718059694" lon="12.23875035833668"><ele>610.3333333333334</ele><time>2026-05-02T14:30:55Z</time></trkpt><trkpt lat="43.91373813887759" lon="12.238557323165917"><ele>611.6666666666667</ele><time>2026-05-02T14:30:56Z</time></trkpt><trkpt lat="43.913822343854676" lon="12.238387395878894"><ele>613.0</ele><time>2026-05-02T14:30:57Z</time></trkpt><trkpt lat="43.91391518454804" lon="12.238235715187189"><ele>614.6666666666667</ele><time>2026-05-02T14:30:58Z</time></trkpt><trkpt lat="43.91403626068403" lon="12.238115430450872"><ele>616.3333333333334</ele><time>2026-05-02T14:30:59Z</time></trkpt><trkpt lat="43.91416700319858" lon="12.238014874443481"><ele>618.0</ele><time>2026-05-02T14:31:00Z</time></trkpt><trkpt lat="43.91429428671437" lon="12.237895838407926"><ele>618.0</ele><time>2026-05-02T14:31:01Z</time></trkpt><trkpt lat="43.91442094633498" lon="12.23777363212721"><ele>618.0</ele><time>2026-05-02T14:31:02Z</time></trkpt><trkpt lat="43.91453510844692" lon="12.237631085443397"><ele>618.0</ele><time>2026-05-02T14:31:03Z</time></trkpt><trkpt lat="43.91464948143602" lon="12.237482284003793"><ele>618.0</ele><time>2026-05-02T14:31:04Z</time></trkpt><trkpt lat="43.91476507959232" lon="12.237344937902352"><ele>618.0</ele><time>2026-05-02T14:31:05Z</time></trkpt><trkpt lat="43.91487927345963" lon="12.237240852919683"><ele>618.0</ele><time>2026-05-02T14:31:05.999Z</time></trkpt><trkpt lat="43.91500206190514" lon="12.237197947952017"><ele>618.0</ele><time>2026-05-02T14:31:06.999Z</time></trkpt><trkpt lat="43.91513241178335" lon="12.237122046661565"><ele>618.75</ele><time>2026-05-02T14:31:07.999Z</time></trkpt><trkpt lat="43.915271953825" lon="12.237069962912756"><ele>619.5</ele><time>2026-05-02T14:31:08.999Z</time></trkpt><trkpt lat="43.91538352609001" lon="12.237001173299154"><ele>620.25</ele><time>2026-05-02T14:31:09.999Z</time></trkpt><trkpt lat="43.915454156319875" lon="12.236891889205179"><ele>621.0</ele><time>2026-05-02T14:31:10.999Z</time></trkpt><trkpt lat="43.91549892218249" lon="12.236729022264823"><ele>621.0</ele><time>2026-05-02T14:31:11.999Z</time></trkpt><trkpt lat="43.91551346834301" lon="12.236535764582612"><ele>621.0</ele><time>2026-05-02T14:31:12.999Z</time></trkpt><trkpt lat="43.91553462933682" lon="12.236354432391494"><ele>621.0</ele><time>2026-05-02T14:31:13.999Z</time></trkpt><trkpt lat="43.915594014581714" lon="12.236246131472488"><ele>621.0</ele><time>2026-05-02T14:31:14.999Z</time></trkpt><trkpt lat="43.91567520659266" lon="12.236222345912507"><ele>618.75</ele><time>2026-05-02T14:31:15.999Z</time></trkpt><trkpt lat="43.91577751887477" lon="12.236244561420316"><ele>616.5</ele><time>2026-05-02T14:31:16.999Z</time></trkpt><trkpt lat="43.91590529844763" lon="12.236265160160043"><ele>614.25</ele><time>2026-05-02T14:31:17.999Z</time></trkpt><trkpt lat="43.916055295414715" lon="12.236267160215482"><ele>612.0</ele><time>2026-05-02T14:31:18.999Z</time></trkpt><trkpt lat="43.91621512490729" lon="12.236246060658113"><ele>612.0</ele><time>2026-05-02T14:31:19.999Z</time></trkpt><trkpt lat="43.91638829255112" lon="12.236211375872895"><ele>612.0</ele><time>2026-05-02T14:31:20.999Z</time></trkpt><trkpt lat="43.916551839628724" lon="12.236230140110367"><ele>612.0</ele><time>2026-05-02T14:31:21.999Z</time></trkpt><trkpt lat="43.91671880495953" lon="12.236282694257007"><ele>614.0</ele><time>2026-05-02T14:31:22.999Z</time></trkpt><trkpt lat="43.91688784498496" lon="12.2362902193714"><ele>616.0</ele><time>2026-05-02T14:31:23.999Z</time></trkpt><trkpt lat="43.91705010043986" lon="12.236242111056077"><ele>618.0</ele><time>2026-05-02T14:31:24.999Z</time></trkpt><trkpt lat="43.91721238803501" lon="12.236118658589309"><ele>618.0</ele><time>2026-05-02T14:31:25.999Z</time></trkpt><trkpt lat="43.917383686536304" lon="12.23596171676526"><ele>618.0</ele><time>2026-05-02T14:31:26.999Z</time></trkpt><trkpt lat="43.91756720712236" lon="12.235783202201358"><ele>618.0</ele><time>2026-05-02T14:31:27.999Z</time></trkpt><trkpt lat="43.917760307915586" lon="12.235592038099474"><ele>616.0</ele><time>2026-05-02T14:31:28.999Z</time></trkpt><trkpt lat="43.91793443158599" lon="12.235384762828051"><ele>614.0</ele><time>2026-05-02T14:31:29.999Z</time></trkpt><trkpt lat="43.91806154796688" lon="12.235208376045502"><ele>612.0</ele><time>2026-05-02T14:31:30.999Z</time></trkpt><trkpt lat="43.91816940366297" lon="12.235045879890553"><ele>612.0</ele><time>2026-05-02T14:31:31.999Z</time></trkpt><trkpt lat="43.91830451051775" lon="12.234910895703216"><ele>612.0</ele><time>2026-05-02T14:31:32.999Z</time></trkpt><trkpt lat="43.91848710615307" lon="12.234803905464942"><ele>612.0</ele><time>2026-05-02T14:31:33.999Z</time></trkpt><trkpt lat="43.91869319703901" lon="12.234697057040444"><ele>606.0</ele><time>2026-05-02T14:31:34.999Z</time></trkpt><trkpt lat="43.918899847923896" lon="12.234584607629694"><ele>600.0</ele><time>2026-05-02T14:31:35.999Z</time></trkpt><trkpt lat="43.91911400493775" lon="12.234456799038767"><ele>597.5</ele><time>2026-05-02T14:31:36.999Z</time></trkpt><trkpt lat="43.919330631349396" lon="12.234311833107814"><ele>595.0</ele><time>2026-05-02T14:31:37.999Z</time></trkpt><trkpt lat="43.91955744212305" lon="12.234157541246862"><ele>595.0</ele><time>2026-05-02T14:31:38.999Z</time></trkpt><trkpt lat="43.91977567461287" lon="12.23401127912397"><ele>595.0</ele><time>2026-05-02T14:31:39.999Z</time></trkpt><trkpt lat="43.91997840158768" lon="12.23386797348607"><ele>596.6666666666667</ele><time>2026-05-02T14:31:40.999Z</time></trkpt><trkpt lat="43.920163717531395" lon="12.233723944738198"><ele>598.3333333333334</ele><time>2026-05-02T14:31:41.999Z</time></trkpt><trkpt lat="43.92032802448635" lon="12.233575316607016"><ele>600.0</ele><time>2026-05-02T14:31:42.999Z</time></trkpt><trkpt lat="43.92045938487999" lon="12.233387607440946"><ele>600.0</ele><time>2026-05-02T14:31:43.999Z</time></trkpt><trkpt lat="43.92056055696233" lon="12.233183432072433"><ele>600.0</ele><time>2026-05-02T14:31:44.999Z</time></trkpt><trkpt lat="43.92066428169231" lon="12.233006512635804"><ele>600.0</ele><time>2026-05-02T14:31:45.999Z</time></trkpt><trkpt lat="43.92078451002277" lon="12.232880063601423"><ele>599.75</ele><time>2026-05-02T14:31:46.999Z</time></trkpt><trkpt lat="43.920887094497644" lon="12.23278894191603"><ele>599.5</ele><time>2026-05-02T14:31:47.999Z</time></trkpt><trkpt lat="43.920938053274405" lon="12.23266072511758"><ele>599.25</ele><time>2026-05-02T14:31:48.999Z</time></trkpt><trkpt lat="43.9209257532992" lon="12.232473398623139"><ele>599.0</ele><time>2026-05-02T14:31:49.999Z</time></trkpt><trkpt lat="43.92089949411003" lon="12.232267903596696"><ele>597.8</ele><time>2026-05-02T14:31:50.999Z</time></trkpt><trkpt lat="43.9208537466851" lon="12.232072116444005"><ele>596.5999999999999</ele><time>2026-05-02T14:31:51.999Z</time></trkpt><trkpt lat="43.920824315295384" lon="12.231915438316102"><ele>595.4</ele><time>2026-05-02T14:31:52.999Z</time></trkpt><trkpt lat="43.92082407487752" lon="12.231802576364435"><ele>594.1999999999999</ele><time>2026-05-02T14:31:53.999Z</time></trkpt><trkpt lat="43.92086588859048" lon="12.231701189875144"><ele>593.0</ele><time>2026-05-02T14:31:54.999Z</time></trkpt><trkpt lat="43.92094450683655" lon="12.231612588251672"><ele>592.3333333333333</ele><time>2026-05-02T14:31:55.999Z</time></trkpt><trkpt lat="43.92108924766533" lon="12.231588640996868"><ele>591.6666666666666</ele><time>2026-05-02T14:31:56.999Z</time></trkpt><trkpt lat="43.92127339208747" lon="12.23150921883091"><ele>591.0</ele><time>2026-05-02T14:31:57.999Z</time></trkpt><trkpt lat="43.921487996480174" lon="12.231418440422484"><ele>587.6666666666666</ele><time>2026-05-02T14:31:58.999Z</time></trkpt><trkpt lat="43.921701115097406" lon="12.231318895949972"><ele>584.3333333333333</ele><time>2026-05-02T14:31:59.999Z</time></trkpt><trkpt lat="43.921869570710385" lon="12.231211093283818"><ele>581.0</ele><time>2026-05-02T14:32:00.999Z</time></trkpt><trkpt lat="43.922032414558444" lon="12.23104537935764"><ele>581.0</ele><time>2026-05-02T14:32:01.999Z</time></trkpt><trkpt lat="43.92219501543906" lon="12.230840288403735"><ele>581.0</ele><time>2026-05-02T14:32:02.999Z</time></trkpt><trkpt lat="43.92234445352649" lon="12.230608799533153"><ele>581.0</ele><time>2026-05-02T14:32:03.999Z</time></trkpt><trkpt lat="43.92246554066005" lon="12.230346412453445"><ele>580.3333333333333</ele><time>2026-05-02T14:32:04.999Z</time></trkpt><trkpt lat="43.922556389485365" lon="12.230088902509928"><ele>579.6666666666666</ele><time>2026-05-02T14:32:05.999Z</time></trkpt><trkpt lat="43.922666076599754" lon="12.229894246431293"><ele>579.0</ele><time>2026-05-02T14:32:06.999Z</time></trkpt><trkpt lat="43.92277909893331" lon="12.2297204105062"><ele>578.0</ele><time>2026-05-02T14:32:07.999Z</time></trkpt><trkpt lat="43.92293276241532" lon="12.229565493116791"><ele>577.0</ele><time>2026-05-02T14:32:08.999Z</time></trkpt><trkpt lat="43.92307121716647" lon="12.229429136376387"><ele>576.0</ele><time>2026-05-02T14:32:09.999Z</time></trkpt><trkpt lat="43.92316309997784" lon="12.229290125972064"><ele>576.0</ele><time>2026-05-02T14:32:10.999Z</time></trkpt><trkpt lat="43.92320999639315" lon="12.229119377339533"><ele>576.0</ele><time>2026-05-02T14:32:11.999Z</time></trkpt><trkpt lat="43.923207589531614" lon="12.228903249879"><ele>576.0</ele><time>2026-05-02T14:32:12.999Z</time></trkpt><trkpt lat="43.92323656701546" lon="12.228683470740467"><ele>576.0</ele><time>2026-05-02T14:32:13.999Z</time></trkpt><trkpt lat="43.923332594025425" lon="12.228503099641989"><ele>575.6666666666666</ele><time>2026-05-02T14:32:14.999Z</time></trkpt><trkpt lat="43.92347567803717" lon="12.228330610160148"><ele>575.3333333333333</ele><time>2026-05-02T14:32:15.999Z</time></trkpt><trkpt lat="43.92363032187865" lon="12.22813535496205"><ele>575.0</ele><time>2026-05-02T14:32:16.999Z</time></trkpt><trkpt lat="43.92379077092713" lon="12.22790319912567"><ele>576.0</ele><time>2026-05-02T14:32:17.999Z</time></trkpt><trkpt lat="43.92394094586714" lon="12.22767516683444"><ele>577.0</ele><time>2026-05-02T14:32:18.999Z</time></trkpt><trkpt lat="43.92408955510993" lon="12.227482606126072"><ele>578.0</ele><time>2026-05-02T14:32:19.999Z</time></trkpt><trkpt lat="43.92425746537064" lon="12.227313673572727"><ele>576.0</ele><time>2026-05-02T14:32:20.999Z</time></trkpt><trkpt lat="43.92440306658455" lon="12.227191722938562"><ele>574.0</ele><time>2026-05-02T14:32:21.999Z</time></trkpt><trkpt lat="43.92451230011251" lon="12.227079093284273"><ele>572.0</ele><time>2026-05-02T14:32:22.999Z</time></trkpt><trkpt lat="43.92459130190423" lon="12.22693851128119"><ele>570.0</ele><time>2026-05-02T14:32:23.999Z</time></trkpt><trkpt lat="43.92462009940465" lon="12.226765853720277"><ele>570.0</ele><time>2026-05-02T14:32:24.999Z</time></trkpt><trkpt lat="43.92459240341399" lon="12.22657456367039"><ele>570.0</ele><time>2026-05-02T14:32:25.999Z</time></trkpt><trkpt lat="43.924559513877746" lon="12.226405437570188"><ele>570.0</ele><time>2026-05-02T14:32:26.999Z</time></trkpt><trkpt lat="43.92452740915768" lon="12.226270279657568"><ele>570.0</ele><time>2026-05-02T14:32:28Z</time></trkpt><trkpt lat="43.92450685770163" lon="12.226133183245988"><ele>571.1666666666666</ele><time>2026-05-02T14:32:29Z</time></trkpt><trkpt lat="43.92448518015573" lon="12.22600209350921"><ele>572.3333333333334</ele><time>2026-05-02T14:32:30Z</time></trkpt><trkpt lat="43.924464144075195" lon="12.225878096480372"><ele>573.5</ele><time>2026-05-02T14:32:31Z</time></trkpt><trkpt lat="43.924454683359976" lon="12.225761622957288"><ele>574.6666666666667</ele><time>2026-05-02T14:32:32Z</time></trkpt><trkpt lat="43.924452885087945" lon="12.225651044736157"><ele>575.8333333333334</ele><time>2026-05-02T14:32:33Z</time></trkpt><trkpt lat="43.92445119210076" lon="12.225540283345687"><ele>577.0</ele><time>2026-05-02T14:32:34Z</time></trkpt><trkpt lat="43.924457775424706" lon="12.225422617680191"><ele>578.8000000000001</ele><time>2026-05-02T14:32:35Z</time></trkpt><trkpt lat="43.924466583756825" lon="12.225292759899542"><ele>580.6</ele><time>2026-05-02T14:32:36Z</time></trkpt><trkpt lat="43.92447495680832" lon="12.225155130495963"><ele>582.4000000000001</ele><time>2026-05-02T14:32:37Z</time></trkpt><trkpt lat="43.92448803857409" lon="12.22500850741309"><ele>584.2</ele><time>2026-05-02T14:32:38Z</time></trkpt><trkpt lat="43.92450579024639" lon="12.224855923504977"><ele>586.0</ele><time>2026-05-02T14:32:39Z</time></trkpt><trkpt lat="43.924523605939974" lon="12.224696650823303"><ele>588.0</ele><time>2026-05-02T14:32:40Z</time></trkpt><trkpt lat="43.92453425397677" lon="12.224528893177396"><ele>590.0</ele><time>2026-05-02T14:32:41Z</time></trkpt><trkpt lat="43.92453721663137" lon="12.224338639014434"><ele>592.0</ele><time>2026-05-02T14:32:42Z</time></trkpt><trkpt lat="43.92453692106849" lon="12.224193547209978"><ele>594.0</ele><time>2026-05-02T14:32:43Z</time></trkpt><trkpt lat="43.9245084218837" lon="12.224019545287394"><ele>594.75</ele><time>2026-05-02T14:32:44Z</time></trkpt><trkpt lat="43.9244657112578" lon="12.223846554516264"><ele>595.5</ele><time>2026-05-02T14:32:45Z</time></trkpt><trkpt lat="43.92441776112749" lon="12.223676004346126"><ele>596.25</ele><time>2026-05-02T14:32:46Z</time></trkpt><trkpt lat="43.92437169306759" lon="12.223506915402389"><ele>597.0</ele><time>2026-05-02T14:32:47Z</time></trkpt><trkpt lat="43.92433374014713" lon="12.223345192253472"><ele>597.0</ele><time>2026-05-02T14:32:48Z</time></trkpt><trkpt lat="43.924301603804025" lon="12.223201338767508"><ele>597.0</ele><time>2026-05-02T14:32:49Z</time></trkpt><trkpt lat="43.924303748542734" lon="12.223051789951203"><ele>597.0</ele><time>2026-05-02T14:32:50Z</time></trkpt><trkpt lat="43.924301554834926" lon="12.22288281845219"><ele>597.0</ele><time>2026-05-02T14:32:51Z</time></trkpt><trkpt lat="43.9243206536219" lon="12.22269878440648"><ele>596.25</ele><time>2026-05-02T14:32:52Z</time></trkpt><trkpt lat="43.92433981968804" lon="12.222498518484661"><ele>595.5</ele><time>2026-05-02T14:32:53Z</time></trkpt><trkpt lat="43.924355384269525" lon="12.222304711891645"><ele>594.75</ele><time>2026-05-02T14:32:54Z</time></trkpt><trkpt lat="43.92437736536976" lon="12.22214479545399"><ele>594.0</ele><time>2026-05-02T14:32:55Z</time></trkpt><trkpt lat="43.92441362839913" lon="12.221995947375216"><ele>590.5</ele><time>2026-05-02T14:32:56Z</time></trkpt><trkpt lat="43.92446609562654" lon="12.221867823360066"><ele>587.0</ele><time>2026-05-02T14:32:57Z</time></trkpt><trkpt lat="43.92453394913997" lon="12.221740096257276"><ele>583.5</ele><time>2026-05-02T14:32:58Z</time></trkpt><trkpt lat="43.92462329459029" lon="12.221630270415229"><ele>580.0</ele><time>2026-05-02T14:32:59Z</time></trkpt><trkpt lat="43.9247210359807" lon="12.221554185824308"><ele>580.0</ele><time>2026-05-02T14:33:00Z</time></trkpt><trkpt lat="43.92482978312168" lon="12.221562735019871"><ele>580.0</ele><time>2026-05-02T14:33:01Z</time></trkpt><trkpt lat="43.92493573942174" lon="12.221680868728068"><ele>580.0</ele><time>2026-05-02T14:33:02Z</time></trkpt><trkpt lat="43.9250594071262" lon="12.221744706664987"><ele>580.0</ele><time>2026-05-02T14:33:03Z</time></trkpt><trkpt lat="43.925192712488474" lon="12.221823390707403"><ele>579.0</ele><time>2026-05-02T14:33:04Z</time></trkpt><trkpt lat="43.92533143713119" lon="12.221888541498679"><ele>578.0</ele><time>2026-05-02T14:33:05Z</time></trkpt><trkpt lat="43.92547689116566" lon="12.221948470807206"><ele>577.0</ele><time>2026-05-02T14:33:06Z</time></trkpt><trkpt lat="43.925635396884324" lon="12.22199481290679"><ele>577.0</ele><time>2026-05-02T14:33:07Z</time></trkpt><trkpt lat="43.92579031686978" lon="12.222004364574616"><ele>577.0</ele><time>2026-05-02T14:33:08Z</time></trkpt><trkpt lat="43.92591493305769" lon="12.222025985909303"><ele>577.0</ele><time>2026-05-02T14:33:09Z</time></trkpt><trkpt lat="43.926006590043514" lon="12.222114013101045"><ele>577.0</ele><time>2026-05-02T14:33:09.999Z</time></trkpt><trkpt lat="43.92610031792065" lon="12.222166209030291"><ele>577.6</ele><time>2026-05-02T14:33:10.999Z</time></trkpt><trkpt lat="43.926189018981624" lon="12.222266932251388"><ele>578.2</ele><time>2026-05-02T14:33:11.999Z</time></trkpt><trkpt lat="43.926289163524444" lon="12.22234062239107"><ele>578.8</ele><time>2026-05-02T14:33:12.999Z</time></trkpt><trkpt lat="43.92637741559092" lon="12.222408164038121"><ele>579.4</ele><time>2026-05-02T14:33:13.999Z</time></trkpt><trkpt lat="43.92645553542158" lon="12.222482161006946"><ele>580.0</ele><time>2026-05-02T14:33:14.999Z</time></trkpt><trkpt lat="43.92653950707361" lon="12.22255798501085"><ele>584.2</ele><time>2026-05-02T14:33:15.999Z</time></trkpt><trkpt lat="43.92663511021447" lon="12.22261317498578"><ele>588.4</ele><time>2026-05-02T14:33:16.999Z</time></trkpt><trkpt lat="43.92674158646599" lon="12.222644890545512"><ele>592.6</ele><time>2026-05-02T14:33:17.999Z</time></trkpt><trkpt lat="43.92685403962721" lon="12.22264733274226"><ele>596.8</ele><time>2026-05-02T14:33:18.999Z</time></trkpt><trkpt lat="43.92696292045127" lon="12.222639286913237"><ele>601.0</ele><time>2026-05-02T14:33:19.999Z</time></trkpt><trkpt lat="43.927065700930086" lon="12.222617782611906"><ele>600.4</ele><time>2026-05-02T14:33:20.999Z</time></trkpt><trkpt lat="43.927167356757074" lon="12.2225774428974"><ele>599.8</ele><time>2026-05-02T14:33:21.999Z</time></trkpt><trkpt lat="43.92726963264812" lon="12.22251904748014"><ele>599.1999999999999</ele><time>2026-05-02T14:33:22.999Z</time></trkpt><trkpt lat="43.927354580354546" lon="12.222449648864055"><ele>598.6</ele><time>2026-05-02T14:33:23.999Z</time></trkpt><trkpt lat="43.9274310017638" lon="12.222353937319506"><ele>598.0</ele><time>2026-05-02T14:33:24.999Z</time></trkpt><trkpt lat="43.927499632261394" lon="12.222247234147387"><ele>598.0</ele><time>2026-05-02T14:33:25.999Z</time></trkpt><trkpt lat="43.927554752517985" lon="12.222139813267152"><ele>598.0</ele><time>2026-05-02T14:33:26.999Z</time></trkpt><trkpt lat="43.92760714818347" lon="12.222013331704302"><ele>598.0</ele><time>2026-05-02T14:33:27.999Z</time></trkpt><trkpt lat="43.927650046689116" lon="12.221883234277195"><ele>598.0</ele><time>2026-05-02T14:33:28.999Z</time></trkpt><trkpt lat="43.9277036705448" lon="12.221762766927215"><ele>598.0</ele><time>2026-05-02T14:33:29.999Z</time></trkpt><trkpt lat="43.92778042590645" lon="12.221659479516214"><ele>599.1999999999999</ele><time>2026-05-02T14:33:30.999Z</time></trkpt><trkpt lat="43.92787983417664" lon="12.221587033448548"><ele>600.4</ele><time>2026-05-02T14:33:31.999Z</time></trkpt><trkpt lat="43.92796105537225" lon="12.221486771607385"><ele>601.5999999999999</ele><time>2026-05-02T14:33:32.999Z</time></trkpt><trkpt lat="43.92804566117401" lon="12.221411022072841"><ele>602.8</ele><time>2026-05-02T14:33:33.999Z</time></trkpt><trkpt lat="43.92813096308469" lon="12.221343173611658"><ele>604.0</ele><time>2026-05-02T14:33:34.999Z</time></trkpt><trkpt lat="43.92821377851183" lon="12.221265827935815"><ele>604.0</ele><time>2026-05-02T14:33:35.999Z</time></trkpt><trkpt lat="43.92828979752734" lon="12.221169765743928"><ele>604.0</ele><time>2026-05-02T14:33:36.999Z</time></trkpt><trkpt lat="43.92835772172048" lon="12.22107726430073"><ele>604.0</ele><time>2026-05-02T14:33:37.999Z</time></trkpt><trkpt lat="43.928414136898425" lon="12.220989063881621"><ele>604.0</ele><time>2026-05-02T14:33:38.999Z</time></trkpt><trkpt lat="43.92847758319992" lon="12.220915241012209"><ele>604.0</ele><time>2026-05-02T14:33:39.999Z</time></trkpt><trkpt lat="43.928553472340845" lon="12.220858049758027"><ele>603.5</ele><time>2026-05-02T14:33:40.999Z</time></trkpt><trkpt lat="43.928635636095194" lon="12.220812646068264"><ele>603.0</ele><time>2026-05-02T14:33:41.999Z</time></trkpt><trkpt lat="43.928728509973155" lon="12.220801278204734"><ele>602.5</ele><time>2026-05-02T14:33:42.999Z</time></trkpt><trkpt lat="43.92881566709899" lon="12.220749027799467"><ele>602.0</ele><time>2026-05-02T14:33:43.999Z</time></trkpt><trkpt lat="43.928886097111096" lon="12.220738656557211"><ele>601.5</ele><time>2026-05-02T14:33:44.999Z</time></trkpt><trkpt lat="43.92895655408787" lon="12.220719143039435"><ele>601.0</ele><time>2026-05-02T14:33:45.999Z</time></trkpt><trkpt lat="43.92904494047504" lon="12.220683396806225"><ele>601.5</ele><time>2026-05-02T14:33:46.999Z</time></trkpt><trkpt lat="43.929162737998496" lon="12.220637114706502"><ele>602.0</ele><time>2026-05-02T14:33:47.999Z</time></trkpt><trkpt lat="43.92929831537009" lon="12.220599709665471"><ele>602.5</ele><time>2026-05-02T14:33:48.999Z</time></trkpt><trkpt lat="43.929438131888496" lon="12.220564637051913"><ele>603.0</ele><time>2026-05-02T14:33:49.999Z</time></trkpt><trkpt lat="43.92956489673803" lon="12.220545640147858"><ele>603.75</ele><time>2026-05-02T14:33:50.999Z</time></trkpt><trkpt lat="43.92968264214064" lon="12.220564123758418"><ele>604.5</ele><time>2026-05-02T14:33:51.999Z</time></trkpt><trkpt lat="43.92978899231318" lon="12.220665327371425"><ele>605.25</ele><time>2026-05-02T14:33:52.999Z</time></trkpt><trkpt lat="43.92990238536874" lon="12.220792996266438"><ele>606.0</ele><time>2026-05-02T14:33:53.999Z</time></trkpt><trkpt lat="43.930030167484595" lon="12.2209309778066"><ele>611.3333333333334</ele><time>2026-05-02T14:33:54.999Z</time></trkpt><trkpt lat="43.93017234228284" lon="12.22106903142978"><ele>616.6666666666667</ele><time>2026-05-02T14:33:55.999Z</time></trkpt><trkpt lat="43.930310912476216" lon="12.221240438899805"><ele>622.0</ele><time>2026-05-02T14:33:56.999Z</time></trkpt><trkpt lat="43.93044668225659" lon="12.22144800854975"><ele>619.0</ele><time>2026-05-02T14:33:57.999Z</time></trkpt><trkpt lat="43.9305649271968" lon="12.221674728701403"><ele>616.0</ele><time>2026-05-02T14:33:58.999Z</time></trkpt><trkpt lat="43.93067776504646" lon="12.221888522418444"><ele>613.0</ele><time>2026-05-02T14:33:59.999Z</time></trkpt><trkpt lat="43.93079628631996" lon="12.22207147977173"><ele>612.0</ele><time>2026-05-02T14:34:00.999Z</time></trkpt><trkpt lat="43.930936666599216" lon="12.222225164825735"><ele>611.0</ele><time>2026-05-02T14:34:01.999Z</time></trkpt><trkpt lat="43.931087738321" lon="12.222375863816128"><ele>610.0</ele><time>2026-05-02T14:34:02.999Z</time></trkpt><trkpt lat="43.93123953127079" lon="12.222512348494417"><ele>610.0</ele><time>2026-05-02T14:34:03.999Z</time></trkpt><trkpt lat="43.931387383799155" lon="12.222581352423541"><ele>610.0</ele><time>2026-05-02T14:34:04.999Z</time></trkpt><trkpt lat="43.93152600089511" lon="12.222617031997387"><ele>610.0</ele><time>2026-05-02T14:34:05.999Z</time></trkpt><trkpt lat="43.931680767949295" lon="12.22259603879564"><ele>606.6666666666667</ele><time>2026-05-02T14:34:06.999Z</time></trkpt><trkpt lat="43.93185519083941" lon="12.22255016176615"><ele>603.3333333333334</ele><time>2026-05-02T14:34:07.999Z</time></trkpt><trkpt lat="43.93205689048083" lon="12.222483488883295"><ele>600.0</ele><time>2026-05-02T14:34:08.999Z</time></trkpt><trkpt lat="43.93227284074635" lon="12.222439143461166"><ele>600.0</ele><time>2026-05-02T14:34:09.999Z</time></trkpt><trkpt lat="43.932484451999166" lon="12.222411767545964"><ele>600.0</ele><time>2026-05-02T14:34:10.999Z</time></trkpt><trkpt lat="43.932652667899" lon="12.22240875165766"><ele>600.0</ele><time>2026-05-02T14:34:11.999Z</time></trkpt><trkpt lat="43.93278722701213" lon="12.222400116278212"><ele>598.25</ele><time>2026-05-02T14:34:12.999Z</time></trkpt><trkpt lat="43.93289663222722" lon="12.222344764533462"><ele>596.5</ele><time>2026-05-02T14:34:13.999Z</time></trkpt><trkpt lat="43.93298444201081" lon="12.222229778370211"><ele>594.75</ele><time>2026-05-02T14:34:14.999Z</time></trkpt><trkpt lat="43.93303952903281" lon="12.222026346913204"><ele>593.0</ele><time>2026-05-02T14:34:15.999Z</time></trkpt><trkpt lat="43.93313713708316" lon="12.221840993593847"><ele>592.6666666666666</ele><time>2026-05-02T14:34:16.999Z</time></trkpt><trkpt lat="43.93326876746064" lon="12.221694206382312"><ele>592.3333333333334</ele><time>2026-05-02T14:34:17.999Z</time></trkpt><trkpt lat="43.93343397705023" lon="12.221590006482469"><ele>592.0</ele><time>2026-05-02T14:34:18.999Z</time></trkpt><trkpt lat="43.93362086443312" lon="12.221502778737236"><ele>593.0</ele><time>2026-05-02T14:34:19.999Z</time></trkpt><trkpt lat="43.93378707607008" lon="12.221413052927192"><ele>594.0</ele><time>2026-05-02T14:34:20.999Z</time></trkpt><trkpt lat="43.93392063568654" lon="12.221352038639605"><ele>595.0</ele><time>2026-05-02T14:34:21.999Z</time></trkpt><trkpt lat="43.934014812273496" lon="12.221241051267429"><ele>596.0</ele><time>2026-05-02T14:34:22.999Z</time></trkpt><trkpt lat="43.93407366501544" lon="12.221086504174211"><ele>596.0</ele><time>2026-05-02T14:34:23.999Z</time></trkpt><trkpt lat="43.934094683351866" lon="12.220905186274145"><ele>596.0</ele><time>2026-05-02T14:34:24.999Z</time></trkpt><trkpt lat="43.93406271394284" lon="12.220707433668215"><ele>596.0</ele><time>2026-05-02T14:34:25.999Z</time></trkpt><trkpt lat="43.93401930562428" lon="12.220489523598221"><ele>596.0</ele><time>2026-05-02T14:34:26.999Z</time></trkpt><trkpt lat="43.934061834147194" lon="12.220260016215084"><ele>594.0</ele><time>2026-05-02T14:34:27.999Z</time></trkpt><trkpt lat="43.93415512306687" lon="12.220034310703022"><ele>592.0</ele><time>2026-05-02T14:34:28.999Z</time></trkpt><trkpt lat="43.93423531564742" lon="12.219801743389358"><ele>590.0</ele><time>2026-05-02T14:34:29.999Z</time></trkpt><trkpt lat="43.93432149322257" lon="12.219657060456397"><ele>589.25</ele><time>2026-05-02T14:34:30.999Z</time></trkpt><trkpt lat="43.93441435574241" lon="12.21957031259774"><ele>588.5</ele><time>2026-05-02T14:34:31.999Z</time></trkpt><trkpt lat="43.93454061280067" lon="12.219506807649097"><ele>587.75</ele><time>2026-05-02T14:34:32.999Z</time></trkpt><trkpt lat="43.934675202194725" lon="12.219522799551372"><ele>587.0</ele><time>2026-05-02T14:34:34Z</time></trkpt><trkpt lat="43.93480094979666" lon="12.219579745241601"><ele>587.0</ele><time>2026-05-02T14:34:35Z</time></trkpt><trkpt lat="43.934931132991856" lon="12.219684851764267"><ele>587.0</ele><time>2026-05-02T14:34:36Z</time></trkpt><trkpt lat="43.93507477559442" lon="12.219822404303525"><ele>587.0</ele><time>2026-05-02T14:34:37Z</time></trkpt><trkpt lat="43.9352200535996" lon="12.22001679917405"><ele>592.5</ele><time>2026-05-02T14:34:38Z</time></trkpt><trkpt lat="43.93537427971629" lon="12.220251249993655"><ele>598.0</ele><time>2026-05-02T14:34:39Z</time></trkpt><trkpt lat="43.93557254084684" lon="12.220481049106171"><ele>597.0</ele><time>2026-05-02T14:34:40Z</time></trkpt><trkpt lat="43.93573863446657" lon="12.220739814931681"><ele>596.0</ele><time>2026-05-02T14:34:41Z</time></trkpt><trkpt lat="43.93587979588881" lon="12.220965765911055"><ele>599.0</ele><time>2026-05-02T14:34:42Z</time></trkpt><trkpt lat="43.936000979159616" lon="12.22118636414322"><ele>602.0</ele><time>2026-05-02T14:34:43Z</time></trkpt><trkpt lat="43.93608662916917" lon="12.221420776471733"><ele>605.0</ele><time>2026-05-02T14:34:44Z</time></trkpt><trkpt lat="43.93616050796951" lon="12.221617207019168"><ele>605.0</ele><time>2026-05-02T14:34:45Z</time></trkpt><trkpt lat="43.93621774351365" lon="12.221792785511628"><ele>605.0</ele><time>2026-05-02T14:34:46Z</time></trkpt><trkpt lat="43.93630986614507" lon="12.22192569839625"><ele>605.0</ele><time>2026-05-02T14:34:47Z</time></trkpt><trkpt lat="43.936439399925675" lon="12.222046687539049"><ele>605.0</ele><time>2026-05-02T14:34:48Z</time></trkpt><trkpt lat="43.93657025053391" lon="12.222188769070238"><ele>600.3333333333333</ele><time>2026-05-02T14:34:49Z</time></trkpt><trkpt lat="43.93666962206194" lon="12.222367291287876"><ele>595.6666666666666</ele><time>2026-05-02T14:34:50Z</time></trkpt><trkpt lat="43.93677392086857" lon="12.222514037997941"><ele>591.0</ele><time>2026-05-02T14:34:51Z</time></trkpt><trkpt lat="43.93690011965469" lon="12.222604808868638"><ele>591.0</ele><time>2026-05-02T14:34:52Z</time></trkpt><trkpt lat="43.93699327838114" lon="12.222630798370828"><ele>591.0</ele><time>2026-05-02T14:34:53Z</time></trkpt><trkpt lat="43.93709607805101" lon="12.222610588490573"><ele>591.0</ele><time>2026-05-02T14:34:54Z</time></trkpt><trkpt lat="43.937235883948176" lon="12.222569923536494"><ele>591.0</ele><time>2026-05-02T14:34:55Z</time></trkpt><trkpt lat="43.93737584909593" lon="12.222515408554251"><ele>591.0</ele><time>2026-05-02T14:34:56Z</time></trkpt><trkpt lat="43.93748422646787" lon="12.222536331998448"><ele>591.0</ele><time>2026-05-02T14:34:57Z</time></trkpt><trkpt lat="43.93758382710596" lon="12.222567063568922"><ele>591.0</ele><time>2026-05-02T14:34:58Z</time></trkpt><trkpt lat="43.937645199885864" lon="12.222695698414459"><ele>591.0</ele><time>2026-05-02T14:34:59Z</time></trkpt><trkpt lat="43.937674492760856" lon="12.22280722728114"><ele>591.0</ele><time>2026-05-02T14:35:00Z</time></trkpt><trkpt lat="43.93769476739255" lon="12.22291892211778"><ele>587.8</ele><time>2026-05-02T14:35:01Z</time></trkpt><trkpt lat="43.93769235987567" lon="12.223021712421096"><ele>584.6</ele><time>2026-05-02T14:35:02Z</time></trkpt><trkpt lat="43.93764077652978" lon="12.2231245624706"><ele>581.4</ele><time>2026-05-02T14:35:03Z</time></trkpt><trkpt lat="43.93751897429684" lon="12.22316471967876"><ele>578.2</ele><time>2026-05-02T14:35:04Z</time></trkpt><trkpt lat="43.93742202047268" lon="12.223273563562223"><ele>575.0</ele><time>2026-05-02T14:35:05Z</time></trkpt><trkpt lat="43.93734734764669" lon="12.22340862840555"><ele>575.0</ele><time>2026-05-02T14:35:06Z</time></trkpt><trkpt lat="43.9373240900573" lon="12.223582135534656"><ele>575.0</ele><time>2026-05-02T14:35:07Z</time></trkpt><trkpt lat="43.93735141224485" lon="12.223750848932626"><ele>575.0</ele><time>2026-05-02T14:35:08Z</time></trkpt><trkpt lat="43.937427881250564" lon="12.223895218307517"><ele>575.0</ele><time>2026-05-02T14:35:08.999Z</time></trkpt><trkpt lat="43.93754108521663" lon="12.22403058862671"><ele>570.25</ele><time>2026-05-02T14:35:09.999Z</time></trkpt><trkpt lat="43.93764334669311" lon="12.224210418160482"><ele>565.5</ele><time>2026-05-02T14:35:10.999Z</time></trkpt><trkpt lat="43.937738196277174" lon="12.224350418830774"><ele>560.75</ele><time>2026-05-02T14:35:11.999Z</time></trkpt><trkpt lat="43.937801698758506" lon="12.22444180216438"><ele>556.0</ele><time>2026-05-02T14:35:12.999Z</time></trkpt><trkpt lat="43.93783858923357" lon="12.224566007881297"><ele>556.0</ele><time>2026-05-02T14:35:14.999Z</time></trkpt><trkpt lat="43.93770311578317" lon="12.224618309371396"><ele>556.0</ele><time>2026-05-02T14:35:16.999Z</time></trkpt><trkpt lat="43.93761861835285" lon="12.224517584595688"><ele>556.0</ele><time>2026-05-02T14:35:17.999Z</time></trkpt><trkpt lat="43.93752273409197" lon="12.224362353925635"><ele>556.0</ele><time>2026-05-02T14:35:18.999Z</time></trkpt><trkpt lat="43.93742580903001" lon="12.22420988893507"><ele>557.2</ele><time>2026-05-02T14:35:19.999Z</time></trkpt><trkpt lat="43.93735232081613" lon="12.22410625815577"><ele>558.4000000000001</ele><time>2026-05-02T14:35:20.999Z</time></trkpt><trkpt lat="43.93728612753495" lon="12.224071392154631"><ele>559.6</ele><time>2026-05-02T14:35:21.999Z</time></trkpt><trkpt lat="43.937223737547576" lon="12.22408376151076"><ele>560.8000000000001</ele><time>2026-05-02T14:35:22.999Z</time></trkpt><trkpt lat="43.93719009094696" lon="12.22422335999646"><ele>562.0</ele><time>2026-05-02T14:35:23.999Z</time></trkpt><trkpt lat="43.93722633254194" lon="12.22436450659129"><ele>562.0</ele><time>2026-05-02T14:35:24.999Z</time></trkpt><trkpt lat="43.93732581816691" lon="12.22451966745646"><ele>562.0</ele><time>2026-05-02T14:35:25.999Z</time></trkpt><trkpt lat="43.93747664896142" lon="12.22472092238763"><ele>562.0</ele><time>2026-05-02T14:35:26.999Z</time></trkpt><trkpt lat="43.937589849155216" lon="12.224947629951007"><ele>558.75</ele><time>2026-05-02T14:35:27.999Z</time></trkpt><trkpt lat="43.93767374834926" lon="12.225104436414018"><ele>555.5</ele><time>2026-05-02T14:35:28.999Z</time></trkpt><trkpt lat="43.93776999854957" lon="12.225197707646778"><ele>552.25</ele><time>2026-05-02T14:35:29.999Z</time></trkpt><trkpt lat="43.93785991889307" lon="12.225223485994508"><ele>549.0</ele><time>2026-05-02T14:35:30.999Z</time></trkpt><trkpt lat="43.93797934845356" lon="12.225175815429237"><ele>549.0</ele><time>2026-05-02T14:35:31.999Z</time></trkpt><trkpt lat="43.93808661014357" lon="12.225150001822188"><ele>549.0</ele><time>2026-05-02T14:35:32.999Z</time></trkpt><trkpt lat="43.938155179124806" lon="12.225175096080104"><ele>549.0</ele><time>2026-05-02T14:35:33.999Z</time></trkpt><trkpt lat="43.93818956585845" lon="12.225272869621891"><ele>549.0</ele><time>2026-05-02T14:35:34.999Z</time></trkpt><trkpt lat="43.938208972118694" lon="12.225421300693522"><ele>549.0</ele><time>2026-05-02T14:35:35.999Z</time></trkpt><trkpt lat="43.938242920644726" lon="12.225622388331193"><ele>548.3333333333334</ele><time>2026-05-02T14:35:36.999Z</time></trkpt><trkpt lat="43.938224098837466" lon="12.225776340361731"><ele>547.6666666666666</ele><time>2026-05-02T14:35:37.999Z</time></trkpt><trkpt lat="43.938209336856076" lon="12.22589499803836"><ele>547.0</ele><time>2026-05-02T14:35:38.999Z</time></trkpt><trkpt lat="43.93821025730834" lon="12.226009878071617"><ele>546.3333333333333</ele><time>2026-05-02T14:35:39.999Z</time></trkpt><trkpt lat="43.93822437898885" lon="12.226119870888446"><ele>545.6666666666666</ele><time>2026-05-02T14:35:40.999Z</time></trkpt><trkpt lat="43.93824552363526" lon="12.2262170137862"><ele>545.0</ele><time>2026-05-02T14:35:41.999Z</time></trkpt><trkpt lat="43.93827882820907" lon="12.226310585124692"><ele>545.0</ele><time>2026-05-02T14:35:42.999Z</time></trkpt><trkpt lat="43.938317047368415" lon="12.226420765598249"><ele>545.0</ele><time>2026-05-02T14:35:43.999Z</time></trkpt><trkpt lat="43.93835955847763" lon="12.226543766750822"><ele>545.0</ele><time>2026-05-02T14:35:44.999Z</time></trkpt><trkpt lat="43.938415399728505" lon="12.226678452499169"><ele>545.0</ele><time>2026-05-02T14:35:45.999Z</time></trkpt><trkpt lat="43.93848571090156" lon="12.226819451767359"><ele>545.0</ele><time>2026-05-02T14:35:46.999Z</time></trkpt><trkpt lat="43.93857748947373" lon="12.226945911202638"><ele>543.75</ele><time>2026-05-02T14:35:47.999Z</time></trkpt><trkpt lat="43.938695407321475" lon="12.227061425791778"><ele>542.5</ele><time>2026-05-02T14:35:48.999Z</time></trkpt><trkpt lat="43.93882208762969" lon="12.22713353600568"><ele>541.25</ele><time>2026-05-02T14:35:49.999Z</time></trkpt><trkpt lat="43.93893242494516" lon="12.227141319940637"><ele>540.0</ele><time>2026-05-02T14:35:50.999Z</time></trkpt><trkpt lat="43.939039973373085" lon="12.227094039121862"><ele>540.0</ele><time>2026-05-02T14:35:51.999Z</time></trkpt><trkpt lat="43.93913087774211" lon="12.226970767188012"><ele>540.0</ele><time>2026-05-02T14:35:52.999Z</time></trkpt><trkpt lat="43.939208741441014" lon="12.226790963797828"><ele>540.0</ele><time>2026-05-02T14:35:53.999Z</time></trkpt><trkpt lat="43.93929834689479" lon="12.226604746382316"><ele>540.0</ele><time>2026-05-02T14:35:54.999Z</time></trkpt><trkpt lat="43.939400765399675" lon="12.226425407126237"><ele>535.5</ele><time>2026-05-02T14:35:55.999Z</time></trkpt><trkpt lat="43.93950952806652" lon="12.226283820031874"><ele>531.0</ele><time>2026-05-02T14:35:56.999Z</time></trkpt><trkpt lat="43.93963623936726" lon="12.226198821470085"><ele>526.5</ele><time>2026-05-02T14:35:57.999Z</time></trkpt><trkpt lat="43.93976884532486" lon="12.226136971829366"><ele>522.0</ele><time>2026-05-02T14:35:58.999Z</time></trkpt><trkpt lat="43.939922220336605" lon="12.226114216195102"><ele>518.0</ele><time>2026-05-02T14:35:59.999Z</time></trkpt><trkpt lat="43.94009415177379" lon="12.22614959989833"><ele>514.0</ele><time>2026-05-02T14:36:00.999Z</time></trkpt><trkpt lat="43.94028738616341" lon="12.22619861778497"><ele>510.0</ele><time>2026-05-02T14:36:01.999Z</time></trkpt><trkpt lat="43.94049792649779" lon="12.226229085771271"><ele>510.0</ele><time>2026-05-02T14:36:02.999Z</time></trkpt><trkpt lat="43.94067561142791" lon="12.226281481960584"><ele>510.0</ele><time>2026-05-02T14:36:03.999Z</time></trkpt><trkpt lat="43.94080057545143" lon="12.226355612053402"><ele>510.0</ele><time>2026-05-02T14:36:04.999Z</time></trkpt><trkpt lat="43.94088990305729" lon="12.226444399034817"><ele>510.0</ele><time>2026-05-02T14:36:05.999Z</time></trkpt><trkpt lat="43.94099541208212" lon="12.226606054186227"><ele>508.0</ele><time>2026-05-02T14:36:06.999Z</time></trkpt><trkpt lat="43.94112501809639" lon="12.226797759457813"><ele>506.0</ele><time>2026-05-02T14:36:07.999Z</time></trkpt><trkpt lat="43.94127773639751" lon="12.226976826722755"><ele>504.0</ele><time>2026-05-02T14:36:08.999Z</time></trkpt><trkpt lat="43.941453439673225" lon="12.227121898374184"><ele>504.0</ele><time>2026-05-02T14:36:09.999Z</time></trkpt><trkpt lat="43.94165123923284" lon="12.227248867325953"><ele>504.0</ele><time>2026-05-02T14:36:10.999Z</time></trkpt><trkpt lat="43.94182935225142" lon="12.22736350903926"><ele>504.0</ele><time>2026-05-02T14:36:11.999Z</time></trkpt><trkpt lat="43.941994548485866" lon="12.227441988591314"><ele>505.0</ele><time>2026-05-02T14:36:12.999Z</time></trkpt><trkpt lat="43.94217364677435" lon="12.227486591387644"><ele>506.0</ele><time>2026-05-02T14:36:13.999Z</time></trkpt><trkpt lat="43.942348231100425" lon="12.227536328347561"><ele>507.0</ele><time>2026-05-02T14:36:14.999Z</time></trkpt><trkpt lat="43.942505570410546" lon="12.227663270516794"><ele>505.0</ele><time>2026-05-02T14:36:15.999Z</time></trkpt><trkpt lat="43.942679217445125" lon="12.227807806946773"><ele>503.0</ele><time>2026-05-02T14:36:16.999Z</time></trkpt><trkpt lat="43.942863634325185" lon="12.22793574618514"><ele>501.0</ele><time>2026-05-02T14:36:17.999Z</time></trkpt><trkpt lat="43.94306293621444" lon="12.228011874829333"><ele>501.0</ele><time>2026-05-02T14:36:18.999Z</time></trkpt><trkpt lat="43.94327106711015" lon="12.228036966509244"><ele>501.0</ele><time>2026-05-02T14:36:19.999Z</time></trkpt><trkpt lat="43.94348037609304" lon="12.22802103054126"><ele>501.0</ele><time>2026-05-02T14:36:20.999Z</time></trkpt><trkpt lat="43.94369598351294" lon="12.227921517855576"><ele>505.0</ele><time>2026-05-02T14:36:21.999Z</time></trkpt><trkpt lat="43.94389544028118" lon="12.227809410598779"><ele>509.0</ele><time>2026-05-02T14:36:22.999Z</time></trkpt><trkpt lat="43.944064653153845" lon="12.22770870377397"><ele>513.0</ele><time>2026-05-02T14:36:23.999Z</time></trkpt><trkpt lat="43.944215687934715" lon="12.227705261321152"><ele>517.3333333333334</ele><time>2026-05-02T14:36:24.999Z</time></trkpt><trkpt lat="43.9443454929507" lon="12.22775039021327"><ele>521.6666666666667</ele><time>2026-05-02T14:36:25.999Z</time></trkpt><trkpt lat="43.94447951245495" lon="12.227830644953466"><ele>526.0</ele><time>2026-05-02T14:36:26.999Z</time></trkpt><trkpt lat="43.94464328533331" lon="12.227949482423476"><ele>526.0</ele><time>2026-05-02T14:36:27.999Z</time></trkpt><trkpt lat="43.94482584050509" lon="12.22808005126043"><ele>526.0</ele><time>2026-05-02T14:36:28.999Z</time></trkpt><trkpt lat="43.945023170683406" lon="12.22821058641969"><ele>526.0</ele><time>2026-05-02T14:36:29.999Z</time></trkpt><trkpt lat="43.94523903411191" lon="12.228350722321954"><ele>526.0</ele><time>2026-05-02T14:36:30.999Z</time></trkpt><trkpt lat="43.945405362324905" lon="12.22845109387537"><ele>526.0</ele><time>2026-05-02T14:36:31.999Z</time></trkpt><trkpt lat="43.94555928084425" lon="12.228527288391021"><ele>526.0</ele><time>2026-05-02T14:36:32.999Z</time></trkpt><trkpt lat="43.94569164468241" lon="12.228593652356805"><ele>526.0</ele><time>2026-05-02T14:36:33.999Z</time></trkpt><trkpt lat="43.945810067533905" lon="12.228620661303689"><ele>526.0</ele><time>2026-05-02T14:36:34.999Z</time></trkpt><trkpt lat="43.945946022843366" lon="12.22858152109464"><ele>526.0</ele><time>2026-05-02T14:36:35.999Z</time></trkpt><trkpt lat="43.9461109858275" lon="12.228479381574449"><ele>526.0</ele><time>2026-05-02T14:36:36.999Z</time></trkpt><trkpt lat="43.94629606322335" lon="12.228364411779246"><ele>523.3333333333334</ele><time>2026-05-02T14:36:37.999Z</time></trkpt><trkpt lat="43.94650191981243" lon="12.228283870757405"><ele>520.6666666666666</ele><time>2026-05-02T14:36:38.999Z</time></trkpt><trkpt lat="43.9467183432279" lon="12.228237750925743"><ele>518.0</ele><time>2026-05-02T14:36:40Z</time></trkpt><trkpt lat="43.94691708841853" lon="12.228237643000005"><ele>519.3333333333333</ele><time>2026-05-02T14:36:41Z</time></trkpt><trkpt lat="43.94711756103437" lon="12.228198643237166"><ele>520.6666666666666</ele><time>2026-05-02T14:36:42Z</time></trkpt><trkpt lat="43.94731603548417" lon="12.228158532330818"><ele>522.0</ele><time>2026-05-02T14:36:43Z</time></trkpt><trkpt lat="43.94749054229518" lon="12.228092057946585"><ele>518.0</ele><time>2026-05-02T14:36:44Z</time></trkpt><trkpt lat="43.94763595433404" lon="12.22801439175989"><ele>514.0</ele><time>2026-05-02T14:36:45Z</time></trkpt><trkpt lat="43.94777934801346" lon="12.227871311952955"><ele>510.0</ele><time>2026-05-02T14:36:46Z</time></trkpt><trkpt lat="43.94791334504696" lon="12.22769986332793"><ele>510.0</ele><time>2026-05-02T14:36:47Z</time></trkpt><trkpt lat="43.9480412943992" lon="12.227606037140832"><ele>510.0</ele><time>2026-05-02T14:36:48Z</time></trkpt><trkpt lat="43.948174721562864" lon="12.227547350568342"><ele>510.0</ele><time>2026-05-02T14:36:49Z</time></trkpt><trkpt lat="43.948330434947" lon="12.227512369559935"><ele>510.0</ele><time>2026-05-02T14:36:50Z</time></trkpt><trkpt lat="43.9485122788696" lon="12.227588008695776"><ele>509.0</ele><time>2026-05-02T14:36:51Z</time></trkpt><trkpt lat="43.94867510314544" lon="12.22767716192751"><ele>508.0</ele><time>2026-05-02T14:36:52Z</time></trkpt><trkpt lat="43.948811565673104" lon="12.22780690598122"><ele>507.0</ele><time>2026-05-02T14:36:53Z</time></trkpt><trkpt lat="43.948961441252635" lon="12.227969493922032"><ele>506.33333333333337</ele><time>2026-05-02T14:36:54Z</time></trkpt><trkpt lat="43.94911473409856" lon="12.228165728721986"><ele>505.6666666666667</ele><time>2026-05-02T14:36:55Z</time></trkpt><trkpt lat="43.9492888160094" lon="12.228293557883662"><ele>505.0</ele><time>2026-05-02T14:36:56Z</time></trkpt><trkpt lat="43.949473104335404" lon="12.228395139079227"><ele>505.0</ele><time>2026-05-02T14:36:57Z</time></trkpt><trkpt lat="43.949676255048516" lon="12.228495700726043"><ele>505.0</ele><time>2026-05-02T14:36:58Z</time></trkpt><trkpt lat="43.94985471369979" lon="12.228580722339549"><ele>505.0</ele><time>2026-05-02T14:36:59Z</time></trkpt><trkpt lat="43.95001435064287" lon="12.22865120361794"><ele>503.0</ele><time>2026-05-02T14:37:00Z</time></trkpt><trkpt lat="43.95016698416618" lon="12.228669319540693"><ele>501.0</ele><time>2026-05-02T14:37:01Z</time></trkpt><trkpt lat="43.950309709630524" lon="12.228662640009127"><ele>499.0</ele><time>2026-05-02T14:37:02Z</time></trkpt><trkpt lat="43.95043229913926" lon="12.228641996739155"><ele>497.0</ele><time>2026-05-02T14:37:03Z</time></trkpt><trkpt lat="43.95054718447415" lon="12.22861647874068"><ele>497.0</ele><time>2026-05-02T14:37:04Z</time></trkpt><trkpt lat="43.95066160243684" lon="12.228588610997635"><ele>497.00000000000006</ele><time>2026-05-02T14:37:05Z</time></trkpt><trkpt lat="43.95077430637168" lon="12.228560968125844"><ele>497.00000000000006</ele><time>2026-05-02T14:37:06Z</time></trkpt><trkpt lat="43.95088296982796" lon="12.228542982676668"><ele>497.0</ele><time>2026-05-02T14:37:07Z</time></trkpt><trkpt lat="43.95098804466025" lon="12.228537912236975"><ele>497.0</ele><time>2026-05-02T14:37:08Z</time></trkpt><trkpt lat="43.95108846475593" lon="12.228539867672941"><ele>497.40000000000003</ele><time>2026-05-02T14:37:09Z</time></trkpt><trkpt lat="43.95118572152466" lon="12.228537750582836"><ele>497.80000000000007</ele><time>2026-05-02T14:37:09.999Z</time></trkpt><trkpt lat="43.951281481737254" lon="12.228527593934237"><ele>498.2</ele><time>2026-05-02T14:37:10.999Z</time></trkpt><trkpt lat="43.951387309199575" lon="12.228518181813762"><ele>498.6</ele><time>2026-05-02T14:37:11.999Z</time></trkpt><trkpt lat="43.95149731989911" lon="12.228509086984843"><ele>499.0</ele><time>2026-05-02T14:37:12.999Z</time></trkpt><trkpt lat="43.951609833068716" lon="12.228506218057763"><ele>499.0</ele><time>2026-05-02T14:37:13.999Z</time></trkpt><trkpt lat="43.95172167728075" lon="12.228506784792522"><ele>499.0</ele><time>2026-05-02T14:37:14.999Z</time></trkpt><trkpt lat="43.951836741582795" lon="12.228506867896536"><ele>499.0</ele><time>2026-05-02T14:37:15.999Z</time></trkpt><trkpt lat="43.951953619136056" lon="12.228508632797585"><ele>499.0</ele><time>2026-05-02T14:37:16.999Z</time></trkpt><trkpt lat="43.952073320517805" lon="12.228501874888025"><ele>499.0</ele><time>2026-05-02T14:37:17.999Z</time></trkpt><trkpt lat="43.95219413284558" lon="12.228504822541884"><ele>499.0</ele><time>2026-05-02T14:37:18.999Z</time></trkpt><trkpt lat="43.952314684868796" lon="12.228523744600281"><ele>499.0</ele><time>2026-05-02T14:37:19.999Z</time></trkpt><trkpt lat="43.952428689224504" lon="12.228554452997288"><ele>499.0</ele><time>2026-05-02T14:37:20.999Z</time></trkpt><trkpt lat="43.95254499883091" lon="12.2286074046588"><ele>497.0</ele><time>2026-05-02T14:37:21.999Z</time></trkpt><trkpt lat="43.95266134357327" lon="12.228674185556303"><ele>495.0</ele><time>2026-05-02T14:37:22.999Z</time></trkpt><trkpt lat="43.95278198767471" lon="12.228752311935402"><ele>493.0</ele><time>2026-05-02T14:37:23.999Z</time></trkpt><trkpt lat="43.952909763264714" lon="12.228833873945955"><ele>491.0</ele><time>2026-05-02T14:37:24.999Z</time></trkpt><trkpt lat="43.95304709426985" lon="12.228905711538188"><ele>494.0</ele><time>2026-05-02T14:37:25.999Z</time></trkpt><trkpt lat="43.953189560171566" lon="12.22898560005651"><ele>497.0</ele><time>2026-05-02T14:37:26.999Z</time></trkpt><trkpt lat="43.95332547996059" lon="12.229062273543429"><ele>500.0</ele><time>2026-05-02T14:37:27.999Z</time></trkpt><trkpt lat="43.95347117543085" lon="12.229128689203938"><ele>502.66666666666663</ele><time>2026-05-02T14:37:28.999Z</time></trkpt><trkpt lat="43.95362544931769" lon="12.229198263012352"><ele>505.33333333333337</ele><time>2026-05-02T14:37:29.999Z</time></trkpt><trkpt lat="43.953763643327946" lon="12.229291147564435"><ele>508.0</ele><time>2026-05-02T14:37:30.999Z</time></trkpt><trkpt lat="43.95390062951285" lon="12.229364535743443"><ele>508.0</ele><time>2026-05-02T14:37:31.999Z</time></trkpt><trkpt lat="43.95402522467264" lon="12.229443462940543"><ele>508.0</ele><time>2026-05-02T14:37:32.999Z</time></trkpt><trkpt lat="43.95413381840193" lon="12.229540436960955"><ele>508.0</ele><time>2026-05-02T14:37:33.999Z</time></trkpt><trkpt lat="43.954242312485626" lon="12.229632985039984"><ele>508.0</ele><time>2026-05-02T14:37:34.999Z</time></trkpt><trkpt lat="43.95432707832459" lon="12.229774847123156"><ele>511.25</ele><time>2026-05-02T14:37:35.999Z</time></trkpt><trkpt lat="43.95442025022985" lon="12.229896875521062"><ele>514.5</ele><time>2026-05-02T14:37:36.999Z</time></trkpt><trkpt lat="43.954522725447646" lon="12.23000534301849"><ele>517.75</ele><time>2026-05-02T14:37:37.999Z</time></trkpt><trkpt lat="43.95461639013187" lon="12.230129199930053"><ele>521.0</ele><time>2026-05-02T14:37:38.999Z</time></trkpt><trkpt lat="43.95470072671849" lon="12.230266164331804"><ele>521.0</ele><time>2026-05-02T14:37:39.999Z</time></trkpt><trkpt lat="43.95479716179144" lon="12.2303914425557"><ele>521.0</ele><time>2026-05-02T14:37:40.999Z</time></trkpt><trkpt lat="43.95488372780053" lon="12.23052545752619"><ele>521.0</ele><time>2026-05-02T14:37:41.999Z</time></trkpt><trkpt lat="43.95498865081629" lon="12.230646704583979"><ele>521.0</ele><time>2026-05-02T14:37:42.999Z</time></trkpt><trkpt lat="43.9550850286638" lon="12.23076321419986"><ele>521.75</ele><time>2026-05-02T14:37:43.999Z</time></trkpt><trkpt lat="43.955183889915894" lon="12.230814903169541"><ele>522.5</ele><time>2026-05-02T14:37:44.999Z</time></trkpt><trkpt lat="43.955288505241" lon="12.230805644929301"><ele>523.25</ele><time>2026-05-02T14:37:45.999Z</time></trkpt><trkpt lat="43.95539481788202" lon="12.230734453374652"><ele>524.0</ele><time>2026-05-02T14:37:46.999Z</time></trkpt><trkpt lat="43.95549984795415" lon="12.230638024906566"><ele>524.0</ele><time>2026-05-02T14:37:47.999Z</time></trkpt><trkpt lat="43.955602722136874" lon="12.230510568822652"><ele>524.0</ele><time>2026-05-02T14:37:48.999Z</time></trkpt><trkpt lat="43.955708547203784" lon="12.230354726512667"><ele>524.0</ele><time>2026-05-02T14:37:49.999Z</time></trkpt><trkpt lat="43.95582809328409" lon="12.230201911765437"><ele>517.0</ele><time>2026-05-02T14:37:50.999Z</time></trkpt><trkpt lat="43.95596105010502" lon="12.230054737770706"><ele>510.0</ele><time>2026-05-02T14:37:51.999Z</time></trkpt><trkpt lat="43.956107585919824" lon="12.229927007503017"><ele>503.0</ele><time>2026-05-02T14:37:52.999Z</time></trkpt><trkpt lat="43.95627221579961" lon="12.229846616110429"><ele>504.25</ele><time>2026-05-02T14:37:53.999Z</time></trkpt><trkpt lat="43.95641795411206" lon="12.229762832369893"><ele>505.5</ele><time>2026-05-02T14:37:54.999Z</time></trkpt><trkpt lat="43.95654439779075" lon="12.229729048584868"><ele>506.75</ele><time>2026-05-02T14:37:55.999Z</time></trkpt><trkpt lat="43.95667234811975" lon="12.229712531310112"><ele>508.0</ele><time>2026-05-02T14:37:56.999Z</time></trkpt><trkpt lat="43.95680044091151" lon="12.22970420973049"><ele>508.0</ele><time>2026-05-02T14:37:57.999Z</time></trkpt><trkpt lat="43.95693072607866" lon="12.229713617441979"><ele>508.0</ele><time>2026-05-02T14:37:58.999Z</time></trkpt><trkpt lat="43.95706645747112" lon="12.229741206286668"><ele>508.0</ele><time>2026-05-02T14:37:59.999Z</time></trkpt><trkpt lat="43.95720333298717" lon="12.229775652455482"><ele>508.0</ele><time>2026-05-02T14:38:00.999Z</time></trkpt><trkpt lat="43.95734197736588" lon="12.22981101300524"><ele>508.0</ele><time>2026-05-02T14:38:01.999Z</time></trkpt><trkpt lat="43.957479376806305" lon="12.229847435240364"><ele>508.0</ele><time>2026-05-02T14:38:02.999Z</time></trkpt><trkpt lat="43.95761597856104" lon="12.229887471205636"><ele>508.0</ele><time>2026-05-02T14:38:03.999Z</time></trkpt><trkpt lat="43.957756854177546" lon="12.229920032615455"><ele>508.0</ele><time>2026-05-02T14:38:04.999Z</time></trkpt><trkpt lat="43.957896355744715" lon="12.22994019814482"><ele>508.0</ele><time>2026-05-02T14:38:05.999Z</time></trkpt><trkpt lat="43.958037142906576" lon="12.229950055204425"><ele>508.0</ele><time>2026-05-02T14:38:06.999Z</time></trkpt><trkpt lat="43.958173163823844" lon="12.229965157006404"><ele>508.0</ele><time>2026-05-02T14:38:07.999Z</time></trkpt><trkpt lat="43.95830747086046" lon="12.229983956274843"><ele>508.0</ele><time>2026-05-02T14:38:08.999Z</time></trkpt><trkpt lat="43.95844101125155" lon="12.229997246522489"><ele>509.5</ele><time>2026-05-02T14:38:09.999Z</time></trkpt><trkpt lat="43.95857402953098" lon="12.230022405568818"><ele>511.0</ele><time>2026-05-02T14:38:10.999Z</time></trkpt><trkpt lat="43.95869968683695" lon="12.230090842142987"><ele>512.5</ele><time>2026-05-02T14:38:11.999Z</time></trkpt><trkpt lat="43.95881532080937" lon="12.230177654047338"><ele>514.0</ele><time>2026-05-02T14:38:12.999Z</time></trkpt><trkpt lat="43.95892764808496" lon="12.230266253212507"><ele>514.0</ele><time>2026-05-02T14:38:13.999Z</time></trkpt><trkpt lat="43.9590342203939" lon="12.230358727199105"><ele>514.0</ele><time>2026-05-02T14:38:14.999Z</time></trkpt><trkpt lat="43.959141432524945" lon="12.230444357124679"><ele>514.0</ele><time>2026-05-02T14:38:15.999Z</time></trkpt><trkpt lat="43.95924943798748" lon="12.230524274359343"><ele>514.0</ele><time>2026-05-02T14:38:16.999Z</time></trkpt><trkpt lat="43.95935631303803" lon="12.230591234904477"><ele>516.2</ele><time>2026-05-02T14:38:17.999Z</time></trkpt><trkpt lat="43.95947120836369" lon="12.230604553227634"><ele>518.4</ele><time>2026-05-02T14:38:18.999Z</time></trkpt><trkpt lat="43.9595722065066" lon="12.230595266647736"><ele>520.6</ele><time>2026-05-02T14:38:19.999Z</time></trkpt><trkpt lat="43.95967182219308" lon="12.230590204735764"><ele>522.8</ele><time>2026-05-02T14:38:20.999Z</time></trkpt><trkpt lat="43.95977214880397" lon="12.230583942573643"><ele>525.0</ele><time>2026-05-02T14:38:21.999Z</time></trkpt><trkpt lat="43.959876819678115" lon="12.230559739163139"><ele>525.0</ele><time>2026-05-02T14:38:22.999Z</time></trkpt><trkpt lat="43.95997525372677" lon="12.230509556902412"><ele>525.0</ele><time>2026-05-02T14:38:23.999Z</time></trkpt><trkpt lat="43.96006500544475" lon="12.230426659805167"><ele>525.0</ele><time>2026-05-02T14:38:24.999Z</time></trkpt><trkpt lat="43.96016235046398" lon="12.230350890824013"><ele>525.0</ele><time>2026-05-02T14:38:25.999Z</time></trkpt><trkpt lat="43.960272585076346" lon="12.230271802192279"><ele>525.0</ele><time>2026-05-02T14:38:26.999Z</time></trkpt><trkpt lat="43.96037636004721" lon="12.230191838656593"><ele>524.75</ele><time>2026-05-02T14:38:27.999Z</time></trkpt><trkpt lat="43.96048139235345" lon="12.230118357829776"><ele>524.5</ele><time>2026-05-02T14:38:28.999Z</time></trkpt><trkpt lat="43.96059056289077" lon="12.230061029488196"><ele>524.25</ele><time>2026-05-02T14:38:29.999Z</time></trkpt><trkpt lat="43.960701838476936" lon="12.230002790451152"><ele>524.0</ele><time>2026-05-02T14:38:30.999Z</time></trkpt><trkpt lat="43.96082036580105" lon="12.229957892182371"><ele>524.0</ele><time>2026-05-02T14:38:31.999Z</time></trkpt><trkpt lat="43.96094662957125" lon="12.229915958509908"><ele>524.0</ele><time>2026-05-02T14:38:32.999Z</time></trkpt><trkpt lat="43.96107550787428" lon="12.229875833232722"><ele>524.0</ele><time>2026-05-02T14:38:33.999Z</time></trkpt><trkpt lat="43.961199329943895" lon="12.229832599139174"><ele>524.0</ele><time>2026-05-02T14:38:34.999Z</time></trkpt><trkpt lat="43.96131709660404" lon="12.229800409468025"><ele>524.0</ele><time>2026-05-02T14:38:35.999Z</time></trkpt><trkpt lat="43.96143163135254" lon="12.22980078058299"><ele>524.0</ele><time>2026-05-02T14:38:36.999Z</time></trkpt><trkpt lat="43.96153865120746" lon="12.229845500517206"><ele>524.0</ele><time>2026-05-02T14:38:37.999Z</time></trkpt><trkpt lat="43.9616321846503" lon="12.229954148224554"><ele>524.0</ele><time>2026-05-02T14:38:38.999Z</time></trkpt><trkpt lat="43.96174512983851" lon="12.230047409762596"><ele>529.3333333333333</ele><time>2026-05-02T14:38:39.999Z</time></trkpt><trkpt lat="43.961849750700075" lon="12.230175765090744"><ele>534.6666666666666</ele><time>2026-05-02T14:38:40.999Z</time></trkpt><trkpt lat="43.961961261050824" lon="12.230310403872894"><ele>540.0</ele><time>2026-05-02T14:38:41.999Z</time></trkpt><trkpt lat="43.96208259520636" lon="12.230461191509225"><ele>540.0</ele><time>2026-05-02T14:38:42.999Z</time></trkpt><trkpt lat="43.96220100337172" lon="12.230617066813904"><ele>540.0</ele><time>2026-05-02T14:38:43.999Z</time></trkpt><trkpt lat="43.9623319593161" lon="12.230784713241013"><ele>540.0</ele><time>2026-05-02T14:38:44.999Z</time></trkpt><trkpt lat="43.9624705056491" lon="12.230949035267361"><ele>538.0</ele><time>2026-05-02T14:38:46Z</time></trkpt><trkpt lat="43.96261193430573" lon="12.231117502025462"><ele>536.0</ele><time>2026-05-02T14:38:47Z</time></trkpt><trkpt lat="43.96275837176239" lon="12.231293917878876"><ele>534.0</ele><time>2026-05-02T14:38:48Z</time></trkpt><trkpt lat="43.96290484372729" lon="12.23148078001254"><ele>534.0</ele><time>2026-05-02T14:38:49Z</time></trkpt><trkpt lat="43.963051703765444" lon="12.231669772590893"><ele>534.0</ele><time>2026-05-02T14:38:50Z</time></trkpt><trkpt lat="43.96320518334468" lon="12.231866264276379"><ele>534.0</ele><time>2026-05-02T14:38:51Z</time></trkpt><trkpt lat="43.96336130449825" lon="12.23206697453068"><ele>533.3333333333334</ele><time>2026-05-02T14:38:52Z</time></trkpt><trkpt lat="43.96349104655594" lon="12.232248998221278"><ele>532.6666666666667</ele><time>2026-05-02T14:38:53Z</time></trkpt><trkpt lat="43.963599341280975" lon="12.232393312862458"><ele>532.0</ele><time>2026-05-02T14:38:54Z</time></trkpt><trkpt lat="43.96372030050247" lon="12.232511271990449"><ele>532.0</ele><time>2026-05-02T14:38:55Z</time></trkpt><trkpt lat="43.96386628461264" lon="12.23261243542409"><ele>532.0</ele><time>2026-05-02T14:38:56Z</time></trkpt><trkpt lat="43.96400863006555" lon="12.2327331192245"><ele>532.0</ele><time>2026-05-02T14:38:57Z</time></trkpt><trkpt lat="43.9641117518343" lon="12.232908617553546"><ele>532.0</ele><time>2026-05-02T14:38:58Z</time></trkpt><trkpt lat="43.96419607643968" lon="12.233069332577232"><ele>532.0</ele><time>2026-05-02T14:38:59Z</time></trkpt><trkpt lat="43.96427199130113" lon="12.233256768092078"><ele>532.0</ele><time>2026-05-02T14:39:00Z</time></trkpt><trkpt lat="43.96433527142523" lon="12.233466355724202"><ele>530.6666666666667</ele><time>2026-05-02T14:39:01Z</time></trkpt><trkpt lat="43.96438357655682" lon="12.233704162021391"><ele>529.3333333333334</ele><time>2026-05-02T14:39:02Z</time></trkpt><trkpt lat="43.96442332809095" lon="12.233946750794466"><ele>528.0</ele><time>2026-05-02T14:39:03Z</time></trkpt><trkpt lat="43.964457422163754" lon="12.2341942322799"><ele>526.6666666666666</ele><time>2026-05-02T14:39:04Z</time></trkpt><trkpt lat="43.96450790485268" lon="12.234441494342025"><ele>525.3333333333333</ele><time>2026-05-02T14:39:05Z</time></trkpt><trkpt lat="43.964543068063314" lon="12.234699233659951"><ele>524.0</ele><time>2026-05-02T14:39:06Z</time></trkpt><trkpt lat="43.96459488182024" lon="12.234937682207507"><ele>524.0</ele><time>2026-05-02T14:39:07Z</time></trkpt><trkpt lat="43.96465909724474" lon="12.235137589533112"><ele>524.0</ele><time>2026-05-02T14:39:08Z</time></trkpt><trkpt lat="43.96473639433913" lon="12.23530941756629"><ele>524.0</ele><time>2026-05-02T14:39:09Z</time></trkpt><trkpt lat="43.964824241960315" lon="12.235459613468588"><ele>524.0</ele><time>2026-05-02T14:39:10Z</time></trkpt><trkpt lat="43.96493301896304" lon="12.235601537019562"><ele>519.75</ele><time>2026-05-02T14:39:11Z</time></trkpt><trkpt lat="43.9650347737378" lon="12.235753996304075"><ele>515.5</ele><time>2026-05-02T14:39:11.999Z</time></trkpt><trkpt lat="43.96511257438001" lon="12.235926059464937"><ele>511.25</ele><time>2026-05-02T14:39:12.999Z</time></trkpt><trkpt lat="43.96516427646816" lon="12.23611525403579"><ele>507.0</ele><time>2026-05-02T14:39:13.999Z</time></trkpt><trkpt lat="43.96517645803975" lon="12.236316830033065"><ele>511.0</ele><time>2026-05-02T14:39:14.999Z</time></trkpt><trkpt lat="43.96518642608941" lon="12.236531404884703"><ele>515.0</ele><time>2026-05-02T14:39:15.999Z</time></trkpt><trkpt lat="43.965215971869625" lon="12.236736828611615"><ele>519.0</ele><time>2026-05-02T14:39:16.999Z</time></trkpt><trkpt lat="43.96525380778909" lon="12.236923178854857"><ele>523.0</ele><time>2026-05-02T14:39:17.999Z</time></trkpt><trkpt lat="43.96530815867615" lon="12.237088707191562"><ele>523.0</ele><time>2026-05-02T14:39:18.999Z</time></trkpt><trkpt lat="43.965387482032675" lon="12.23722620261718"><ele>523.0</ele><time>2026-05-02T14:39:19.999Z</time></trkpt><trkpt lat="43.96549771764317" lon="12.23734307976212"><ele>523.0</ele><time>2026-05-02T14:39:20.999Z</time></trkpt><trkpt lat="43.96563817128008" lon="12.237440662936754"><ele>523.0</ele><time>2026-05-02T14:39:21.999Z</time></trkpt><trkpt lat="43.96577380550257" lon="12.237532373797832"><ele>526.1999999999999</ele><time>2026-05-02T14:39:22.999Z</time></trkpt><trkpt lat="43.96584341792715" lon="12.237651966019854"><ele>529.4</ele><time>2026-05-02T14:39:23.999Z</time></trkpt><trkpt lat="43.96585124544413" lon="12.237771894439891"><ele>532.5999999999999</ele><time>2026-05-02T14:39:24.999Z</time></trkpt><trkpt lat="43.96582879449045" lon="12.237901761791937"><ele>535.8</ele><time>2026-05-02T14:39:25.999Z</time></trkpt><trkpt lat="43.965746136820535" lon="12.238021979060425"><ele>539.0</ele><time>2026-05-02T14:39:26.999Z</time></trkpt><trkpt lat="43.96563043637544" lon="12.238152372109086"><ele>542.0</ele><time>2026-05-02T14:39:27.999Z</time></trkpt><trkpt lat="43.96549383623706" lon="12.238224984500924"><ele>545.0</ele><time>2026-05-02T14:39:28.999Z</time></trkpt><trkpt lat="43.96535447041353" lon="12.238257576455643"><ele>548.0</ele><time>2026-05-02T14:39:29.999Z</time></trkpt><trkpt lat="43.96519200865501" lon="12.238302030811953"><ele>548.0</ele><time>2026-05-02T14:39:30.999Z</time></trkpt><trkpt lat="43.96503420084571" lon="12.23834982081362"><ele>548.0</ele><time>2026-05-02T14:39:31.999Z</time></trkpt><trkpt lat="43.96490189887278" lon="12.238419505563018"><ele>548.0</ele><time>2026-05-02T14:39:32.999Z</time></trkpt><trkpt lat="43.96477840267205" lon="12.238538464349274"><ele>547.6666666666666</ele><time>2026-05-02T14:39:33.999Z</time></trkpt><trkpt lat="43.96464667185366" lon="12.238688549550197"><ele>547.3333333333334</ele><time>2026-05-02T14:39:34.999Z</time></trkpt><trkpt lat="43.96449438130322" lon="12.238820691285628"><ele>547.0</ele><time>2026-05-02T14:39:35.999Z</time></trkpt><trkpt lat="43.96430931695905" lon="12.238865915006652"><ele>548.75</ele><time>2026-05-02T14:39:36.999Z</time></trkpt><trkpt lat="43.964146794254255" lon="12.238936723943013"><ele>550.5</ele><time>2026-05-02T14:39:37.999Z</time></trkpt><trkpt lat="43.964043049148856" lon="12.239026293173765"><ele>552.25</ele><time>2026-05-02T14:39:38.999Z</time></trkpt><trkpt lat="43.963985912748655" lon="12.239151139608055"><ele>554.0</ele><time>2026-05-02T14:39:40Z</time></trkpt><trkpt lat="43.963981529787176" lon="12.239297319187214"><ele>554.0</ele><time>2026-05-02T14:39:41Z</time></trkpt><trkpt lat="43.96404423122287" lon="12.239466477966097"><ele>554.0</ele><time>2026-05-02T14:39:42Z</time></trkpt><trkpt lat="43.96415010896618" lon="12.239651049915803"><ele>554.0</ele><time>2026-05-02T14:39:43Z</time></trkpt><trkpt lat="43.96421008774985" lon="12.239842530382955"><ele>555.25</ele><time>2026-05-02T14:39:44Z</time></trkpt><trkpt lat="43.96422543621341" lon="12.240021308616104"><ele>556.5</ele><time>2026-05-02T14:39:45Z</time></trkpt><trkpt lat="43.96419718761329" lon="12.240206597629477"><ele>557.75</ele><time>2026-05-02T14:39:46Z</time></trkpt><trkpt lat="43.96413416560513" lon="12.24041964388127"><ele>559.0</ele><time>2026-05-02T14:39:47Z</time></trkpt><trkpt lat="43.96406675996717" lon="12.240662849001646"><ele>561.0</ele><time>2026-05-02T14:39:48Z</time></trkpt><trkpt lat="43.96399030287502" lon="12.240937531643338"><ele>563.0</ele><time>2026-05-02T14:39:49Z</time></trkpt><trkpt lat="43.963910404814555" lon="12.24120069811602"><ele>565.0</ele><time>2026-05-02T14:39:50Z</time></trkpt><trkpt lat="43.963835759241405" lon="12.241447763150964"><ele>566.6666666666667</ele><time>2026-05-02T14:39:51Z</time></trkpt><trkpt lat="43.96376920348482" lon="12.241724926129578"><ele>568.3333333333334</ele><time>2026-05-02T14:39:52Z</time></trkpt><trkpt lat="43.96372248236445" lon="12.242012220833024"><ele>570.0</ele><time>2026-05-02T14:39:53Z</time></trkpt><trkpt lat="43.96368419051047" lon="12.24221593087631"><ele>572.25</ele><time>2026-05-02T14:39:54Z</time></trkpt><trkpt lat="43.963672198287696" lon="12.242391156797234"><ele>574.5</ele><time>2026-05-02T14:39:55Z</time></trkpt><trkpt lat="43.96359420768374" lon="12.242547761780624"><ele>576.75</ele><time>2026-05-02T14:39:56Z</time></trkpt><trkpt lat="43.96349785104178" lon="12.242675804773492"><ele>579.0</ele><time>2026-05-02T14:39:57Z</time></trkpt><trkpt lat="43.9634492882585" lon="12.242808323419894"><ele>579.0</ele><time>2026-05-02T14:39:58Z</time></trkpt><trkpt lat="43.963461529112465" lon="12.242965930253497"><ele>579.0</ele><time>2026-05-02T14:39:59Z</time></trkpt><trkpt lat="43.9635222529592" lon="12.243139789630305"><ele>579.0</ele><time>2026-05-02T14:40:00Z</time></trkpt><trkpt lat="43.963635448396076" lon="12.243324263203895"><ele>579.0</ele><time>2026-05-02T14:40:01Z</time></trkpt><trkpt lat="43.963733878122405" lon="12.243559064334871"><ele>579.3333333333334</ele><time>2026-05-02T14:40:02Z</time></trkpt><trkpt lat="43.963797953752746" lon="12.243819363492133"><ele>579.6666666666667</ele><time>2026-05-02T14:40:03Z</time></trkpt><trkpt lat="43.96389979604359" lon="12.244057603128725"><ele>580.0</ele><time>2026-05-02T14:40:04Z</time></trkpt><trkpt lat="43.964043999947535" lon="12.244289446985645"><ele>582.5</ele><time>2026-05-02T14:40:05Z</time></trkpt><trkpt lat="43.96420306306464" lon="12.244518481435504"><ele>585.0</ele><time>2026-05-02T14:40:06Z</time></trkpt><trkpt lat="43.964309572550206" lon="12.244789524589457"><ele>581.3333333333334</ele><time>2026-05-02T14:40:07Z</time></trkpt><trkpt lat="43.96443171778697" lon="12.24506255546915"><ele>577.6666666666667</ele><time>2026-05-02T14:40:08Z</time></trkpt><trkpt lat="43.96453861971362" lon="12.245238219049666"><ele>574.0</ele><time>2026-05-02T14:40:09Z</time></trkpt><trkpt lat="43.96463557334385" lon="12.245355554442876"><ele>574.0</ele><time>2026-05-02T14:40:10Z</time></trkpt><trkpt lat="43.96477637518317" lon="12.245430560995297"><ele>574.0</ele><time>2026-05-02T14:40:11Z</time></trkpt><trkpt lat="43.96495476079742" lon="12.245443790713438"><ele>574.0</ele><time>2026-05-02T14:40:12Z</time></trkpt><trkpt lat="43.96513760549772" lon="12.245409452712789"><ele>575.0</ele><time>2026-05-02T14:40:13Z</time></trkpt><trkpt lat="43.96530507888492" lon="12.245419457284042"><ele>576.0</ele><time>2026-05-02T14:40:14Z</time></trkpt><trkpt lat="43.965443431243344" lon="12.245475306220433"><ele>577.0</ele><time>2026-05-02T14:40:15Z</time></trkpt><trkpt lat="43.96557554588716" lon="12.245597693393748"><ele>574.25</ele><time>2026-05-02T14:40:16Z</time></trkpt><trkpt lat="43.96570392511999" lon="12.245710276735515"><ele>571.5</ele><time>2026-05-02T14:40:17Z</time></trkpt><trkpt lat="43.96582079979187" lon="12.245817001425973"><ele>568.75</ele><time>2026-05-02T14:40:18Z</time></trkpt><trkpt lat="43.96594876250089" lon="12.245893587201008"><ele>566.0</ele><time>2026-05-02T14:40:19Z</time></trkpt><trkpt lat="43.96610521570252" lon="12.245916990782696"><ele>565.3333333333333</ele><time>2026-05-02T14:40:20Z</time></trkpt><trkpt lat="43.96627965792163" lon="12.24590280385177"><ele>564.6666666666666</ele><time>2026-05-02T14:40:21Z</time></trkpt><trkpt lat="43.96644896773761" lon="12.24586439380491"><ele>564.0</ele><time>2026-05-02T14:40:22Z</time></trkpt><trkpt lat="43.96664259270218" lon="12.245830220687004"><ele>562.0</ele><time>2026-05-02T14:40:23Z</time></trkpt><trkpt lat="43.966841905990655" lon="12.245798555025111"><ele>560.0</ele><time>2026-05-02T14:40:24Z</time></trkpt><trkpt lat="43.96704716686946" lon="12.245761612882779"><ele>558.0</ele><time>2026-05-02T14:40:25Z</time></trkpt><trkpt lat="43.96721973365666" lon="12.245718871549316"><ele>558.0</ele><time>2026-05-02T14:40:26Z</time></trkpt><trkpt lat="43.96736559783579" lon="12.245680103299229"><ele>558.0</ele><time>2026-05-02T14:40:27Z</time></trkpt><trkpt lat="43.9674990501747" lon="12.245664645268107"><ele>558.0</ele><time>2026-05-02T14:40:28Z</time></trkpt><trkpt lat="43.96761248134339" lon="12.245713362621284"><ele>558.0</ele><time>2026-05-02T14:40:29Z</time></trkpt><trkpt lat="43.967707149885676" lon="12.245855389370622"><ele>558.25</ele><time>2026-05-02T14:40:30Z</time></trkpt><trkpt lat="43.96782772670035" lon="12.245950970726966"><ele>558.5</ele><time>2026-05-02T14:40:31Z</time></trkpt><trkpt lat="43.967932044442954" lon="12.245991721583023"><ele>558.75</ele><time>2026-05-02T14:40:32Z</time></trkpt><trkpt lat="43.96805315660197" lon="12.245947041201866"><ele>559.0</ele><time>2026-05-02T14:40:33Z</time></trkpt><trkpt lat="43.96818302315546" lon="12.245847042469615"><ele>559.0</ele><time>2026-05-02T14:40:34Z</time></trkpt><trkpt lat="43.96831441831773" lon="12.245762013424219"><ele>559.0</ele><time>2026-05-02T14:40:35Z</time></trkpt><trkpt lat="43.96843176986047" lon="12.245730598828999"><ele>559.0</ele><time>2026-05-02T14:40:36Z</time></trkpt><trkpt lat="43.968525434289724" lon="12.245800566504679"><ele>559.0</ele><time>2026-05-02T14:40:37Z</time></trkpt><trkpt lat="43.9685600302249" lon="12.245973462379181"><ele>556.6666666666667</ele><time>2026-05-02T14:40:38Z</time></trkpt><trkpt lat="43.96862561897356" lon="12.24616482784002"><ele>554.3333333333334</ele><time>2026-05-02T14:40:39Z</time></trkpt><trkpt lat="43.96868567065634" lon="12.246425600876407"><ele>552.0</ele><time>2026-05-02T14:40:40Z</time></trkpt><trkpt lat="43.96876222301974" lon="12.246705369095443"><ele>552.0</ele><time>2026-05-02T14:40:41Z</time></trkpt><trkpt lat="43.96882377957392" lon="12.246919122481222"><ele>552.0</ele><time>2026-05-02T14:40:42Z</time></trkpt><trkpt lat="43.968876408813486" lon="12.247050773783123"><ele>552.0</ele><time>2026-05-02T14:40:43Z</time></trkpt><trkpt lat="43.96894767733601" lon="12.247107582126972"><ele>552.0</ele><time>2026-05-02T14:40:44Z</time></trkpt><trkpt lat="43.96907575320086" lon="12.247129626138435"><ele>546.6666666666666</ele><time>2026-05-02T14:40:45Z</time></trkpt><trkpt lat="43.96922907108009" lon="12.247105500258174"><ele>541.3333333333333</ele><time>2026-05-02T14:40:46Z</time></trkpt><trkpt lat="43.969412285173256" lon="12.247072322518038"><ele>536.0</ele><time>2026-05-02T14:40:47Z</time></trkpt><trkpt lat="43.9696048192302" lon="12.247029127192508"><ele>536.0</ele><time>2026-05-02T14:40:47.999Z</time></trkpt><trkpt lat="43.969765390796844" lon="12.246973604901235"><ele>536.0</ele><time>2026-05-02T14:40:48.999Z</time></trkpt><trkpt lat="43.96991693983693" lon="12.246950690784416"><ele>536.0</ele><time>2026-05-02T14:40:49.999Z</time></trkpt><trkpt lat="43.97004367087432" lon="12.246920169223138"><ele>536.0</ele><time>2026-05-02T14:40:50.999Z</time></trkpt><trkpt lat="43.970154044791066" lon="12.246873935765976"><ele>533.4</ele><time>2026-05-02T14:40:52.001Z</time></trkpt><trkpt lat="43.97025746723897" lon="12.246853523243868"><ele>530.8</ele><time>2026-05-02T14:40:53.001Z</time></trkpt><trkpt lat="43.970341908761156" lon="12.246867983148901"><ele>528.1999999999999</ele><time>2026-05-02T14:40:54.001Z</time></trkpt><trkpt lat="43.970444015974444" lon="12.246960120173126"><ele>525.6</ele><time>2026-05-02T14:40:56.001Z</time></trkpt><trkpt lat="43.97043942907496" lon="12.247084156045585"><ele>523.0</ele><time>2026-05-02T14:40:57.001Z</time></trkpt><trkpt lat="43.97039158001145" lon="12.247189087976246"><ele>523.0</ele><time>2026-05-02T14:40:58.001Z</time></trkpt><trkpt lat="43.97037617265105" lon="12.247280968560244"><ele>523.0</ele><time>2026-05-02T14:40:59.001Z</time></trkpt><trkpt lat="43.970359238083745" lon="12.24736571596665"><ele>523.0</ele><time>2026-05-02T14:41:00.001Z</time></trkpt><trkpt lat="43.97035733660633" lon="12.247455954855258"><ele>523.0</ele><time>2026-05-02T14:41:01.001Z</time></trkpt><trkpt lat="43.97041956612903" lon="12.247599168106339"><ele>523.0</ele><time>2026-05-02T14:41:03.001Z</time></trkpt><trkpt lat="43.9704733985414" lon="12.247657947108225"><ele>523.0</ele><time>2026-05-02T14:41:04.001Z</time></trkpt><trkpt lat="43.97056051797571" lon="12.247604922687417"><ele>523.0</ele><time>2026-05-02T14:41:05.001Z</time></trkpt><trkpt lat="43.97061567008324" lon="12.247514509353948"><ele>523.0</ele><time>2026-05-02T14:41:06.001Z</time></trkpt><trkpt lat="43.970671914207976" lon="12.247404418669984"><ele>523.0</ele><time>2026-05-02T14:41:07.001Z</time></trkpt><trkpt lat="43.970711959844884" lon="12.24728252831385"><ele>523.0</ele><time>2026-05-02T14:41:08.001Z</time></trkpt><trkpt lat="43.97075665390002" lon="12.247179547391177"><ele>523.0</ele><time>2026-05-02T14:41:09.001Z</time></trkpt><trkpt lat="43.97079462334232" lon="12.247080006458921"><ele>523.0</ele><time>2026-05-02T14:41:10.001Z</time></trkpt><trkpt lat="43.970831355894184" lon="12.24697185473906"><ele>520.1666666666667</ele><time>2026-05-02T14:41:11Z</time></trkpt><trkpt lat="43.97086443696886" lon="12.246877587620975"><ele>517.3333333333334</ele><time>2026-05-02T14:41:12Z</time></trkpt><trkpt lat="43.970902352315356" lon="12.246781934546798"><ele>514.5</ele><time>2026-05-02T14:41:13Z</time></trkpt><trkpt lat="43.97094042287577" lon="12.246682042460698"><ele>511.66666666666663</ele><time>2026-05-02T14:41:14Z</time></trkpt><trkpt lat="43.97099009547846" lon="12.246612287210889"><ele>508.8333333333333</ele><time>2026-05-02T14:41:15Z</time></trkpt><trkpt lat="43.971066186974596" lon="12.246584036959268"><ele>506.0</ele><time>2026-05-02T14:41:16Z</time></trkpt><trkpt lat="43.971134323229094" lon="12.24661782123313"><ele>505.99999999999994</ele><time>2026-05-02T14:41:17Z</time></trkpt><trkpt lat="43.971174125759454" lon="12.246721978363967"><ele>506.0</ele><time>2026-05-02T14:41:18Z</time></trkpt><trkpt lat="43.97115161808737" lon="12.246889689194827"><ele>506.0</ele><time>2026-05-02T14:41:20Z</time></trkpt><trkpt lat="43.97112344912719" lon="12.247002621899586"><ele>506.0</ele><time>2026-05-02T14:41:21Z</time></trkpt><trkpt lat="43.97109978307733" lon="12.2471156124639"><ele>505.99999999999994</ele><time>2026-05-02T14:41:22Z</time></trkpt><trkpt lat="43.97108334503563" lon="12.247209129538263"><ele>506.0</ele><time>2026-05-02T14:41:23Z</time></trkpt><trkpt lat="43.97108393971254" lon="12.24730467857508"><ele>506.8571428571429</ele><time>2026-05-02T14:41:24Z</time></trkpt><trkpt lat="43.97108901078501" lon="12.247402318356258"><ele>507.7142857142857</ele><time>2026-05-02T14:41:25Z</time></trkpt><trkpt lat="43.97111627285256" lon="12.247483398351257"><ele>508.57142857142856</ele><time>2026-05-02T14:41:26Z</time></trkpt><trkpt lat="43.971167009699926" lon="12.247550559387918"><ele>509.42857142857144</ele><time>2026-05-02T14:41:27Z</time></trkpt><trkpt lat="43.97123178442787" lon="12.247589243465054"><ele>510.2857142857142</ele><time>2026-05-02T14:41:28Z</time></trkpt><trkpt lat="43.97131995821572" lon="12.247600517669792"><ele>511.1428571428571</ele><time>2026-05-02T14:41:29Z</time></trkpt><trkpt lat="43.971400630916044" lon="12.24756216200214"><ele>512.0</ele><time>2026-05-02T14:41:30Z</time></trkpt><trkpt lat="43.97146814839164" lon="12.247472777622761"><ele>512.0</ele><time>2026-05-02T14:41:31Z</time></trkpt><trkpt lat="43.97151576958381" lon="12.247321522066649"><ele>512.0</ele><time>2026-05-02T14:41:32Z</time></trkpt><trkpt lat="43.97157598191514" lon="12.247134505851733"><ele>512.0</ele><time>2026-05-02T14:41:33Z</time></trkpt><trkpt lat="43.971646830258614" lon="12.246920060293256"><ele>512.0</ele><time>2026-05-02T14:41:34Z</time></trkpt><trkpt lat="43.971721884009334" lon="12.246695717035086"><ele>508.3333333333333</ele><time>2026-05-02T14:41:35Z</time></trkpt><trkpt lat="43.97179104510479" lon="12.24653997214762"><ele>504.66666666666663</ele><time>2026-05-02T14:41:36Z</time></trkpt><trkpt lat="43.97184519395026" lon="12.24644971715987"><ele>501.0</ele><time>2026-05-02T14:41:37Z</time></trkpt><trkpt lat="43.97192633947625" lon="12.246441153158818"><ele>497.33333333333337</ele><time>2026-05-02T14:41:38Z</time></trkpt><trkpt lat="43.97198821128163" lon="12.246489474106838"><ele>493.6666666666667</ele><time>2026-05-02T14:41:39Z</time></trkpt><trkpt lat="43.97202742655273" lon="12.246578400546436"><ele>490.0</ele><time>2026-05-02T14:41:40Z</time></trkpt><trkpt lat="43.97202045882432" lon="12.246733168774295"><ele>490.0</ele><time>2026-05-02T14:41:41Z</time></trkpt><trkpt lat="43.9720234063473" lon="12.246960175967386"><ele>490.0</ele><time>2026-05-02T14:41:42Z</time></trkpt><trkpt lat="43.97204581774839" lon="12.24715741136251"><ele>490.0</ele><time>2026-05-02T14:41:43Z</time></trkpt><trkpt lat="43.97209942273897" lon="12.247285856177346"><ele>490.0</ele><time>2026-05-02T14:41:44Z</time></trkpt><trkpt lat="43.972192218867846" lon="12.247373149898438"><ele>490.0</ele><time>2026-05-02T14:41:45Z</time></trkpt><trkpt lat="43.97229864392523" lon="12.247332703704565"><ele>490.0</ele><time>2026-05-02T14:41:46Z</time></trkpt><trkpt lat="43.97241290912721" lon="12.24727069748292"><ele>490.0</ele><time>2026-05-02T14:41:47Z</time></trkpt><trkpt lat="43.97248852397104" lon="12.247092027061893"><ele>490.0</ele><time>2026-05-02T14:41:48Z</time></trkpt><trkpt lat="43.97252757023778" lon="12.246880857278413"><ele>485.25</ele><time>2026-05-02T14:41:49Z</time></trkpt><trkpt lat="43.972570459744006" lon="12.246643883516853"><ele>480.5</ele><time>2026-05-02T14:41:50Z</time></trkpt><trkpt lat="43.97260223875195" lon="12.246467477498873"><ele>475.75</ele><time>2026-05-02T14:41:51Z</time></trkpt><trkpt lat="43.97265113230258" lon="12.246364346850903"><ele>471.0</ele><time>2026-05-02T14:41:52Z</time></trkpt><trkpt lat="43.97269167936006" lon="12.246292068132638"><ele>471.0</ele><time>2026-05-02T14:41:53Z</time></trkpt><trkpt lat="43.972783804979954" lon="12.246351509798007"><ele>471.0</ele><time>2026-05-02T14:41:54Z</time></trkpt><trkpt lat="43.972859946037296" lon="12.246443915847005"><ele>471.0</ele><time>2026-05-02T14:41:55Z</time></trkpt><trkpt lat="43.972914571397084" lon="12.246626340916167"><ele>471.0</ele><time>2026-05-02T14:41:56Z</time></trkpt><trkpt lat="43.973024976183346" lon="12.246841345351118"><ele>471.0</ele><time>2026-05-02T14:41:57Z</time></trkpt><trkpt lat="43.973123217113745" lon="12.24708458086224"><ele>471.0</ele><time>2026-05-02T14:41:58Z</time></trkpt><trkpt lat="43.973221603661095" lon="12.247273266020798"><ele>471.0</ele><time>2026-05-02T14:41:59Z</time></trkpt><trkpt lat="43.97335668128617" lon="12.247425118741482"><ele>467.33333333333337</ele><time>2026-05-02T14:42:00Z</time></trkpt><trkpt lat="43.97352216012659" lon="12.247553222392469"><ele>463.6666666666667</ele><time>2026-05-02T14:42:01Z</time></trkpt><trkpt lat="43.97366199482513" lon="12.247640775221777"><ele>460.0</ele><time>2026-05-02T14:42:02Z</time></trkpt><trkpt lat="43.97377967630927" lon="12.247681446188716"><ele>460.0</ele><time>2026-05-02T14:42:03Z</time></trkpt><trkpt lat="43.97389622826204" lon="12.247632637410122"><ele>460.0</ele><time>2026-05-02T14:42:04Z</time></trkpt><trkpt lat="43.97399568270812" lon="12.247492577416407"><ele>460.0</ele><time>2026-05-02T14:42:05Z</time></trkpt><trkpt lat="43.9741335994982" lon="12.247335828202297"><ele>460.0</ele><time>2026-05-02T14:42:06Z</time></trkpt><trkpt lat="43.974269110331576" lon="12.247130127649799"><ele>455.6666666666667</ele><time>2026-05-02T14:42:07Z</time></trkpt><trkpt lat="43.97442638696946" lon="12.24692898171947"><ele>451.33333333333337</ele><time>2026-05-02T14:42:08Z</time></trkpt><trkpt lat="43.97458879720873" lon="12.24671850293233"><ele>447.0</ele><time>2026-05-02T14:42:09Z</time></trkpt><trkpt lat="43.97475239722883" lon="12.246485250812551"><ele>446.0</ele><time>2026-05-02T14:42:10Z</time></trkpt><trkpt lat="43.97490846437474" lon="12.246229944176704"><ele>445.0</ele><time>2026-05-02T14:42:11Z</time></trkpt><trkpt lat="43.97506077011183" lon="12.245988623445506"><ele>444.6666666666667</ele><time>2026-05-02T14:42:12Z</time></trkpt><trkpt lat="43.97517312104729" lon="12.245771830537427"><ele>444.33333333333337</ele><time>2026-05-02T14:42:13Z</time></trkpt><trkpt lat="43.97526144574457" lon="12.245586874237343"><ele>444.0</ele><time>2026-05-02T14:42:14Z</time></trkpt><trkpt lat="43.97538765236092" lon="12.245475465696163"><ele>444.0</ele><time>2026-05-02T14:42:15Z</time></trkpt><trkpt lat="43.975533126408926" lon="12.245389079277302"><ele>444.0</ele><time>2026-05-02T14:42:16Z</time></trkpt><trkpt lat="43.97571634389371" lon="12.24531212725992"><ele>444.0</ele><time>2026-05-02T14:42:17Z</time></trkpt><trkpt lat="43.97592185142316" lon="12.245241390481254"><ele>442.0</ele><time>2026-05-02T14:42:18Z</time></trkpt><trkpt lat="43.976138125257926" lon="12.245177523314878"><ele>440.0</ele><time>2026-05-02T14:42:19Z</time></trkpt><trkpt lat="43.97633312007635" lon="12.245098026816697"><ele>438.0</ele><time>2026-05-02T14:42:20Z</time></trkpt><trkpt lat="43.97649494169976" lon="12.245052991381938"><ele>438.0</ele><time>2026-05-02T14:42:21Z</time></trkpt><trkpt lat="43.9766431286741" lon="12.244999765294503"><ele>438.0</ele><time>2026-05-02T14:42:22Z</time></trkpt><trkpt lat="43.9767918524015" lon="12.244951532968841"><ele>438.0</ele><time>2026-05-02T14:42:23Z</time></trkpt><trkpt lat="43.976937712605896" lon="12.24490927040403"><ele>437.25</ele><time>2026-05-02T14:42:24Z</time></trkpt><trkpt lat="43.977074149360156" lon="12.244865621200313"><ele>436.5</ele><time>2026-05-02T14:42:25Z</time></trkpt><trkpt lat="43.97721281168529" lon="12.24482575203662"><ele>435.75</ele><time>2026-05-02T14:42:26Z</time></trkpt><trkpt lat="43.977343717536726" lon="12.244786847555604"><ele>435.0</ele><time>2026-05-02T14:42:27Z</time></trkpt><trkpt lat="43.97747148409302" lon="12.244764677319525"><ele>434.25</ele><time>2026-05-02T14:42:28Z</time></trkpt><trkpt lat="43.977595354678236" lon="12.244754386313407"><ele>433.5</ele><time>2026-05-02T14:42:29Z</time></trkpt><trkpt lat="43.97771594137119" lon="12.244763391616972"><ele>432.75</ele><time>2026-05-02T14:42:30Z</time></trkpt><trkpt lat="43.97782797304798" lon="12.244821665196302"><ele>432.0</ele><time>2026-05-02T14:42:31Z</time></trkpt><trkpt lat="43.97793899095521" lon="12.244851941445349"><ele>432.0</ele><time>2026-05-02T14:42:32Z</time></trkpt><trkpt lat="43.978047049608584" lon="12.244907949197215"><ele>432.0</ele><time>2026-05-02T14:42:33Z</time></trkpt><trkpt lat="43.97815273755172" lon="12.244971596541342"><ele>432.0</ele><time>2026-05-02T14:42:34Z</time></trkpt><trkpt lat="43.978258428011436" lon="12.245051759248028"><ele>432.0</ele><time>2026-05-02T14:42:35Z</time></trkpt><trkpt lat="43.97837619165058" lon="12.245137627566256"><ele>431.25</ele><time>2026-05-02T14:42:36Z</time></trkpt><trkpt lat="43.97849243986148" lon="12.24524132605859"><ele>430.5</ele><time>2026-05-02T14:42:37Z</time></trkpt><trkpt lat="43.97860595914341" lon="12.245360375059517"><ele>429.75</ele><time>2026-05-02T14:42:38Z</time></trkpt><trkpt lat="43.978715492214924" lon="12.245502419360786"><ele>429.0</ele><time>2026-05-02T14:42:39Z</time></trkpt><trkpt lat="43.97879800596467" lon="12.245668254340712"><ele>428.75</ele><time>2026-05-02T14:42:40Z</time></trkpt><trkpt lat="43.97888949270781" lon="12.245806792531734"><ele>428.5</ele><time>2026-05-02T14:42:41Z</time></trkpt><trkpt lat="43.9789733207056" lon="12.245945846188599"><ele>428.25</ele><time>2026-05-02T14:42:42Z</time></trkpt><trkpt lat="43.97906297157215" lon="12.24607416988378"><ele>428.0</ele><time>2026-05-02T14:42:43Z</time></trkpt><trkpt lat="43.97916285533086" lon="12.246194806236156"><ele>425.25</ele><time>2026-05-02T14:42:44Z</time></trkpt><trkpt lat="43.97926064536277" lon="12.246306665547246"><ele>422.5</ele><time>2026-05-02T14:42:44.999Z</time></trkpt><trkpt lat="43.97935895119315" lon="12.246408444715556"><ele>419.75</ele><time>2026-05-02T14:42:45.999Z</time></trkpt><trkpt lat="43.9794420000528" lon="12.246529083646504"><ele>417.0</ele><time>2026-05-02T14:42:46.999Z</time></trkpt><trkpt lat="43.97951730359292" lon="12.246670207132198"><ele>417.0</ele><time>2026-05-02T14:42:47.999Z</time></trkpt><trkpt lat="43.97959352883449" lon="12.246786732172659"><ele>417.0</ele><time>2026-05-02T14:42:48.999Z</time></trkpt><trkpt lat="43.979699263043706" lon="12.24689502663067"><ele>417.0</ele><time>2026-05-02T14:42:49.999Z</time></trkpt><trkpt lat="43.979815749429704" lon="12.24695741947436"><ele>417.0</ele><time>2026-05-02T14:42:50.999Z</time></trkpt><trkpt lat="43.979934247845996" lon="12.246997885205273"><ele>414.0</ele><time>2026-05-02T14:42:51.999Z</time></trkpt><trkpt lat="43.9800631105705" lon="12.247065424012781"><ele>411.0</ele><time>2026-05-02T14:42:52.999Z</time></trkpt><trkpt lat="43.98019816389149" lon="12.247151864327982"><ele>408.0</ele><time>2026-05-02T14:42:53.999Z</time></trkpt><trkpt lat="43.98033480089806" lon="12.24724836784838"><ele>405.0</ele><time>2026-05-02T14:42:54.999Z</time></trkpt><trkpt lat="43.980471767348575" lon="12.247343329143558"><ele>405.0</ele><time>2026-05-02T14:42:55.999Z</time></trkpt><trkpt lat="43.98061077831366" lon="12.247432213698604"><ele>405.0</ele><time>2026-05-02T14:42:57.001Z</time></trkpt><trkpt lat="43.98074990485265" lon="12.247522920128644"><ele>405.0</ele><time>2026-05-02T14:42:58.001Z</time></trkpt><trkpt lat="43.98088871911586" lon="12.24762190050115"><ele>401.33333333333337</ele><time>2026-05-02T14:42:59.001Z</time></trkpt><trkpt lat="43.98099896268694" lon="12.24777556223462"><ele>397.6666666666667</ele><time>2026-05-02T14:43:00.001Z</time></trkpt><trkpt lat="43.98111044115678" lon="12.247946312491429"><ele>394.0</ele><time>2026-05-02T14:43:01.001Z</time></trkpt><trkpt lat="43.98121412614552" lon="12.248117450665347"><ele>399.0</ele><time>2026-05-02T14:43:02.001Z</time></trkpt><trkpt lat="43.981312353449916" lon="12.248303633727433"><ele>404.0</ele><time>2026-05-02T14:43:03.001Z</time></trkpt><trkpt lat="43.98142680922878" lon="12.248479123277932"><ele>409.0</ele><time>2026-05-02T14:43:04.001Z</time></trkpt><trkpt lat="43.981550301748044" lon="12.248659935777901"><ele>409.0</ele><time>2026-05-02T14:43:05Z</time></trkpt><trkpt lat="43.98167751099523" lon="12.248847163171964"><ele>409.0</ele><time>2026-05-02T14:43:06Z</time></trkpt><trkpt lat="43.98181459608171" lon="12.249038276162766"><ele>409.0</ele><time>2026-05-02T14:43:07.001Z</time></trkpt><trkpt lat="43.98196258710481" lon="12.249226843879898"><ele>409.0</ele><time>2026-05-02T14:43:08Z</time></trkpt><trkpt lat="43.98210631661169" lon="12.249384635060562"><ele>409.0</ele><time>2026-05-02T14:43:09Z</time></trkpt><trkpt lat="43.98225232770836" lon="12.249498603956996"><ele>409.0</ele><time>2026-05-02T14:43:10Z</time></trkpt><trkpt lat="43.98241239490623" lon="12.249551149417524"><ele>410.0</ele><time>2026-05-02T14:43:11Z</time></trkpt><trkpt lat="43.9825904179643" lon="12.249573310469213"><ele>411.0</ele><time>2026-05-02T14:43:12Z</time></trkpt><trkpt lat="43.982783873211076" lon="12.249606703934832"><ele>412.0</ele><time>2026-05-02T14:43:13Z</time></trkpt><trkpt lat="43.982966986823264" lon="12.249652222525992"><ele>412.0</ele><time>2026-05-02T14:43:14Z</time></trkpt><trkpt lat="43.98312719801285" lon="12.249737633030406"><ele>412.0</ele><time>2026-05-02T14:43:15Z</time></trkpt><trkpt lat="43.98328688815382" lon="12.249805133059331"><ele>412.0</ele><time>2026-05-02T14:43:16Z</time></trkpt><trkpt lat="43.983434921833506" lon="12.249842899602733"><ele>410.25</ele><time>2026-05-02T14:43:17Z</time></trkpt><trkpt lat="43.98357099901526" lon="12.249885910335232"><ele>408.5</ele><time>2026-05-02T14:43:18Z</time></trkpt><trkpt lat="43.98369922734255" lon="12.249880464495252"><ele>406.75</ele><time>2026-05-02T14:43:19Z</time></trkpt><trkpt lat="43.983836375085794" lon="12.249824645787113"><ele>405.0</ele><time>2026-05-02T14:43:20Z</time></trkpt><trkpt lat="43.983986106480565" lon="12.249732690399636"><ele>405.0</ele><time>2026-05-02T14:43:21Z</time></trkpt><trkpt lat="43.98415017700496" lon="12.249654251868014"><ele>405.0</ele><time>2026-05-02T14:43:22Z</time></trkpt><trkpt lat="43.98434502175731" lon="12.249621922427021"><ele>405.0</ele><time>2026-05-02T14:43:23Z</time></trkpt><trkpt lat="43.98454202907537" lon="12.24963206782326"><ele>404.33333333333337</ele><time>2026-05-02T14:43:24Z</time></trkpt><trkpt lat="43.98474515874067" lon="12.24960030384815"><ele>403.6666666666667</ele><time>2026-05-02T14:43:25Z</time></trkpt><trkpt lat="43.98494550967615" lon="12.24955268648883"><ele>403.0</ele><time>2026-05-02T14:43:26Z</time></trkpt><trkpt lat="43.98513696465193" lon="12.249476657990607"><ele>403.0</ele><time>2026-05-02T14:43:27Z</time></trkpt><trkpt lat="43.98533379559049" lon="12.249370389314016"><ele>403.0</ele><time>2026-05-02T14:43:28Z</time></trkpt><trkpt lat="43.98551637748807" lon="12.249241116408843"><ele>403.0</ele><time>2026-05-02T14:43:29Z</time></trkpt><trkpt lat="43.985699042192934" lon="12.24911741277755"><ele>403.6666666666667</ele><time>2026-05-02T14:43:30Z</time></trkpt><trkpt lat="43.985896890344684" lon="12.249067741199813"><ele>404.33333333333337</ele><time>2026-05-02T14:43:31Z</time></trkpt><trkpt lat="43.986096545434656" lon="12.24902631591188"><ele>405.0</ele><time>2026-05-02T14:43:32Z</time></trkpt><trkpt lat="43.98629297818561" lon="12.248973535230522"><ele>405.0</ele><time>2026-05-02T14:43:33Z</time></trkpt><trkpt lat="43.98649285114407" lon="12.248971705091714"><ele>405.0</ele><time>2026-05-02T14:43:34Z</time></trkpt><trkpt lat="43.98666626420501" lon="12.248981553728237"><ele>405.0</ele><time>2026-05-02T14:43:35Z</time></trkpt><trkpt lat="43.98682755101578" lon="12.249046846577555"><ele>407.66666666666663</ele><time>2026-05-02T14:43:36Z</time></trkpt><trkpt lat="43.986993892195414" lon="12.24909952949541"><ele>410.3333333333333</ele><time>2026-05-02T14:43:37Z</time></trkpt><trkpt lat="43.98715893036775" lon="12.249197835137306"><ele>413.0</ele><time>2026-05-02T14:43:38Z</time></trkpt><trkpt lat="43.987342383994516" lon="12.249289894056593"><ele>413.3333333333333</ele><time>2026-05-02T14:43:39Z</time></trkpt><trkpt lat="43.98753397023018" lon="12.249390439632801"><ele>413.66666666666663</ele><time>2026-05-02T14:43:40Z</time></trkpt><trkpt lat="43.9877313143676" lon="12.249504128589683"><ele>414.0</ele><time>2026-05-02T14:43:41Z</time></trkpt><trkpt lat="43.987927066763575" lon="12.249614730974294"><ele>414.0</ele><time>2026-05-02T14:43:42Z</time></trkpt><trkpt lat="43.98812670151739" lon="12.249730162289824"><ele>414.0</ele><time>2026-05-02T14:43:43Z</time></trkpt><trkpt lat="43.988312715674006" lon="12.249835488766523"><ele>414.0</ele><time>2026-05-02T14:43:44Z</time></trkpt><trkpt lat="43.988487678136345" lon="12.249947649534729"><ele>413.0</ele><time>2026-05-02T14:43:45Z</time></trkpt><trkpt lat="43.98866540131707" lon="12.250065210317175"><ele>412.0</ele><time>2026-05-02T14:43:46Z</time></trkpt><trkpt lat="43.988842251350256" lon="12.250180894692338"><ele>411.0</ele><time>2026-05-02T14:43:47Z</time></trkpt><trkpt lat="43.98901956988582" lon="12.250297316201644"><ele>413.33333333333337</ele><time>2026-05-02T14:43:48Z</time></trkpt><trkpt lat="43.98919535702923" lon="12.25041022665757"><ele>415.6666666666667</ele><time>2026-05-02T14:43:49Z</time></trkpt><trkpt lat="43.98936543756575" lon="12.250520434596348"><ele>418.0</ele><time>2026-05-02T14:43:50Z</time></trkpt><trkpt lat="43.98953082949718" lon="12.250633019260864"><ele>421.6666666666667</ele><time>2026-05-02T14:43:51Z</time></trkpt><trkpt lat="43.989694608428294" lon="12.250744280239346"><ele>425.33333333333337</ele><time>2026-05-02T14:43:52Z</time></trkpt><trkpt lat="43.98984926779706" lon="12.25086642128392"><ele>429.0</ele><time>2026-05-02T14:43:53Z</time></trkpt><trkpt lat="43.989993271134374" lon="12.250998378659277"><ele>431.0</ele><time>2026-05-02T14:43:54Z</time></trkpt><trkpt lat="43.9901231384252" lon="12.251173419312773"><ele>433.0</ele><time>2026-05-02T14:43:55Z</time></trkpt><trkpt lat="43.990259401955534" lon="12.25134841354004"><ele>435.0</ele><time>2026-05-02T14:43:56Z</time></trkpt><trkpt lat="43.99038266829399" lon="12.251547207237108"><ele>436.66666666666663</ele><time>2026-05-02T14:43:57Z</time></trkpt><trkpt lat="43.99049546780028" lon="12.251759465133674"><ele>438.3333333333333</ele><time>2026-05-02T14:43:58Z</time></trkpt><trkpt lat="43.99057065469078" lon="12.251989814464357"><ele>440.0</ele><time>2026-05-02T14:43:59Z</time></trkpt><trkpt lat="43.9906328156175" lon="12.252220575921434"><ele>438.25</ele><time>2026-05-02T14:44:00Z</time></trkpt><trkpt lat="43.99066028438354" lon="12.252437041103972"><ele>436.5</ele><time>2026-05-02T14:44:01Z</time></trkpt><trkpt lat="43.99067326598857" lon="12.25259931938405"><ele>434.75</ele><time>2026-05-02T14:44:02Z</time></trkpt><trkpt lat="43.99060350309195" lon="12.252728161630419"><ele>433.0</ele><time>2026-05-02T14:44:03Z</time></trkpt><trkpt lat="43.99054690721085" lon="12.252838539777823"><ele>433.0</ele><time>2026-05-02T14:44:04Z</time></trkpt><trkpt lat="43.99049431742246" lon="12.252954456745863"><ele>432.99999999999994</ele><time>2026-05-02T14:44:05Z</time></trkpt><trkpt lat="43.9904364464569" lon="12.253073283347563"><ele>432.99999999999994</ele><time>2026-05-02T14:44:06Z</time></trkpt><trkpt lat="43.99039906551297" lon="12.253217653607576"><ele>433.0</ele><time>2026-05-02T14:44:07Z</time></trkpt><trkpt lat="43.9903903450409" lon="12.253359193760593"><ele>433.0</ele><time>2026-05-02T14:44:08Z</time></trkpt><trkpt lat="43.990401853581815" lon="12.253478366834308"><ele>433.0</ele><time>2026-05-02T14:44:09Z</time></trkpt><trkpt lat="43.99039885439131" lon="12.253589537168567"><ele>432.99999999999994</ele><time>2026-05-02T14:44:11Z</time></trkpt><trkpt lat="43.99053671848573" lon="12.25352435990475"><ele>432.99999999999994</ele><time>2026-05-02T14:44:13Z</time></trkpt><trkpt lat="43.990567810596275" lon="12.253356965401451"><ele>433.0</ele><time>2026-05-02T14:44:15Z</time></trkpt><trkpt lat="43.99059959841072" lon="12.253237017281739"><ele>433.0</ele><time>2026-05-02T14:44:16Z</time></trkpt><trkpt lat="43.99063236273342" lon="12.253107916900516"><ele>433.0</ele><time>2026-05-02T14:44:17Z</time></trkpt><trkpt lat="43.9906633367252" lon="12.252950556014936"><ele>433.0</ele><time>2026-05-02T14:44:18Z</time></trkpt><trkpt lat="43.990704233595466" lon="12.252774585310975"><ele>433.0</ele><time>2026-05-02T14:44:19Z</time></trkpt><trkpt lat="43.99077783946142" lon="12.252586016988992"><ele>433.0</ele><time>2026-05-02T14:44:20Z</time></trkpt><trkpt lat="43.990873098862075" lon="12.25240026135156"><ele>430.0</ele><time>2026-05-02T14:44:21Z</time></trkpt><trkpt lat="43.99098936588246" lon="12.252233135647003"><ele>427.0</ele><time>2026-05-02T14:44:22Z</time></trkpt><trkpt lat="43.99107784416741" lon="12.252056610416869"><ele>424.0</ele><time>2026-05-02T14:44:23Z</time></trkpt><trkpt lat="43.991133127578294" lon="12.251868472990173"><ele>424.0</ele><time>2026-05-02T14:44:24Z</time></trkpt><trkpt lat="43.99120258955952" lon="12.25170016151178"><ele>424.0</ele><time>2026-05-02T14:44:25Z</time></trkpt><trkpt lat="43.99130836300156" lon="12.251572811658212"><ele>424.0</ele><time>2026-05-02T14:44:26Z</time></trkpt><trkpt lat="43.99140226946406" lon="12.251485004897077"><ele>424.0</ele><time>2026-05-02T14:44:27Z</time></trkpt><trkpt lat="43.99149962003913" lon="12.251444233717864"><ele>424.0</ele><time>2026-05-02T14:44:28Z</time></trkpt><trkpt lat="43.99160491311628" lon="12.25150859670948"><ele>424.0</ele><time>2026-05-02T14:44:29Z</time></trkpt><trkpt lat="43.99173320745152" lon="12.251532281497616"><ele>424.0</ele><time>2026-05-02T14:44:30Z</time></trkpt><trkpt lat="43.991879716570764" lon="12.251579633509905"><ele>424.0</ele><time>2026-05-02T14:44:31Z</time></trkpt><trkpt lat="43.99202968028649" lon="12.251607014944845"><ele>419.6666666666667</ele><time>2026-05-02T14:44:32Z</time></trkpt><trkpt lat="43.99216657956412" lon="12.251588538413248"><ele>415.33333333333337</ele><time>2026-05-02T14:44:33Z</time></trkpt><trkpt lat="43.9922988751248" lon="12.251497589335292"><ele>411.0</ele><time>2026-05-02T14:44:34Z</time></trkpt><trkpt lat="43.99244139325689" lon="12.25135893193084"><ele>401.3333333333333</ele><time>2026-05-02T14:44:35Z</time></trkpt><trkpt lat="43.99259815888979" lon="12.251233111857568"><ele>391.66666666666663</ele><time>2026-05-02T14:44:36Z</time></trkpt><trkpt lat="43.99274555761562" lon="12.251132897233568"><ele>382.0</ele><time>2026-05-02T14:44:37Z</time></trkpt><trkpt lat="43.99286617065316" lon="12.251061389454783"><ele>382.0</ele><time>2026-05-02T14:44:38Z</time></trkpt><trkpt lat="43.99296076904097" lon="12.250990735002677"><ele>382.0</ele><time>2026-05-02T14:44:39Z</time></trkpt><trkpt lat="43.99303648571991" lon="12.2508784363019"><ele>382.0</ele><time>2026-05-02T14:44:40Z</time></trkpt><trkpt lat="43.993066887452954" lon="12.250735459697506"><ele>382.0</ele><time>2026-05-02T14:44:41Z</time></trkpt><trkpt lat="43.993034853019644" lon="12.25057793596093"><ele>382.0</ele><time>2026-05-02T14:44:42Z</time></trkpt><trkpt lat="43.992958974633254" lon="12.250440049795188"><ele>378.0</ele><time>2026-05-02T14:44:42.999Z</time></trkpt><trkpt lat="43.992845148146166" lon="12.250356210578818"><ele>374.0</ele><time>2026-05-02T14:44:43.999Z</time></trkpt><trkpt lat="43.99272783168621" lon="12.250345054880373"><ele>370.0</ele><time>2026-05-02T14:44:44.999Z</time></trkpt><trkpt lat="43.9926237042089" lon="12.25038786581746"><ele>366.0</ele><time>2026-05-02T14:44:45.999Z</time></trkpt><trkpt lat="43.99252275442724" lon="12.250513683491622"><ele>369.8333333333333</ele><time>2026-05-02T14:44:46.999Z</time></trkpt><trkpt lat="43.99244473612257" lon="12.250616305127261"><ele>373.66666666666663</ele><time>2026-05-02T14:44:47.999Z</time></trkpt><trkpt lat="43.992379565606726" lon="12.250651897692517"><ele>377.5</ele><time>2026-05-02T14:44:48.999Z</time></trkpt><trkpt lat="43.99231488389584" lon="12.250624551374605"><ele>381.3333333333333</ele><time>2026-05-02T14:44:49.999Z</time></trkpt><trkpt lat="43.99227996223844" lon="12.250534586409582"><ele>385.16666666666663</ele><time>2026-05-02T14:44:50.999Z</time></trkpt><trkpt lat="43.992296276770574" lon="12.250427471134158"><ele>389.0</ele><time>2026-05-02T14:44:51.999Z</time></trkpt><trkpt lat="43.99236870268331" lon="12.25031842514747"><ele>389.0</ele><time>2026-05-02T14:44:52.999Z</time></trkpt><trkpt lat="43.99245669022123" lon="12.250200522039151"><ele>389.0</ele><time>2026-05-02T14:44:53.999Z</time></trkpt><trkpt lat="43.99254493056449" lon="12.250083947763711"><ele>389.0</ele><time>2026-05-02T14:44:54.999Z</time></trkpt><trkpt lat="43.99265706053403" lon="12.25000423512171"><ele>389.0</ele><time>2026-05-02T14:44:55.999Z</time></trkpt><trkpt lat="43.992746391740944" lon="12.249958848518506"><ele>384.4</ele><time>2026-05-02T14:44:56.999Z</time></trkpt><trkpt lat="43.992825941592805" lon="12.24996054185164"><ele>379.79999999999995</ele><time>2026-05-02T14:44:57.999Z</time></trkpt><trkpt lat="43.99289832296094" lon="12.250054805541643"><ele>375.20000000000005</ele><time>2026-05-02T14:44:58.999Z</time></trkpt><trkpt lat="43.99298936449038" lon="12.250132221140701"><ele>370.6</ele><time>2026-05-02T14:44:59.999Z</time></trkpt><trkpt lat="43.99312635648375" lon="12.250197197295778"><ele>366.0</ele><time>2026-05-02T14:45:00.999Z</time></trkpt><trkpt lat="43.9932517077281" lon="12.250305970801085"><ele>363.0</ele><time>2026-05-02T14:45:01.999Z</time></trkpt><trkpt lat="43.993360726584136" lon="12.250408127150399"><ele>360.0</ele><time>2026-05-02T14:45:03Z</time></trkpt><trkpt lat="43.99343518039589" lon="12.250541826347952"><ele>357.0</ele><time>2026-05-02T14:45:04Z</time></trkpt><trkpt lat="43.99351879454522" lon="12.250662370753433"><ele>354.0</ele><time>2026-05-02T14:45:05Z</time></trkpt><trkpt lat="43.99360906374477" lon="12.25073804711035"><ele>354.0</ele><time>2026-05-02T14:45:06Z</time></trkpt><trkpt lat="43.993706944056505" lon="12.250768669767924"><ele>354.0</ele><time>2026-05-02T14:45:07Z</time></trkpt><trkpt lat="43.993821195653666" lon="12.250717152260913"><ele>354.0</ele><time>2026-05-02T14:45:08Z</time></trkpt><trkpt lat="43.99394435373184" lon="12.250623439707322"><ele>354.0</ele><time>2026-05-02T14:45:09Z</time></trkpt><trkpt lat="43.99407802490816" lon="12.250514021308682"><ele>349.25</ele><time>2026-05-02T14:45:10Z</time></trkpt><trkpt lat="43.99421355725733" lon="12.25041296986099"><ele>344.5</ele><time>2026-05-02T14:45:11Z</time></trkpt><trkpt lat="43.9943203402948" lon="12.250330246705241"><ele>339.75</ele><time>2026-05-02T14:45:12Z</time></trkpt><trkpt lat="43.99439996205189" lon="12.250220183803615"><ele>335.0</ele><time>2026-05-02T14:45:13Z</time></trkpt><trkpt lat="43.994444941214624" lon="12.250073911507386"><ele>335.0</ele><time>2026-05-02T14:45:14Z</time></trkpt><trkpt lat="43.99445986948257" lon="12.249911585774942"><ele>335.0</ele><time>2026-05-02T14:45:15Z</time></trkpt><trkpt lat="43.99446994329193" lon="12.24974979909979"><ele>335.0</ele><time>2026-05-02T14:45:16Z</time></trkpt><trkpt lat="43.994496127126396" lon="12.249602928254589"><ele>335.0</ele><time>2026-05-02T14:45:17Z</time></trkpt><trkpt lat="43.994545322548525" lon="12.249477379160117"><ele>335.0</ele><time>2026-05-02T14:45:18Z</time></trkpt><trkpt lat="43.99461860945867" lon="12.249369580557472"><ele>337.0</ele><time>2026-05-02T14:45:19Z</time></trkpt><trkpt lat="43.99471711138706" lon="12.249316436892713"><ele>339.0</ele><time>2026-05-02T14:45:20Z</time></trkpt><trkpt lat="43.99480102368375" lon="12.249237154283172"><ele>341.0</ele><time>2026-05-02T14:45:21Z</time></trkpt><trkpt lat="43.994882929346076" lon="12.24917176108367"><ele>343.0</ele><time>2026-05-02T14:45:22Z</time></trkpt><trkpt lat="43.99494391297256" lon="12.249073533376862"><ele>345.0</ele><time>2026-05-02T14:45:23Z</time></trkpt><trkpt lat="43.99497970630414" lon="12.248941220300608"><ele>345.2</ele><time>2026-05-02T14:45:24Z</time></trkpt><trkpt lat="43.99500734497093" lon="12.248812739103553"><ele>345.4</ele><time>2026-05-02T14:45:25Z</time></trkpt><trkpt lat="43.99504057497162" lon="12.24867647325964"><ele>345.6</ele><time>2026-05-02T14:45:26Z</time></trkpt><trkpt lat="43.99507988545308" lon="12.248543881517644"><ele>345.8</ele><time>2026-05-02T14:45:27Z</time></trkpt><trkpt lat="43.99512973691151" lon="12.248411978702126"><ele>346.0</ele><time>2026-05-02T14:45:28Z</time></trkpt><trkpt lat="43.995189079830745" lon="12.248267255805295"><ele>344.0</ele><time>2026-05-02T14:45:29Z</time></trkpt><trkpt lat="43.99524981518648" lon="12.248115872751626"><ele>342.0</ele><time>2026-05-02T14:45:30Z</time></trkpt><trkpt lat="43.99530359857563" lon="12.24796222571815"><ele>340.0</ele><time>2026-05-02T14:45:31Z</time></trkpt><trkpt lat="43.99535750215725" lon="12.24781616389683"><ele>338.0</ele><time>2026-05-02T14:45:32Z</time></trkpt><trkpt lat="43.995416487588784" lon="12.247672793916578"><ele>338.0</ele><time>2026-05-02T14:45:33Z</time></trkpt><trkpt lat="43.99548668066153" lon="12.247540703545496"><ele>338.0</ele><time>2026-05-02T14:45:34Z</time></trkpt><trkpt lat="43.99555855551414" lon="12.24742184584274"><ele>338.0</ele><time>2026-05-02T14:45:35Z</time></trkpt><trkpt lat="43.99562206532572" lon="12.247327103612617"><ele>338.0</ele><time>2026-05-02T14:45:36Z</time></trkpt><trkpt lat="43.99567429047039" lon="12.247241888479904"><ele>338.0</ele><time>2026-05-02T14:45:37Z</time></trkpt><trkpt lat="43.99569441209838" lon="12.247125872844746"><ele>336.0</ele><time>2026-05-02T14:45:38Z</time></trkpt><trkpt lat="43.995670185493694" lon="12.24698831766786"><ele>334.0</ele><time>2026-05-02T14:45:39Z</time></trkpt><trkpt lat="43.99561624472087" lon="12.246851939274338"><ele>332.0</ele><time>2026-05-02T14:45:40Z</time></trkpt><trkpt lat="43.99556676472338" lon="12.246738692906442"><ele>330.0</ele><time>2026-05-02T14:45:41Z</time></trkpt><trkpt lat="43.99555539291544" lon="12.246611902272862"><ele>328.0</ele><time>2026-05-02T14:45:42Z</time></trkpt><trkpt lat="43.99560801115935" lon="12.246473567409142"><ele>325.25</ele><time>2026-05-02T14:45:43Z</time></trkpt><trkpt lat="43.995710768406724" lon="12.246393574534526"><ele>322.5</ele><time>2026-05-02T14:45:44Z</time></trkpt><trkpt lat="43.99583690224924" lon="12.24632910814415"><ele>319.75</ele><time>2026-05-02T14:45:45Z</time></trkpt><trkpt lat="43.99594018005541" lon="12.2462194253557"><ele>317.0</ele><time>2026-05-02T14:45:46Z</time></trkpt><trkpt lat="43.996030281176196" lon="12.246085711625923"><ele>312.0</ele><time>2026-05-02T14:45:47Z</time></trkpt><trkpt lat="43.996095506294125" lon="12.245911477123153"><ele>307.0</ele><time>2026-05-02T14:45:48Z</time></trkpt><trkpt lat="43.99614387149237" lon="12.245706016527311"><ele>302.0</ele><time>2026-05-02T14:45:49Z</time></trkpt><trkpt lat="43.99616965048762" lon="12.245479892257359"><ele>302.0</ele><time>2026-05-02T14:45:50Z</time></trkpt><trkpt lat="43.996181344595676" lon="12.245251668421552"><ele>302.0</ele><time>2026-05-02T14:45:51Z</time></trkpt><trkpt lat="43.99619876132372" lon="12.24504409587976"><ele>302.0</ele><time>2026-05-02T14:45:52Z</time></trkpt><trkpt lat="43.996254070917566" lon="12.244852563462999"><ele>302.6666666666667</ele><time>2026-05-02T14:45:53Z</time></trkpt><trkpt lat="43.99634759950289" lon="12.244660221126649"><ele>303.3333333333333</ele><time>2026-05-02T14:45:54Z</time></trkpt><trkpt lat="43.996458915284734" lon="12.244442853011009"><ele>304.0</ele><time>2026-05-02T14:45:55Z</time></trkpt><trkpt lat="43.996569110935944" lon="12.24420053075926"><ele>297.66666666666663</ele><time>2026-05-02T14:45:56Z</time></trkpt><trkpt lat="43.99668155055952" lon="12.243961356001119"><ele>291.3333333333333</ele><time>2026-05-02T14:45:57Z</time></trkpt><trkpt lat="43.99676568982086" lon="12.24376607460506"><ele>285.0</ele><time>2026-05-02T14:45:58Z</time></trkpt><trkpt lat="43.99682407897569" lon="12.243576286805503"><ele>285.0</ele><time>2026-05-02T14:45:59Z</time></trkpt><trkpt lat="43.99684784843481" lon="12.243345910498972"><ele>285.0</ele><time>2026-05-02T14:46:00Z</time></trkpt><trkpt lat="43.99683695450426" lon="12.243126690487841"><ele>285.0</ele><time>2026-05-02T14:46:01Z</time></trkpt><trkpt lat="43.99682760588597" lon="12.242946323734635"><ele>288.0</ele><time>2026-05-02T14:46:02Z</time></trkpt><trkpt lat="43.996857952709995" lon="12.242796713306289"><ele>291.0</ele><time>2026-05-02T14:46:03Z</time></trkpt><trkpt lat="43.99695047127082" lon="12.242668976787126"><ele>294.0</ele><time>2026-05-02T14:46:04Z</time></trkpt><trkpt lat="43.997063855827385" lon="12.24255396071139"><ele>297.0</ele><time>2026-05-02T14:46:05Z</time></trkpt><trkpt lat="43.99717500373295" lon="12.242425611386196"><ele>297.0</ele><time>2026-05-02T14:46:06Z</time></trkpt><trkpt lat="43.99727427008672" lon="12.242307190835136"><ele>297.0</ele><time>2026-05-02T14:46:07Z</time></trkpt><trkpt lat="43.99735544984256" lon="12.242136670095846"><ele>297.0</ele><time>2026-05-02T14:46:08Z</time></trkpt><trkpt lat="43.9974185126909" lon="12.241931179351493"><ele>297.0</ele><time>2026-05-02T14:46:09Z</time></trkpt><trkpt lat="43.99748158925079" lon="12.241713402629205"><ele>297.5</ele><time>2026-05-02T14:46:10Z</time></trkpt><trkpt lat="43.997555016797214" lon="12.241511910628624"><ele>298.0</ele><time>2026-05-02T14:46:11Z</time></trkpt><trkpt lat="43.99762468432352" lon="12.24136653492592"><ele>298.5</ele><time>2026-05-02T14:46:12Z</time></trkpt><trkpt lat="43.99771032965683" lon="12.241244934838948"><ele>299.0</ele><time>2026-05-02T14:46:13Z</time></trkpt><trkpt lat="43.99781720867671" lon="12.241140999676837"><ele>305.0</ele><time>2026-05-02T14:46:14Z</time></trkpt><trkpt lat="43.997963337810276" lon="12.241068755587927"><ele>311.0</ele><time>2026-05-02T14:46:15Z</time></trkpt><trkpt lat="43.99814241124989" lon="12.241008132967908"><ele>317.0</ele><time>2026-05-02T14:46:16Z</time></trkpt><trkpt lat="43.998344791569856" lon="12.240922879904467"><ele>317.0</ele><time>2026-05-02T14:46:17Z</time></trkpt><trkpt lat="43.998538206689005" lon="12.240806007676156"><ele>317.0</ele><time>2026-05-02T14:46:18Z</time></trkpt><trkpt lat="43.99869205467251" lon="12.240683455435057"><ele>317.0</ele><time>2026-05-02T14:46:19Z</time></trkpt><trkpt lat="43.99880501866272" lon="12.24055963638324"><ele>317.5</ele><time>2026-05-02T14:46:20Z</time></trkpt><trkpt lat="43.998903846078036" lon="12.240422994368531"><ele>318.0</ele><time>2026-05-02T14:46:21Z</time></trkpt><trkpt lat="43.99900406567993" lon="12.240284725479961"><ele>318.5</ele><time>2026-05-02T14:46:22Z</time></trkpt><trkpt lat="43.99911110955782" lon="12.240143883979682"><ele>319.0</ele><time>2026-05-02T14:46:23Z</time></trkpt><trkpt lat="43.999210055636894" lon="12.240036788115683"><ele>319.0</ele><time>2026-05-02T14:46:24Z</time></trkpt><trkpt lat="43.99932797830411" lon="12.240005392872977"><ele>319.0</ele><time>2026-05-02T14:46:25Z</time></trkpt><trkpt lat="43.9994599321075" lon="12.240000861957952"><ele>319.0</ele><time>2026-05-02T14:46:26Z</time></trkpt><trkpt lat="43.99961684017236" lon="12.239974848968982"><ele>319.0</ele><time>2026-05-02T14:46:27Z</time></trkpt><trkpt lat="43.99976139502197" lon="12.239955469274879"><ele>319.0</ele><time>2026-05-02T14:46:28Z</time></trkpt><trkpt lat="43.999890502616545" lon="12.239857913024569"><ele>319.0</ele><time>2026-05-02T14:46:29Z</time></trkpt><trkpt lat="43.999993874948096" lon="12.239725978016068"><ele>319.0</ele><time>2026-05-02T14:46:30Z</time></trkpt><trkpt lat="44.00006864590018" lon="12.23960895281537"><ele>319.0</ele><time>2026-05-02T14:46:31Z</time></trkpt><trkpt lat="44.000131801001004" lon="12.239507096876968"><ele>318.0</ele><time>2026-05-02T14:46:32Z</time></trkpt><trkpt lat="44.000178266119484" lon="12.239418636191022"><ele>317.0</ele><time>2026-05-02T14:46:33Z</time></trkpt><trkpt lat="44.00022003069547" lon="12.23933093427156"><ele>316.0</ele><time>2026-05-02T14:46:34Z</time></trkpt><trkpt lat="44.00027575495088" lon="12.239228713643355"><ele>315.0</ele><time>2026-05-02T14:46:35Z</time></trkpt><trkpt lat="44.000342409243416" lon="12.239110223259415"><ele>314.0</ele><time>2026-05-02T14:46:36Z</time></trkpt><trkpt lat="44.00041626427544" lon="12.238988861200667"><ele>310.25</ele><time>2026-05-02T14:46:37Z</time></trkpt><trkpt lat="44.00049675716237" lon="12.238869067841977"><ele>306.5</ele><time>2026-05-02T14:46:38Z</time></trkpt><trkpt lat="44.00057316270931" lon="12.238755809519414"><ele>302.75</ele><time>2026-05-02T14:46:39Z</time></trkpt><trkpt lat="44.00065819000088" lon="12.238635946294336"><ele>299.0</ele><time>2026-05-02T14:46:40Z</time></trkpt><trkpt lat="44.00075823252289" lon="12.238515630176515"><ele>304.25</ele><time>2026-05-02T14:46:41Z</time></trkpt><trkpt lat="44.00088614516403" lon="12.238435178451555"><ele>309.5</ele><time>2026-05-02T14:46:42Z</time></trkpt><trkpt lat="44.0010092475515" lon="12.238353901824746"><ele>314.75</ele><time>2026-05-02T14:46:42.999Z</time></trkpt><trkpt lat="44.00111744317877" lon="12.238272021832463"><ele>320.0</ele><time>2026-05-02T14:46:43.999Z</time></trkpt><trkpt lat="44.00122671458416" lon="12.238207555011282"><ele>320.0</ele><time>2026-05-02T14:46:44.999Z</time></trkpt><trkpt lat="44.00132727646758" lon="12.238141246391143"><ele>320.0</ele><time>2026-05-02T14:46:45.999Z</time></trkpt><trkpt lat="44.00143154951823" lon="12.238122610788512"><ele>320.0</ele><time>2026-05-02T14:46:46.999Z</time></trkpt><trkpt lat="44.00154806685138" lon="12.238165976139836"><ele>320.0</ele><time>2026-05-02T14:46:47.999Z</time></trkpt><trkpt lat="44.001665472516066" lon="12.238248879061032"><ele>320.5</ele><time>2026-05-02T14:46:48.999Z</time></trkpt><trkpt lat="44.0017949601068" lon="12.238322528373386"><ele>321.0</ele><time>2026-05-02T14:46:49.999Z</time></trkpt><trkpt lat="44.00193376186578" lon="12.23837427890343"><ele>321.5</ele><time>2026-05-02T14:46:50.999Z</time></trkpt><trkpt lat="44.002083129389085" lon="12.238412940910088"><ele>322.0</ele><time>2026-05-02T14:46:51.999Z</time></trkpt><trkpt lat="44.00223152749811" lon="12.238437104795224"><ele>322.0</ele><time>2026-05-02T14:46:52.999Z</time></trkpt><trkpt lat="44.0023594076785" lon="12.238438892489775"><ele>322.0</ele><time>2026-05-02T14:46:53.999Z</time></trkpt><trkpt lat="44.002480237259974" lon="12.238396224119509"><ele>322.0</ele><time>2026-05-02T14:46:54.999Z</time></trkpt><trkpt lat="44.002595658445465" lon="12.238305506126922"><ele>322.0</ele><time>2026-05-02T14:46:55.999Z</time></trkpt><trkpt lat="44.00270648937631" lon="12.238197128828073"><ele>322.25</ele><time>2026-05-02T14:46:56.999Z</time></trkpt><trkpt lat="44.002802751469304" lon="12.238081844903135"><ele>322.5</ele><time>2026-05-02T14:46:57.999Z</time></trkpt><trkpt lat="44.00288070812541" lon="12.237957194844789"><ele>322.75</ele><time>2026-05-02T14:46:58.999Z</time></trkpt><trkpt lat="44.00293384233143" lon="12.23782981156483"><ele>323.0</ele><time>2026-05-02T14:46:59.999Z</time></trkpt><trkpt lat="44.002974030762324" lon="12.237694735376428"><ele>323.0</ele><time>2026-05-02T14:47:00.999Z</time></trkpt><trkpt lat="44.00300262181265" lon="12.237567026870154"><ele>323.0</ele><time>2026-05-02T14:47:01.999Z</time></trkpt><trkpt lat="44.00302247592925" lon="12.237450613244894"><ele>323.0</ele><time>2026-05-02T14:47:02.999Z</time></trkpt><trkpt lat="44.00303681875901" lon="12.237341687321651"><ele>323.0</ele><time>2026-05-02T14:47:03.999Z</time></trkpt><trkpt lat="44.00303770932481" lon="12.237228730640275"><ele>323.0</ele><time>2026-05-02T14:47:04.999Z</time></trkpt><trkpt lat="44.00301635895255" lon="12.237119912307454"><ele>323.0</ele><time>2026-05-02T14:47:05.999Z</time></trkpt><trkpt lat="44.00297630492893" lon="12.23699521354113"><ele>319.33333333333337</ele><time>2026-05-02T14:47:06.999Z</time></trkpt><trkpt lat="44.00290286678999" lon="12.23683918759071"><ele>315.6666666666667</ele><time>2026-05-02T14:47:08Z</time></trkpt><trkpt lat="44.00281390039537" lon="12.236635511576372"><ele>312.0</ele><time>2026-05-02T14:47:09Z</time></trkpt><trkpt lat="44.002718768598484" lon="12.236395171999993"><ele>309.3333333333333</ele><time>2026-05-02T14:47:10Z</time></trkpt><trkpt lat="44.00261353659704" lon="12.236145585349156"><ele>306.66666666666663</ele><time>2026-05-02T14:47:11Z</time></trkpt><trkpt lat="44.002526187486815" lon="12.235938207214756"><ele>304.0</ele><time>2026-05-02T14:47:12Z</time></trkpt><trkpt lat="44.00245655679902" lon="12.23576576693857"><ele>298.25</ele><time>2026-05-02T14:47:13Z</time></trkpt><trkpt lat="44.0023976286467" lon="12.235603910773191"><ele>292.5</ele><time>2026-05-02T14:47:14Z</time></trkpt><trkpt lat="44.002372486830694" lon="12.235420882528963"><ele>286.75</ele><time>2026-05-02T14:47:15Z</time></trkpt><trkpt lat="44.0024027537145" lon="12.235209366926915"><ele>281.0</ele><time>2026-05-02T14:47:16Z</time></trkpt><trkpt lat="44.00243708175762" lon="12.234973747435978"><ele>286.33333333333337</ele><time>2026-05-02T14:47:17Z</time></trkpt><trkpt lat="44.00251238729525" lon="12.23476022239124"><ele>291.6666666666667</ele><time>2026-05-02T14:47:18Z</time></trkpt><trkpt lat="44.00260340312357" lon="12.234576175222319"><ele>297.0</ele><time>2026-05-02T14:47:19Z</time></trkpt><trkpt lat="44.002696190598876" lon="12.234379394673097"><ele>297.0</ele><time>2026-05-02T14:47:20Z</time></trkpt><trkpt lat="44.002801002270665" lon="12.234185296258824"><ele>297.0</ele><time>2026-05-02T14:47:21Z</time></trkpt><trkpt lat="44.002877776538824" lon="12.233963508574103"><ele>297.0</ele><time>2026-05-02T14:47:22Z</time></trkpt><trkpt lat="44.00293185941761" lon="12.233717416881797"><ele>296.0</ele><time>2026-05-02T14:47:23Z</time></trkpt><trkpt lat="44.002959078240536" lon="12.23346922341717"><ele>295.0</ele><time>2026-05-02T14:47:24Z</time></trkpt><trkpt lat="44.00297187220102" lon="12.233219486385421"><ele>294.0</ele><time>2026-05-02T14:47:25Z</time></trkpt><trkpt lat="44.00299435108253" lon="12.232982978172629"><ele>291.6666666666667</ele><time>2026-05-02T14:47:26Z</time></trkpt><trkpt lat="44.00304660597631" lon="12.232746293623654"><ele>289.33333333333337</ele><time>2026-05-02T14:47:27Z</time></trkpt><trkpt lat="44.00316060875901" lon="12.232523867279404"><ele>287.0</ele><time>2026-05-02T14:47:28Z</time></trkpt><trkpt lat="44.00327790764092" lon="12.232285684927144"><ele>292.33333333333337</ele><time>2026-05-02T14:47:29Z</time></trkpt><trkpt lat="44.00338454546344" lon="12.232025300778071"><ele>297.6666666666667</ele><time>2026-05-02T14:47:30Z</time></trkpt><trkpt lat="44.00348625998995" lon="12.23180431237285"><ele>303.0</ele><time>2026-05-02T14:47:31Z</time></trkpt><trkpt lat="44.00359989377142" lon="12.231611256864376"><ele>302.5</ele><time>2026-05-02T14:47:32Z</time></trkpt><trkpt lat="44.00368502460036" lon="12.231439590524667"><ele>302.0</ele><time>2026-05-02T14:47:33Z</time></trkpt><trkpt lat="44.00375817968885" lon="12.231304258083295"><ele>301.5</ele><time>2026-05-02T14:47:34Z</time></trkpt><trkpt lat="44.00379498524814" lon="12.231155964710418"><ele>301.0</ele><time>2026-05-02T14:47:35Z</time></trkpt><trkpt lat="44.0038079148375" lon="12.230984783523374"><ele>301.0</ele><time>2026-05-02T14:47:36Z</time></trkpt><trkpt lat="44.00379159139663" lon="12.230791844487245"><ele>301.0</ele><time>2026-05-02T14:47:37Z</time></trkpt><trkpt lat="44.00378617843663" lon="12.23057029115301"><ele>301.0</ele><time>2026-05-02T14:47:38Z</time></trkpt><trkpt lat="44.0038213499077" lon="12.230384732224419"><ele>301.0</ele><time>2026-05-02T14:47:39Z</time></trkpt><trkpt lat="44.00389693720849" lon="12.230243419661697"><ele>298.5</ele><time>2026-05-02T14:47:40Z</time></trkpt><trkpt lat="44.00398839347646" lon="12.230117619699303"><ele>296.0</ele><time>2026-05-02T14:47:41Z</time></trkpt><trkpt lat="44.00410005805243" lon="12.22999389607279"><ele>293.5</ele><time>2026-05-02T14:47:42Z</time></trkpt><trkpt lat="44.00422537251149" lon="12.22985756698819"><ele>291.0</ele><time>2026-05-02T14:47:43Z</time></trkpt><trkpt lat="44.00435865677734" lon="12.229735508515398"><ele>287.75</ele><time>2026-05-02T14:47:44Z</time></trkpt><trkpt lat="44.004475795724964" lon="12.229599744772385"><ele>284.5</ele><time>2026-05-02T14:47:45Z</time></trkpt><trkpt lat="44.004574306056995" lon="12.229453116024423"><ele>281.25</ele><time>2026-05-02T14:47:46Z</time></trkpt><trkpt lat="44.00464877272806" lon="12.229334623323671"><ele>278.0</ele><time>2026-05-02T14:47:47Z</time></trkpt><trkpt lat="44.004705379659164" lon="12.229211562903561"><ele>278.0</ele><time>2026-05-02T14:47:48Z</time></trkpt><trkpt lat="44.004728643878806" lon="12.229079513917341"><ele>278.0</ele><time>2026-05-02T14:47:49Z</time></trkpt><trkpt lat="44.00471166779878" lon="12.228936581137177"><ele>278.0</ele><time>2026-05-02T14:47:50Z</time></trkpt><trkpt lat="44.00462806684876" lon="12.228820126421954"><ele>278.0</ele><time>2026-05-02T14:47:51Z</time></trkpt><trkpt lat="44.00451797134156" lon="12.228771481045419"><ele>278.0</ele><time>2026-05-02T14:47:52Z</time></trkpt><trkpt lat="44.00440720184242" lon="12.228788593653883"><ele>273.8</ele><time>2026-05-02T14:47:53Z</time></trkpt><trkpt lat="44.00432552315905" lon="12.228817166013476"><ele>269.6</ele><time>2026-05-02T14:47:54Z</time></trkpt><trkpt lat="44.00428738521247" lon="12.228680183436127"><ele>265.4</ele><time>2026-05-02T14:47:56Z</time></trkpt><trkpt lat="44.00434653509838" lon="12.228575642545692"><ele>261.2</ele><time>2026-05-02T14:47:57Z</time></trkpt><trkpt lat="44.004469717036784" lon="12.228532437185716"><ele>257.0</ele><time>2026-05-02T14:47:58Z</time></trkpt><trkpt lat="44.004612405025725" lon="12.228500384807182"><ele>257.0</ele><time>2026-05-02T14:47:59Z</time></trkpt><trkpt lat="44.00473463044929" lon="12.2285246007325"><ele>257.0</ele><time>2026-05-02T14:48:00Z</time></trkpt><trkpt lat="44.004842737485816" lon="12.228583965099968"><ele>257.0</ele><time>2026-05-02T14:48:01Z</time></trkpt><trkpt lat="44.004922221772574" lon="12.228698341841671"><ele>257.0</ele><time>2026-05-02T14:48:02Z</time></trkpt><trkpt lat="44.005018160385276" lon="12.228761733182907"><ele>257.25</ele><time>2026-05-02T14:48:03Z</time></trkpt><trkpt lat="44.005115195049804" lon="12.228792812159519"><ele>257.5</ele><time>2026-05-02T14:48:04Z</time></trkpt><trkpt lat="44.005236891782594" lon="12.22872324220369"><ele>257.75</ele><time>2026-05-02T14:48:05Z</time></trkpt><trkpt lat="44.00535713564774" lon="12.228599287171532"><ele>258.0</ele><time>2026-05-02T14:48:06Z</time></trkpt><trkpt lat="44.00546752723291" lon="12.228442403189554"><ele>258.0</ele><time>2026-05-02T14:48:07Z</time></trkpt><trkpt lat="44.00560270923576" lon="12.22836577713039"><ele>258.0</ele><time>2026-05-02T14:48:08Z</time></trkpt><trkpt lat="44.00575501404342" lon="12.228298680619483"><ele>258.0</ele><time>2026-05-02T14:48:09Z</time></trkpt><trkpt lat="44.00589226951482" lon="12.22820549955183"><ele>257.6</ele><time>2026-05-02T14:48:10Z</time></trkpt><trkpt lat="44.00599277719419" lon="12.228165203294864"><ele>257.20000000000005</ele><time>2026-05-02T14:48:11Z</time></trkpt><trkpt lat="44.00606976789914" lon="12.228104097328947"><ele>256.8</ele><time>2026-05-02T14:48:12Z</time></trkpt><trkpt lat="44.00610410664211" lon="12.228003408086106"><ele>256.40000000000003</ele><time>2026-05-02T14:48:13Z</time></trkpt><trkpt lat="44.00608333317934" lon="12.22787725494472"><ele>256.0</ele><time>2026-05-02T14:48:14Z</time></trkpt><trkpt lat="44.00600260028811" lon="12.227736455505932"><ele>255.5</ele><time>2026-05-02T14:48:15Z</time></trkpt><trkpt lat="44.005907596963645" lon="12.227566904109104"><ele>255.0</ele><time>2026-05-02T14:48:16Z</time></trkpt><trkpt lat="44.00583445011036" lon="12.227387511993731"><ele>254.5</ele><time>2026-05-02T14:48:17Z</time></trkpt><trkpt lat="44.00578444425508" lon="12.227213529037773"><ele>254.0</ele><time>2026-05-02T14:48:18Z</time></trkpt><trkpt lat="44.005763824756514" lon="12.22700949773524"><ele>251.33333333333334</ele><time>2026-05-02T14:48:19Z</time></trkpt><trkpt lat="44.00578842698741" lon="12.226788851083551"><ele>248.66666666666669</ele><time>2026-05-02T14:48:20Z</time></trkpt><trkpt lat="44.00583171802787" lon="12.226546360161967"><ele>246.0</ele><time>2026-05-02T14:48:21Z</time></trkpt><trkpt lat="44.00587210794288" lon="12.226298172025807"><ele>245.0</ele><time>2026-05-02T14:48:22Z</time></trkpt><trkpt lat="44.0059167561746" lon="12.226069516253332"><ele>244.0</ele><time>2026-05-02T14:48:23Z</time></trkpt><trkpt lat="44.00593741480273" lon="12.225826706315988"><ele>243.0</ele><time>2026-05-02T14:48:24Z</time></trkpt><trkpt lat="44.005937386425586" lon="12.225588094321147"><ele>243.0</ele><time>2026-05-02T14:48:25Z</time></trkpt><trkpt lat="44.00591728839014" lon="12.225341460072107"><ele>243.0</ele><time>2026-05-02T14:48:26Z</time></trkpt><trkpt lat="44.005900541545074" lon="12.225104510688492"><ele>243.0</ele><time>2026-05-02T14:48:27Z</time></trkpt><trkpt lat="44.00588943756996" lon="12.224859679272235"><ele>242.66666666666669</ele><time>2026-05-02T14:48:28Z</time></trkpt><trkpt lat="44.00589111589512" lon="12.22461941694222"><ele>242.33333333333334</ele><time>2026-05-02T14:48:29Z</time></trkpt><trkpt lat="44.005939935805" lon="12.224392338614056"><ele>242.0</ele><time>2026-05-02T14:48:30Z</time></trkpt><trkpt lat="44.00602427525349" lon="12.224167908304047"><ele>243.66666666666669</ele><time>2026-05-02T14:48:31Z</time></trkpt><trkpt lat="44.00613298392657" lon="12.22396307101411"><ele>245.33333333333331</ele><time>2026-05-02T14:48:32Z</time></trkpt><trkpt lat="44.006225378939504" lon="12.223770085239808"><ele>247.0</ele><time>2026-05-02T14:48:33Z</time></trkpt><trkpt lat="44.006294889847766" lon="12.223625906015538"><ele>247.0</ele><time>2026-05-02T14:48:34Z</time></trkpt><trkpt lat="44.00633277619744" lon="12.22348885023634"><ele>247.0</ele><time>2026-05-02T14:48:35Z</time></trkpt><trkpt lat="44.00631857116413" lon="12.223350633008788"><ele>247.0</ele><time>2026-05-02T14:48:36Z</time></trkpt><trkpt lat="44.00625737575224" lon="12.223228892354118"><ele>247.0</ele><time>2026-05-02T14:48:37Z</time></trkpt><trkpt lat="44.006154351151565" lon="12.223144341878418"><ele>247.0</ele><time>2026-05-02T14:48:38Z</time></trkpt><trkpt lat="44.00603422737288" lon="12.223070478048315"><ele>249.75</ele><time>2026-05-02T14:48:39Z</time></trkpt><trkpt lat="44.005944429379575" lon="12.222943171221564"><ele>252.5</ele><time>2026-05-02T14:48:39.999Z</time></trkpt><trkpt lat="44.00592227853559" lon="12.222749458640118"><ele>255.25</ele><time>2026-05-02T14:48:40.999Z</time></trkpt><trkpt lat="44.0058853985932" lon="12.222544419081943"><ele>258.0</ele><time>2026-05-02T14:48:41.999Z</time></trkpt><trkpt lat="44.00587149343284" lon="12.222323493006105"><ele>258.0</ele><time>2026-05-02T14:48:42.999Z</time></trkpt><trkpt lat="44.00585871287119" lon="12.22211491125822"><ele>258.0</ele><time>2026-05-02T14:48:43.999Z</time></trkpt><trkpt lat="44.00589926484777" lon="12.221927553643367"><ele>258.0</ele><time>2026-05-02T14:48:44.999Z</time></trkpt><trkpt lat="44.00600160311425" lon="12.221777289438029"><ele>258.0</ele><time>2026-05-02T14:48:45.999Z</time></trkpt><trkpt lat="44.00610707748979" lon="12.221693238897263"><ele>258.0</ele><time>2026-05-02T14:48:46.999Z</time></trkpt><trkpt lat="44.00623295524591" lon="12.22162794904201"><ele>258.0</ele><time>2026-05-02T14:48:47.999Z</time></trkpt><trkpt lat="44.00637856782471" lon="12.221537999237253"><ele>258.0</ele><time>2026-05-02T14:48:48.999Z</time></trkpt><trkpt lat="44.00651276180281" lon="12.22140860090336"><ele>259.0</ele><time>2026-05-02T14:48:49.999Z</time></trkpt><trkpt lat="44.00660988408659" lon="12.221213898765217"><ele>260.0</ele><time>2026-05-02T14:48:50.999Z</time></trkpt><trkpt lat="44.00669251405541" lon="12.221001822212624"><ele>261.0</ele><time>2026-05-02T14:48:51.999Z</time></trkpt><trkpt lat="44.00679032829336" lon="12.220784652221012"><ele>258.3333333333333</ele><time>2026-05-02T14:48:52.999Z</time></trkpt><trkpt lat="44.00690870707664" lon="12.220588108352434"><ele>255.66666666666666</ele><time>2026-05-02T14:48:53.999Z</time></trkpt><trkpt lat="44.00703184945501" lon="12.220366569759358"><ele>253.0</ele><time>2026-05-02T14:48:54.999Z</time></trkpt><trkpt lat="44.007119645765094" lon="12.220119361406688"><ele>253.0</ele><time>2026-05-02T14:48:55.999Z</time></trkpt><trkpt lat="44.00718762133389" lon="12.219882120429055"><ele>253.0</ele><time>2026-05-02T14:48:56.999Z</time></trkpt><trkpt lat="44.00725733544189" lon="12.219694914553124"><ele>253.0</ele><time>2026-05-02T14:48:57.999Z</time></trkpt><trkpt lat="44.007363857956165" lon="12.21954221985588"><ele>254.5</ele><time>2026-05-02T14:48:58.999Z</time></trkpt><trkpt lat="44.007511036572105" lon="12.219429489210716"><ele>256.0</ele><time>2026-05-02T14:48:59.999Z</time></trkpt><trkpt lat="44.00763186687859" lon="12.21933884899902"><ele>257.5</ele><time>2026-05-02T14:49:00.999Z</time></trkpt><trkpt lat="44.0077074946573" lon="12.219188997009983"><ele>259.0</ele><time>2026-05-02T14:49:01.999Z</time></trkpt><trkpt lat="44.00775010951685" lon="12.218976015579237"><ele>259.66666666666663</ele><time>2026-05-02T14:49:02.999Z</time></trkpt><trkpt lat="44.00778923031203" lon="12.218713146302088"><ele>260.3333333333333</ele><time>2026-05-02T14:49:03.999Z</time></trkpt><trkpt lat="44.007835261306646" lon="12.218451140652443"><ele>261.0</ele><time>2026-05-02T14:49:04.999Z</time></trkpt><trkpt lat="44.00785849664182" lon="12.218208825170366"><ele>258.6666666666667</ele><time>2026-05-02T14:49:05.999Z</time></trkpt><trkpt lat="44.0078510774349" lon="12.21796531527486"><ele>256.33333333333337</ele><time>2026-05-02T14:49:06.999Z</time></trkpt><trkpt lat="44.007816431206585" lon="12.217701805783683"><ele>254.0</ele><time>2026-05-02T14:49:07.999Z</time></trkpt><trkpt lat="44.007763769314835" lon="12.21743749468429"><ele>251.5</ele><time>2026-05-02T14:49:08.999Z</time></trkpt><trkpt lat="44.00772425819321" lon="12.217194698832103"><ele>249.0</ele><time>2026-05-02T14:49:09.999Z</time></trkpt><trkpt lat="44.00769456516499" lon="12.216989681821298"><ele>246.5</ele><time>2026-05-02T14:49:10.999Z</time></trkpt><trkpt lat="44.007668065975075" lon="12.216835183062061"><ele>244.0</ele><time>2026-05-02T14:49:11.999Z</time></trkpt><trkpt lat="44.00766163413058" lon="12.216725896349253"><ele>244.0</ele><time>2026-05-02T14:49:12.999Z</time></trkpt><trkpt lat="44.00768805767936" lon="12.216625306325945"><ele>243.99999999999997</ele><time>2026-05-02T14:49:14Z</time></trkpt><trkpt lat="44.00775713594266" lon="12.216576769705021"><ele>243.99999999999997</ele><time>2026-05-02T14:49:15Z</time></trkpt><trkpt lat="44.007847725231194" lon="12.216601515486706"><ele>244.0</ele><time>2026-05-02T14:49:16Z</time></trkpt><trkpt lat="44.007919948940035" lon="12.216722357498483"><ele>244.0</ele><time>2026-05-02T14:49:17Z</time></trkpt><trkpt lat="44.00801363352614" lon="12.2168310522255"><ele>244.0</ele><time>2026-05-02T14:49:18Z</time></trkpt><trkpt lat="44.00809604541805" lon="12.216911298123318"><ele>243.99999999999997</ele><time>2026-05-02T14:49:19Z</time></trkpt><trkpt lat="44.008177545092614" lon="12.216897602060865"><ele>243.99999999999997</ele><time>2026-05-02T14:49:20Z</time></trkpt><trkpt lat="44.00824156902755" lon="12.216801579248747"><ele>244.0</ele><time>2026-05-02T14:49:21Z</time></trkpt><trkpt lat="44.00826313844644" lon="12.216650463178162"><ele>244.0</ele><time>2026-05-02T14:49:22Z</time></trkpt><trkpt lat="44.0082761245852" lon="12.216467740186232"><ele>240.33333333333331</ele><time>2026-05-02T14:49:23Z</time></trkpt><trkpt lat="44.00832923744437" lon="12.216273477956479"><ele>236.66666666666669</ele><time>2026-05-02T14:49:24Z</time></trkpt><trkpt lat="44.00842822659568" lon="12.216082203108183"><ele>233.0</ele><time>2026-05-02T14:49:25Z</time></trkpt><trkpt lat="44.008543483324345" lon="12.215874457500213"><ele>233.0</ele><time>2026-05-02T14:49:26Z</time></trkpt><trkpt lat="44.00864506775816" lon="12.215675208745111"><ele>233.0</ele><time>2026-05-02T14:49:27Z</time></trkpt><trkpt lat="44.0087210277963" lon="12.215497972525306"><ele>233.0</ele><time>2026-05-02T14:49:28Z</time></trkpt><trkpt lat="44.008754414037654" lon="12.215301054694326"><ele>231.5</ele><time>2026-05-02T14:49:29Z</time></trkpt><trkpt lat="44.0087444324184" lon="12.215077887737719"><ele>230.0</ele><time>2026-05-02T14:49:30Z</time></trkpt><trkpt lat="44.0087361863964" lon="12.214883662164084"><ele>228.5</ele><time>2026-05-02T14:49:31Z</time></trkpt><trkpt lat="44.00876025081491" lon="12.214734580502615"><ele>227.0</ele><time>2026-05-02T14:49:32Z</time></trkpt><trkpt lat="44.00883269386643" lon="12.21458449421302"><ele>222.0</ele><time>2026-05-02T14:49:33Z</time></trkpt><trkpt lat="44.00894034060062" lon="12.214445997556988"><ele>217.0</ele><time>2026-05-02T14:49:34Z</time></trkpt><trkpt lat="44.00904899600307" lon="12.214293103103811"><ele>212.0</ele><time>2026-05-02T14:49:35Z</time></trkpt><trkpt lat="44.00918561955115" lon="12.214152607492947"><ele>207.66666666666669</ele><time>2026-05-02T14:49:36Z</time></trkpt><trkpt lat="44.00931260869179" lon="12.213982412044404"><ele>203.33333333333331</ele><time>2026-05-02T14:49:37Z</time></trkpt><trkpt lat="44.00947500915373" lon="12.213885379380667"><ele>199.0</ele><time>2026-05-02T14:49:38Z</time></trkpt><trkpt lat="44.00962633674549" lon="12.213759625779478"><ele>199.0</ele><time>2026-05-02T14:49:39Z</time></trkpt><trkpt lat="44.00977224238386" lon="12.213652073543475"><ele>199.0</ele><time>2026-05-02T14:49:40Z</time></trkpt><trkpt lat="44.009909501172956" lon="12.213520414449473"><ele>199.0</ele><time>2026-05-02T14:49:41Z</time></trkpt><trkpt lat="44.01003465889239" lon="12.213363895909529"><ele>198.0</ele><time>2026-05-02T14:49:42Z</time></trkpt><trkpt lat="44.010137247170235" lon="12.21318163775424"><ele>197.0</ele><time>2026-05-02T14:49:43Z</time></trkpt><trkpt lat="44.01022943848256" lon="12.21299646697976"><ele>196.0</ele><time>2026-05-02T14:49:44Z</time></trkpt><trkpt lat="44.010325873617504" lon="12.212820606078987"><ele>195.0</ele><time>2026-05-02T14:49:45Z</time></trkpt><trkpt lat="44.01042427194258" lon="12.212653074909198"><ele>194.0</ele><time>2026-05-02T14:49:46Z</time></trkpt><trkpt lat="44.01051629259839" lon="12.21250619909721"><ele>193.0</ele><time>2026-05-02T14:49:47Z</time></trkpt><trkpt lat="44.01059800287875" lon="12.212366038530744"><ele>192.0</ele><time>2026-05-02T14:49:48Z</time></trkpt><trkpt lat="44.010646439224985" lon="12.212217177691766"><ele>190.8</ele><time>2026-05-02T14:49:49Z</time></trkpt><trkpt lat="44.0106454552645" lon="12.2120739552621"><ele>189.6</ele><time>2026-05-02T14:49:50Z</time></trkpt><trkpt lat="44.01060339743518" lon="12.21194119791557"><ele>188.4</ele><time>2026-05-02T14:49:51Z</time></trkpt><trkpt lat="44.01051622044941" lon="12.211845840320821"><ele>187.20000000000002</ele><time>2026-05-02T14:49:52Z</time></trkpt><trkpt lat="44.010400725867186" lon="12.211772400013214"><ele>186.0</ele><time>2026-05-02T14:49:53Z</time></trkpt><trkpt lat="44.01027075239205" lon="12.21169736642597"><ele>186.0</ele><time>2026-05-02T14:49:54Z</time></trkpt><trkpt lat="44.01013929202471" lon="12.211626795477919"><ele>186.0</ele><time>2026-05-02T14:49:55Z</time></trkpt><trkpt lat="44.01000252539788" lon="12.211521391283263"><ele>186.0</ele><time>2026-05-02T14:49:56Z</time></trkpt><trkpt lat="44.009913932689464" lon="12.211429409519438"><ele>186.0</ele><time>2026-05-02T14:49:57Z</time></trkpt><trkpt lat="44.00987194836087" lon="12.211332531356382"><ele>184.25</ele><time>2026-05-02T14:49:58Z</time></trkpt><trkpt lat="44.009869492206384" lon="12.211180249009642"><ele>182.5</ele><time>2026-05-02T14:49:59Z</time></trkpt><trkpt lat="44.00996696995193" lon="12.211043012583007"><ele>180.75</ele><time>2026-05-02T14:50:00Z</time></trkpt><trkpt lat="44.01006764018988" lon="12.210890416662663"><ele>179.0</ele><time>2026-05-02T14:50:01Z</time></trkpt><trkpt lat="44.01019110157894" lon="12.210740352472286"><ele>175.0</ele><time>2026-05-02T14:50:02Z</time></trkpt><trkpt lat="44.01030986179451" lon="12.210552073339066"><ele>171.0</ele><time>2026-05-02T14:50:03Z</time></trkpt><trkpt lat="44.01040003293082" lon="12.210352123290297"><ele>167.0</ele><time>2026-05-02T14:50:04Z</time></trkpt><trkpt lat="44.01043192032033" lon="12.210107050705888"><ele>167.0</ele><time>2026-05-02T14:50:05Z</time></trkpt><trkpt lat="44.01043973225426" lon="12.20985246329826"><ele>167.0</ele><time>2026-05-02T14:50:06Z</time></trkpt><trkpt lat="44.010436236847376" lon="12.209593921634328"><ele>167.0</ele><time>2026-05-02T14:50:07Z</time></trkpt><trkpt lat="44.0104506583816" lon="12.209336574326551"><ele>164.33333333333331</ele><time>2026-05-02T14:50:08Z</time></trkpt><trkpt lat="44.01046887349355" lon="12.209073163932958"><ele>161.66666666666666</ele><time>2026-05-02T14:50:09Z</time></trkpt><trkpt lat="44.01049747433805" lon="12.208806016320398"><ele>159.0</ele><time>2026-05-02T14:50:10Z</time></trkpt><trkpt lat="44.01054938124558" lon="12.208548086305356"><ele>157.25</ele><time>2026-05-02T14:50:11Z</time></trkpt><trkpt lat="44.010595456792196" lon="12.20836096408383"><ele>155.5</ele><time>2026-05-02T14:50:12Z</time></trkpt><trkpt lat="44.01061220544087" lon="12.208185939820371"><ele>153.75</ele><time>2026-05-02T14:50:13Z</time></trkpt><trkpt lat="44.010564932726474" lon="12.207992228362071"><ele>152.0</ele><time>2026-05-02T14:50:14Z</time></trkpt><trkpt lat="44.01048676211242" lon="12.207792864531017"><ele>150.5</ele><time>2026-05-02T14:50:15Z</time></trkpt><trkpt lat="44.01048098061449" lon="12.207578194708846"><ele>149.0</ele><time>2026-05-02T14:50:16Z</time></trkpt><trkpt lat="44.0104834298226" lon="12.20739929334514"><ele>147.5</ele><time>2026-05-02T14:50:17Z</time></trkpt><trkpt lat="44.01048968827851" lon="12.20727278287387"><ele>146.0</ele><time>2026-05-02T14:50:18Z</time></trkpt><trkpt lat="44.01043378911692" lon="12.207176046206783"><ele>146.0</ele><time>2026-05-02T14:50:19Z</time></trkpt><trkpt lat="44.01031897834843" lon="12.207135070473857"><ele>146.0</ele><time>2026-05-02T14:50:20Z</time></trkpt><trkpt lat="44.01019086816257" lon="12.207165334384426"><ele>146.0</ele><time>2026-05-02T14:50:21Z</time></trkpt><trkpt lat="44.010086517801916" lon="12.20728637309346"><ele>146.0</ele><time>2026-05-02T14:50:22Z</time></trkpt><trkpt lat="44.00999984879879" lon="12.20748482313286"><ele>143.33333333333331</ele><time>2026-05-02T14:50:23Z</time></trkpt><trkpt lat="44.00990747478627" lon="12.20770407972557"><ele>140.66666666666666</ele><time>2026-05-02T14:50:24Z</time></trkpt><trkpt lat="44.0098334713217" lon="12.207890772701095"><ele>138.0</ele><time>2026-05-02T14:50:25Z</time></trkpt><trkpt lat="44.009774173044" lon="12.208036187616088"><ele>138.0</ele><time>2026-05-02T14:50:26Z</time></trkpt><trkpt lat="44.00973281559345" lon="12.208149236981079"><ele>138.0</ele><time>2026-05-02T14:50:27Z</time></trkpt><trkpt lat="44.00969972642217" lon="12.208241442774538"><ele>138.0</ele><time>2026-05-02T14:50:28Z</time></trkpt><trkpt lat="44.00964618192967" lon="12.208291649076488"><ele>138.0</ele><time>2026-05-02T14:50:29Z</time></trkpt><trkpt lat="44.00957651316059" lon="12.208253520830342"><ele>138.0</ele><time>2026-05-02T14:50:30Z</time></trkpt><trkpt lat="44.009541949524916" lon="12.208151933352681"><ele>138.0</ele><time>2026-05-02T14:50:31Z</time></trkpt><trkpt lat="44.00953460463754" lon="12.208060564990175"><ele>138.0</ele><time>2026-05-02T14:50:32Z</time></trkpt><trkpt lat="44.00956970373628" lon="12.207951181610659"><ele>138.0</ele><time>2026-05-02T14:50:33Z</time></trkpt><trkpt lat="44.009591308183836" lon="12.207795543063481"><ele>138.0</ele><time>2026-05-02T14:50:34Z</time></trkpt><trkpt lat="44.0096060297306" lon="12.207605523950695"><ele>138.0</ele><time>2026-05-02T14:50:35Z</time></trkpt><trkpt lat="44.009587949840046" lon="12.207397263231224"><ele>135.0</ele><time>2026-05-02T14:50:36Z</time></trkpt><trkpt lat="44.009555240313084" lon="12.207169989557418"><ele>132.0</ele><time>2026-05-02T14:50:37Z</time></trkpt><trkpt lat="44.00955598522385" lon="12.20693086162308"><ele>129.0</ele><time>2026-05-02T14:50:38Z</time></trkpt><trkpt lat="44.00956864944931" lon="12.206675035834708"><ele>127.66666666666666</ele><time>2026-05-02T14:50:39Z</time></trkpt><trkpt lat="44.009551150449994" lon="12.206412241214062"><ele>126.33333333333333</ele><time>2026-05-02T14:50:40Z</time></trkpt><trkpt lat="44.00949402794305" lon="12.206156301215914"><ele>125.0</ele><time>2026-05-02T14:50:40.999Z</time></trkpt><trkpt lat="44.009430586675975" lon="12.205955954619652"><ele>125.0</ele><time>2026-05-02T14:50:41.999Z</time></trkpt><trkpt lat="44.00939985116394" lon="12.205783242097828"><ele>125.0</ele><time>2026-05-02T14:50:42.999Z</time></trkpt><trkpt lat="44.00944576521421" lon="12.205634975494675"><ele>125.0</ele><time>2026-05-02T14:50:43.999Z</time></trkpt><trkpt lat="44.00945092951982" lon="12.205487320009219"><ele>125.0</ele><time>2026-05-02T14:50:44.999Z</time></trkpt><trkpt lat="44.00947192214083" lon="12.205385346229107"><ele>125.0</ele><time>2026-05-02T14:50:45.999Z</time></trkpt><trkpt lat="44.00943342652805" lon="12.205301736174093"><ele>125.0</ele><time>2026-05-02T14:50:46.999Z</time></trkpt><trkpt lat="44.00934381553702" lon="12.205267493871444"><ele>125.0</ele><time>2026-05-02T14:50:47.999Z</time></trkpt><trkpt lat="44.00926072882162" lon="12.205341559079827"><ele>125.0</ele><time>2026-05-02T14:50:48.999Z</time></trkpt><trkpt lat="44.009210836648556" lon="12.205492573509227"><ele>125.0</ele><time>2026-05-02T14:50:49.999Z</time></trkpt><trkpt lat="44.00919026132927" lon="12.205684467022532"><ele>125.0</ele><time>2026-05-02T14:50:50.999Z</time></trkpt><trkpt lat="44.00917266053467" lon="12.20588095569954"><ele>125.0</ele><time>2026-05-02T14:50:51.999Z</time></trkpt><trkpt lat="44.00915601120605" lon="12.206029164104743"><ele>125.0</ele><time>2026-05-02T14:50:52.999Z</time></trkpt><trkpt lat="44.0090540880207" lon="12.20609546747921"><ele>125.0</ele><time>2026-05-02T14:50:54.999Z</time></trkpt><trkpt lat="44.0089962485624" lon="12.206012929583412"><ele>125.0</ele><time>2026-05-02T14:50:55.999Z</time></trkpt><trkpt lat="44.00898917243121" lon="12.205883935974272"><ele>122.5</ele><time>2026-05-02T14:50:56.999Z</time></trkpt><trkpt lat="44.00901559601169" lon="12.205717417683225"><ele>120.0</ele><time>2026-05-02T14:50:57.999Z</time></trkpt><trkpt lat="44.009021141944416" lon="12.205527028217048"><ele>117.5</ele><time>2026-05-02T14:50:58.999Z</time></trkpt><trkpt lat="44.00900300977069" lon="12.205328675959631"><ele>115.0</ele><time>2026-05-02T14:50:59.999Z</time></trkpt><trkpt lat="44.00896337184117" lon="12.205126518874065"><ele>112.66666666666667</ele><time>2026-05-02T14:51:00.999Z</time></trkpt><trkpt lat="44.00889774606435" lon="12.204921783823279"><ele>110.33333333333334</ele><time>2026-05-02T14:51:01.999Z</time></trkpt><trkpt lat="44.008825514052006" lon="12.204718437941622"><ele>108.0</ele><time>2026-05-02T14:51:02.999Z</time></trkpt><trkpt lat="44.008774888611484" lon="12.204545970952129"><ele>105.80000000000001</ele><time>2026-05-02T14:51:03.999Z</time></trkpt><trkpt lat="44.00874786296284" lon="12.204405728967387"><ele>103.60000000000001</ele><time>2026-05-02T14:51:04.999Z</time></trkpt><trkpt lat="44.008758921312705" lon="12.2042869486066"><ele>101.4</ele><time>2026-05-02T14:51:05.999Z</time></trkpt><trkpt lat="44.00882697682814" lon="12.204199445546198"><ele>99.19999999999999</ele><time>2026-05-02T14:51:06.999Z</time></trkpt><trkpt lat="44.00892211122455" lon="12.204159848729555"><ele>97.0</ele><time>2026-05-02T14:51:07.999Z</time></trkpt><trkpt lat="44.00903266001475" lon="12.204209140345034"><ele>97.0</ele><time>2026-05-02T14:51:08.999Z</time></trkpt><trkpt lat="44.009155304864166" lon="12.204218617157693"><ele>97.0</ele><time>2026-05-02T14:51:09.999Z</time></trkpt><trkpt lat="44.009284603419395" lon="12.20422044061324"><ele>97.0</ele><time>2026-05-02T14:51:10.999Z</time></trkpt><trkpt lat="44.009415006322214" lon="12.204194326246611"><ele>97.0</ele><time>2026-05-02T14:51:11.999Z</time></trkpt><trkpt lat="44.00953694884852" lon="12.20415284150864"><ele>98.5</ele><time>2026-05-02T14:51:12.999Z</time></trkpt><trkpt lat="44.00965886067858" lon="12.204120814107961"><ele>100.0</ele><time>2026-05-02T14:51:13.999Z</time></trkpt><trkpt lat="44.00977659911986" lon="12.204093081582224"><ele>101.5</ele><time>2026-05-02T14:51:14.999Z</time></trkpt><trkpt lat="44.00989440705476" lon="12.204067377700635"><ele>103.0</ele><time>2026-05-02T14:51:15.999Z</time></trkpt><trkpt lat="44.01000621824023" lon="12.204040577067817"><ele>103.0</ele><time>2026-05-02T14:51:16.999Z</time></trkpt><trkpt lat="44.01011361206164" lon="12.204017915190558"><ele>103.0</ele><time>2026-05-02T14:51:17.999Z</time></trkpt><trkpt lat="44.01021925501274" lon="12.204006941567814"><ele>103.0</ele><time>2026-05-02T14:51:18.999Z</time></trkpt><trkpt lat="44.010323777108106" lon="12.204017575008999"><ele>103.0</ele><time>2026-05-02T14:51:20Z</time></trkpt><trkpt lat="44.010420301386894" lon="12.204079247256843"><ele>103.0</ele><time>2026-05-02T14:51:21Z</time></trkpt><trkpt lat="44.01051940582046" lon="12.204131813340325"><ele>103.0</ele><time>2026-05-02T14:51:22Z</time></trkpt><trkpt lat="44.01060852203899" lon="12.204194776264373"><ele>103.0</ele><time>2026-05-02T14:51:23Z</time></trkpt><trkpt lat="44.01070180012874" lon="12.204242806510784"><ele>103.0</ele><time>2026-05-02T14:51:24Z</time></trkpt><trkpt lat="44.01078407874496" lon="12.204306418010253"><ele>103.0</ele><time>2026-05-02T14:51:25Z</time></trkpt><trkpt lat="44.01086782746607" lon="12.204364463113524"><ele>103.0</ele><time>2026-05-02T14:51:26Z</time></trkpt><trkpt lat="44.010952455987926" lon="12.204415936238064"><ele>101.33333333333334</ele><time>2026-05-02T14:51:27Z</time></trkpt><trkpt lat="44.01104235396791" lon="12.20438079337159"><ele>99.66666666666667</ele><time>2026-05-02T14:51:28Z</time></trkpt><trkpt lat="44.01111346271265" lon="12.204343793212512"><ele>98.0</ele><time>2026-05-02T14:51:29Z</time></trkpt><trkpt lat="44.01120464402239" lon="12.204289081756178"><ele>96.33333333333334</ele><time>2026-05-02T14:51:31Z</time></trkpt><trkpt lat="44.01126915007611" lon="12.204256521083614"><ele>94.66666666666667</ele><time>2026-05-02T14:51:33Z</time></trkpt><trkpt lat="44.011360389176204" lon="12.204330199597992"><ele>93.0</ele><time>2026-05-02T14:51:34Z</time></trkpt><trkpt lat="44.011455177456654" lon="12.20438708529766"><ele>93.0</ele><time>2026-05-02T14:51:35Z</time></trkpt><trkpt lat="44.011570556879136" lon="12.204433926978512"><ele>93.0</ele><time>2026-05-02T14:51:36Z</time></trkpt><trkpt lat="44.01169788187628" lon="12.204486551129497"><ele>93.0</ele><time>2026-05-02T14:51:37Z</time></trkpt><trkpt lat="44.011810501280095" lon="12.204538391371594"><ele>93.0</ele><time>2026-05-02T14:51:38Z</time></trkpt><trkpt lat="44.01191655728333" lon="12.204591199073871"><ele>92.0</ele><time>2026-05-02T14:51:39Z</time></trkpt><trkpt lat="44.01202255170751" lon="12.2046405304183"><ele>91.0</ele><time>2026-05-02T14:51:40Z</time></trkpt><trkpt lat="44.01213920158895" lon="12.204681821843264"><ele>90.0</ele><time>2026-05-02T14:51:41Z</time></trkpt><trkpt lat="44.01225528992979" lon="12.204739159007643"><ele>89.0</ele><time>2026-05-02T14:51:42Z</time></trkpt><trkpt lat="44.01237539798274" lon="12.204792174103986"><ele>88.75</ele><time>2026-05-02T14:51:43Z</time></trkpt><trkpt lat="44.01250163341886" lon="12.204845821705899"><ele>88.5</ele><time>2026-05-02T14:51:44Z</time></trkpt><trkpt lat="44.01262170120643" lon="12.20489807878378"><ele>88.25</ele><time>2026-05-02T14:51:45Z</time></trkpt><trkpt lat="44.012748512313614" lon="12.204952122873447"><ele>88.0</ele><time>2026-05-02T14:51:46Z</time></trkpt><trkpt lat="44.01287184908551" lon="12.205006635985223"><ele>88.0</ele><time>2026-05-02T14:51:47Z</time></trkpt><trkpt lat="44.012994142638526" lon="12.205060379813442"><ele>88.0</ele><time>2026-05-02T14:51:48Z</time></trkpt><trkpt lat="44.01312043161815" lon="12.205114160479095"><ele>88.0</ele><time>2026-05-02T14:51:49Z</time></trkpt><trkpt lat="44.013246433896036" lon="12.205162015423"><ele>88.0</ele><time>2026-05-02T14:51:50Z</time></trkpt><trkpt lat="44.01336885318493" lon="12.205219860739701"><ele>87.75</ele><time>2026-05-02T14:51:51Z</time></trkpt><trkpt lat="44.01349410985564" lon="12.205278939510098"><ele>87.5</ele><time>2026-05-02T14:51:52Z</time></trkpt><trkpt lat="44.01362104708451" lon="12.205332489237641"><ele>87.25</ele><time>2026-05-02T14:51:53Z</time></trkpt><trkpt lat="44.013748735103206" lon="12.205387684736936"><ele>87.0</ele><time>2026-05-02T14:51:54Z</time></trkpt><trkpt lat="44.01387487041145" lon="12.205441385723967"><ele>87.0</ele><time>2026-05-02T14:51:55Z</time></trkpt><trkpt lat="44.014004794587095" lon="12.205483221932571"><ele>87.0</ele><time>2026-05-02T14:51:56Z</time></trkpt><trkpt lat="44.0141377946405" lon="12.205517587403708"><ele>87.0</ele><time>2026-05-02T14:51:57Z</time></trkpt><trkpt lat="44.01426867696917" lon="12.205540549614671"><ele>87.0</ele><time>2026-05-02T14:51:58Z</time></trkpt><trkpt lat="44.01438950299311" lon="12.205546141579655"><ele>87.0</ele><time>2026-05-02T14:51:59Z</time></trkpt><trkpt lat="44.01449465823808" lon="12.205541656465018"><ele>87.0</ele><time>2026-05-02T14:52:00Z</time></trkpt><trkpt lat="44.01457980668796" lon="12.20552012868751"><ele>87.0</ele><time>2026-05-02T14:52:01Z</time></trkpt><trkpt lat="44.01464794058483" lon="12.205502334044004"><ele>87.0</ele><time>2026-05-02T14:52:02Z</time></trkpt><trkpt lat="44.014737363112005" lon="12.205513182719068"><ele>87.0</ele><time>2026-05-02T14:52:04Z</time></trkpt><trkpt lat="44.01472632148579" lon="12.205648136034196"><ele>87.0</ele><time>2026-05-02T14:52:07Z</time></trkpt><trkpt lat="44.0146763421742" lon="12.205731564866127"><ele>87.0</ele><time>2026-05-02T14:52:09Z</time></trkpt></trkseg></trk></gpx>